<?xml version="1.0" encoding="UTF-8" standalone="no" ?>
<gpx xmlns="http://www.topografix.com/GPX/1/1" xmlns:xsi="http://www.w3.org/2001/XMLSchema-instance" xsi:schemaLocation="http://www.topografix.com/GPX/1/1 http://www.topografix.com/GPX/1/1/gpx.xsd" version="1.1" creator="VisuGPX - https://www.visugpx.com">
  <metadata>
    <name>Descente du Suquet et de St Pierre</name>
    <desc><![CDATA[Les sentiers muletiers de Vésubie par excellence. Bel enchainement.]]></desc>
  </metadata>
  <trk>
    <name><![CDATA[Descente du Suquet et de St Pierre_1]]></name>
    <trkseg>
      <trkpt lat="43.94267" lon="7.28289">
        <ele>341.600006</ele>
        <time>2013-12-07T09:03:32Z</time>
      </trkpt>
      <trkpt lat="43.94268" lon="7.28289">
        <ele>341.475006</ele>
        <time>2013-12-07T09:03:33Z</time>
      </trkpt>
      <trkpt lat="43.94277" lon="7.28291">
        <ele>345.4</ele>
        <time>2013-12-07T09:05:10Z</time>
      </trkpt>
      <trkpt lat="43.94276" lon="7.28291">
        <ele>349.1</ele>
        <time>2013-12-07T09:05:50Z</time>
      </trkpt>
      <trkpt lat="43.94267" lon="7.28287">
        <ele>348.7</ele>
        <time>2013-12-07T09:06:06Z</time>
      </trkpt>
      <trkpt lat="43.94275" lon="7.28293">
        <ele>339.7</ele>
        <time>2013-12-07T09:07:55Z</time>
      </trkpt>
      <trkpt lat="43.94277" lon="7.28294">
        <ele>339.8</ele>
        <time>2013-12-07T09:07:56Z</time>
      </trkpt>
      <trkpt lat="43.94292" lon="7.28295">
        <ele>340.3</ele>
        <time>2013-12-07T09:08:02Z</time>
      </trkpt>
      <trkpt lat="43.94301" lon="7.28293">
        <ele>340.3</ele>
        <time>2013-12-07T09:08:05Z</time>
      </trkpt>
      <trkpt lat="43.94307" lon="7.28288">
        <ele>340.5</ele>
        <time>2013-12-07T09:08:07Z</time>
      </trkpt>
      <trkpt lat="43.94313" lon="7.28287">
        <ele>340.5</ele>
        <time>2013-12-07T09:08:09Z</time>
      </trkpt>
      <trkpt lat="43.9432" lon="7.28289">
        <ele>340.7</ele>
        <time>2013-12-07T09:08:11Z</time>
      </trkpt>
      <trkpt lat="43.94326" lon="7.28291">
        <ele>340.8</ele>
        <time>2013-12-07T09:08:13Z</time>
      </trkpt>
      <trkpt lat="43.94332" lon="7.28293">
        <ele>341</ele>
        <time>2013-12-07T09:08:15Z</time>
      </trkpt>
      <trkpt lat="43.94339" lon="7.28296">
        <ele>341.1</ele>
        <time>2013-12-07T09:08:17Z</time>
      </trkpt>
      <trkpt lat="43.94346" lon="7.28298">
        <ele>341.2</ele>
        <time>2013-12-07T09:08:19Z</time>
      </trkpt>
      <trkpt lat="43.94353" lon="7.28301">
        <ele>341.4</ele>
        <time>2013-12-07T09:08:21Z</time>
      </trkpt>
      <trkpt lat="43.9436" lon="7.28304">
        <ele>341.7</ele>
        <time>2013-12-07T09:08:23Z</time>
      </trkpt>
      <trkpt lat="43.94367" lon="7.28308">
        <ele>341.9</ele>
        <time>2013-12-07T09:08:25Z</time>
      </trkpt>
      <trkpt lat="43.94374" lon="7.28311">
        <ele>342.3</ele>
        <time>2013-12-07T09:08:27Z</time>
      </trkpt>
      <trkpt lat="43.9438" lon="7.28314">
        <ele>342.6</ele>
        <time>2013-12-07T09:08:29Z</time>
      </trkpt>
      <trkpt lat="43.94387" lon="7.28317">
        <ele>342.9</ele>
        <time>2013-12-07T09:08:31Z</time>
      </trkpt>
      <trkpt lat="43.94394" lon="7.2832">
        <ele>343.2</ele>
        <time>2013-12-07T09:08:33Z</time>
      </trkpt>
      <trkpt lat="43.94401" lon="7.28323">
        <ele>343.4</ele>
        <time>2013-12-07T09:08:35Z</time>
      </trkpt>
      <trkpt lat="43.94408" lon="7.28326">
        <ele>343.7</ele>
        <time>2013-12-07T09:08:37Z</time>
      </trkpt>
      <trkpt lat="43.94414" lon="7.28329">
        <ele>343.9</ele>
        <time>2013-12-07T09:08:39Z</time>
      </trkpt>
      <trkpt lat="43.9442" lon="7.28332">
        <ele>344.1</ele>
        <time>2013-12-07T09:08:41Z</time>
      </trkpt>
      <trkpt lat="43.94426" lon="7.28335">
        <ele>344.4</ele>
        <time>2013-12-07T09:08:43Z</time>
      </trkpt>
      <trkpt lat="43.94433" lon="7.28338">
        <ele>344.6</ele>
        <time>2013-12-07T09:08:45Z</time>
      </trkpt>
      <trkpt lat="43.9444" lon="7.28341">
        <ele>344.8</ele>
        <time>2013-12-07T09:08:47Z</time>
      </trkpt>
      <trkpt lat="43.94447" lon="7.28344">
        <ele>344.9</ele>
        <time>2013-12-07T09:08:49Z</time>
      </trkpt>
      <trkpt lat="43.94454" lon="7.28348">
        <ele>344.9</ele>
        <time>2013-12-07T09:08:51Z</time>
      </trkpt>
      <trkpt lat="43.94461" lon="7.28351">
        <ele>344.7</ele>
        <time>2013-12-07T09:08:53Z</time>
      </trkpt>
      <trkpt lat="43.94468" lon="7.28354">
        <ele>344.7</ele>
        <time>2013-12-07T09:08:55Z</time>
      </trkpt>
      <trkpt lat="43.94475" lon="7.28357">
        <ele>344.7</ele>
        <time>2013-12-07T09:08:57Z</time>
      </trkpt>
      <trkpt lat="43.94479" lon="7.28359">
        <ele>344.8</ele>
        <time>2013-12-07T09:08:58Z</time>
      </trkpt>
      <trkpt lat="43.9449" lon="7.28364">
        <ele>345.1</ele>
        <time>2013-12-07T09:09:01Z</time>
      </trkpt>
      <trkpt lat="43.94497" lon="7.28367">
        <ele>345.5</ele>
        <time>2013-12-07T09:09:03Z</time>
      </trkpt>
      <trkpt lat="43.94504" lon="7.2837">
        <ele>345.8</ele>
        <time>2013-12-07T09:09:05Z</time>
      </trkpt>
      <trkpt lat="43.94511" lon="7.28374">
        <ele>346.2</ele>
        <time>2013-12-07T09:09:07Z</time>
      </trkpt>
      <trkpt lat="43.94517" lon="7.28377">
        <ele>346.6</ele>
        <time>2013-12-07T09:09:09Z</time>
      </trkpt>
      <trkpt lat="43.94524" lon="7.28379">
        <ele>346.9</ele>
        <time>2013-12-07T09:09:11Z</time>
      </trkpt>
      <trkpt lat="43.9453" lon="7.28382">
        <ele>347.3</ele>
        <time>2013-12-07T09:09:13Z</time>
      </trkpt>
      <trkpt lat="43.94537" lon="7.28385">
        <ele>347.6</ele>
        <time>2013-12-07T09:09:15Z</time>
      </trkpt>
      <trkpt lat="43.94544" lon="7.28389">
        <ele>347.8</ele>
        <time>2013-12-07T09:09:17Z</time>
      </trkpt>
      <trkpt lat="43.9455" lon="7.28392">
        <ele>348</ele>
        <time>2013-12-07T09:09:19Z</time>
      </trkpt>
      <trkpt lat="43.94557" lon="7.28395">
        <ele>348.2</ele>
        <time>2013-12-07T09:09:21Z</time>
      </trkpt>
      <trkpt lat="43.94563" lon="7.28398">
        <ele>348.2</ele>
        <time>2013-12-07T09:09:23Z</time>
      </trkpt>
      <trkpt lat="43.9457" lon="7.28401">
        <ele>348.1</ele>
        <time>2013-12-07T09:09:25Z</time>
      </trkpt>
      <trkpt lat="43.94576" lon="7.28404">
        <ele>347.7</ele>
        <time>2013-12-07T09:09:27Z</time>
      </trkpt>
      <trkpt lat="43.94583" lon="7.28407">
        <ele>347.4</ele>
        <time>2013-12-07T09:09:29Z</time>
      </trkpt>
      <trkpt lat="43.9459" lon="7.2841">
        <ele>347.2</ele>
        <time>2013-12-07T09:09:31Z</time>
      </trkpt>
      <trkpt lat="43.94596" lon="7.28412">
        <ele>347</ele>
        <time>2013-12-07T09:09:33Z</time>
      </trkpt>
      <trkpt lat="43.94603" lon="7.28415">
        <ele>347</ele>
        <time>2013-12-07T09:09:35Z</time>
      </trkpt>
      <trkpt lat="43.9461" lon="7.28419">
        <ele>347.1</ele>
        <time>2013-12-07T09:09:37Z</time>
      </trkpt>
      <trkpt lat="43.94617" lon="7.28422">
        <ele>347.2</ele>
        <time>2013-12-07T09:09:39Z</time>
      </trkpt>
      <trkpt lat="43.94624" lon="7.28425">
        <ele>347.3</ele>
        <time>2013-12-07T09:09:41Z</time>
      </trkpt>
      <trkpt lat="43.94631" lon="7.28428">
        <ele>347.4</ele>
        <time>2013-12-07T09:09:43Z</time>
      </trkpt>
      <trkpt lat="43.94638" lon="7.28432">
        <ele>347.5</ele>
        <time>2013-12-07T09:09:45Z</time>
      </trkpt>
      <trkpt lat="43.94646" lon="7.28435">
        <ele>347.7</ele>
        <time>2013-12-07T09:09:47Z</time>
      </trkpt>
      <trkpt lat="43.94653" lon="7.28439">
        <ele>347.9</ele>
        <time>2013-12-07T09:09:49Z</time>
      </trkpt>
      <trkpt lat="43.9466" lon="7.28443">
        <ele>348.1</ele>
        <time>2013-12-07T09:09:51Z</time>
      </trkpt>
      <trkpt lat="43.94667" lon="7.28448">
        <ele>348.3</ele>
        <time>2013-12-07T09:09:53Z</time>
      </trkpt>
      <trkpt lat="43.94674" lon="7.28453">
        <ele>348.5</ele>
        <time>2013-12-07T09:09:55Z</time>
      </trkpt>
      <trkpt lat="43.9468" lon="7.28459">
        <ele>348.5</ele>
        <time>2013-12-07T09:09:57Z</time>
      </trkpt>
      <trkpt lat="43.94686" lon="7.28465">
        <ele>348.3</ele>
        <time>2013-12-07T09:09:59Z</time>
      </trkpt>
      <trkpt lat="43.94689" lon="7.28468">
        <ele>348.1</ele>
        <time>2013-12-07T09:10:00Z</time>
      </trkpt>
      <trkpt lat="43.94697" lon="7.28478">
        <ele>347.7</ele>
        <time>2013-12-07T09:10:03Z</time>
      </trkpt>
      <trkpt lat="43.94702" lon="7.28486">
        <ele>347.2</ele>
        <time>2013-12-07T09:10:05Z</time>
      </trkpt>
      <trkpt lat="43.94706" lon="7.28494">
        <ele>346.7</ele>
        <time>2013-12-07T09:10:07Z</time>
      </trkpt>
      <trkpt lat="43.9471" lon="7.28502">
        <ele>346.3</ele>
        <time>2013-12-07T09:10:09Z</time>
      </trkpt>
      <trkpt lat="43.94713" lon="7.28511">
        <ele>346.1</ele>
        <time>2013-12-07T09:10:11Z</time>
      </trkpt>
      <trkpt lat="43.94717" lon="7.28521">
        <ele>346.2</ele>
        <time>2013-12-07T09:10:13Z</time>
      </trkpt>
      <trkpt lat="43.9472" lon="7.2853">
        <ele>346.4</ele>
        <time>2013-12-07T09:10:15Z</time>
      </trkpt>
      <trkpt lat="43.94723" lon="7.28539">
        <ele>346.7</ele>
        <time>2013-12-07T09:10:17Z</time>
      </trkpt>
      <trkpt lat="43.94726" lon="7.28548">
        <ele>346.9</ele>
        <time>2013-12-07T09:10:19Z</time>
      </trkpt>
      <trkpt lat="43.94729" lon="7.28558">
        <ele>347</ele>
        <time>2013-12-07T09:10:21Z</time>
      </trkpt>
      <trkpt lat="43.94732" lon="7.28567">
        <ele>347.2</ele>
        <time>2013-12-07T09:10:23Z</time>
      </trkpt>
      <trkpt lat="43.94735" lon="7.28577">
        <ele>347.4</ele>
        <time>2013-12-07T09:10:25Z</time>
      </trkpt>
      <trkpt lat="43.94738" lon="7.28586">
        <ele>347.7</ele>
        <time>2013-12-07T09:10:27Z</time>
      </trkpt>
      <trkpt lat="43.94741" lon="7.28596">
        <ele>347.8</ele>
        <time>2013-12-07T09:10:29Z</time>
      </trkpt>
      <trkpt lat="43.94744" lon="7.28605">
        <ele>348</ele>
        <time>2013-12-07T09:10:31Z</time>
      </trkpt>
      <trkpt lat="43.94747" lon="7.28614">
        <ele>348.2</ele>
        <time>2013-12-07T09:10:33Z</time>
      </trkpt>
      <trkpt lat="43.94749" lon="7.28623">
        <ele>348.1</ele>
        <time>2013-12-07T09:10:35Z</time>
      </trkpt>
      <trkpt lat="43.94752" lon="7.28632">
        <ele>348</ele>
        <time>2013-12-07T09:10:37Z</time>
      </trkpt>
      <trkpt lat="43.94754" lon="7.2864">
        <ele>347.8</ele>
        <time>2013-12-07T09:10:39Z</time>
      </trkpt>
      <trkpt lat="43.94756" lon="7.2865">
        <ele>347.5</ele>
        <time>2013-12-07T09:10:41Z</time>
      </trkpt>
      <trkpt lat="43.94759" lon="7.28659">
        <ele>347.6</ele>
        <time>2013-12-07T09:10:43Z</time>
      </trkpt>
      <trkpt lat="43.94762" lon="7.28668">
        <ele>347.8</ele>
        <time>2013-12-07T09:10:45Z</time>
      </trkpt>
      <trkpt lat="43.94765" lon="7.28676">
        <ele>348.3</ele>
        <time>2013-12-07T09:10:47Z</time>
      </trkpt>
      <trkpt lat="43.94769" lon="7.28685">
        <ele>349.1</ele>
        <time>2013-12-07T09:10:49Z</time>
      </trkpt>
      <trkpt lat="43.94774" lon="7.28693">
        <ele>349.9</ele>
        <time>2013-12-07T09:10:51Z</time>
      </trkpt>
      <trkpt lat="43.94778" lon="7.287">
        <ele>350.8</ele>
        <time>2013-12-07T09:10:53Z</time>
      </trkpt>
      <trkpt lat="43.94783" lon="7.28708">
        <ele>351.8</ele>
        <time>2013-12-07T09:10:55Z</time>
      </trkpt>
      <trkpt lat="43.94788" lon="7.28714">
        <ele>352.6</ele>
        <time>2013-12-07T09:10:57Z</time>
      </trkpt>
      <trkpt lat="43.94793" lon="7.28719">
        <ele>353.3</ele>
        <time>2013-12-07T09:10:59Z</time>
      </trkpt>
      <trkpt lat="43.94799" lon="7.28724">
        <ele>354</ele>
        <time>2013-12-07T09:11:01Z</time>
      </trkpt>
      <trkpt lat="43.94802" lon="7.28727">
        <ele>354.3</ele>
        <time>2013-12-07T09:11:02Z</time>
      </trkpt>
      <trkpt lat="43.94811" lon="7.28733">
        <ele>355</ele>
        <time>2013-12-07T09:11:05Z</time>
      </trkpt>
      <trkpt lat="43.94817" lon="7.28737">
        <ele>355.6</ele>
        <time>2013-12-07T09:11:07Z</time>
      </trkpt>
      <trkpt lat="43.94823" lon="7.2874">
        <ele>356.3</ele>
        <time>2013-12-07T09:11:09Z</time>
      </trkpt>
      <trkpt lat="43.9483" lon="7.28743">
        <ele>357</ele>
        <time>2013-12-07T09:11:11Z</time>
      </trkpt>
      <trkpt lat="43.94837" lon="7.28747">
        <ele>357.7</ele>
        <time>2013-12-07T09:11:13Z</time>
      </trkpt>
      <trkpt lat="43.94843" lon="7.28752">
        <ele>360.5</ele>
        <time>2013-12-07T09:11:15Z</time>
      </trkpt>
      <trkpt lat="43.94849" lon="7.28757">
        <ele>362.8</ele>
        <time>2013-12-07T09:11:17Z</time>
      </trkpt>
      <trkpt lat="43.94853" lon="7.28763">
        <ele>363.8</ele>
        <time>2013-12-07T09:11:19Z</time>
      </trkpt>
      <trkpt lat="43.94858" lon="7.28769">
        <ele>364.4</ele>
        <time>2013-12-07T09:11:21Z</time>
      </trkpt>
      <trkpt lat="43.94862" lon="7.28775">
        <ele>365</ele>
        <time>2013-12-07T09:11:23Z</time>
      </trkpt>
      <trkpt lat="43.94866" lon="7.28782">
        <ele>365.2</ele>
        <time>2013-12-07T09:11:25Z</time>
      </trkpt>
      <trkpt lat="43.94871" lon="7.28788">
        <ele>365.2</ele>
        <time>2013-12-07T09:11:27Z</time>
      </trkpt>
      <trkpt lat="43.94876" lon="7.28794">
        <ele>365.5</ele>
        <time>2013-12-07T09:11:29Z</time>
      </trkpt>
      <trkpt lat="43.94881" lon="7.288">
        <ele>366.7</ele>
        <time>2013-12-07T09:11:31Z</time>
      </trkpt>
      <trkpt lat="43.94886" lon="7.28807">
        <ele>366.9</ele>
        <time>2013-12-07T09:11:33Z</time>
      </trkpt>
      <trkpt lat="43.94891" lon="7.28813">
        <ele>367</ele>
        <time>2013-12-07T09:11:35Z</time>
      </trkpt>
      <trkpt lat="43.94895" lon="7.28821">
        <ele>367.5</ele>
        <time>2013-12-07T09:11:37Z</time>
      </trkpt>
      <trkpt lat="43.94899" lon="7.28828">
        <ele>368</ele>
        <time>2013-12-07T09:11:39Z</time>
      </trkpt>
      <trkpt lat="43.94903" lon="7.28836">
        <ele>367.7</ele>
        <time>2013-12-07T09:11:41Z</time>
      </trkpt>
      <trkpt lat="43.94906" lon="7.28844">
        <ele>368.2</ele>
        <time>2013-12-07T09:11:43Z</time>
      </trkpt>
      <trkpt lat="43.94909" lon="7.28853">
        <ele>368.1</ele>
        <time>2013-12-07T09:11:45Z</time>
      </trkpt>
      <trkpt lat="43.9491" lon="7.28862">
        <ele>368.6</ele>
        <time>2013-12-07T09:11:47Z</time>
      </trkpt>
      <trkpt lat="43.94912" lon="7.28871">
        <ele>369</ele>
        <time>2013-12-07T09:11:49Z</time>
      </trkpt>
      <trkpt lat="43.94914" lon="7.2888">
        <ele>369.3</ele>
        <time>2013-12-07T09:11:51Z</time>
      </trkpt>
      <trkpt lat="43.94916" lon="7.28889">
        <ele>369.7</ele>
        <time>2013-12-07T09:11:53Z</time>
      </trkpt>
      <trkpt lat="43.94918" lon="7.28898">
        <ele>370.6</ele>
        <time>2013-12-07T09:11:55Z</time>
      </trkpt>
      <trkpt lat="43.9492" lon="7.28907">
        <ele>370.6</ele>
        <time>2013-12-07T09:11:57Z</time>
      </trkpt>
      <trkpt lat="43.94921" lon="7.28916">
        <ele>370.6</ele>
        <time>2013-12-07T09:11:59Z</time>
      </trkpt>
      <trkpt lat="43.94923" lon="7.28924">
        <ele>370.7</ele>
        <time>2013-12-07T09:12:01Z</time>
      </trkpt>
      <trkpt lat="43.94924" lon="7.28933">
        <ele>370.8</ele>
        <time>2013-12-07T09:12:03Z</time>
      </trkpt>
      <trkpt lat="43.94925" lon="7.28937">
        <ele>370.8</ele>
        <time>2013-12-07T09:12:04Z</time>
      </trkpt>
      <trkpt lat="43.94926" lon="7.2895">
        <ele>370.6</ele>
        <time>2013-12-07T09:12:07Z</time>
      </trkpt>
      <trkpt lat="43.94927" lon="7.28959">
        <ele>371.4</ele>
        <time>2013-12-07T09:12:09Z</time>
      </trkpt>
      <trkpt lat="43.94927" lon="7.28971">
        <ele>372.4</ele>
        <time>2013-12-07T09:12:12Z</time>
      </trkpt>
      <trkpt lat="43.94928" lon="7.28983">
        <ele>373.4</ele>
        <time>2013-12-07T09:12:15Z</time>
      </trkpt>
      <trkpt lat="43.94929" lon="7.28995">
        <ele>374</ele>
        <time>2013-12-07T09:12:18Z</time>
      </trkpt>
      <trkpt lat="43.94931" lon="7.29006">
        <ele>374.3</ele>
        <time>2013-12-07T09:12:21Z</time>
      </trkpt>
      <trkpt lat="43.94932" lon="7.29017">
        <ele>374.2</ele>
        <time>2013-12-07T09:12:24Z</time>
      </trkpt>
      <trkpt lat="43.94933" lon="7.29028">
        <ele>375.2</ele>
        <time>2013-12-07T09:12:27Z</time>
      </trkpt>
      <trkpt lat="43.94934" lon="7.29039">
        <ele>376.1</ele>
        <time>2013-12-07T09:12:30Z</time>
      </trkpt>
      <trkpt lat="43.94935" lon="7.29051">
        <ele>376.7</ele>
        <time>2013-12-07T09:12:33Z</time>
      </trkpt>
      <trkpt lat="43.94935" lon="7.29062">
        <ele>376.8</ele>
        <time>2013-12-07T09:12:36Z</time>
      </trkpt>
      <trkpt lat="43.94935" lon="7.29072">
        <ele>378</ele>
        <time>2013-12-07T09:12:39Z</time>
      </trkpt>
      <trkpt lat="43.94934" lon="7.29083">
        <ele>378.1</ele>
        <time>2013-12-07T09:12:42Z</time>
      </trkpt>
      <trkpt lat="43.94932" lon="7.29092">
        <ele>378.9</ele>
        <time>2013-12-07T09:12:45Z</time>
      </trkpt>
      <trkpt lat="43.94929" lon="7.29101">
        <ele>380.1</ele>
        <time>2013-12-07T09:12:48Z</time>
      </trkpt>
      <trkpt lat="43.94926" lon="7.29111">
        <ele>381</ele>
        <time>2013-12-07T09:12:51Z</time>
      </trkpt>
      <trkpt lat="43.94925" lon="7.29121">
        <ele>381.4</ele>
        <time>2013-12-07T09:12:54Z</time>
      </trkpt>
      <trkpt lat="43.94925" lon="7.29133">
        <ele>381.3</ele>
        <time>2013-12-07T09:12:57Z</time>
      </trkpt>
      <trkpt lat="43.94928" lon="7.29144">
        <ele>381.4</ele>
        <time>2013-12-07T09:13:00Z</time>
      </trkpt>
      <trkpt lat="43.94932" lon="7.29154">
        <ele>382</ele>
        <time>2013-12-07T09:13:03Z</time>
      </trkpt>
      <trkpt lat="43.94936" lon="7.29163">
        <ele>382.6</ele>
        <time>2013-12-07T09:13:06Z</time>
      </trkpt>
      <trkpt lat="43.94938" lon="7.29165">
        <ele>382.9</ele>
        <time>2013-12-07T09:13:07Z</time>
      </trkpt>
      <trkpt lat="43.94946" lon="7.2918">
        <ele>383.5</ele>
        <time>2013-12-07T09:13:13Z</time>
      </trkpt>
      <trkpt lat="43.9495" lon="7.2919">
        <ele>383.4</ele>
        <time>2013-12-07T09:13:29Z</time>
      </trkpt>
      <trkpt lat="43.94945" lon="7.29199">
        <ele>379</ele>
        <time>2013-12-07T09:13:56Z</time>
      </trkpt>
      <trkpt lat="43.94936" lon="7.29197">
        <ele>376.5</ele>
        <time>2013-12-07T09:14:02Z</time>
      </trkpt>
      <trkpt lat="43.94929" lon="7.29198">
        <ele>375.1</ele>
        <time>2013-12-07T09:14:06Z</time>
      </trkpt>
      <trkpt lat="43.94926" lon="7.29209">
        <ele>370.6</ele>
        <time>2013-12-07T09:14:13Z</time>
      </trkpt>
      <trkpt lat="43.94927" lon="7.29211">
        <ele>370.1</ele>
        <time>2013-12-07T09:14:14Z</time>
      </trkpt>
      <trkpt lat="43.94925" lon="7.29231">
        <ele>367.1</ele>
        <time>2013-12-07T09:14:23Z</time>
      </trkpt>
      <trkpt lat="43.94923" lon="7.29242">
        <ele>367.3</ele>
        <time>2013-12-07T09:14:42Z</time>
      </trkpt>
      <trkpt lat="43.94915" lon="7.29241">
        <ele>370.5</ele>
        <time>2013-12-07T09:15:07Z</time>
      </trkpt>
      <trkpt lat="43.94906" lon="7.2924">
        <ele>371.6</ele>
        <time>2013-12-07T09:15:16Z</time>
      </trkpt>
      <trkpt lat="43.94905" lon="7.2924">
        <ele>371.5</ele>
        <time>2013-12-07T09:15:17Z</time>
      </trkpt>
      <trkpt lat="43.94891" lon="7.29228">
        <ele>373.7</ele>
        <time>2013-12-07T09:15:34Z</time>
      </trkpt>
      <trkpt lat="43.94885" lon="7.29223">
        <ele>374.8</ele>
        <time>2013-12-07T09:15:39Z</time>
      </trkpt>
      <trkpt lat="43.94878" lon="7.29217">
        <ele>375.2</ele>
        <time>2013-12-07T09:15:44Z</time>
      </trkpt>
      <trkpt lat="43.94871" lon="7.29213">
        <ele>376.4</ele>
        <time>2013-12-07T09:15:49Z</time>
      </trkpt>
      <trkpt lat="43.94864" lon="7.29208">
        <ele>376.9</ele>
        <time>2013-12-07T09:15:54Z</time>
      </trkpt>
      <trkpt lat="43.94856" lon="7.29204">
        <ele>377.7</ele>
        <time>2013-12-07T09:16:00Z</time>
      </trkpt>
      <trkpt lat="43.94848" lon="7.29202">
        <ele>377.9</ele>
        <time>2013-12-07T09:16:06Z</time>
      </trkpt>
      <trkpt lat="43.94839" lon="7.29203">
        <ele>379.3</ele>
        <time>2013-12-07T09:16:13Z</time>
      </trkpt>
      <trkpt lat="43.9483" lon="7.29202">
        <ele>383.3</ele>
        <time>2013-12-07T09:16:30Z</time>
      </trkpt>
      <trkpt lat="43.9483" lon="7.29201">
        <ele>383.4</ele>
        <time>2013-12-07T09:16:31Z</time>
      </trkpt>
      <trkpt lat="43.94829" lon="7.29203">
        <ele>391.2</ele>
        <time>2013-12-07T09:17:08Z</time>
      </trkpt>
      <trkpt lat="43.94837" lon="7.29209">
        <ele>394.5</ele>
        <time>2013-12-07T09:17:26Z</time>
      </trkpt>
      <trkpt lat="43.94838" lon="7.29221">
        <ele>399.6</ele>
        <time>2013-12-07T09:17:53Z</time>
      </trkpt>
      <trkpt lat="43.94838" lon="7.29222">
        <ele>399.6</ele>
        <time>2013-12-07T09:17:54Z</time>
      </trkpt>
      <trkpt lat="43.94838" lon="7.29244">
        <ele>412.5</ele>
        <time>2013-12-07T09:19:04Z</time>
      </trkpt>
      <trkpt lat="43.94838" lon="7.29245">
        <ele>412.7</ele>
        <time>2013-12-07T09:19:05Z</time>
      </trkpt>
      <trkpt lat="43.94823" lon="7.2925">
        <ele>420.3</ele>
        <time>2013-12-07T09:19:46Z</time>
      </trkpt>
      <trkpt lat="43.94814" lon="7.2925">
        <ele>425.6</ele>
        <time>2013-12-07T09:20:14Z</time>
      </trkpt>
      <trkpt lat="43.94814" lon="7.2925">
        <ele>425.7</ele>
        <time>2013-12-07T09:20:15Z</time>
      </trkpt>
      <trkpt lat="43.94809" lon="7.29272">
        <ele>429.4</ele>
        <time>2013-12-07T09:20:41Z</time>
      </trkpt>
      <trkpt lat="43.94812" lon="7.29283">
        <ele>430.2</ele>
        <time>2013-12-07T09:20:50Z</time>
      </trkpt>
      <trkpt lat="43.94815" lon="7.29294">
        <ele>431.3</ele>
        <time>2013-12-07T09:20:58Z</time>
      </trkpt>
      <trkpt lat="43.9482" lon="7.29304">
        <ele>433.9</ele>
        <time>2013-12-07T09:21:11Z</time>
      </trkpt>
      <trkpt lat="43.94824" lon="7.29315">
        <ele>437.7</ele>
        <time>2013-12-07T09:21:34Z</time>
      </trkpt>
      <trkpt lat="43.94825" lon="7.29316">
        <ele>438.2</ele>
        <time>2013-12-07T09:21:35Z</time>
      </trkpt>
      <trkpt lat="43.94828" lon="7.29339">
        <ele>445.7</ele>
        <time>2013-12-07T09:22:12Z</time>
      </trkpt>
      <trkpt lat="43.94825" lon="7.2935">
        <ele>449.6</ele>
        <time>2013-12-07T09:22:37Z</time>
      </trkpt>
      <trkpt lat="43.94825" lon="7.29351">
        <ele>449.7</ele>
        <time>2013-12-07T09:22:38Z</time>
      </trkpt>
      <trkpt lat="43.94812" lon="7.29366">
        <ele>453</ele>
        <time>2013-12-07T09:23:40Z</time>
      </trkpt>
      <trkpt lat="43.94812" lon="7.29367">
        <ele>452.8</ele>
        <time>2013-12-07T09:23:41Z</time>
      </trkpt>
      <trkpt lat="43.94822" lon="7.29386">
        <ele>460.5</ele>
        <time>2013-12-07T09:24:56Z</time>
      </trkpt>
      <trkpt lat="43.94822" lon="7.29387">
        <ele>460.2</ele>
        <time>2013-12-07T09:24:57Z</time>
      </trkpt>
      <trkpt lat="43.94826" lon="7.2941">
        <ele>465.6</ele>
        <time>2013-12-07T09:25:27Z</time>
      </trkpt>
      <trkpt lat="43.94827" lon="7.29422">
        <ele>468.7</ele>
        <time>2013-12-07T09:25:43Z</time>
      </trkpt>
      <trkpt lat="43.94825" lon="7.29434">
        <ele>475.2</ele>
        <time>2013-12-07T09:26:14Z</time>
      </trkpt>
      <trkpt lat="43.94825" lon="7.29435">
        <ele>475.1</ele>
        <time>2013-12-07T09:26:15Z</time>
      </trkpt>
      <trkpt lat="43.94819" lon="7.29456">
        <ele>480</ele>
        <time>2013-12-07T09:26:47Z</time>
      </trkpt>
      <trkpt lat="43.94812" lon="7.29463">
        <ele>488.1</ele>
        <time>2013-12-07T09:27:29Z</time>
      </trkpt>
      <trkpt lat="43.94812" lon="7.29464">
        <ele>488.2</ele>
        <time>2013-12-07T09:27:30Z</time>
      </trkpt>
      <trkpt lat="43.94804" lon="7.29484">
        <ele>497.8</ele>
        <time>2013-12-07T09:28:23Z</time>
      </trkpt>
      <trkpt lat="43.94807" lon="7.29495">
        <ele>500.1</ele>
        <time>2013-12-07T09:28:38Z</time>
      </trkpt>
      <trkpt lat="43.94807" lon="7.29496">
        <ele>500.1</ele>
        <time>2013-12-07T09:28:39Z</time>
      </trkpt>
      <trkpt lat="43.94812" lon="7.29518">
        <ele>505</ele>
        <time>2013-12-07T09:29:02Z</time>
      </trkpt>
      <trkpt lat="43.94816" lon="7.29529">
        <ele>507.7</ele>
        <time>2013-12-07T09:29:17Z</time>
      </trkpt>
      <trkpt lat="43.94819" lon="7.2954">
        <ele>510.8</ele>
        <time>2013-12-07T09:29:30Z</time>
      </trkpt>
      <trkpt lat="43.94824" lon="7.29551">
        <ele>513.9</ele>
        <time>2013-12-07T09:29:50Z</time>
      </trkpt>
      <trkpt lat="43.94824" lon="7.29552">
        <ele>514.3</ele>
        <time>2013-12-07T09:29:51Z</time>
      </trkpt>
      <trkpt lat="43.94824" lon="7.29571">
        <ele>524.5</ele>
        <time>2013-12-07T09:30:44Z</time>
      </trkpt>
      <trkpt lat="43.94829" lon="7.29581">
        <ele>526.2</ele>
        <time>2013-12-07T09:30:57Z</time>
      </trkpt>
      <trkpt lat="43.94829" lon="7.29582">
        <ele>526.7</ele>
        <time>2013-12-07T09:30:58Z</time>
      </trkpt>
      <trkpt lat="43.94841" lon="7.29599">
        <ele>533.9</ele>
        <time>2013-12-07T09:31:40Z</time>
      </trkpt>
      <trkpt lat="43.94846" lon="7.29607">
        <ele>538.1</ele>
        <time>2013-12-07T09:31:58Z</time>
      </trkpt>
      <trkpt lat="43.94847" lon="7.29608">
        <ele>538.1</ele>
        <time>2013-12-07T09:31:59Z</time>
      </trkpt>
      <trkpt lat="43.94855" lon="7.29628">
        <ele>543</ele>
        <time>2013-12-07T09:32:22Z</time>
      </trkpt>
      <trkpt lat="43.94861" lon="7.29637">
        <ele>543.9</ele>
        <time>2013-12-07T09:32:33Z</time>
      </trkpt>
      <trkpt lat="43.94866" lon="7.29646">
        <ele>545.7</ele>
        <time>2013-12-07T09:32:43Z</time>
      </trkpt>
      <trkpt lat="43.94874" lon="7.29652">
        <ele>546.9</ele>
        <time>2013-12-07T09:32:53Z</time>
      </trkpt>
      <trkpt lat="43.94881" lon="7.29658">
        <ele>549.2</ele>
        <time>2013-12-07T09:33:03Z</time>
      </trkpt>
      <trkpt lat="43.94882" lon="7.29658">
        <ele>549</ele>
        <time>2013-12-07T09:33:04Z</time>
      </trkpt>
      <trkpt lat="43.94896" lon="7.29671">
        <ele>552.5</ele>
        <time>2013-12-07T09:33:23Z</time>
      </trkpt>
      <trkpt lat="43.9489" lon="7.2968">
        <ele>556</ele>
        <time>2013-12-07T09:33:49Z</time>
      </trkpt>
      <trkpt lat="43.94882" lon="7.29684">
        <ele>556.7</ele>
        <time>2013-12-07T09:33:57Z</time>
      </trkpt>
      <trkpt lat="43.94874" lon="7.29689">
        <ele>559.7</ele>
        <time>2013-12-07T09:34:05Z</time>
      </trkpt>
      <trkpt lat="43.94873" lon="7.2969">
        <ele>559.9</ele>
        <time>2013-12-07T09:34:06Z</time>
      </trkpt>
      <trkpt lat="43.94859" lon="7.29699">
        <ele>563.2</ele>
        <time>2013-12-07T09:34:21Z</time>
      </trkpt>
      <trkpt lat="43.94851" lon="7.29698">
        <ele>564.2</ele>
        <time>2013-12-07T09:34:29Z</time>
      </trkpt>
      <trkpt lat="43.94844" lon="7.29692">
        <ele>564.3</ele>
        <time>2013-12-07T09:34:45Z</time>
      </trkpt>
      <trkpt lat="43.94838" lon="7.29687">
        <ele>565.2</ele>
        <time>2013-12-07T09:34:49Z</time>
      </trkpt>
      <trkpt lat="43.94832" lon="7.2968">
        <ele>564.5</ele>
        <time>2013-12-07T09:34:53Z</time>
      </trkpt>
      <trkpt lat="43.94825" lon="7.29674">
        <ele>564.3</ele>
        <time>2013-12-07T09:34:57Z</time>
      </trkpt>
      <trkpt lat="43.94818" lon="7.29667">
        <ele>565.1</ele>
        <time>2013-12-07T09:35:01Z</time>
      </trkpt>
      <trkpt lat="43.94812" lon="7.2966">
        <ele>565.3</ele>
        <time>2013-12-07T09:35:05Z</time>
      </trkpt>
      <trkpt lat="43.94804" lon="7.29654">
        <ele>566.6</ele>
        <time>2013-12-07T09:35:10Z</time>
      </trkpt>
      <trkpt lat="43.94803" lon="7.29653">
        <ele>566.6</ele>
        <time>2013-12-07T09:35:11Z</time>
      </trkpt>
      <trkpt lat="43.94789" lon="7.29645">
        <ele>568.1</ele>
        <time>2013-12-07T09:35:21Z</time>
      </trkpt>
      <trkpt lat="43.94782" lon="7.2964">
        <ele>569.3</ele>
        <time>2013-12-07T09:35:27Z</time>
      </trkpt>
      <trkpt lat="43.94775" lon="7.29636">
        <ele>570</ele>
        <time>2013-12-07T09:35:33Z</time>
      </trkpt>
      <trkpt lat="43.94767" lon="7.29632">
        <ele>571.8</ele>
        <time>2013-12-07T09:35:40Z</time>
      </trkpt>
      <trkpt lat="43.94759" lon="7.2963">
        <ele>573.1</ele>
        <time>2013-12-07T09:35:47Z</time>
      </trkpt>
      <trkpt lat="43.94764" lon="7.29638">
        <ele>575.2</ele>
        <time>2013-12-07T09:36:00Z</time>
      </trkpt>
      <trkpt lat="43.94771" lon="7.29644">
        <ele>575.7</ele>
        <time>2013-12-07T09:36:06Z</time>
      </trkpt>
      <trkpt lat="43.94778" lon="7.29651">
        <ele>576.3</ele>
        <time>2013-12-07T09:36:12Z</time>
      </trkpt>
      <trkpt lat="43.94779" lon="7.29652">
        <ele>576.4</ele>
        <time>2013-12-07T09:36:13Z</time>
      </trkpt>
      <trkpt lat="43.9479" lon="7.29666">
        <ele>577.6</ele>
        <time>2013-12-07T09:36:24Z</time>
      </trkpt>
      <trkpt lat="43.94795" lon="7.29675">
        <ele>578.1</ele>
        <time>2013-12-07T09:36:30Z</time>
      </trkpt>
      <trkpt lat="43.94799" lon="7.29684">
        <ele>578.7</ele>
        <time>2013-12-07T09:36:36Z</time>
      </trkpt>
      <trkpt lat="43.94803" lon="7.29694">
        <ele>579.6</ele>
        <time>2013-12-07T09:36:42Z</time>
      </trkpt>
      <trkpt lat="43.94808" lon="7.29704">
        <ele>581.7</ele>
        <time>2013-12-07T09:36:49Z</time>
      </trkpt>
      <trkpt lat="43.94813" lon="7.29715">
        <ele>582.2</ele>
        <time>2013-12-07T09:36:56Z</time>
      </trkpt>
      <trkpt lat="43.94816" lon="7.29725">
        <ele>583.5</ele>
        <time>2013-12-07T09:37:02Z</time>
      </trkpt>
      <trkpt lat="43.9482" lon="7.29736">
        <ele>584.2</ele>
        <time>2013-12-07T09:37:08Z</time>
      </trkpt>
      <trkpt lat="43.94812" lon="7.29732">
        <ele>585.2</ele>
        <time>2013-12-07T09:37:17Z</time>
      </trkpt>
      <trkpt lat="43.94812" lon="7.2973">
        <ele>585.2</ele>
        <time>2013-12-07T09:37:18Z</time>
      </trkpt>
      <trkpt lat="43.94801" lon="7.29717">
        <ele>586.8</ele>
        <time>2013-12-07T09:37:27Z</time>
      </trkpt>
      <trkpt lat="43.94796" lon="7.2971">
        <ele>587.7</ele>
        <time>2013-12-07T09:37:32Z</time>
      </trkpt>
      <trkpt lat="43.94789" lon="7.29702">
        <ele>587.6</ele>
        <time>2013-12-07T09:37:37Z</time>
      </trkpt>
      <trkpt lat="43.94782" lon="7.29696">
        <ele>588.7</ele>
        <time>2013-12-07T09:37:42Z</time>
      </trkpt>
      <trkpt lat="43.94776" lon="7.2969">
        <ele>589.7</ele>
        <time>2013-12-07T09:37:47Z</time>
      </trkpt>
      <trkpt lat="43.94769" lon="7.29684">
        <ele>590.8</ele>
        <time>2013-12-07T09:37:52Z</time>
      </trkpt>
      <trkpt lat="43.94761" lon="7.29679">
        <ele>590.3</ele>
        <time>2013-12-07T09:37:57Z</time>
      </trkpt>
      <trkpt lat="43.94755" lon="7.29673">
        <ele>590.3</ele>
        <time>2013-12-07T09:38:01Z</time>
      </trkpt>
      <trkpt lat="43.94748" lon="7.2967">
        <ele>590.8</ele>
        <time>2013-12-07T09:38:05Z</time>
      </trkpt>
      <trkpt lat="43.9474" lon="7.29673">
        <ele>591.5</ele>
        <time>2013-12-07T09:38:10Z</time>
      </trkpt>
      <trkpt lat="43.94743" lon="7.29684">
        <ele>592.2</ele>
        <time>2013-12-07T09:38:16Z</time>
      </trkpt>
      <trkpt lat="43.9475" lon="7.29693">
        <ele>593</ele>
        <time>2013-12-07T09:38:21Z</time>
      </trkpt>
      <trkpt lat="43.94751" lon="7.29695">
        <ele>593.3</ele>
        <time>2013-12-07T09:38:22Z</time>
      </trkpt>
      <trkpt lat="43.94762" lon="7.29707">
        <ele>593.8</ele>
        <time>2013-12-07T09:38:30Z</time>
      </trkpt>
      <trkpt lat="43.94768" lon="7.29716">
        <ele>594.9</ele>
        <time>2013-12-07T09:38:35Z</time>
      </trkpt>
      <trkpt lat="43.94775" lon="7.29723">
        <ele>596.2</ele>
        <time>2013-12-07T09:38:40Z</time>
      </trkpt>
      <trkpt lat="43.94781" lon="7.29731">
        <ele>596.6</ele>
        <time>2013-12-07T09:38:45Z</time>
      </trkpt>
      <trkpt lat="43.94787" lon="7.29741">
        <ele>597.3</ele>
        <time>2013-12-07T09:38:50Z</time>
      </trkpt>
      <trkpt lat="43.94789" lon="7.29751">
        <ele>598.2</ele>
        <time>2013-12-07T09:38:55Z</time>
      </trkpt>
      <trkpt lat="43.94788" lon="7.29762">
        <ele>598.2</ele>
        <time>2013-12-07T09:39:00Z</time>
      </trkpt>
      <trkpt lat="43.94787" lon="7.29773">
        <ele>598.9</ele>
        <time>2013-12-07T09:39:05Z</time>
      </trkpt>
      <trkpt lat="43.94787" lon="7.29785">
        <ele>600.1</ele>
        <time>2013-12-07T09:39:10Z</time>
      </trkpt>
      <trkpt lat="43.94787" lon="7.29796">
        <ele>601.1</ele>
        <time>2013-12-07T09:39:15Z</time>
      </trkpt>
      <trkpt lat="43.94787" lon="7.29809">
        <ele>601.7</ele>
        <time>2013-12-07T09:39:20Z</time>
      </trkpt>
      <trkpt lat="43.94791" lon="7.2982">
        <ele>602.3</ele>
        <time>2013-12-07T09:39:25Z</time>
      </trkpt>
      <trkpt lat="43.94792" lon="7.29822">
        <ele>602.4</ele>
        <time>2013-12-07T09:39:26Z</time>
      </trkpt>
      <trkpt lat="43.948" lon="7.29838">
        <ele>604</ele>
        <time>2013-12-07T09:39:34Z</time>
      </trkpt>
      <trkpt lat="43.94806" lon="7.29846">
        <ele>604.5</ele>
        <time>2013-12-07T09:39:39Z</time>
      </trkpt>
      <trkpt lat="43.94813" lon="7.29854">
        <ele>605.8</ele>
        <time>2013-12-07T09:39:44Z</time>
      </trkpt>
      <trkpt lat="43.9482" lon="7.29861">
        <ele>606.5</ele>
        <time>2013-12-07T09:39:49Z</time>
      </trkpt>
      <trkpt lat="43.94827" lon="7.29866">
        <ele>606.8</ele>
        <time>2013-12-07T09:39:54Z</time>
      </trkpt>
      <trkpt lat="43.94835" lon="7.29872">
        <ele>608.6</ele>
        <time>2013-12-07T09:39:59Z</time>
      </trkpt>
      <trkpt lat="43.94843" lon="7.29877">
        <ele>608.9</ele>
        <time>2013-12-07T09:40:04Z</time>
      </trkpt>
      <trkpt lat="43.94851" lon="7.2988">
        <ele>608.6</ele>
        <time>2013-12-07T09:40:09Z</time>
      </trkpt>
      <trkpt lat="43.94859" lon="7.29882">
        <ele>610.1</ele>
        <time>2013-12-07T09:40:14Z</time>
      </trkpt>
      <trkpt lat="43.94867" lon="7.29883">
        <ele>610.7</ele>
        <time>2013-12-07T09:40:19Z</time>
      </trkpt>
      <trkpt lat="43.94875" lon="7.29884">
        <ele>610.9</ele>
        <time>2013-12-07T09:40:24Z</time>
      </trkpt>
      <trkpt lat="43.94882" lon="7.29884">
        <ele>612.1</ele>
        <time>2013-12-07T09:40:29Z</time>
      </trkpt>
      <trkpt lat="43.94884" lon="7.29884">
        <ele>612.3</ele>
        <time>2013-12-07T09:40:30Z</time>
      </trkpt>
      <trkpt lat="43.94898" lon="7.29884">
        <ele>613.5</ele>
        <time>2013-12-07T09:40:39Z</time>
      </trkpt>
      <trkpt lat="43.94906" lon="7.29885">
        <ele>614.2</ele>
        <time>2013-12-07T09:40:44Z</time>
      </trkpt>
      <trkpt lat="43.94914" lon="7.29883">
        <ele>615.5</ele>
        <time>2013-12-07T09:40:49Z</time>
      </trkpt>
      <trkpt lat="43.94922" lon="7.29882">
        <ele>615.9</ele>
        <time>2013-12-07T09:40:54Z</time>
      </trkpt>
      <trkpt lat="43.9493" lon="7.2988">
        <ele>616.6</ele>
        <time>2013-12-07T09:40:59Z</time>
      </trkpt>
      <trkpt lat="43.94939" lon="7.29877">
        <ele>617.2</ele>
        <time>2013-12-07T09:41:04Z</time>
      </trkpt>
      <trkpt lat="43.94947" lon="7.29874">
        <ele>618.4</ele>
        <time>2013-12-07T09:41:09Z</time>
      </trkpt>
      <trkpt lat="43.94954" lon="7.29871">
        <ele>618.9</ele>
        <time>2013-12-07T09:41:14Z</time>
      </trkpt>
      <trkpt lat="43.94962" lon="7.29866">
        <ele>619.8</ele>
        <time>2013-12-07T09:41:19Z</time>
      </trkpt>
      <trkpt lat="43.94969" lon="7.29861">
        <ele>620.4</ele>
        <time>2013-12-07T09:41:24Z</time>
      </trkpt>
      <trkpt lat="43.94977" lon="7.29856">
        <ele>621.1</ele>
        <time>2013-12-07T09:41:29Z</time>
      </trkpt>
      <trkpt lat="43.94984" lon="7.29849">
        <ele>621.7</ele>
        <time>2013-12-07T09:41:34Z</time>
      </trkpt>
      <trkpt lat="43.94985" lon="7.29848">
        <ele>621.8</ele>
        <time>2013-12-07T09:41:35Z</time>
      </trkpt>
      <trkpt lat="43.94991" lon="7.29854">
        <ele>623.8</ele>
        <time>2013-12-07T09:42:26Z</time>
      </trkpt>
      <trkpt lat="43.94985" lon="7.29858">
        <ele>624</ele>
        <time>2013-12-07T09:42:29Z</time>
      </trkpt>
      <trkpt lat="43.94978" lon="7.29864">
        <ele>624.3</ele>
        <time>2013-12-07T09:42:32Z</time>
      </trkpt>
      <trkpt lat="43.94972" lon="7.29869">
        <ele>624.5</ele>
        <time>2013-12-07T09:42:35Z</time>
      </trkpt>
      <trkpt lat="43.9497" lon="7.2987">
        <ele>624.3</ele>
        <time>2013-12-07T09:42:36Z</time>
      </trkpt>
      <trkpt lat="43.9496" lon="7.29881">
        <ele>625.4</ele>
        <time>2013-12-07T09:42:41Z</time>
      </trkpt>
      <trkpt lat="43.94954" lon="7.29887">
        <ele>626</ele>
        <time>2013-12-07T09:42:44Z</time>
      </trkpt>
      <trkpt lat="43.94948" lon="7.29893">
        <ele>626.9</ele>
        <time>2013-12-07T09:42:47Z</time>
      </trkpt>
      <trkpt lat="43.94942" lon="7.29899">
        <ele>627</ele>
        <time>2013-12-07T09:42:50Z</time>
      </trkpt>
      <trkpt lat="43.94935" lon="7.29904">
        <ele>626.7</ele>
        <time>2013-12-07T09:42:53Z</time>
      </trkpt>
      <trkpt lat="43.94928" lon="7.29908">
        <ele>627.2</ele>
        <time>2013-12-07T09:42:56Z</time>
      </trkpt>
      <trkpt lat="43.94921" lon="7.29911">
        <ele>628</ele>
        <time>2013-12-07T09:42:59Z</time>
      </trkpt>
      <trkpt lat="43.94914" lon="7.29912">
        <ele>628.5</ele>
        <time>2013-12-07T09:43:02Z</time>
      </trkpt>
      <trkpt lat="43.94907" lon="7.29915">
        <ele>628.9</ele>
        <time>2013-12-07T09:43:05Z</time>
      </trkpt>
      <trkpt lat="43.949" lon="7.29917">
        <ele>629.1</ele>
        <time>2013-12-07T09:43:08Z</time>
      </trkpt>
      <trkpt lat="43.94891" lon="7.29919">
        <ele>629.7</ele>
        <time>2013-12-07T09:43:12Z</time>
      </trkpt>
      <trkpt lat="43.94883" lon="7.29921">
        <ele>630.3</ele>
        <time>2013-12-07T09:43:16Z</time>
      </trkpt>
      <trkpt lat="43.94874" lon="7.29923">
        <ele>631.4</ele>
        <time>2013-12-07T09:43:20Z</time>
      </trkpt>
      <trkpt lat="43.94866" lon="7.29925">
        <ele>632.3</ele>
        <time>2013-12-07T09:43:24Z</time>
      </trkpt>
      <trkpt lat="43.94857" lon="7.29923">
        <ele>632.3</ele>
        <time>2013-12-07T09:43:28Z</time>
      </trkpt>
      <trkpt lat="43.94849" lon="7.29923">
        <ele>633</ele>
        <time>2013-12-07T09:43:32Z</time>
      </trkpt>
      <trkpt lat="43.9484" lon="7.29922">
        <ele>633.5</ele>
        <time>2013-12-07T09:43:36Z</time>
      </trkpt>
      <trkpt lat="43.94839" lon="7.29923">
        <ele>633.7</ele>
        <time>2013-12-07T09:43:37Z</time>
      </trkpt>
      <trkpt lat="43.94824" lon="7.2992">
        <ele>634.5</ele>
        <time>2013-12-07T09:43:45Z</time>
      </trkpt>
      <trkpt lat="43.94816" lon="7.29917">
        <ele>635.9</ele>
        <time>2013-12-07T09:43:50Z</time>
      </trkpt>
      <trkpt lat="43.94809" lon="7.29913">
        <ele>636</ele>
        <time>2013-12-07T09:43:54Z</time>
      </trkpt>
      <trkpt lat="43.94801" lon="7.2991">
        <ele>636.5</ele>
        <time>2013-12-07T09:43:58Z</time>
      </trkpt>
      <trkpt lat="43.94794" lon="7.29906">
        <ele>636.9</ele>
        <time>2013-12-07T09:44:02Z</time>
      </trkpt>
      <trkpt lat="43.94787" lon="7.29902">
        <ele>637</ele>
        <time>2013-12-07T09:44:06Z</time>
      </trkpt>
      <trkpt lat="43.9478" lon="7.29898">
        <ele>637.8</ele>
        <time>2013-12-07T09:44:10Z</time>
      </trkpt>
      <trkpt lat="43.94773" lon="7.29894">
        <ele>638.1</ele>
        <time>2013-12-07T09:44:14Z</time>
      </trkpt>
      <trkpt lat="43.94766" lon="7.2989">
        <ele>639.3</ele>
        <time>2013-12-07T09:44:18Z</time>
      </trkpt>
      <trkpt lat="43.9476" lon="7.29885">
        <ele>639.7</ele>
        <time>2013-12-07T09:44:22Z</time>
      </trkpt>
      <trkpt lat="43.94752" lon="7.29881">
        <ele>639.9</ele>
        <time>2013-12-07T09:44:26Z</time>
      </trkpt>
      <trkpt lat="43.94745" lon="7.29877">
        <ele>640.7</ele>
        <time>2013-12-07T09:44:30Z</time>
      </trkpt>
      <trkpt lat="43.94738" lon="7.29874">
        <ele>641</ele>
        <time>2013-12-07T09:44:34Z</time>
      </trkpt>
      <trkpt lat="43.94731" lon="7.29869">
        <ele>641.6</ele>
        <time>2013-12-07T09:44:38Z</time>
      </trkpt>
      <trkpt lat="43.94729" lon="7.29868">
        <ele>641.7</ele>
        <time>2013-12-07T09:44:39Z</time>
      </trkpt>
      <trkpt lat="43.94716" lon="7.29863">
        <ele>642.9</ele>
        <time>2013-12-07T09:44:46Z</time>
      </trkpt>
      <trkpt lat="43.94708" lon="7.29863">
        <ele>643.3</ele>
        <time>2013-12-07T09:44:50Z</time>
      </trkpt>
      <trkpt lat="43.94701" lon="7.29861">
        <ele>643.5</ele>
        <time>2013-12-07T09:44:54Z</time>
      </trkpt>
      <trkpt lat="43.94693" lon="7.29859">
        <ele>643.4</ele>
        <time>2013-12-07T09:44:58Z</time>
      </trkpt>
      <trkpt lat="43.94685" lon="7.29857">
        <ele>644.3</ele>
        <time>2013-12-07T09:45:02Z</time>
      </trkpt>
      <trkpt lat="43.94678" lon="7.29854">
        <ele>644.8</ele>
        <time>2013-12-07T09:45:06Z</time>
      </trkpt>
      <trkpt lat="43.94671" lon="7.29853">
        <ele>645.9</ele>
        <time>2013-12-07T09:45:10Z</time>
      </trkpt>
      <trkpt lat="43.94663" lon="7.29851">
        <ele>646.4</ele>
        <time>2013-12-07T09:45:14Z</time>
      </trkpt>
      <trkpt lat="43.94655" lon="7.29848">
        <ele>646.8</ele>
        <time>2013-12-07T09:45:18Z</time>
      </trkpt>
      <trkpt lat="43.94648" lon="7.29845">
        <ele>646.6</ele>
        <time>2013-12-07T09:45:22Z</time>
      </trkpt>
      <trkpt lat="43.9464" lon="7.2984">
        <ele>647.7</ele>
        <time>2013-12-07T09:45:27Z</time>
      </trkpt>
      <trkpt lat="43.94634" lon="7.29835">
        <ele>648.2</ele>
        <time>2013-12-07T09:45:31Z</time>
      </trkpt>
      <trkpt lat="43.94627" lon="7.29827">
        <ele>648.7</ele>
        <time>2013-12-07T09:45:36Z</time>
      </trkpt>
      <trkpt lat="43.9462" lon="7.29821">
        <ele>649.2</ele>
        <time>2013-12-07T09:45:40Z</time>
      </trkpt>
      <trkpt lat="43.94619" lon="7.29819">
        <ele>649.3</ele>
        <time>2013-12-07T09:45:41Z</time>
      </trkpt>
      <trkpt lat="43.94609" lon="7.29807">
        <ele>650.6</ele>
        <time>2013-12-07T09:45:48Z</time>
      </trkpt>
      <trkpt lat="43.94603" lon="7.298">
        <ele>651.3</ele>
        <time>2013-12-07T09:45:52Z</time>
      </trkpt>
      <trkpt lat="43.94598" lon="7.29793">
        <ele>651.3</ele>
        <time>2013-12-07T09:45:56Z</time>
      </trkpt>
      <trkpt lat="43.94591" lon="7.29786">
        <ele>651.7</ele>
        <time>2013-12-07T09:46:00Z</time>
      </trkpt>
      <trkpt lat="43.94583" lon="7.29783">
        <ele>651.7</ele>
        <time>2013-12-07T09:46:04Z</time>
      </trkpt>
      <trkpt lat="43.94577" lon="7.29784">
        <ele>651.4</ele>
        <time>2013-12-07T09:46:07Z</time>
      </trkpt>
      <trkpt lat="43.9457" lon="7.29786">
        <ele>652</ele>
        <time>2013-12-07T09:46:10Z</time>
      </trkpt>
      <trkpt lat="43.94562" lon="7.29788">
        <ele>652.2</ele>
        <time>2013-12-07T09:46:13Z</time>
      </trkpt>
      <trkpt lat="43.94553" lon="7.2979">
        <ele>651.9</ele>
        <time>2013-12-07T09:46:16Z</time>
      </trkpt>
      <trkpt lat="43.94545" lon="7.29791">
        <ele>651.7</ele>
        <time>2013-12-07T09:46:19Z</time>
      </trkpt>
      <trkpt lat="43.94537" lon="7.29793">
        <ele>651.6</ele>
        <time>2013-12-07T09:46:22Z</time>
      </trkpt>
      <trkpt lat="43.94529" lon="7.29794">
        <ele>652.3</ele>
        <time>2013-12-07T09:46:25Z</time>
      </trkpt>
      <trkpt lat="43.94521" lon="7.29796">
        <ele>652.4</ele>
        <time>2013-12-07T09:46:28Z</time>
      </trkpt>
      <trkpt lat="43.94512" lon="7.29799">
        <ele>652.4</ele>
        <time>2013-12-07T09:46:31Z</time>
      </trkpt>
      <trkpt lat="43.94504" lon="7.29803">
        <ele>652</ele>
        <time>2013-12-07T09:46:34Z</time>
      </trkpt>
      <trkpt lat="43.94497" lon="7.29808">
        <ele>651.9</ele>
        <time>2013-12-07T09:46:37Z</time>
      </trkpt>
      <trkpt lat="43.94489" lon="7.29814">
        <ele>651.7</ele>
        <time>2013-12-07T09:46:40Z</time>
      </trkpt>
      <trkpt lat="43.94484" lon="7.29818">
        <ele>651.4</ele>
        <time>2013-12-07T09:46:42Z</time>
      </trkpt>
      <trkpt lat="43.94481" lon="7.2982">
        <ele>651.3</ele>
        <time>2013-12-07T09:46:43Z</time>
      </trkpt>
      <trkpt lat="43.94472" lon="7.29825">
        <ele>651.4</ele>
        <time>2013-12-07T09:46:46Z</time>
      </trkpt>
      <trkpt lat="43.94466" lon="7.29828">
        <ele>651</ele>
        <time>2013-12-07T09:46:48Z</time>
      </trkpt>
      <trkpt lat="43.94461" lon="7.29831">
        <ele>651.8</ele>
        <time>2013-12-07T09:46:50Z</time>
      </trkpt>
      <trkpt lat="43.94452" lon="7.29835">
        <ele>652.1</ele>
        <time>2013-12-07T09:46:53Z</time>
      </trkpt>
      <trkpt lat="43.94444" lon="7.29838">
        <ele>651.8</ele>
        <time>2013-12-07T09:46:56Z</time>
      </trkpt>
      <trkpt lat="43.94436" lon="7.29841">
        <ele>651.8</ele>
        <time>2013-12-07T09:46:59Z</time>
      </trkpt>
      <trkpt lat="43.94428" lon="7.29844">
        <ele>652</ele>
        <time>2013-12-07T09:47:02Z</time>
      </trkpt>
      <trkpt lat="43.94419" lon="7.29847">
        <ele>652.3</ele>
        <time>2013-12-07T09:47:05Z</time>
      </trkpt>
      <trkpt lat="43.94411" lon="7.2985">
        <ele>652.2</ele>
        <time>2013-12-07T09:47:08Z</time>
      </trkpt>
      <trkpt lat="43.94403" lon="7.29852">
        <ele>652.6</ele>
        <time>2013-12-07T09:47:11Z</time>
      </trkpt>
      <trkpt lat="43.94396" lon="7.29855">
        <ele>653.1</ele>
        <time>2013-12-07T09:47:14Z</time>
      </trkpt>
      <trkpt lat="43.94402" lon="7.29863">
        <ele>654.4</ele>
        <time>2013-12-07T09:47:24Z</time>
      </trkpt>
      <trkpt lat="43.9441" lon="7.2986">
        <ele>655.1</ele>
        <time>2013-12-07T09:47:30Z</time>
      </trkpt>
      <trkpt lat="43.94418" lon="7.29858">
        <ele>655.7</ele>
        <time>2013-12-07T09:47:36Z</time>
      </trkpt>
      <trkpt lat="43.94426" lon="7.29858">
        <ele>656.3</ele>
        <time>2013-12-07T09:47:41Z</time>
      </trkpt>
      <trkpt lat="43.94434" lon="7.29856">
        <ele>657.2</ele>
        <time>2013-12-07T09:47:46Z</time>
      </trkpt>
      <trkpt lat="43.94435" lon="7.29856">
        <ele>657.6</ele>
        <time>2013-12-07T09:47:47Z</time>
      </trkpt>
      <trkpt lat="43.94451" lon="7.29853">
        <ele>659.5</ele>
        <time>2013-12-07T09:47:58Z</time>
      </trkpt>
      <trkpt lat="43.94459" lon="7.29852">
        <ele>660.7</ele>
        <time>2013-12-07T09:48:04Z</time>
      </trkpt>
      <trkpt lat="43.94467" lon="7.29849">
        <ele>660.9</ele>
        <time>2013-12-07T09:48:10Z</time>
      </trkpt>
      <trkpt lat="43.94475" lon="7.29847">
        <ele>662.4</ele>
        <time>2013-12-07T09:48:16Z</time>
      </trkpt>
      <trkpt lat="43.94483" lon="7.29844">
        <ele>663.9</ele>
        <time>2013-12-07T09:48:22Z</time>
      </trkpt>
      <trkpt lat="43.94491" lon="7.29841">
        <ele>664.1</ele>
        <time>2013-12-07T09:48:28Z</time>
      </trkpt>
      <trkpt lat="43.945" lon="7.29837">
        <ele>664.4</ele>
        <time>2013-12-07T09:48:34Z</time>
      </trkpt>
      <trkpt lat="43.94507" lon="7.29834">
        <ele>664.9</ele>
        <time>2013-12-07T09:48:39Z</time>
      </trkpt>
      <trkpt lat="43.94515" lon="7.29831">
        <ele>667</ele>
        <time>2013-12-07T09:48:45Z</time>
      </trkpt>
      <trkpt lat="43.94523" lon="7.29828">
        <ele>667.3</ele>
        <time>2013-12-07T09:48:50Z</time>
      </trkpt>
      <trkpt lat="43.94524" lon="7.29827">
        <ele>667.5</ele>
        <time>2013-12-07T09:48:51Z</time>
      </trkpt>
      <trkpt lat="43.94538" lon="7.29822">
        <ele>668.8</ele>
        <time>2013-12-07T09:49:00Z</time>
      </trkpt>
      <trkpt lat="43.94545" lon="7.2982">
        <ele>669.6</ele>
        <time>2013-12-07T09:49:05Z</time>
      </trkpt>
      <trkpt lat="43.94553" lon="7.29817">
        <ele>670.3</ele>
        <time>2013-12-07T09:49:10Z</time>
      </trkpt>
      <trkpt lat="43.94562" lon="7.29814">
        <ele>670.4</ele>
        <time>2013-12-07T09:49:16Z</time>
      </trkpt>
      <trkpt lat="43.94561" lon="7.29826">
        <ele>672.2</ele>
        <time>2013-12-07T09:49:26Z</time>
      </trkpt>
      <trkpt lat="43.94554" lon="7.29829">
        <ele>673.1</ele>
        <time>2013-12-07T09:49:31Z</time>
      </trkpt>
      <trkpt lat="43.94545" lon="7.29833">
        <ele>673.8</ele>
        <time>2013-12-07T09:49:37Z</time>
      </trkpt>
      <trkpt lat="43.94539" lon="7.29838">
        <ele>674.6</ele>
        <time>2013-12-07T09:49:42Z</time>
      </trkpt>
      <trkpt lat="43.94532" lon="7.29845">
        <ele>676.1</ele>
        <time>2013-12-07T09:49:47Z</time>
      </trkpt>
      <trkpt lat="43.94526" lon="7.29851">
        <ele>676.7</ele>
        <time>2013-12-07T09:49:52Z</time>
      </trkpt>
      <trkpt lat="43.94525" lon="7.29852">
        <ele>676.9</ele>
        <time>2013-12-07T09:49:53Z</time>
      </trkpt>
      <trkpt lat="43.94513" lon="7.29863">
        <ele>678.7</ele>
        <time>2013-12-07T09:50:02Z</time>
      </trkpt>
      <trkpt lat="43.94506" lon="7.2987">
        <ele>679.3</ele>
        <time>2013-12-07T09:50:07Z</time>
      </trkpt>
      <trkpt lat="43.94498" lon="7.29875">
        <ele>680</ele>
        <time>2013-12-07T09:50:12Z</time>
      </trkpt>
      <trkpt lat="43.94491" lon="7.29881">
        <ele>681</ele>
        <time>2013-12-07T09:50:17Z</time>
      </trkpt>
      <trkpt lat="43.94483" lon="7.29886">
        <ele>680.6</ele>
        <time>2013-12-07T09:50:22Z</time>
      </trkpt>
      <trkpt lat="43.94475" lon="7.29891">
        <ele>681.9</ele>
        <time>2013-12-07T09:50:27Z</time>
      </trkpt>
      <trkpt lat="43.94467" lon="7.29895">
        <ele>683.3</ele>
        <time>2013-12-07T09:50:32Z</time>
      </trkpt>
      <trkpt lat="43.9446" lon="7.299">
        <ele>683.6</ele>
        <time>2013-12-07T09:50:37Z</time>
      </trkpt>
      <trkpt lat="43.94453" lon="7.29909">
        <ele>684.6</ele>
        <time>2013-12-07T09:50:43Z</time>
      </trkpt>
      <trkpt lat="43.94462" lon="7.29908">
        <ele>686.1</ele>
        <time>2013-12-07T09:50:50Z</time>
      </trkpt>
      <trkpt lat="43.94469" lon="7.29905">
        <ele>687.4</ele>
        <time>2013-12-07T09:50:55Z</time>
      </trkpt>
      <trkpt lat="43.9447" lon="7.29904">
        <ele>687.4</ele>
        <time>2013-12-07T09:50:56Z</time>
      </trkpt>
      <trkpt lat="43.94484" lon="7.29898">
        <ele>688.5</ele>
        <time>2013-12-07T09:51:05Z</time>
      </trkpt>
      <trkpt lat="43.94491" lon="7.29895">
        <ele>689.1</ele>
        <time>2013-12-07T09:51:10Z</time>
      </trkpt>
      <trkpt lat="43.94499" lon="7.29891">
        <ele>690.5</ele>
        <time>2013-12-07T09:51:15Z</time>
      </trkpt>
      <trkpt lat="43.94506" lon="7.29887">
        <ele>690.2</ele>
        <time>2013-12-07T09:51:20Z</time>
      </trkpt>
      <trkpt lat="43.94514" lon="7.29884">
        <ele>691.5</ele>
        <time>2013-12-07T09:51:25Z</time>
      </trkpt>
      <trkpt lat="43.94522" lon="7.29881">
        <ele>692.6</ele>
        <time>2013-12-07T09:51:30Z</time>
      </trkpt>
      <trkpt lat="43.94529" lon="7.29878">
        <ele>693.4</ele>
        <time>2013-12-07T09:51:35Z</time>
      </trkpt>
      <trkpt lat="43.94537" lon="7.29876">
        <ele>694.2</ele>
        <time>2013-12-07T09:51:40Z</time>
      </trkpt>
      <trkpt lat="43.94545" lon="7.29874">
        <ele>695</ele>
        <time>2013-12-07T09:51:45Z</time>
      </trkpt>
      <trkpt lat="43.94552" lon="7.29872">
        <ele>696</ele>
        <time>2013-12-07T09:51:50Z</time>
      </trkpt>
      <trkpt lat="43.9456" lon="7.29874">
        <ele>696.5</ele>
        <time>2013-12-07T09:51:55Z</time>
      </trkpt>
      <trkpt lat="43.94568" lon="7.29879">
        <ele>696.9</ele>
        <time>2013-12-07T09:52:00Z</time>
      </trkpt>
      <trkpt lat="43.9457" lon="7.2988">
        <ele>696.7</ele>
        <time>2013-12-07T09:52:01Z</time>
      </trkpt>
      <trkpt lat="43.94582" lon="7.29894">
        <ele>698.3</ele>
        <time>2013-12-07T09:52:10Z</time>
      </trkpt>
      <trkpt lat="43.94588" lon="7.29902">
        <ele>699.3</ele>
        <time>2013-12-07T09:52:15Z</time>
      </trkpt>
      <trkpt lat="43.94594" lon="7.2991">
        <ele>699.2</ele>
        <time>2013-12-07T09:52:20Z</time>
      </trkpt>
      <trkpt lat="43.94601" lon="7.29917">
        <ele>700.8</ele>
        <time>2013-12-07T09:52:25Z</time>
      </trkpt>
      <trkpt lat="43.94608" lon="7.29924">
        <ele>700.6</ele>
        <time>2013-12-07T09:52:30Z</time>
      </trkpt>
      <trkpt lat="43.94615" lon="7.29931">
        <ele>701.5</ele>
        <time>2013-12-07T09:52:35Z</time>
      </trkpt>
      <trkpt lat="43.94622" lon="7.29937">
        <ele>702</ele>
        <time>2013-12-07T09:52:40Z</time>
      </trkpt>
      <trkpt lat="43.94629" lon="7.29944">
        <ele>702.6</ele>
        <time>2013-12-07T09:52:45Z</time>
      </trkpt>
      <trkpt lat="43.94637" lon="7.29949">
        <ele>703.6</ele>
        <time>2013-12-07T09:52:50Z</time>
      </trkpt>
      <trkpt lat="43.94644" lon="7.29955">
        <ele>704.6</ele>
        <time>2013-12-07T09:52:55Z</time>
      </trkpt>
      <trkpt lat="43.94652" lon="7.29961">
        <ele>705.4</ele>
        <time>2013-12-07T09:53:00Z</time>
      </trkpt>
      <trkpt lat="43.94659" lon="7.29965">
        <ele>705.6</ele>
        <time>2013-12-07T09:53:05Z</time>
      </trkpt>
      <trkpt lat="43.94661" lon="7.29966">
        <ele>705.6</ele>
        <time>2013-12-07T09:53:06Z</time>
      </trkpt>
      <trkpt lat="43.94675" lon="7.29973">
        <ele>706.6</ele>
        <time>2013-12-07T09:53:15Z</time>
      </trkpt>
      <trkpt lat="43.94669" lon="7.29982">
        <ele>708.6</ele>
        <time>2013-12-07T09:53:29Z</time>
      </trkpt>
      <trkpt lat="43.94661" lon="7.29979">
        <ele>709.9</ele>
        <time>2013-12-07T09:53:35Z</time>
      </trkpt>
      <trkpt lat="43.94654" lon="7.29976">
        <ele>711.1</ele>
        <time>2013-12-07T09:53:40Z</time>
      </trkpt>
      <trkpt lat="43.94646" lon="7.29973">
        <ele>711.5</ele>
        <time>2013-12-07T09:53:45Z</time>
      </trkpt>
      <trkpt lat="43.94639" lon="7.29971">
        <ele>712.8</ele>
        <time>2013-12-07T09:53:50Z</time>
      </trkpt>
      <trkpt lat="43.94631" lon="7.29968">
        <ele>713</ele>
        <time>2013-12-07T09:53:55Z</time>
      </trkpt>
      <trkpt lat="43.94624" lon="7.29965">
        <ele>714.1</ele>
        <time>2013-12-07T09:54:00Z</time>
      </trkpt>
      <trkpt lat="43.94616" lon="7.29961">
        <ele>714.7</ele>
        <time>2013-12-07T09:54:05Z</time>
      </trkpt>
      <trkpt lat="43.94609" lon="7.29957">
        <ele>715.3</ele>
        <time>2013-12-07T09:54:10Z</time>
      </trkpt>
      <trkpt lat="43.94608" lon="7.29956">
        <ele>715.4</ele>
        <time>2013-12-07T09:54:11Z</time>
      </trkpt>
      <trkpt lat="43.94595" lon="7.29947">
        <ele>717.8</ele>
        <time>2013-12-07T09:54:20Z</time>
      </trkpt>
      <trkpt lat="43.94588" lon="7.29941">
        <ele>718.6</ele>
        <time>2013-12-07T09:54:25Z</time>
      </trkpt>
      <trkpt lat="43.94581" lon="7.29936">
        <ele>718.6</ele>
        <time>2013-12-07T09:54:30Z</time>
      </trkpt>
      <trkpt lat="43.94574" lon="7.29931">
        <ele>719.7</ele>
        <time>2013-12-07T09:54:35Z</time>
      </trkpt>
      <trkpt lat="43.94567" lon="7.29928">
        <ele>720.8</ele>
        <time>2013-12-07T09:54:40Z</time>
      </trkpt>
      <trkpt lat="43.9456" lon="7.29928">
        <ele>721.6</ele>
        <time>2013-12-07T09:54:45Z</time>
      </trkpt>
      <trkpt lat="43.94553" lon="7.29931">
        <ele>722.3</ele>
        <time>2013-12-07T09:54:50Z</time>
      </trkpt>
      <trkpt lat="43.94546" lon="7.29937">
        <ele>722.8</ele>
        <time>2013-12-07T09:54:55Z</time>
      </trkpt>
      <trkpt lat="43.94538" lon="7.29943">
        <ele>723.7</ele>
        <time>2013-12-07T09:55:00Z</time>
      </trkpt>
      <trkpt lat="43.94532" lon="7.29949">
        <ele>724.1</ele>
        <time>2013-12-07T09:55:04Z</time>
      </trkpt>
      <trkpt lat="43.94525" lon="7.29954">
        <ele>724.9</ele>
        <time>2013-12-07T09:55:08Z</time>
      </trkpt>
      <trkpt lat="43.94519" lon="7.29959">
        <ele>725.3</ele>
        <time>2013-12-07T09:55:12Z</time>
      </trkpt>
      <trkpt lat="43.94517" lon="7.29961">
        <ele>725.5</ele>
        <time>2013-12-07T09:55:13Z</time>
      </trkpt>
      <trkpt lat="43.94505" lon="7.29972">
        <ele>725.8</ele>
        <time>2013-12-07T09:55:21Z</time>
      </trkpt>
      <trkpt lat="43.94514" lon="7.29977">
        <ele>726.2</ele>
        <time>2013-12-07T09:55:30Z</time>
      </trkpt>
      <trkpt lat="43.94521" lon="7.29971">
        <ele>728</ele>
        <time>2013-12-07T09:55:35Z</time>
      </trkpt>
      <trkpt lat="43.94529" lon="7.29965">
        <ele>729.3</ele>
        <time>2013-12-07T09:55:40Z</time>
      </trkpt>
      <trkpt lat="43.94536" lon="7.29959">
        <ele>729.8</ele>
        <time>2013-12-07T09:55:45Z</time>
      </trkpt>
      <trkpt lat="43.94544" lon="7.29954">
        <ele>730.4</ele>
        <time>2013-12-07T09:55:50Z</time>
      </trkpt>
      <trkpt lat="43.94553" lon="7.29952">
        <ele>731.5</ele>
        <time>2013-12-07T09:55:55Z</time>
      </trkpt>
      <trkpt lat="43.94562" lon="7.29953">
        <ele>731.3</ele>
        <time>2013-12-07T09:56:00Z</time>
      </trkpt>
      <trkpt lat="43.94569" lon="7.29959">
        <ele>733.4</ele>
        <time>2013-12-07T09:56:05Z</time>
      </trkpt>
      <trkpt lat="43.94574" lon="7.29967">
        <ele>732.9</ele>
        <time>2013-12-07T09:56:11Z</time>
      </trkpt>
      <trkpt lat="43.94581" lon="7.29973">
        <ele>734.1</ele>
        <time>2013-12-07T09:56:16Z</time>
      </trkpt>
      <trkpt lat="43.94582" lon="7.29975">
        <ele>734.2</ele>
        <time>2013-12-07T09:56:17Z</time>
      </trkpt>
      <trkpt lat="43.94594" lon="7.29987">
        <ele>736.6</ele>
        <time>2013-12-07T09:56:26Z</time>
      </trkpt>
      <trkpt lat="43.94601" lon="7.29995">
        <ele>736.9</ele>
        <time>2013-12-07T09:56:31Z</time>
      </trkpt>
      <trkpt lat="43.94608" lon="7.30002">
        <ele>738.1</ele>
        <time>2013-12-07T09:56:36Z</time>
      </trkpt>
      <trkpt lat="43.94615" lon="7.3001">
        <ele>738.8</ele>
        <time>2013-12-07T09:56:41Z</time>
      </trkpt>
      <trkpt lat="43.94622" lon="7.30016">
        <ele>739.4</ele>
        <time>2013-12-07T09:56:46Z</time>
      </trkpt>
      <trkpt lat="43.94629" lon="7.30023">
        <ele>740</ele>
        <time>2013-12-07T09:56:51Z</time>
      </trkpt>
      <trkpt lat="43.94636" lon="7.30028">
        <ele>740.7</ele>
        <time>2013-12-07T09:56:56Z</time>
      </trkpt>
      <trkpt lat="43.94643" lon="7.30034">
        <ele>742.4</ele>
        <time>2013-12-07T09:57:01Z</time>
      </trkpt>
      <trkpt lat="43.94651" lon="7.3004">
        <ele>742.4</ele>
        <time>2013-12-07T09:57:06Z</time>
      </trkpt>
      <trkpt lat="43.94658" lon="7.30045">
        <ele>743.7</ele>
        <time>2013-12-07T09:57:11Z</time>
      </trkpt>
      <trkpt lat="43.94666" lon="7.30049">
        <ele>744.8</ele>
        <time>2013-12-07T09:57:16Z</time>
      </trkpt>
      <trkpt lat="43.94674" lon="7.30054">
        <ele>745.2</ele>
        <time>2013-12-07T09:57:21Z</time>
      </trkpt>
      <trkpt lat="43.94675" lon="7.30055">
        <ele>745.3</ele>
        <time>2013-12-07T09:57:22Z</time>
      </trkpt>
      <trkpt lat="43.9469" lon="7.30064">
        <ele>746.9</ele>
        <time>2013-12-07T09:57:31Z</time>
      </trkpt>
      <trkpt lat="43.94696" lon="7.30069">
        <ele>747.4</ele>
        <time>2013-12-07T09:57:35Z</time>
      </trkpt>
      <trkpt lat="43.94704" lon="7.30075">
        <ele>747.7</ele>
        <time>2013-12-07T09:57:40Z</time>
      </trkpt>
      <trkpt lat="43.94711" lon="7.30083">
        <ele>749.6</ele>
        <time>2013-12-07T09:57:45Z</time>
      </trkpt>
      <trkpt lat="43.94717" lon="7.30091">
        <ele>750.3</ele>
        <time>2013-12-07T09:57:50Z</time>
      </trkpt>
      <trkpt lat="43.94724" lon="7.301">
        <ele>750.8</ele>
        <time>2013-12-07T09:57:55Z</time>
      </trkpt>
      <trkpt lat="43.94731" lon="7.30106">
        <ele>751.7</ele>
        <time>2013-12-07T09:58:00Z</time>
      </trkpt>
      <trkpt lat="43.94739" lon="7.30111">
        <ele>751.9</ele>
        <time>2013-12-07T09:58:05Z</time>
      </trkpt>
      <trkpt lat="43.94746" lon="7.30116">
        <ele>753.7</ele>
        <time>2013-12-07T09:58:10Z</time>
      </trkpt>
      <trkpt lat="43.94754" lon="7.30122">
        <ele>754.2</ele>
        <time>2013-12-07T09:58:15Z</time>
      </trkpt>
      <trkpt lat="43.94762" lon="7.30128">
        <ele>754.7</ele>
        <time>2013-12-07T09:58:20Z</time>
      </trkpt>
      <trkpt lat="43.94769" lon="7.30132">
        <ele>755.6</ele>
        <time>2013-12-07T09:58:26Z</time>
      </trkpt>
      <trkpt lat="43.9477" lon="7.30133">
        <ele>756</ele>
        <time>2013-12-07T09:58:27Z</time>
      </trkpt>
      <trkpt lat="43.94785" lon="7.30142">
        <ele>757.1</ele>
        <time>2013-12-07T09:58:43Z</time>
      </trkpt>
      <trkpt lat="43.94793" lon="7.30147">
        <ele>758</ele>
        <time>2013-12-07T09:58:51Z</time>
      </trkpt>
      <trkpt lat="43.94801" lon="7.30152">
        <ele>758.4</ele>
        <time>2013-12-07T09:58:58Z</time>
      </trkpt>
      <trkpt lat="43.94809" lon="7.30155">
        <ele>758.7</ele>
        <time>2013-12-07T09:59:05Z</time>
      </trkpt>
      <trkpt lat="43.94818" lon="7.30158">
        <ele>760.1</ele>
        <time>2013-12-07T09:59:12Z</time>
      </trkpt>
      <trkpt lat="43.94824" lon="7.30167">
        <ele>761.1</ele>
        <time>2013-12-07T10:01:31Z</time>
      </trkpt>
      <trkpt lat="43.94824" lon="7.30167">
        <ele>761.3</ele>
        <time>2013-12-07T10:01:32Z</time>
      </trkpt>
      <trkpt lat="43.94834" lon="7.30186">
        <ele>759.5</ele>
        <time>2013-12-07T10:02:01Z</time>
      </trkpt>
      <trkpt lat="43.94837" lon="7.30198">
        <ele>758.7</ele>
        <time>2013-12-07T10:02:45Z</time>
      </trkpt>
      <trkpt lat="43.94837" lon="7.30198">
        <ele>759</ele>
        <time>2013-12-07T10:02:46Z</time>
      </trkpt>
      <trkpt lat="43.94845" lon="7.30201">
        <ele>759.4</ele>
        <time>2013-12-07T10:04:41Z</time>
      </trkpt>
      <trkpt lat="43.94856" lon="7.30217">
        <ele>759.3</ele>
        <time>2013-12-07T10:04:49Z</time>
      </trkpt>
      <trkpt lat="43.9486" lon="7.30226">
        <ele>759.1</ele>
        <time>2013-12-07T10:04:53Z</time>
      </trkpt>
      <trkpt lat="43.94864" lon="7.30237">
        <ele>758.9</ele>
        <time>2013-12-07T10:04:57Z</time>
      </trkpt>
      <trkpt lat="43.94869" lon="7.30245">
        <ele>757.7</ele>
        <time>2013-12-07T10:05:01Z</time>
      </trkpt>
      <trkpt lat="43.94874" lon="7.30254">
        <ele>757.3</ele>
        <time>2013-12-07T10:05:08Z</time>
      </trkpt>
      <trkpt lat="43.94879" lon="7.30263">
        <ele>756.9</ele>
        <time>2013-12-07T10:05:12Z</time>
      </trkpt>
      <trkpt lat="43.94885" lon="7.3027">
        <ele>756.1</ele>
        <time>2013-12-07T10:05:15Z</time>
      </trkpt>
      <trkpt lat="43.9489" lon="7.3028">
        <ele>755.7</ele>
        <time>2013-12-07T10:05:18Z</time>
      </trkpt>
      <trkpt lat="43.94894" lon="7.30286">
        <ele>755.5</ele>
        <time>2013-12-07T10:05:20Z</time>
      </trkpt>
      <trkpt lat="43.94899" lon="7.30293">
        <ele>755.1</ele>
        <time>2013-12-07T10:05:22Z</time>
      </trkpt>
      <trkpt lat="43.94905" lon="7.30299">
        <ele>754.5</ele>
        <time>2013-12-07T10:05:24Z</time>
      </trkpt>
      <trkpt lat="43.94911" lon="7.30307">
        <ele>753.3</ele>
        <time>2013-12-07T10:05:31Z</time>
      </trkpt>
      <trkpt lat="43.94915" lon="7.30314">
        <ele>753.9</ele>
        <time>2013-12-07T10:05:36Z</time>
      </trkpt>
      <trkpt lat="43.9492" lon="7.30323">
        <ele>753.7</ele>
        <time>2013-12-07T10:05:39Z</time>
      </trkpt>
      <trkpt lat="43.94922" lon="7.30332">
        <ele>753.6</ele>
        <time>2013-12-07T10:05:41Z</time>
      </trkpt>
      <trkpt lat="43.94923" lon="7.30336">
        <ele>753.6</ele>
        <time>2013-12-07T10:05:42Z</time>
      </trkpt>
      <trkpt lat="43.94926" lon="7.30354">
        <ele>752.1</ele>
        <time>2013-12-07T10:05:49Z</time>
      </trkpt>
      <trkpt lat="43.94917" lon="7.30359">
        <ele>752.9</ele>
        <time>2013-12-07T10:05:54Z</time>
      </trkpt>
      <trkpt lat="43.9491" lon="7.30364">
        <ele>754.3</ele>
        <time>2013-12-07T10:05:59Z</time>
      </trkpt>
      <trkpt lat="43.94903" lon="7.3037">
        <ele>755.5</ele>
        <time>2013-12-07T10:06:05Z</time>
      </trkpt>
      <trkpt lat="43.94896" lon="7.30377">
        <ele>757.1</ele>
        <time>2013-12-07T10:06:12Z</time>
      </trkpt>
      <trkpt lat="43.9489" lon="7.30381">
        <ele>758.2</ele>
        <time>2013-12-07T10:06:17Z</time>
      </trkpt>
      <trkpt lat="43.94882" lon="7.30386">
        <ele>758.6</ele>
        <time>2013-12-07T10:06:21Z</time>
      </trkpt>
      <trkpt lat="43.94877" lon="7.30395">
        <ele>758.4</ele>
        <time>2013-12-07T10:06:25Z</time>
      </trkpt>
      <trkpt lat="43.94872" lon="7.30405">
        <ele>757.7</ele>
        <time>2013-12-07T10:06:31Z</time>
      </trkpt>
      <trkpt lat="43.94869" lon="7.30416">
        <ele>757.5</ele>
        <time>2013-12-07T10:06:35Z</time>
      </trkpt>
      <trkpt lat="43.94867" lon="7.30426">
        <ele>757.8</ele>
        <time>2013-12-07T10:06:38Z</time>
      </trkpt>
      <trkpt lat="43.94866" lon="7.30438">
        <ele>758.4</ele>
        <time>2013-12-07T10:06:42Z</time>
      </trkpt>
      <trkpt lat="43.94866" lon="7.30441">
        <ele>758.5</ele>
        <time>2013-12-07T10:06:43Z</time>
      </trkpt>
      <trkpt lat="43.94864" lon="7.30458">
        <ele>758.8</ele>
        <time>2013-12-07T10:06:48Z</time>
      </trkpt>
      <trkpt lat="43.94863" lon="7.30469">
        <ele>758.8</ele>
        <time>2013-12-07T10:06:51Z</time>
      </trkpt>
      <trkpt lat="43.94862" lon="7.30479">
        <ele>758.4</ele>
        <time>2013-12-07T10:06:54Z</time>
      </trkpt>
      <trkpt lat="43.94861" lon="7.30489">
        <ele>758.5</ele>
        <time>2013-12-07T10:06:57Z</time>
      </trkpt>
      <trkpt lat="43.9486" lon="7.30499">
        <ele>758.9</ele>
        <time>2013-12-07T10:07:00Z</time>
      </trkpt>
      <trkpt lat="43.9486" lon="7.30509">
        <ele>759.6</ele>
        <time>2013-12-07T10:07:03Z</time>
      </trkpt>
      <trkpt lat="43.94859" lon="7.30521">
        <ele>759.5</ele>
        <time>2013-12-07T10:07:06Z</time>
      </trkpt>
      <trkpt lat="43.94858" lon="7.30529">
        <ele>759.5</ele>
        <time>2013-12-07T10:07:08Z</time>
      </trkpt>
      <trkpt lat="43.94856" lon="7.30538">
        <ele>758.8</ele>
        <time>2013-12-07T10:07:10Z</time>
      </trkpt>
      <trkpt lat="43.94855" lon="7.30546">
        <ele>758.4</ele>
        <time>2013-12-07T10:07:12Z</time>
      </trkpt>
      <trkpt lat="43.94853" lon="7.30558">
        <ele>757.9</ele>
        <time>2013-12-07T10:07:15Z</time>
      </trkpt>
      <trkpt lat="43.94853" lon="7.30568">
        <ele>758.6</ele>
        <time>2013-12-07T10:07:18Z</time>
      </trkpt>
      <trkpt lat="43.94854" lon="7.30578">
        <ele>758.9</ele>
        <time>2013-12-07T10:07:21Z</time>
      </trkpt>
      <trkpt lat="43.94854" lon="7.3059">
        <ele>759.5</ele>
        <time>2013-12-07T10:07:25Z</time>
      </trkpt>
      <trkpt lat="43.94854" lon="7.306">
        <ele>759.8</ele>
        <time>2013-12-07T10:07:29Z</time>
      </trkpt>
      <trkpt lat="43.94855" lon="7.30611">
        <ele>761.7</ele>
        <time>2013-12-07T10:07:33Z</time>
      </trkpt>
      <trkpt lat="43.94855" lon="7.30622">
        <ele>762.8</ele>
        <time>2013-12-07T10:07:37Z</time>
      </trkpt>
      <trkpt lat="43.94856" lon="7.30633">
        <ele>763</ele>
        <time>2013-12-07T10:07:41Z</time>
      </trkpt>
      <trkpt lat="43.94858" lon="7.30644">
        <ele>763.4</ele>
        <time>2013-12-07T10:07:45Z</time>
      </trkpt>
      <trkpt lat="43.94858" lon="7.30647">
        <ele>763.7</ele>
        <time>2013-12-07T10:07:46Z</time>
      </trkpt>
      <trkpt lat="43.9486" lon="7.30667">
        <ele>764.5</ele>
        <time>2013-12-07T10:07:53Z</time>
      </trkpt>
      <trkpt lat="43.9486" lon="7.30677">
        <ele>765.2</ele>
        <time>2013-12-07T10:07:57Z</time>
      </trkpt>
      <trkpt lat="43.94861" lon="7.30687">
        <ele>765.9</ele>
        <time>2013-12-07T10:08:01Z</time>
      </trkpt>
      <trkpt lat="43.94863" lon="7.30697">
        <ele>766.3</ele>
        <time>2013-12-07T10:08:05Z</time>
      </trkpt>
      <trkpt lat="43.94865" lon="7.30708">
        <ele>767.1</ele>
        <time>2013-12-07T10:08:09Z</time>
      </trkpt>
      <trkpt lat="43.94867" lon="7.30719">
        <ele>767.5</ele>
        <time>2013-12-07T10:08:13Z</time>
      </trkpt>
      <trkpt lat="43.94869" lon="7.3073">
        <ele>768.5</ele>
        <time>2013-12-07T10:08:17Z</time>
      </trkpt>
      <trkpt lat="43.9487" lon="7.30741">
        <ele>768.9</ele>
        <time>2013-12-07T10:08:21Z</time>
      </trkpt>
      <trkpt lat="43.94871" lon="7.30751">
        <ele>769.7</ele>
        <time>2013-12-07T10:08:25Z</time>
      </trkpt>
      <trkpt lat="43.94872" lon="7.30761">
        <ele>770.8</ele>
        <time>2013-12-07T10:08:29Z</time>
      </trkpt>
      <trkpt lat="43.94872" lon="7.30771">
        <ele>771.1</ele>
        <time>2013-12-07T10:08:33Z</time>
      </trkpt>
      <trkpt lat="43.94871" lon="7.30782">
        <ele>772.7</ele>
        <time>2013-12-07T10:08:37Z</time>
      </trkpt>
      <trkpt lat="43.94871" lon="7.30792">
        <ele>772.5</ele>
        <time>2013-12-07T10:08:41Z</time>
      </trkpt>
      <trkpt lat="43.94871" lon="7.30803">
        <ele>773.4</ele>
        <time>2013-12-07T10:08:45Z</time>
      </trkpt>
      <trkpt lat="43.94871" lon="7.30814">
        <ele>773.3</ele>
        <time>2013-12-07T10:08:49Z</time>
      </trkpt>
      <trkpt lat="43.94872" lon="7.30817">
        <ele>773.3</ele>
        <time>2013-12-07T10:08:50Z</time>
      </trkpt>
      <trkpt lat="43.94876" lon="7.30836">
        <ele>774.2</ele>
        <time>2013-12-07T10:08:57Z</time>
      </trkpt>
      <trkpt lat="43.94879" lon="7.30846">
        <ele>775.2</ele>
        <time>2013-12-07T10:09:01Z</time>
      </trkpt>
      <trkpt lat="43.94881" lon="7.30857">
        <ele>776</ele>
        <time>2013-12-07T10:09:06Z</time>
      </trkpt>
      <trkpt lat="43.94882" lon="7.30869">
        <ele>777.2</ele>
        <time>2013-12-07T10:09:12Z</time>
      </trkpt>
      <trkpt lat="43.94884" lon="7.30881">
        <ele>778.7</ele>
        <time>2013-12-07T10:09:18Z</time>
      </trkpt>
      <trkpt lat="43.94882" lon="7.30892">
        <ele>780.1</ele>
        <time>2013-12-07T10:09:24Z</time>
      </trkpt>
      <trkpt lat="43.9488" lon="7.30903">
        <ele>781.4</ele>
        <time>2013-12-07T10:09:30Z</time>
      </trkpt>
      <trkpt lat="43.9488" lon="7.30913">
        <ele>782.8</ele>
        <time>2013-12-07T10:09:37Z</time>
      </trkpt>
      <trkpt lat="43.94881" lon="7.30925">
        <ele>784</ele>
        <time>2013-12-07T10:09:44Z</time>
      </trkpt>
      <trkpt lat="43.94885" lon="7.30936">
        <ele>785.1</ele>
        <time>2013-12-07T10:09:51Z</time>
      </trkpt>
      <trkpt lat="43.94885" lon="7.30937">
        <ele>785.2</ele>
        <time>2013-12-07T10:09:52Z</time>
      </trkpt>
      <trkpt lat="43.94889" lon="7.30957">
        <ele>786.4</ele>
        <time>2013-12-07T10:10:03Z</time>
      </trkpt>
      <trkpt lat="43.9489" lon="7.30969">
        <ele>787.7</ele>
        <time>2013-12-07T10:10:10Z</time>
      </trkpt>
      <trkpt lat="43.9489" lon="7.30979">
        <ele>788.6</ele>
        <time>2013-12-07T10:10:15Z</time>
      </trkpt>
      <trkpt lat="43.94889" lon="7.30991">
        <ele>788.3</ele>
        <time>2013-12-07T10:10:19Z</time>
      </trkpt>
      <trkpt lat="43.94887" lon="7.31">
        <ele>788.6</ele>
        <time>2013-12-07T10:10:22Z</time>
      </trkpt>
      <trkpt lat="43.94884" lon="7.3101">
        <ele>788.5</ele>
        <time>2013-12-07T10:10:26Z</time>
      </trkpt>
      <trkpt lat="43.9488" lon="7.31019">
        <ele>788.6</ele>
        <time>2013-12-07T10:10:31Z</time>
      </trkpt>
      <trkpt lat="43.94874" lon="7.31027">
        <ele>789</ele>
        <time>2013-12-07T10:10:36Z</time>
      </trkpt>
      <trkpt lat="43.94866" lon="7.31032">
        <ele>789.5</ele>
        <time>2013-12-07T10:10:41Z</time>
      </trkpt>
      <trkpt lat="43.94859" lon="7.31035">
        <ele>789.6</ele>
        <time>2013-12-07T10:10:45Z</time>
      </trkpt>
      <trkpt lat="43.9485" lon="7.31031">
        <ele>790.3</ele>
        <time>2013-12-07T10:10:49Z</time>
      </trkpt>
      <trkpt lat="43.94842" lon="7.31032">
        <ele>790.2</ele>
        <time>2013-12-07T10:10:53Z</time>
      </trkpt>
      <trkpt lat="43.9484" lon="7.31034">
        <ele>790.5</ele>
        <time>2013-12-07T10:10:54Z</time>
      </trkpt>
      <trkpt lat="43.94832" lon="7.31044">
        <ele>790.3</ele>
        <time>2013-12-07T10:10:58Z</time>
      </trkpt>
      <trkpt lat="43.94827" lon="7.31049">
        <ele>790.2</ele>
        <time>2013-12-07T10:11:00Z</time>
      </trkpt>
      <trkpt lat="43.9482" lon="7.31057">
        <ele>790</ele>
        <time>2013-12-07T10:11:03Z</time>
      </trkpt>
      <trkpt lat="43.94815" lon="7.31063">
        <ele>789.7</ele>
        <time>2013-12-07T10:11:06Z</time>
      </trkpt>
      <trkpt lat="43.9481" lon="7.31069">
        <ele>789.7</ele>
        <time>2013-12-07T10:11:09Z</time>
      </trkpt>
      <trkpt lat="43.94805" lon="7.31078">
        <ele>790.5</ele>
        <time>2013-12-07T10:11:13Z</time>
      </trkpt>
      <trkpt lat="43.948" lon="7.31087">
        <ele>791.4</ele>
        <time>2013-12-07T10:11:17Z</time>
      </trkpt>
      <trkpt lat="43.94796" lon="7.31096">
        <ele>792.7</ele>
        <time>2013-12-07T10:11:21Z</time>
      </trkpt>
      <trkpt lat="43.94793" lon="7.31106">
        <ele>792.4</ele>
        <time>2013-12-07T10:11:25Z</time>
      </trkpt>
      <trkpt lat="43.94789" lon="7.31115">
        <ele>793.5</ele>
        <time>2013-12-07T10:11:29Z</time>
      </trkpt>
      <trkpt lat="43.94785" lon="7.31126">
        <ele>793.8</ele>
        <time>2013-12-07T10:11:34Z</time>
      </trkpt>
      <trkpt lat="43.94783" lon="7.31136">
        <ele>794.9</ele>
        <time>2013-12-07T10:11:39Z</time>
      </trkpt>
      <trkpt lat="43.94779" lon="7.31147">
        <ele>796.1</ele>
        <time>2013-12-07T10:11:44Z</time>
      </trkpt>
      <trkpt lat="43.94774" lon="7.31155">
        <ele>798</ele>
        <time>2013-12-07T10:11:49Z</time>
      </trkpt>
      <trkpt lat="43.94769" lon="7.31164">
        <ele>799.6</ele>
        <time>2013-12-07T10:11:55Z</time>
      </trkpt>
      <trkpt lat="43.94769" lon="7.31165">
        <ele>799.9</ele>
        <time>2013-12-07T10:11:56Z</time>
      </trkpt>
      <trkpt lat="43.9476" lon="7.31183">
        <ele>802.3</ele>
        <time>2013-12-07T10:12:08Z</time>
      </trkpt>
      <trkpt lat="43.94759" lon="7.31194">
        <ele>803.4</ele>
        <time>2013-12-07T10:12:15Z</time>
      </trkpt>
      <trkpt lat="43.94757" lon="7.31205">
        <ele>804.6</ele>
        <time>2013-12-07T10:12:21Z</time>
      </trkpt>
      <trkpt lat="43.94759" lon="7.31217">
        <ele>804</ele>
        <time>2013-12-07T10:12:27Z</time>
      </trkpt>
      <trkpt lat="43.9476" lon="7.31227">
        <ele>803.9</ele>
        <time>2013-12-07T10:12:32Z</time>
      </trkpt>
      <trkpt lat="43.94762" lon="7.31237">
        <ele>804.4</ele>
        <time>2013-12-07T10:12:36Z</time>
      </trkpt>
      <trkpt lat="43.94765" lon="7.31248">
        <ele>805</ele>
        <time>2013-12-07T10:12:41Z</time>
      </trkpt>
      <trkpt lat="43.94768" lon="7.31258">
        <ele>805.4</ele>
        <time>2013-12-07T10:12:46Z</time>
      </trkpt>
      <trkpt lat="43.94773" lon="7.31267">
        <ele>805.7</ele>
        <time>2013-12-07T10:12:51Z</time>
      </trkpt>
      <trkpt lat="43.94777" lon="7.31278">
        <ele>805.4</ele>
        <time>2013-12-07T10:12:56Z</time>
      </trkpt>
      <trkpt lat="43.94777" lon="7.3128">
        <ele>805.4</ele>
        <time>2013-12-07T10:12:57Z</time>
      </trkpt>
      <trkpt lat="43.94779" lon="7.31299">
        <ele>806.8</ele>
        <time>2013-12-07T10:13:05Z</time>
      </trkpt>
      <trkpt lat="43.94772" lon="7.31304">
        <ele>806.4</ele>
        <time>2013-12-07T10:13:09Z</time>
      </trkpt>
      <trkpt lat="43.94764" lon="7.31307">
        <ele>805.9</ele>
        <time>2013-12-07T10:13:12Z</time>
      </trkpt>
      <trkpt lat="43.94757" lon="7.31312">
        <ele>805.5</ele>
        <time>2013-12-07T10:13:15Z</time>
      </trkpt>
      <trkpt lat="43.94749" lon="7.31318">
        <ele>804.8</ele>
        <time>2013-12-07T10:13:18Z</time>
      </trkpt>
      <trkpt lat="43.94742" lon="7.31325">
        <ele>804.2</ele>
        <time>2013-12-07T10:13:21Z</time>
      </trkpt>
      <trkpt lat="43.94737" lon="7.31329">
        <ele>804.3</ele>
        <time>2013-12-07T10:13:23Z</time>
      </trkpt>
      <trkpt lat="43.94731" lon="7.31333">
        <ele>803.2</ele>
        <time>2013-12-07T10:13:25Z</time>
      </trkpt>
      <trkpt lat="43.94727" lon="7.3134">
        <ele>801.8</ele>
        <time>2013-12-07T10:13:27Z</time>
      </trkpt>
      <trkpt lat="43.94722" lon="7.31348">
        <ele>801</ele>
        <time>2013-12-07T10:13:29Z</time>
      </trkpt>
      <trkpt lat="43.94721" lon="7.31357">
        <ele>800.2</ele>
        <time>2013-12-07T10:13:31Z</time>
      </trkpt>
      <trkpt lat="43.9472" lon="7.31365">
        <ele>799.6</ele>
        <time>2013-12-07T10:13:33Z</time>
      </trkpt>
      <trkpt lat="43.94719" lon="7.31375">
        <ele>799.5</ele>
        <time>2013-12-07T10:13:35Z</time>
      </trkpt>
      <trkpt lat="43.94716" lon="7.31386">
        <ele>799</ele>
        <time>2013-12-07T10:13:38Z</time>
      </trkpt>
      <trkpt lat="43.9471" lon="7.31388">
        <ele>798.9</ele>
        <time>2013-12-07T10:13:40Z</time>
      </trkpt>
      <trkpt lat="43.94702" lon="7.3139">
        <ele>797.7</ele>
        <time>2013-12-07T10:13:43Z</time>
      </trkpt>
      <trkpt lat="43.94693" lon="7.31394">
        <ele>797.2</ele>
        <time>2013-12-07T10:13:48Z</time>
      </trkpt>
      <trkpt lat="43.94686" lon="7.314">
        <ele>798.4</ele>
        <time>2013-12-07T10:13:53Z</time>
      </trkpt>
      <trkpt lat="43.94679" lon="7.31407">
        <ele>800.2</ele>
        <time>2013-12-07T10:13:58Z</time>
      </trkpt>
      <trkpt lat="43.94678" lon="7.31408">
        <ele>800.3</ele>
        <time>2013-12-07T10:13:59Z</time>
      </trkpt>
      <trkpt lat="43.94668" lon="7.31423">
        <ele>801.2</ele>
        <time>2013-12-07T10:14:08Z</time>
      </trkpt>
      <trkpt lat="43.94661" lon="7.31431">
        <ele>802</ele>
        <time>2013-12-07T10:14:14Z</time>
      </trkpt>
      <trkpt lat="43.94653" lon="7.31429">
        <ele>803.1</ele>
        <time>2013-12-07T10:14:20Z</time>
      </trkpt>
      <trkpt lat="43.94644" lon="7.3143">
        <ele>803.8</ele>
        <time>2013-12-07T10:14:26Z</time>
      </trkpt>
      <trkpt lat="43.94636" lon="7.31434">
        <ele>805.3</ele>
        <time>2013-12-07T10:14:32Z</time>
      </trkpt>
      <trkpt lat="43.94628" lon="7.31439">
        <ele>807</ele>
        <time>2013-12-07T10:14:38Z</time>
      </trkpt>
      <trkpt lat="43.94621" lon="7.31442">
        <ele>806.6</ele>
        <time>2013-12-07T10:14:44Z</time>
      </trkpt>
      <trkpt lat="43.94613" lon="7.31441">
        <ele>807.3</ele>
        <time>2013-12-07T10:14:49Z</time>
      </trkpt>
      <trkpt lat="43.94604" lon="7.3144">
        <ele>806.9</ele>
        <time>2013-12-07T10:14:53Z</time>
      </trkpt>
      <trkpt lat="43.94596" lon="7.31442">
        <ele>807.2</ele>
        <time>2013-12-07T10:14:58Z</time>
      </trkpt>
      <trkpt lat="43.94587" lon="7.31448">
        <ele>807.4</ele>
        <time>2013-12-07T10:15:13Z</time>
      </trkpt>
      <trkpt lat="43.94587" lon="7.31448">
        <ele>807.4</ele>
        <time>2013-12-07T10:15:14Z</time>
      </trkpt>
      <trkpt lat="43.94572" lon="7.31455">
        <ele>809.3</ele>
        <time>2013-12-07T10:16:28Z</time>
      </trkpt>
      <trkpt lat="43.94572" lon="7.31455">
        <ele>809.7</ele>
        <time>2013-12-07T10:16:29Z</time>
      </trkpt>
      <trkpt lat="43.94558" lon="7.31465">
        <ele>812.8</ele>
        <time>2013-12-07T10:16:44Z</time>
      </trkpt>
      <trkpt lat="43.94551" lon="7.31472">
        <ele>814.1</ele>
        <time>2013-12-07T10:16:51Z</time>
      </trkpt>
      <trkpt lat="43.94545" lon="7.31479">
        <ele>815.5</ele>
        <time>2013-12-07T10:16:58Z</time>
      </trkpt>
      <trkpt lat="43.94539" lon="7.31487">
        <ele>817.6</ele>
        <time>2013-12-07T10:17:06Z</time>
      </trkpt>
      <trkpt lat="43.94532" lon="7.31494">
        <ele>819.1</ele>
        <time>2013-12-07T10:17:14Z</time>
      </trkpt>
      <trkpt lat="43.94525" lon="7.31501">
        <ele>820.4</ele>
        <time>2013-12-07T10:17:21Z</time>
      </trkpt>
      <trkpt lat="43.94518" lon="7.31508">
        <ele>821.5</ele>
        <time>2013-12-07T10:17:29Z</time>
      </trkpt>
      <trkpt lat="43.94517" lon="7.3151">
        <ele>821.5</ele>
        <time>2013-12-07T10:17:30Z</time>
      </trkpt>
      <trkpt lat="43.94504" lon="7.31523">
        <ele>824.9</ele>
        <time>2013-12-07T10:17:44Z</time>
      </trkpt>
      <trkpt lat="43.94497" lon="7.31529">
        <ele>826.9</ele>
        <time>2013-12-07T10:17:52Z</time>
      </trkpt>
      <trkpt lat="43.94491" lon="7.31537">
        <ele>828.2</ele>
        <time>2013-12-07T10:18:00Z</time>
      </trkpt>
      <trkpt lat="43.94485" lon="7.31546">
        <ele>830.4</ele>
        <time>2013-12-07T10:18:08Z</time>
      </trkpt>
      <trkpt lat="43.94485" lon="7.31558">
        <ele>833.5</ele>
        <time>2013-12-07T10:18:17Z</time>
      </trkpt>
      <trkpt lat="43.94482" lon="7.31569">
        <ele>835.1</ele>
        <time>2013-12-07T10:18:25Z</time>
      </trkpt>
      <trkpt lat="43.9448" lon="7.31581">
        <ele>836.8</ele>
        <time>2013-12-07T10:18:33Z</time>
      </trkpt>
      <trkpt lat="43.9448" lon="7.31583">
        <ele>837.2</ele>
        <time>2013-12-07T10:18:34Z</time>
      </trkpt>
      <trkpt lat="43.9449" lon="7.316">
        <ele>840.9</ele>
        <time>2013-12-07T10:18:48Z</time>
      </trkpt>
      <trkpt lat="43.94493" lon="7.31611">
        <ele>841.8</ele>
        <time>2013-12-07T10:18:56Z</time>
      </trkpt>
      <trkpt lat="43.94498" lon="7.31621">
        <ele>842.6</ele>
        <time>2013-12-07T10:19:04Z</time>
      </trkpt>
      <trkpt lat="43.94503" lon="7.3163">
        <ele>843.5</ele>
        <time>2013-12-07T10:19:11Z</time>
      </trkpt>
      <trkpt lat="43.9451" lon="7.31638">
        <ele>845.9</ele>
        <time>2013-12-07T10:19:18Z</time>
      </trkpt>
      <trkpt lat="43.94512" lon="7.31649">
        <ele>847.5</ele>
        <time>2013-12-07T10:19:25Z</time>
      </trkpt>
      <trkpt lat="43.94517" lon="7.31659">
        <ele>848.7</ele>
        <time>2013-12-07T10:19:32Z</time>
      </trkpt>
      <trkpt lat="43.94523" lon="7.31666">
        <ele>849.2</ele>
        <time>2013-12-07T10:19:38Z</time>
      </trkpt>
      <trkpt lat="43.94524" lon="7.31667">
        <ele>849.2</ele>
        <time>2013-12-07T10:19:39Z</time>
      </trkpt>
      <trkpt lat="43.94537" lon="7.31679">
        <ele>852.2</ele>
        <time>2013-12-07T10:19:52Z</time>
      </trkpt>
      <trkpt lat="43.94543" lon="7.31686">
        <ele>851.9</ele>
        <time>2013-12-07T10:19:58Z</time>
      </trkpt>
      <trkpt lat="43.94551" lon="7.3169">
        <ele>852.3</ele>
        <time>2013-12-07T10:20:04Z</time>
      </trkpt>
      <trkpt lat="43.94558" lon="7.31695">
        <ele>854.9</ele>
        <time>2013-12-07T10:20:11Z</time>
      </trkpt>
      <trkpt lat="43.94566" lon="7.31701">
        <ele>855</ele>
        <time>2013-12-07T10:20:18Z</time>
      </trkpt>
      <trkpt lat="43.94572" lon="7.31709">
        <ele>855.4</ele>
        <time>2013-12-07T10:20:23Z</time>
      </trkpt>
      <trkpt lat="43.94577" lon="7.31717">
        <ele>855.2</ele>
        <time>2013-12-07T10:20:27Z</time>
      </trkpt>
      <trkpt lat="43.94583" lon="7.31725">
        <ele>854.7</ele>
        <time>2013-12-07T10:20:31Z</time>
      </trkpt>
      <trkpt lat="43.94588" lon="7.31732">
        <ele>855.1</ele>
        <time>2013-12-07T10:20:34Z</time>
      </trkpt>
      <trkpt lat="43.94594" lon="7.31737">
        <ele>855</ele>
        <time>2013-12-07T10:20:37Z</time>
      </trkpt>
      <trkpt lat="43.946" lon="7.31743">
        <ele>855.7</ele>
        <time>2013-12-07T10:20:40Z</time>
      </trkpt>
      <trkpt lat="43.94602" lon="7.31745">
        <ele>855.9</ele>
        <time>2013-12-07T10:20:41Z</time>
      </trkpt>
      <trkpt lat="43.94614" lon="7.31752">
        <ele>856.1</ele>
        <time>2013-12-07T10:20:46Z</time>
      </trkpt>
      <trkpt lat="43.94621" lon="7.31757">
        <ele>856</ele>
        <time>2013-12-07T10:20:49Z</time>
      </trkpt>
      <trkpt lat="43.94629" lon="7.3176">
        <ele>856.4</ele>
        <time>2013-12-07T10:20:52Z</time>
      </trkpt>
      <trkpt lat="43.94636" lon="7.31763">
        <ele>856</ele>
        <time>2013-12-07T10:20:55Z</time>
      </trkpt>
      <trkpt lat="43.94643" lon="7.31769">
        <ele>856.3</ele>
        <time>2013-12-07T10:20:58Z</time>
      </trkpt>
      <trkpt lat="43.94646" lon="7.31779">
        <ele>856.2</ele>
        <time>2013-12-07T10:21:01Z</time>
      </trkpt>
      <trkpt lat="43.94651" lon="7.31787">
        <ele>856.3</ele>
        <time>2013-12-07T10:21:04Z</time>
      </trkpt>
      <trkpt lat="43.94659" lon="7.31792">
        <ele>856.6</ele>
        <time>2013-12-07T10:21:07Z</time>
      </trkpt>
      <trkpt lat="43.94666" lon="7.31797">
        <ele>856.3</ele>
        <time>2013-12-07T10:21:10Z</time>
      </trkpt>
      <trkpt lat="43.94673" lon="7.31802">
        <ele>856</ele>
        <time>2013-12-07T10:21:13Z</time>
      </trkpt>
      <trkpt lat="43.9468" lon="7.31807">
        <ele>856.2</ele>
        <time>2013-12-07T10:21:16Z</time>
      </trkpt>
      <trkpt lat="43.94688" lon="7.3181">
        <ele>856.4</ele>
        <time>2013-12-07T10:21:19Z</time>
      </trkpt>
      <trkpt lat="43.94694" lon="7.31814">
        <ele>856.5</ele>
        <time>2013-12-07T10:21:22Z</time>
      </trkpt>
      <trkpt lat="43.94702" lon="7.31818">
        <ele>856</ele>
        <time>2013-12-07T10:21:25Z</time>
      </trkpt>
      <trkpt lat="43.94709" lon="7.3182">
        <ele>856.7</ele>
        <time>2013-12-07T10:21:28Z</time>
      </trkpt>
      <trkpt lat="43.94717" lon="7.31823">
        <ele>856.9</ele>
        <time>2013-12-07T10:21:31Z</time>
      </trkpt>
      <trkpt lat="43.94725" lon="7.31826">
        <ele>856.4</ele>
        <time>2013-12-07T10:21:34Z</time>
      </trkpt>
      <trkpt lat="43.94733" lon="7.31824">
        <ele>857.1</ele>
        <time>2013-12-07T10:21:37Z</time>
      </trkpt>
      <trkpt lat="43.94741" lon="7.3182">
        <ele>856.7</ele>
        <time>2013-12-07T10:21:40Z</time>
      </trkpt>
      <trkpt lat="43.94748" lon="7.31818">
        <ele>856.8</ele>
        <time>2013-12-07T10:21:43Z</time>
      </trkpt>
      <trkpt lat="43.9475" lon="7.31821">
        <ele>856.8</ele>
        <time>2013-12-07T10:21:44Z</time>
      </trkpt>
      <trkpt lat="43.94759" lon="7.31835">
        <ele>857.2</ele>
        <time>2013-12-07T10:21:49Z</time>
      </trkpt>
      <trkpt lat="43.94767" lon="7.31838">
        <ele>857.4</ele>
        <time>2013-12-07T10:21:52Z</time>
      </trkpt>
      <trkpt lat="43.94775" lon="7.3184">
        <ele>857.4</ele>
        <time>2013-12-07T10:21:55Z</time>
      </trkpt>
      <trkpt lat="43.94783" lon="7.31841">
        <ele>857.1</ele>
        <time>2013-12-07T10:21:58Z</time>
      </trkpt>
      <trkpt lat="43.94791" lon="7.31842">
        <ele>857.6</ele>
        <time>2013-12-07T10:22:01Z</time>
      </trkpt>
      <trkpt lat="43.94799" lon="7.31843">
        <ele>857.7</ele>
        <time>2013-12-07T10:22:04Z</time>
      </trkpt>
      <trkpt lat="43.94807" lon="7.31844">
        <ele>857.6</ele>
        <time>2013-12-07T10:22:07Z</time>
      </trkpt>
      <trkpt lat="43.94815" lon="7.31845">
        <ele>857.5</ele>
        <time>2013-12-07T10:22:10Z</time>
      </trkpt>
      <trkpt lat="43.94822" lon="7.31848">
        <ele>858.1</ele>
        <time>2013-12-07T10:22:13Z</time>
      </trkpt>
      <trkpt lat="43.9483" lon="7.3185">
        <ele>858.3</ele>
        <time>2013-12-07T10:22:16Z</time>
      </trkpt>
      <trkpt lat="43.94838" lon="7.31846">
        <ele>858.1</ele>
        <time>2013-12-07T10:22:19Z</time>
      </trkpt>
      <trkpt lat="43.94846" lon="7.3184">
        <ele>857.2</ele>
        <time>2013-12-07T10:22:22Z</time>
      </trkpt>
      <trkpt lat="43.94854" lon="7.31839">
        <ele>857.7</ele>
        <time>2013-12-07T10:22:25Z</time>
      </trkpt>
      <trkpt lat="43.9486" lon="7.31845">
        <ele>857.9</ele>
        <time>2013-12-07T10:22:28Z</time>
      </trkpt>
      <trkpt lat="43.94865" lon="7.31852">
        <ele>858.2</ele>
        <time>2013-12-07T10:22:31Z</time>
      </trkpt>
      <trkpt lat="43.94868" lon="7.31863">
        <ele>858.3</ele>
        <time>2013-12-07T10:22:34Z</time>
      </trkpt>
      <trkpt lat="43.94865" lon="7.31874">
        <ele>857.8</ele>
        <time>2013-12-07T10:22:37Z</time>
      </trkpt>
      <trkpt lat="43.94868" lon="7.31884">
        <ele>858.2</ele>
        <time>2013-12-07T10:22:40Z</time>
      </trkpt>
      <trkpt lat="43.94873" lon="7.31891">
        <ele>858.3</ele>
        <time>2013-12-07T10:22:42Z</time>
      </trkpt>
      <trkpt lat="43.94877" lon="7.31896">
        <ele>858.1</ele>
        <time>2013-12-07T10:22:44Z</time>
      </trkpt>
      <trkpt lat="43.94879" lon="7.31899">
        <ele>858.1</ele>
        <time>2013-12-07T10:22:45Z</time>
      </trkpt>
      <trkpt lat="43.94892" lon="7.31909">
        <ele>857.8</ele>
        <time>2013-12-07T10:22:50Z</time>
      </trkpt>
      <trkpt lat="43.94898" lon="7.31916">
        <ele>858</ele>
        <time>2013-12-07T10:22:53Z</time>
      </trkpt>
      <trkpt lat="43.94906" lon="7.31922">
        <ele>858.2</ele>
        <time>2013-12-07T10:22:56Z</time>
      </trkpt>
      <trkpt lat="43.94913" lon="7.31928">
        <ele>858.2</ele>
        <time>2013-12-07T10:22:59Z</time>
      </trkpt>
      <trkpt lat="43.9492" lon="7.31935">
        <ele>858.7</ele>
        <time>2013-12-07T10:23:02Z</time>
      </trkpt>
      <trkpt lat="43.94925" lon="7.31944">
        <ele>858.4</ele>
        <time>2013-12-07T10:23:05Z</time>
      </trkpt>
      <trkpt lat="43.94931" lon="7.31951">
        <ele>858.2</ele>
        <time>2013-12-07T10:23:08Z</time>
      </trkpt>
      <trkpt lat="43.94938" lon="7.31958">
        <ele>858.7</ele>
        <time>2013-12-07T10:23:11Z</time>
      </trkpt>
      <trkpt lat="43.94943" lon="7.31965">
        <ele>859</ele>
        <time>2013-12-07T10:23:14Z</time>
      </trkpt>
      <trkpt lat="43.94949" lon="7.31973">
        <ele>858.3</ele>
        <time>2013-12-07T10:23:17Z</time>
      </trkpt>
      <trkpt lat="43.94953" lon="7.31983">
        <ele>858.8</ele>
        <time>2013-12-07T10:23:21Z</time>
      </trkpt>
      <trkpt lat="43.94955" lon="7.31994">
        <ele>858.9</ele>
        <time>2013-12-07T10:23:26Z</time>
      </trkpt>
      <trkpt lat="43.94955" lon="7.32004">
        <ele>858.8</ele>
        <time>2013-12-07T10:23:30Z</time>
      </trkpt>
      <trkpt lat="43.94955" lon="7.32015">
        <ele>858.7</ele>
        <time>2013-12-07T10:23:34Z</time>
      </trkpt>
      <trkpt lat="43.94956" lon="7.32027">
        <ele>859</ele>
        <time>2013-12-07T10:23:38Z</time>
      </trkpt>
      <trkpt lat="43.94958" lon="7.32038">
        <ele>858.8</ele>
        <time>2013-12-07T10:23:42Z</time>
      </trkpt>
      <trkpt lat="43.94962" lon="7.32046">
        <ele>858.3</ele>
        <time>2013-12-07T10:23:45Z</time>
      </trkpt>
      <trkpt lat="43.94963" lon="7.32058">
        <ele>859.2</ele>
        <time>2013-12-07T10:23:49Z</time>
      </trkpt>
      <trkpt lat="43.94963" lon="7.32061">
        <ele>859.3</ele>
        <time>2013-12-07T10:23:50Z</time>
      </trkpt>
      <trkpt lat="43.94959" lon="7.32082">
        <ele>858.8</ele>
        <time>2013-12-07T10:24:59Z</time>
      </trkpt>
      <trkpt lat="43.9496" lon="7.32084">
        <ele>858.7</ele>
        <time>2013-12-07T10:25:00Z</time>
      </trkpt>
      <trkpt lat="43.94965" lon="7.321">
        <ele>858.7</ele>
        <time>2013-12-07T10:25:06Z</time>
      </trkpt>
      <trkpt lat="43.94966" lon="7.32109">
        <ele>859</ele>
        <time>2013-12-07T10:25:08Z</time>
      </trkpt>
      <trkpt lat="43.94966" lon="7.32117">
        <ele>859.5</ele>
        <time>2013-12-07T10:25:10Z</time>
      </trkpt>
      <trkpt lat="43.94963" lon="7.32129">
        <ele>859.1</ele>
        <time>2013-12-07T10:25:13Z</time>
      </trkpt>
      <trkpt lat="43.94958" lon="7.32137">
        <ele>858.8</ele>
        <time>2013-12-07T10:25:16Z</time>
      </trkpt>
      <trkpt lat="43.94953" lon="7.3214">
        <ele>859.1</ele>
        <time>2013-12-07T10:25:18Z</time>
      </trkpt>
      <trkpt lat="43.94947" lon="7.32145">
        <ele>859.3</ele>
        <time>2013-12-07T10:25:20Z</time>
      </trkpt>
      <trkpt lat="43.94942" lon="7.3215">
        <ele>858.9</ele>
        <time>2013-12-07T10:25:22Z</time>
      </trkpt>
      <trkpt lat="43.94938" lon="7.32157">
        <ele>859.2</ele>
        <time>2013-12-07T10:25:24Z</time>
      </trkpt>
      <trkpt lat="43.94935" lon="7.32165">
        <ele>860</ele>
        <time>2013-12-07T10:25:26Z</time>
      </trkpt>
      <trkpt lat="43.94932" lon="7.32173">
        <ele>860.1</ele>
        <time>2013-12-07T10:25:28Z</time>
      </trkpt>
      <trkpt lat="43.94928" lon="7.3218">
        <ele>859.8</ele>
        <time>2013-12-07T10:25:30Z</time>
      </trkpt>
      <trkpt lat="43.94924" lon="7.32187">
        <ele>859.7</ele>
        <time>2013-12-07T10:25:32Z</time>
      </trkpt>
      <trkpt lat="43.94919" lon="7.32193">
        <ele>859.4</ele>
        <time>2013-12-07T10:25:34Z</time>
      </trkpt>
      <trkpt lat="43.94915" lon="7.32199">
        <ele>859.1</ele>
        <time>2013-12-07T10:25:36Z</time>
      </trkpt>
      <trkpt lat="43.94911" lon="7.32206">
        <ele>859.6</ele>
        <time>2013-12-07T10:25:38Z</time>
      </trkpt>
      <trkpt lat="43.94909" lon="7.32214">
        <ele>859.8</ele>
        <time>2013-12-07T10:25:40Z</time>
      </trkpt>
      <trkpt lat="43.94907" lon="7.32223">
        <ele>859.7</ele>
        <time>2013-12-07T10:25:42Z</time>
      </trkpt>
      <trkpt lat="43.94905" lon="7.32233">
        <ele>859.6</ele>
        <time>2013-12-07T10:25:44Z</time>
      </trkpt>
      <trkpt lat="43.94905" lon="7.32242">
        <ele>859.5</ele>
        <time>2013-12-07T10:25:46Z</time>
      </trkpt>
      <trkpt lat="43.94905" lon="7.32251">
        <ele>860.3</ele>
        <time>2013-12-07T10:25:48Z</time>
      </trkpt>
      <trkpt lat="43.94903" lon="7.32263">
        <ele>860.1</ele>
        <time>2013-12-07T10:25:51Z</time>
      </trkpt>
      <trkpt lat="43.94898" lon="7.32272">
        <ele>860.3</ele>
        <time>2013-12-07T10:25:59Z</time>
      </trkpt>
      <trkpt lat="43.94897" lon="7.32282">
        <ele>859.8</ele>
        <time>2013-12-07T10:26:02Z</time>
      </trkpt>
      <trkpt lat="43.94897" lon="7.32286">
        <ele>859.9</ele>
        <time>2013-12-07T10:26:03Z</time>
      </trkpt>
      <trkpt lat="43.94894" lon="7.32303">
        <ele>860</ele>
        <time>2013-12-07T10:26:07Z</time>
      </trkpt>
      <trkpt lat="43.94891" lon="7.32311">
        <ele>860.6</ele>
        <time>2013-12-07T10:26:09Z</time>
      </trkpt>
      <trkpt lat="43.94887" lon="7.32321">
        <ele>860.9</ele>
        <time>2013-12-07T10:26:12Z</time>
      </trkpt>
      <trkpt lat="43.94889" lon="7.32333">
        <ele>860.6</ele>
        <time>2013-12-07T10:26:44Z</time>
      </trkpt>
      <trkpt lat="43.94893" lon="7.32344">
        <ele>861.3</ele>
        <time>2013-12-07T10:27:05Z</time>
      </trkpt>
      <trkpt lat="43.94892" lon="7.32347">
        <ele>861.6</ele>
        <time>2013-12-07T10:27:06Z</time>
      </trkpt>
      <trkpt lat="43.94893" lon="7.32366">
        <ele>860.5</ele>
        <time>2013-12-07T10:27:13Z</time>
      </trkpt>
      <trkpt lat="43.94901" lon="7.32367">
        <ele>860.9</ele>
        <time>2013-12-07T10:27:17Z</time>
      </trkpt>
      <trkpt lat="43.94909" lon="7.32368">
        <ele>861.3</ele>
        <time>2013-12-07T10:27:21Z</time>
      </trkpt>
      <trkpt lat="43.94916" lon="7.3237">
        <ele>860.9</ele>
        <time>2013-12-07T10:27:24Z</time>
      </trkpt>
      <trkpt lat="43.94923" lon="7.32374">
        <ele>860.9</ele>
        <time>2013-12-07T10:27:27Z</time>
      </trkpt>
      <trkpt lat="43.9493" lon="7.32381">
        <ele>860.7</ele>
        <time>2013-12-07T10:27:30Z</time>
      </trkpt>
      <trkpt lat="43.94937" lon="7.32387">
        <ele>861.3</ele>
        <time>2013-12-07T10:27:33Z</time>
      </trkpt>
      <trkpt lat="43.94945" lon="7.32392">
        <ele>860.8</ele>
        <time>2013-12-07T10:27:36Z</time>
      </trkpt>
      <trkpt lat="43.94952" lon="7.32397">
        <ele>860.7</ele>
        <time>2013-12-07T10:27:39Z</time>
      </trkpt>
      <trkpt lat="43.94958" lon="7.32399">
        <ele>861.1</ele>
        <time>2013-12-07T10:27:41Z</time>
      </trkpt>
      <trkpt lat="43.94964" lon="7.32402">
        <ele>861.1</ele>
        <time>2013-12-07T10:27:43Z</time>
      </trkpt>
      <trkpt lat="43.94969" lon="7.32412">
        <ele>861</ele>
        <time>2013-12-07T10:27:46Z</time>
      </trkpt>
      <trkpt lat="43.94973" lon="7.32423">
        <ele>860.9</ele>
        <time>2013-12-07T10:27:49Z</time>
      </trkpt>
      <trkpt lat="43.94972" lon="7.32431">
        <ele>861.4</ele>
        <time>2013-12-07T10:27:51Z</time>
      </trkpt>
      <trkpt lat="43.94969" lon="7.32442">
        <ele>861.3</ele>
        <time>2013-12-07T10:27:54Z</time>
      </trkpt>
      <trkpt lat="43.94967" lon="7.3245">
        <ele>861</ele>
        <time>2013-12-07T10:27:56Z</time>
      </trkpt>
      <trkpt lat="43.94963" lon="7.32458">
        <ele>860.6</ele>
        <time>2013-12-07T10:27:58Z</time>
      </trkpt>
      <trkpt lat="43.94959" lon="7.32464">
        <ele>860.5</ele>
        <time>2013-12-07T10:28:00Z</time>
      </trkpt>
      <trkpt lat="43.94952" lon="7.32472">
        <ele>860.8</ele>
        <time>2013-12-07T10:28:03Z</time>
      </trkpt>
      <trkpt lat="43.94946" lon="7.32479">
        <ele>861.2</ele>
        <time>2013-12-07T10:28:06Z</time>
      </trkpt>
      <trkpt lat="43.94944" lon="7.32482">
        <ele>861.2</ele>
        <time>2013-12-07T10:28:07Z</time>
      </trkpt>
      <trkpt lat="43.9494" lon="7.32498">
        <ele>861</ele>
        <time>2013-12-07T10:28:11Z</time>
      </trkpt>
      <trkpt lat="43.94938" lon="7.32509">
        <ele>861.3</ele>
        <time>2013-12-07T10:28:14Z</time>
      </trkpt>
      <trkpt lat="43.94941" lon="7.32518">
        <ele>861.5</ele>
        <time>2013-12-07T10:28:16Z</time>
      </trkpt>
      <trkpt lat="43.94945" lon="7.32526">
        <ele>861.6</ele>
        <time>2013-12-07T10:28:18Z</time>
      </trkpt>
      <trkpt lat="43.94947" lon="7.32536">
        <ele>861.2</ele>
        <time>2013-12-07T10:28:20Z</time>
      </trkpt>
      <trkpt lat="43.9495" lon="7.32544">
        <ele>861.4</ele>
        <time>2013-12-07T10:28:22Z</time>
      </trkpt>
      <trkpt lat="43.94955" lon="7.3255">
        <ele>861</ele>
        <time>2013-12-07T10:28:24Z</time>
      </trkpt>
      <trkpt lat="43.94956" lon="7.32559">
        <ele>861.1</ele>
        <time>2013-12-07T10:28:26Z</time>
      </trkpt>
      <trkpt lat="43.94955" lon="7.32569">
        <ele>861.2</ele>
        <time>2013-12-07T10:28:28Z</time>
      </trkpt>
      <trkpt lat="43.94953" lon="7.32577">
        <ele>861</ele>
        <time>2013-12-07T10:28:30Z</time>
      </trkpt>
      <trkpt lat="43.94949" lon="7.32589">
        <ele>861.4</ele>
        <time>2013-12-07T10:28:33Z</time>
      </trkpt>
      <trkpt lat="43.94949" lon="7.32601">
        <ele>861.3</ele>
        <time>2013-12-07T10:28:36Z</time>
      </trkpt>
      <trkpt lat="43.94954" lon="7.32611">
        <ele>862</ele>
        <time>2013-12-07T10:28:39Z</time>
      </trkpt>
      <trkpt lat="43.94959" lon="7.32616">
        <ele>862.3</ele>
        <time>2013-12-07T10:28:41Z</time>
      </trkpt>
      <trkpt lat="43.94962" lon="7.32624">
        <ele>862.1</ele>
        <time>2013-12-07T10:28:43Z</time>
      </trkpt>
      <trkpt lat="43.94966" lon="7.32635">
        <ele>862.2</ele>
        <time>2013-12-07T10:28:46Z</time>
      </trkpt>
      <trkpt lat="43.94972" lon="7.32637">
        <ele>862.4</ele>
        <time>2013-12-07T10:28:48Z</time>
      </trkpt>
      <trkpt lat="43.94976" lon="7.32643">
        <ele>862.5</ele>
        <time>2013-12-07T10:28:50Z</time>
      </trkpt>
      <trkpt lat="43.94983" lon="7.32652">
        <ele>862.8</ele>
        <time>2013-12-07T10:28:54Z</time>
      </trkpt>
      <trkpt lat="43.94989" lon="7.32653">
        <ele>862.6</ele>
        <time>2013-12-07T10:28:56Z</time>
      </trkpt>
      <trkpt lat="43.94995" lon="7.32657">
        <ele>862.5</ele>
        <time>2013-12-07T10:28:58Z</time>
      </trkpt>
      <trkpt lat="43.95" lon="7.32663">
        <ele>863</ele>
        <time>2013-12-07T10:29:00Z</time>
      </trkpt>
      <trkpt lat="43.95004" lon="7.3267">
        <ele>862.8</ele>
        <time>2013-12-07T10:29:02Z</time>
      </trkpt>
      <trkpt lat="43.95005" lon="7.32682">
        <ele>862.6</ele>
        <time>2013-12-07T10:29:05Z</time>
      </trkpt>
      <trkpt lat="43.95002" lon="7.32693">
        <ele>863.8</ele>
        <time>2013-12-07T10:29:08Z</time>
      </trkpt>
      <trkpt lat="43.95002" lon="7.32697">
        <ele>863.4</ele>
        <time>2013-12-07T10:29:09Z</time>
      </trkpt>
      <trkpt lat="43.95003" lon="7.32713">
        <ele>863.3</ele>
        <time>2013-12-07T10:29:14Z</time>
      </trkpt>
      <trkpt lat="43.95008" lon="7.32724">
        <ele>862.3</ele>
        <time>2013-12-07T10:29:23Z</time>
      </trkpt>
      <trkpt lat="43.95013" lon="7.32732">
        <ele>863</ele>
        <time>2013-12-07T10:29:32Z</time>
      </trkpt>
      <trkpt lat="43.95018" lon="7.32742">
        <ele>862.8</ele>
        <time>2013-12-07T10:29:36Z</time>
      </trkpt>
      <trkpt lat="43.95021" lon="7.32751">
        <ele>863</ele>
        <time>2013-12-07T10:29:39Z</time>
      </trkpt>
      <trkpt lat="43.95026" lon="7.32759">
        <ele>863.2</ele>
        <time>2013-12-07T10:29:42Z</time>
      </trkpt>
      <trkpt lat="43.95029" lon="7.32769">
        <ele>863.1</ele>
        <time>2013-12-07T10:29:45Z</time>
      </trkpt>
      <trkpt lat="43.95031" lon="7.3278">
        <ele>863.3</ele>
        <time>2013-12-07T10:29:48Z</time>
      </trkpt>
      <trkpt lat="43.95033" lon="7.32791">
        <ele>863.1</ele>
        <time>2013-12-07T10:29:51Z</time>
      </trkpt>
      <trkpt lat="43.95034" lon="7.328">
        <ele>863.3</ele>
        <time>2013-12-07T10:29:54Z</time>
      </trkpt>
      <trkpt lat="43.95033" lon="7.3281">
        <ele>863.2</ele>
        <time>2013-12-07T10:29:57Z</time>
      </trkpt>
      <trkpt lat="43.9503" lon="7.32819">
        <ele>862.7</ele>
        <time>2013-12-07T10:30:00Z</time>
      </trkpt>
      <trkpt lat="43.95026" lon="7.32828">
        <ele>863.2</ele>
        <time>2013-12-07T10:30:03Z</time>
      </trkpt>
      <trkpt lat="43.9502" lon="7.32836">
        <ele>863.8</ele>
        <time>2013-12-07T10:30:06Z</time>
      </trkpt>
      <trkpt lat="43.95013" lon="7.32843">
        <ele>864</ele>
        <time>2013-12-07T10:30:09Z</time>
      </trkpt>
      <trkpt lat="43.9501" lon="7.32846">
        <ele>864.1</ele>
        <time>2013-12-07T10:30:10Z</time>
      </trkpt>
      <trkpt lat="43.95003" lon="7.32853">
        <ele>864.2</ele>
        <time>2013-12-07T10:30:13Z</time>
      </trkpt>
      <trkpt lat="43.94996" lon="7.3286">
        <ele>864.3</ele>
        <time>2013-12-07T10:30:16Z</time>
      </trkpt>
      <trkpt lat="43.9499" lon="7.32869">
        <ele>864.9</ele>
        <time>2013-12-07T10:30:19Z</time>
      </trkpt>
      <trkpt lat="43.94986" lon="7.32876">
        <ele>864.4</ele>
        <time>2013-12-07T10:30:21Z</time>
      </trkpt>
      <trkpt lat="43.94981" lon="7.32882">
        <ele>864.8</ele>
        <time>2013-12-07T10:30:23Z</time>
      </trkpt>
      <trkpt lat="43.94977" lon="7.32888">
        <ele>864.5</ele>
        <time>2013-12-07T10:30:25Z</time>
      </trkpt>
      <trkpt lat="43.94973" lon="7.32894">
        <ele>864.5</ele>
        <time>2013-12-07T10:30:27Z</time>
      </trkpt>
      <trkpt lat="43.94969" lon="7.32901">
        <ele>864.7</ele>
        <time>2013-12-07T10:30:29Z</time>
      </trkpt>
      <trkpt lat="43.94963" lon="7.3291">
        <ele>864.9</ele>
        <time>2013-12-07T10:30:32Z</time>
      </trkpt>
      <trkpt lat="43.94959" lon="7.32917">
        <ele>864.5</ele>
        <time>2013-12-07T10:30:34Z</time>
      </trkpt>
      <trkpt lat="43.94954" lon="7.32923">
        <ele>864.2</ele>
        <time>2013-12-07T10:30:36Z</time>
      </trkpt>
      <trkpt lat="43.9495" lon="7.32932">
        <ele>864.1</ele>
        <time>2013-12-07T10:30:39Z</time>
      </trkpt>
      <trkpt lat="43.94944" lon="7.3294">
        <ele>864.5</ele>
        <time>2013-12-07T10:30:42Z</time>
      </trkpt>
      <trkpt lat="43.94939" lon="7.32945">
        <ele>864.4</ele>
        <time>2013-12-07T10:30:45Z</time>
      </trkpt>
      <trkpt lat="43.94933" lon="7.32952">
        <ele>864.8</ele>
        <time>2013-12-07T10:30:48Z</time>
      </trkpt>
      <trkpt lat="43.94926" lon="7.3296">
        <ele>865.1</ele>
        <time>2013-12-07T10:30:52Z</time>
      </trkpt>
      <trkpt lat="43.94922" lon="7.32968">
        <ele>866</ele>
        <time>2013-12-07T10:30:55Z</time>
      </trkpt>
      <trkpt lat="43.94919" lon="7.32976">
        <ele>866.4</ele>
        <time>2013-12-07T10:30:58Z</time>
      </trkpt>
      <trkpt lat="43.94915" lon="7.32985">
        <ele>867.6</ele>
        <time>2013-12-07T10:31:01Z</time>
      </trkpt>
      <trkpt lat="43.9491" lon="7.32994">
        <ele>868.4</ele>
        <time>2013-12-07T10:31:05Z</time>
      </trkpt>
      <trkpt lat="43.94903" lon="7.33001">
        <ele>869.4</ele>
        <time>2013-12-07T10:31:09Z</time>
      </trkpt>
      <trkpt lat="43.94897" lon="7.33009">
        <ele>869.6</ele>
        <time>2013-12-07T10:31:14Z</time>
      </trkpt>
      <trkpt lat="43.94896" lon="7.3301">
        <ele>869.6</ele>
        <time>2013-12-07T10:31:15Z</time>
      </trkpt>
      <trkpt lat="43.94887" lon="7.33028">
        <ele>873.2</ele>
        <time>2013-12-07T10:31:26Z</time>
      </trkpt>
      <trkpt lat="43.94883" lon="7.33037">
        <ele>873.8</ele>
        <time>2013-12-07T10:31:31Z</time>
      </trkpt>
      <trkpt lat="43.94878" lon="7.33045">
        <ele>874.1</ele>
        <time>2013-12-07T10:31:35Z</time>
      </trkpt>
      <trkpt lat="43.94872" lon="7.33051">
        <ele>875.2</ele>
        <time>2013-12-07T10:31:39Z</time>
      </trkpt>
      <trkpt lat="43.94866" lon="7.33055">
        <ele>875.9</ele>
        <time>2013-12-07T10:31:43Z</time>
      </trkpt>
      <trkpt lat="43.94859" lon="7.33061">
        <ele>876.8</ele>
        <time>2013-12-07T10:31:47Z</time>
      </trkpt>
      <trkpt lat="43.94852" lon="7.33066">
        <ele>875.9</ele>
        <time>2013-12-07T10:31:51Z</time>
      </trkpt>
      <trkpt lat="43.94844" lon="7.3307">
        <ele>876.9</ele>
        <time>2013-12-07T10:31:55Z</time>
      </trkpt>
      <trkpt lat="43.94841" lon="7.3308">
        <ele>877</ele>
        <time>2013-12-07T10:31:59Z</time>
      </trkpt>
      <trkpt lat="43.94837" lon="7.33089">
        <ele>877.9</ele>
        <time>2013-12-07T10:32:04Z</time>
      </trkpt>
      <trkpt lat="43.94833" lon="7.331">
        <ele>879.3</ele>
        <time>2013-12-07T10:32:09Z</time>
      </trkpt>
      <trkpt lat="43.94828" lon="7.33109">
        <ele>880.9</ele>
        <time>2013-12-07T10:32:14Z</time>
      </trkpt>
      <trkpt lat="43.94823" lon="7.33117">
        <ele>881.8</ele>
        <time>2013-12-07T10:32:18Z</time>
      </trkpt>
      <trkpt lat="43.94822" lon="7.33119">
        <ele>881.9</ele>
        <time>2013-12-07T10:32:19Z</time>
      </trkpt>
      <trkpt lat="43.94813" lon="7.33136">
        <ele>883</ele>
        <time>2013-12-07T10:32:27Z</time>
      </trkpt>
      <trkpt lat="43.94809" lon="7.33144">
        <ele>883.1</ele>
        <time>2013-12-07T10:32:31Z</time>
      </trkpt>
      <trkpt lat="43.94806" lon="7.33154">
        <ele>883.6</ele>
        <time>2013-12-07T10:32:35Z</time>
      </trkpt>
      <trkpt lat="43.94801" lon="7.33163">
        <ele>884.3</ele>
        <time>2013-12-07T10:32:39Z</time>
      </trkpt>
      <trkpt lat="43.94794" lon="7.33169">
        <ele>885.5</ele>
        <time>2013-12-07T10:32:44Z</time>
      </trkpt>
      <trkpt lat="43.94787" lon="7.33177">
        <ele>885.4</ele>
        <time>2013-12-07T10:33:10Z</time>
      </trkpt>
      <trkpt lat="43.94779" lon="7.33182">
        <ele>886.8</ele>
        <time>2013-12-07T10:40:46Z</time>
      </trkpt>
      <trkpt lat="43.94778" lon="7.33184">
        <ele>887.1</ele>
        <time>2013-12-07T10:40:47Z</time>
      </trkpt>
      <trkpt lat="43.94773" lon="7.332">
        <ele>887.3</ele>
        <time>2013-12-07T10:40:56Z</time>
      </trkpt>
      <trkpt lat="43.94773" lon="7.3321">
        <ele>884.7</ele>
        <time>2013-12-07T10:40:59Z</time>
      </trkpt>
      <trkpt lat="43.94777" lon="7.3322">
        <ele>884</ele>
        <time>2013-12-07T10:41:01Z</time>
      </trkpt>
      <trkpt lat="43.94778" lon="7.33226">
        <ele>883.8</ele>
        <time>2013-12-07T10:41:02Z</time>
      </trkpt>
      <trkpt lat="43.9478" lon="7.33232">
        <ele>882</ele>
        <time>2013-12-07T10:41:03Z</time>
      </trkpt>
      <trkpt lat="43.94783" lon="7.33238">
        <ele>880.6</ele>
        <time>2013-12-07T10:41:04Z</time>
      </trkpt>
      <trkpt lat="43.94784" lon="7.33244">
        <ele>879.1</ele>
        <time>2013-12-07T10:41:05Z</time>
      </trkpt>
      <trkpt lat="43.94785" lon="7.33251">
        <ele>878</ele>
        <time>2013-12-07T10:41:06Z</time>
      </trkpt>
      <trkpt lat="43.94786" lon="7.33257">
        <ele>876.7</ele>
        <time>2013-12-07T10:41:07Z</time>
      </trkpt>
      <trkpt lat="43.94788" lon="7.33263">
        <ele>875.7</ele>
        <time>2013-12-07T10:41:08Z</time>
      </trkpt>
      <trkpt lat="43.94789" lon="7.3327">
        <ele>874.9</ele>
        <time>2013-12-07T10:41:09Z</time>
      </trkpt>
      <trkpt lat="43.94788" lon="7.33278">
        <ele>873.8</ele>
        <time>2013-12-07T10:41:10Z</time>
      </trkpt>
      <trkpt lat="43.94788" lon="7.3329">
        <ele>871.6</ele>
        <time>2013-12-07T10:41:12Z</time>
      </trkpt>
      <trkpt lat="43.94791" lon="7.33295">
        <ele>870.6</ele>
        <time>2013-12-07T10:41:13Z</time>
      </trkpt>
      <trkpt lat="43.94794" lon="7.333">
        <ele>869.8</ele>
        <time>2013-12-07T10:41:14Z</time>
      </trkpt>
      <trkpt lat="43.94797" lon="7.33306">
        <ele>869.2</ele>
        <time>2013-12-07T10:41:15Z</time>
      </trkpt>
      <trkpt lat="43.948" lon="7.33313">
        <ele>868.7</ele>
        <time>2013-12-07T10:41:16Z</time>
      </trkpt>
      <trkpt lat="43.94803" lon="7.33319">
        <ele>867.9</ele>
        <time>2013-12-07T10:41:17Z</time>
      </trkpt>
      <trkpt lat="43.94805" lon="7.3333">
        <ele>866.4</ele>
        <time>2013-12-07T10:41:19Z</time>
      </trkpt>
      <trkpt lat="43.94799" lon="7.33337">
        <ele>865.1</ele>
        <time>2013-12-07T10:41:22Z</time>
      </trkpt>
      <trkpt lat="43.94795" lon="7.33347">
        <ele>864.8</ele>
        <time>2013-12-07T10:41:24Z</time>
      </trkpt>
      <trkpt lat="43.94795" lon="7.33354">
        <ele>864.6</ele>
        <time>2013-12-07T10:41:25Z</time>
      </trkpt>
      <trkpt lat="43.94796" lon="7.33361">
        <ele>864.5</ele>
        <time>2013-12-07T10:41:26Z</time>
      </trkpt>
      <trkpt lat="43.948" lon="7.33367">
        <ele>864</ele>
        <time>2013-12-07T10:41:27Z</time>
      </trkpt>
      <trkpt lat="43.94803" lon="7.33374">
        <ele>863.7</ele>
        <time>2013-12-07T10:41:28Z</time>
      </trkpt>
      <trkpt lat="43.94807" lon="7.3338">
        <ele>862.3</ele>
        <time>2013-12-07T10:41:29Z</time>
      </trkpt>
      <trkpt lat="43.9481" lon="7.33392">
        <ele>860.3</ele>
        <time>2013-12-07T10:41:31Z</time>
      </trkpt>
      <trkpt lat="43.94808" lon="7.33402">
        <ele>859</ele>
        <time>2013-12-07T10:41:33Z</time>
      </trkpt>
      <trkpt lat="43.948" lon="7.33403">
        <ele>858.2</ele>
        <time>2013-12-07T10:41:37Z</time>
      </trkpt>
      <trkpt lat="43.94793" lon="7.33403">
        <ele>858.7</ele>
        <time>2013-12-07T10:41:42Z</time>
      </trkpt>
      <trkpt lat="43.94787" lon="7.33408">
        <ele>859.1</ele>
        <time>2013-12-07T10:41:45Z</time>
      </trkpt>
      <trkpt lat="43.94779" lon="7.33404">
        <ele>860.3</ele>
        <time>2013-12-07T10:41:49Z</time>
      </trkpt>
      <trkpt lat="43.94777" lon="7.33403">
        <ele>860.4</ele>
        <time>2013-12-07T10:41:50Z</time>
      </trkpt>
      <trkpt lat="43.94765" lon="7.33399">
        <ele>860.6</ele>
        <time>2013-12-07T10:41:55Z</time>
      </trkpt>
      <trkpt lat="43.94757" lon="7.33397">
        <ele>861</ele>
        <time>2013-12-07T10:41:59Z</time>
      </trkpt>
      <trkpt lat="43.94748" lon="7.33396">
        <ele>861.9</ele>
        <time>2013-12-07T10:42:03Z</time>
      </trkpt>
      <trkpt lat="43.94741" lon="7.33392">
        <ele>863</ele>
        <time>2013-12-07T10:42:07Z</time>
      </trkpt>
      <trkpt lat="43.94734" lon="7.3339">
        <ele>863.2</ele>
        <time>2013-12-07T10:42:10Z</time>
      </trkpt>
      <trkpt lat="43.94728" lon="7.33387">
        <ele>864</ele>
        <time>2013-12-07T10:42:13Z</time>
      </trkpt>
      <trkpt lat="43.9472" lon="7.33385">
        <ele>864.4</ele>
        <time>2013-12-07T10:42:16Z</time>
      </trkpt>
      <trkpt lat="43.94712" lon="7.33384">
        <ele>864.6</ele>
        <time>2013-12-07T10:42:19Z</time>
      </trkpt>
      <trkpt lat="43.94705" lon="7.33386">
        <ele>864.4</ele>
        <time>2013-12-07T10:42:22Z</time>
      </trkpt>
      <trkpt lat="43.947" lon="7.3339">
        <ele>864.9</ele>
        <time>2013-12-07T10:42:24Z</time>
      </trkpt>
      <trkpt lat="43.94694" lon="7.33398">
        <ele>864.4</ele>
        <time>2013-12-07T10:42:26Z</time>
      </trkpt>
      <trkpt lat="43.9469" lon="7.33402">
        <ele>863.9</ele>
        <time>2013-12-07T10:42:27Z</time>
      </trkpt>
      <trkpt lat="43.94685" lon="7.33404">
        <ele>863.4</ele>
        <time>2013-12-07T10:42:28Z</time>
      </trkpt>
      <trkpt lat="43.9468" lon="7.33405">
        <ele>863</ele>
        <time>2013-12-07T10:42:29Z</time>
      </trkpt>
      <trkpt lat="43.94676" lon="7.33405">
        <ele>862.7</ele>
        <time>2013-12-07T10:42:30Z</time>
      </trkpt>
      <trkpt lat="43.94671" lon="7.33406">
        <ele>862.6</ele>
        <time>2013-12-07T10:42:31Z</time>
      </trkpt>
      <trkpt lat="43.94666" lon="7.33408">
        <ele>862.4</ele>
        <time>2013-12-07T10:42:32Z</time>
      </trkpt>
      <trkpt lat="43.94661" lon="7.3341">
        <ele>862</ele>
        <time>2013-12-07T10:42:33Z</time>
      </trkpt>
      <trkpt lat="43.94655" lon="7.33417">
        <ele>860.8</ele>
        <time>2013-12-07T10:42:35Z</time>
      </trkpt>
      <trkpt lat="43.94657" lon="7.33425">
        <ele>859.6</ele>
        <time>2013-12-07T10:42:37Z</time>
      </trkpt>
      <trkpt lat="43.94662" lon="7.3343">
        <ele>857.1</ele>
        <time>2013-12-07T10:42:39Z</time>
      </trkpt>
      <trkpt lat="43.94667" lon="7.33439">
        <ele>856.1</ele>
        <time>2013-12-07T10:42:41Z</time>
      </trkpt>
      <trkpt lat="43.94671" lon="7.33444">
        <ele>855.4</ele>
        <time>2013-12-07T10:42:42Z</time>
      </trkpt>
      <trkpt lat="43.94675" lon="7.33448">
        <ele>854.9</ele>
        <time>2013-12-07T10:42:43Z</time>
      </trkpt>
      <trkpt lat="43.9468" lon="7.33452">
        <ele>854.5</ele>
        <time>2013-12-07T10:42:44Z</time>
      </trkpt>
      <trkpt lat="43.94684" lon="7.33457">
        <ele>854</ele>
        <time>2013-12-07T10:42:45Z</time>
      </trkpt>
      <trkpt lat="43.94688" lon="7.33463">
        <ele>853.5</ele>
        <time>2013-12-07T10:42:46Z</time>
      </trkpt>
      <trkpt lat="43.94692" lon="7.33467">
        <ele>853</ele>
        <time>2013-12-07T10:42:47Z</time>
      </trkpt>
      <trkpt lat="43.94696" lon="7.3347">
        <ele>852.6</ele>
        <time>2013-12-07T10:42:48Z</time>
      </trkpt>
      <trkpt lat="43.94699" lon="7.33475">
        <ele>852.3</ele>
        <time>2013-12-07T10:42:49Z</time>
      </trkpt>
      <trkpt lat="43.94702" lon="7.33486">
        <ele>852.3</ele>
        <time>2013-12-07T10:42:51Z</time>
      </trkpt>
      <trkpt lat="43.947" lon="7.3349">
        <ele>852</ele>
        <time>2013-12-07T10:42:52Z</time>
      </trkpt>
      <trkpt lat="43.94698" lon="7.33506">
        <ele>850.3</ele>
        <time>2013-12-07T10:42:55Z</time>
      </trkpt>
      <trkpt lat="43.94693" lon="7.33514">
        <ele>849.3</ele>
        <time>2013-12-07T10:42:57Z</time>
      </trkpt>
      <trkpt lat="43.94691" lon="7.33525">
        <ele>848.4</ele>
        <time>2013-12-07T10:42:59Z</time>
      </trkpt>
      <trkpt lat="43.94687" lon="7.33533">
        <ele>847.5</ele>
        <time>2013-12-07T10:43:01Z</time>
      </trkpt>
      <trkpt lat="43.94679" lon="7.33536">
        <ele>847</ele>
        <time>2013-12-07T10:43:05Z</time>
      </trkpt>
      <trkpt lat="43.94671" lon="7.33533">
        <ele>846.2</ele>
        <time>2013-12-07T10:43:10Z</time>
      </trkpt>
      <trkpt lat="43.94662" lon="7.33533">
        <ele>847.9</ele>
        <time>2013-12-07T10:43:15Z</time>
      </trkpt>
      <trkpt lat="43.94655" lon="7.33537">
        <ele>849.4</ele>
        <time>2013-12-07T10:43:19Z</time>
      </trkpt>
      <trkpt lat="43.94651" lon="7.33545">
        <ele>849.6</ele>
        <time>2013-12-07T10:43:21Z</time>
      </trkpt>
      <trkpt lat="43.94647" lon="7.33554">
        <ele>849.5</ele>
        <time>2013-12-07T10:43:23Z</time>
      </trkpt>
      <trkpt lat="43.94644" lon="7.33566">
        <ele>848.2</ele>
        <time>2013-12-07T10:43:25Z</time>
      </trkpt>
      <trkpt lat="43.94648" lon="7.33577">
        <ele>846.6</ele>
        <time>2013-12-07T10:43:27Z</time>
      </trkpt>
      <trkpt lat="43.94649" lon="7.33586">
        <ele>845</ele>
        <time>2013-12-07T10:43:29Z</time>
      </trkpt>
      <trkpt lat="43.94647" lon="7.33598">
        <ele>843.4</ele>
        <time>2013-12-07T10:43:32Z</time>
      </trkpt>
      <trkpt lat="43.94643" lon="7.33607">
        <ele>842.9</ele>
        <time>2013-12-07T10:43:35Z</time>
      </trkpt>
      <trkpt lat="43.94638" lon="7.33616">
        <ele>842.8</ele>
        <time>2013-12-07T10:43:39Z</time>
      </trkpt>
      <trkpt lat="43.9463" lon="7.3362">
        <ele>843</ele>
        <time>2013-12-07T10:43:44Z</time>
      </trkpt>
      <trkpt lat="43.94622" lon="7.3362">
        <ele>844.5</ele>
        <time>2013-12-07T10:43:50Z</time>
      </trkpt>
      <trkpt lat="43.94614" lon="7.33613">
        <ele>845.8</ele>
        <time>2013-12-07T10:43:56Z</time>
      </trkpt>
      <trkpt lat="43.94613" lon="7.33612">
        <ele>845.8</ele>
        <time>2013-12-07T10:43:57Z</time>
      </trkpt>
      <trkpt lat="43.94604" lon="7.33599">
        <ele>847.1</ele>
        <time>2013-12-07T10:44:03Z</time>
      </trkpt>
      <trkpt lat="43.94597" lon="7.33593">
        <ele>846.6</ele>
        <time>2013-12-07T10:44:06Z</time>
      </trkpt>
      <trkpt lat="43.94591" lon="7.33587">
        <ele>846.2</ele>
        <time>2013-12-07T10:44:09Z</time>
      </trkpt>
      <trkpt lat="43.94585" lon="7.33582">
        <ele>847.1</ele>
        <time>2013-12-07T10:44:12Z</time>
      </trkpt>
      <trkpt lat="43.94579" lon="7.33576">
        <ele>847.1</ele>
        <time>2013-12-07T10:44:15Z</time>
      </trkpt>
      <trkpt lat="43.94571" lon="7.33573">
        <ele>848.3</ele>
        <time>2013-12-07T10:44:19Z</time>
      </trkpt>
      <trkpt lat="43.94563" lon="7.33574">
        <ele>848.9</ele>
        <time>2013-12-07T10:44:24Z</time>
      </trkpt>
      <trkpt lat="43.94555" lon="7.33578">
        <ele>849.8</ele>
        <time>2013-12-07T10:44:29Z</time>
      </trkpt>
      <trkpt lat="43.94548" lon="7.33585">
        <ele>850.3</ele>
        <time>2013-12-07T10:44:35Z</time>
      </trkpt>
      <trkpt lat="43.94542" lon="7.33591">
        <ele>852.5</ele>
        <time>2013-12-07T10:44:40Z</time>
      </trkpt>
      <trkpt lat="43.94535" lon="7.33596">
        <ele>852.2</ele>
        <time>2013-12-07T10:44:44Z</time>
      </trkpt>
      <trkpt lat="43.94527" lon="7.336">
        <ele>851</ele>
        <time>2013-12-07T10:44:48Z</time>
      </trkpt>
      <trkpt lat="43.9452" lon="7.33604">
        <ele>849.9</ele>
        <time>2013-12-07T10:44:52Z</time>
      </trkpt>
      <trkpt lat="43.94512" lon="7.33608">
        <ele>844.7</ele>
        <time>2013-12-07T10:45:05Z</time>
      </trkpt>
      <trkpt lat="43.94511" lon="7.3361">
        <ele>844.4</ele>
        <time>2013-12-07T10:45:06Z</time>
      </trkpt>
      <trkpt lat="43.94499" lon="7.33617">
        <ele>841.3</ele>
        <time>2013-12-07T10:45:14Z</time>
      </trkpt>
      <trkpt lat="43.94493" lon="7.33609">
        <ele>840.4</ele>
        <time>2013-12-07T10:45:19Z</time>
      </trkpt>
      <trkpt lat="43.94487" lon="7.336">
        <ele>840.1</ele>
        <time>2013-12-07T10:45:26Z</time>
      </trkpt>
      <trkpt lat="43.94486" lon="7.33588">
        <ele>840.2</ele>
        <time>2013-12-07T10:46:08Z</time>
      </trkpt>
      <trkpt lat="43.94486" lon="7.33587">
        <ele>840.2</ele>
        <time>2013-12-07T10:46:09Z</time>
      </trkpt>
      <trkpt lat="43.9448" lon="7.33567">
        <ele>840.5</ele>
        <time>2013-12-07T10:46:20Z</time>
      </trkpt>
      <trkpt lat="43.94477" lon="7.33556">
        <ele>840.4</ele>
        <time>2013-12-07T10:46:25Z</time>
      </trkpt>
      <trkpt lat="43.94474" lon="7.33545">
        <ele>840.5</ele>
        <time>2013-12-07T10:46:29Z</time>
      </trkpt>
      <trkpt lat="43.9447" lon="7.33537">
        <ele>841.3</ele>
        <time>2013-12-07T10:46:32Z</time>
      </trkpt>
      <trkpt lat="43.94466" lon="7.33528">
        <ele>841.1</ele>
        <time>2013-12-07T10:46:35Z</time>
      </trkpt>
      <trkpt lat="43.94461" lon="7.33519">
        <ele>841.4</ele>
        <time>2013-12-07T10:46:38Z</time>
      </trkpt>
      <trkpt lat="43.94454" lon="7.33514">
        <ele>842.2</ele>
        <time>2013-12-07T10:46:41Z</time>
      </trkpt>
      <trkpt lat="43.94446" lon="7.33511">
        <ele>841.2</ele>
        <time>2013-12-07T10:46:44Z</time>
      </trkpt>
      <trkpt lat="43.9444" lon="7.33509">
        <ele>840.8</ele>
        <time>2013-12-07T10:46:46Z</time>
      </trkpt>
      <trkpt lat="43.94434" lon="7.33507">
        <ele>840.8</ele>
        <time>2013-12-07T10:46:48Z</time>
      </trkpt>
      <trkpt lat="43.94428" lon="7.33502">
        <ele>840.9</ele>
        <time>2013-12-07T10:46:50Z</time>
      </trkpt>
      <trkpt lat="43.94422" lon="7.33493">
        <ele>841.1</ele>
        <time>2013-12-07T10:46:53Z</time>
      </trkpt>
      <trkpt lat="43.94419" lon="7.33482">
        <ele>840.6</ele>
        <time>2013-12-07T10:46:56Z</time>
      </trkpt>
      <trkpt lat="43.94417" lon="7.33472">
        <ele>841</ele>
        <time>2013-12-07T10:46:59Z</time>
      </trkpt>
      <trkpt lat="43.94414" lon="7.3346">
        <ele>842</ele>
        <time>2013-12-07T10:47:03Z</time>
      </trkpt>
      <trkpt lat="43.9441" lon="7.33449">
        <ele>842.6</ele>
        <time>2013-12-07T10:47:07Z</time>
      </trkpt>
      <trkpt lat="43.94403" lon="7.33443">
        <ele>843.9</ele>
        <time>2013-12-07T10:47:12Z</time>
      </trkpt>
      <trkpt lat="43.94402" lon="7.33442">
        <ele>844.2</ele>
        <time>2013-12-07T10:47:13Z</time>
      </trkpt>
      <trkpt lat="43.94386" lon="7.33435">
        <ele>846.7</ele>
        <time>2013-12-07T10:47:24Z</time>
      </trkpt>
      <trkpt lat="43.94378" lon="7.33433">
        <ele>848.1</ele>
        <time>2013-12-07T10:47:30Z</time>
      </trkpt>
      <trkpt lat="43.94369" lon="7.33432">
        <ele>848.3</ele>
        <time>2013-12-07T10:47:36Z</time>
      </trkpt>
      <trkpt lat="43.9436" lon="7.33434">
        <ele>849.9</ele>
        <time>2013-12-07T10:47:42Z</time>
      </trkpt>
      <trkpt lat="43.94353" lon="7.33438">
        <ele>851</ele>
        <time>2013-12-07T10:47:47Z</time>
      </trkpt>
      <trkpt lat="43.94345" lon="7.33443">
        <ele>851.1</ele>
        <time>2013-12-07T10:47:51Z</time>
      </trkpt>
      <trkpt lat="43.94337" lon="7.33446">
        <ele>850.5</ele>
        <time>2013-12-07T10:47:54Z</time>
      </trkpt>
      <trkpt lat="43.94331" lon="7.33449">
        <ele>850.2</ele>
        <time>2013-12-07T10:47:56Z</time>
      </trkpt>
      <trkpt lat="43.94325" lon="7.33454">
        <ele>849.9</ele>
        <time>2013-12-07T10:47:58Z</time>
      </trkpt>
      <trkpt lat="43.9432" lon="7.33459">
        <ele>849.5</ele>
        <time>2013-12-07T10:48:00Z</time>
      </trkpt>
      <trkpt lat="43.94315" lon="7.33463">
        <ele>849.2</ele>
        <time>2013-12-07T10:48:02Z</time>
      </trkpt>
      <trkpt lat="43.94307" lon="7.33466">
        <ele>848.9</ele>
        <time>2013-12-07T10:48:05Z</time>
      </trkpt>
      <trkpt lat="43.94301" lon="7.33469">
        <ele>848.7</ele>
        <time>2013-12-07T10:48:07Z</time>
      </trkpt>
      <trkpt lat="43.94295" lon="7.33475">
        <ele>848.4</ele>
        <time>2013-12-07T10:48:09Z</time>
      </trkpt>
      <trkpt lat="43.94292" lon="7.3348">
        <ele>848.5</ele>
        <time>2013-12-07T10:48:10Z</time>
      </trkpt>
      <trkpt lat="43.94291" lon="7.33486">
        <ele>848.5</ele>
        <time>2013-12-07T10:48:11Z</time>
      </trkpt>
      <trkpt lat="43.9429" lon="7.33493">
        <ele>847.9</ele>
        <time>2013-12-07T10:48:12Z</time>
      </trkpt>
      <trkpt lat="43.94283" lon="7.33501">
        <ele>847.1</ele>
        <time>2013-12-07T10:48:14Z</time>
      </trkpt>
      <trkpt lat="43.9428" lon="7.33502">
        <ele>846.8</ele>
        <time>2013-12-07T10:48:15Z</time>
      </trkpt>
      <trkpt lat="43.9427" lon="7.33507">
        <ele>846.6</ele>
        <time>2013-12-07T10:48:18Z</time>
      </trkpt>
      <trkpt lat="43.94265" lon="7.33511">
        <ele>846.7</ele>
        <time>2013-12-07T10:48:20Z</time>
      </trkpt>
      <trkpt lat="43.94259" lon="7.33516">
        <ele>846.5</ele>
        <time>2013-12-07T10:48:22Z</time>
      </trkpt>
      <trkpt lat="43.94254" lon="7.33522">
        <ele>846.3</ele>
        <time>2013-12-07T10:48:24Z</time>
      </trkpt>
      <trkpt lat="43.94248" lon="7.33526">
        <ele>846.3</ele>
        <time>2013-12-07T10:48:26Z</time>
      </trkpt>
      <trkpt lat="43.94241" lon="7.33527">
        <ele>846.6</ele>
        <time>2013-12-07T10:48:28Z</time>
      </trkpt>
      <trkpt lat="43.94234" lon="7.33528">
        <ele>845.8</ele>
        <time>2013-12-07T10:48:30Z</time>
      </trkpt>
      <trkpt lat="43.94227" lon="7.33532">
        <ele>845.4</ele>
        <time>2013-12-07T10:48:32Z</time>
      </trkpt>
      <trkpt lat="43.94221" lon="7.33537">
        <ele>845</ele>
        <time>2013-12-07T10:48:34Z</time>
      </trkpt>
      <trkpt lat="43.94214" lon="7.33543">
        <ele>844.7</ele>
        <time>2013-12-07T10:48:36Z</time>
      </trkpt>
      <trkpt lat="43.94209" lon="7.3355">
        <ele>844</ele>
        <time>2013-12-07T10:48:38Z</time>
      </trkpt>
      <trkpt lat="43.94205" lon="7.33559">
        <ele>843.1</ele>
        <time>2013-12-07T10:48:40Z</time>
      </trkpt>
      <trkpt lat="43.942" lon="7.33566">
        <ele>843.3</ele>
        <time>2013-12-07T10:48:42Z</time>
      </trkpt>
      <trkpt lat="43.94193" lon="7.3357">
        <ele>842.9</ele>
        <time>2013-12-07T10:48:44Z</time>
      </trkpt>
      <trkpt lat="43.94185" lon="7.33573">
        <ele>843.1</ele>
        <time>2013-12-07T10:48:46Z</time>
      </trkpt>
      <trkpt lat="43.94176" lon="7.33576">
        <ele>843.1</ele>
        <time>2013-12-07T10:48:48Z</time>
      </trkpt>
      <trkpt lat="43.94171" lon="7.33584">
        <ele>842.5</ele>
        <time>2013-12-07T10:48:50Z</time>
      </trkpt>
      <trkpt lat="43.94172" lon="7.33591">
        <ele>842.3</ele>
        <time>2013-12-07T10:48:51Z</time>
      </trkpt>
      <trkpt lat="43.94171" lon="7.33598">
        <ele>842.1</ele>
        <time>2013-12-07T10:48:52Z</time>
      </trkpt>
      <trkpt lat="43.94169" lon="7.33604">
        <ele>841.4</ele>
        <time>2013-12-07T10:48:53Z</time>
      </trkpt>
      <trkpt lat="43.94166" lon="7.33609">
        <ele>840.9</ele>
        <time>2013-12-07T10:48:54Z</time>
      </trkpt>
      <trkpt lat="43.94163" lon="7.33614">
        <ele>840.6</ele>
        <time>2013-12-07T10:48:55Z</time>
      </trkpt>
      <trkpt lat="43.94161" lon="7.33626">
        <ele>839.3</ele>
        <time>2013-12-07T10:48:57Z</time>
      </trkpt>
      <trkpt lat="43.9416" lon="7.33637">
        <ele>837.9</ele>
        <time>2013-12-07T10:48:59Z</time>
      </trkpt>
      <trkpt lat="43.94158" lon="7.33647">
        <ele>838.1</ele>
        <time>2013-12-07T10:49:01Z</time>
      </trkpt>
      <trkpt lat="43.94156" lon="7.33658">
        <ele>837.6</ele>
        <time>2013-12-07T10:49:03Z</time>
      </trkpt>
      <trkpt lat="43.94157" lon="7.33669">
        <ele>837.4</ele>
        <time>2013-12-07T10:49:05Z</time>
      </trkpt>
      <trkpt lat="43.94159" lon="7.33679">
        <ele>837.3</ele>
        <time>2013-12-07T10:49:07Z</time>
      </trkpt>
      <trkpt lat="43.94162" lon="7.3369">
        <ele>836.6</ele>
        <time>2013-12-07T10:49:09Z</time>
      </trkpt>
      <trkpt lat="43.94165" lon="7.337">
        <ele>835.8</ele>
        <time>2013-12-07T10:49:11Z</time>
      </trkpt>
      <trkpt lat="43.94169" lon="7.33704">
        <ele>834.4</ele>
        <time>2013-12-07T10:49:12Z</time>
      </trkpt>
      <trkpt lat="43.94173" lon="7.33708">
        <ele>833.4</ele>
        <time>2013-12-07T10:49:13Z</time>
      </trkpt>
      <trkpt lat="43.94177" lon="7.33712">
        <ele>832.5</ele>
        <time>2013-12-07T10:49:14Z</time>
      </trkpt>
      <trkpt lat="43.9418" lon="7.33717">
        <ele>831.7</ele>
        <time>2013-12-07T10:49:15Z</time>
      </trkpt>
      <trkpt lat="43.94181" lon="7.33723">
        <ele>831.2</ele>
        <time>2013-12-07T10:49:16Z</time>
      </trkpt>
      <trkpt lat="43.94179" lon="7.33735">
        <ele>830.7</ele>
        <time>2013-12-07T10:49:19Z</time>
      </trkpt>
      <trkpt lat="43.94177" lon="7.33747">
        <ele>830.4</ele>
        <time>2013-12-07T10:49:22Z</time>
      </trkpt>
      <trkpt lat="43.94174" lon="7.33755">
        <ele>830.4</ele>
        <time>2013-12-07T10:49:24Z</time>
      </trkpt>
      <trkpt lat="43.9417" lon="7.33766">
        <ele>830.1</ele>
        <time>2013-12-07T10:49:26Z</time>
      </trkpt>
      <trkpt lat="43.94169" lon="7.33773">
        <ele>829.8</ele>
        <time>2013-12-07T10:49:27Z</time>
      </trkpt>
      <trkpt lat="43.94167" lon="7.3378">
        <ele>829.2</ele>
        <time>2013-12-07T10:49:28Z</time>
      </trkpt>
      <trkpt lat="43.94166" lon="7.33787">
        <ele>828.8</ele>
        <time>2013-12-07T10:49:29Z</time>
      </trkpt>
      <trkpt lat="43.94164" lon="7.33793">
        <ele>828.5</ele>
        <time>2013-12-07T10:49:30Z</time>
      </trkpt>
      <trkpt lat="43.94161" lon="7.33799">
        <ele>828</ele>
        <time>2013-12-07T10:49:31Z</time>
      </trkpt>
      <trkpt lat="43.94156" lon="7.33808">
        <ele>827.4</ele>
        <time>2013-12-07T10:49:33Z</time>
      </trkpt>
      <trkpt lat="43.9415" lon="7.33814">
        <ele>827.4</ele>
        <time>2013-12-07T10:49:35Z</time>
      </trkpt>
      <trkpt lat="43.94144" lon="7.33821">
        <ele>827.5</ele>
        <time>2013-12-07T10:49:38Z</time>
      </trkpt>
      <trkpt lat="43.94136" lon="7.33824">
        <ele>827.5</ele>
        <time>2013-12-07T10:49:42Z</time>
      </trkpt>
      <trkpt lat="43.94128" lon="7.33824">
        <ele>828.4</ele>
        <time>2013-12-07T10:49:46Z</time>
      </trkpt>
      <trkpt lat="43.94121" lon="7.33825">
        <ele>829.4</ele>
        <time>2013-12-07T10:49:50Z</time>
      </trkpt>
      <trkpt lat="43.94113" lon="7.33825">
        <ele>830.3</ele>
        <time>2013-12-07T10:49:54Z</time>
      </trkpt>
      <trkpt lat="43.94104" lon="7.33825">
        <ele>830.6</ele>
        <time>2013-12-07T10:49:58Z</time>
      </trkpt>
      <trkpt lat="43.94097" lon="7.33826">
        <ele>830.4</ele>
        <time>2013-12-07T10:50:01Z</time>
      </trkpt>
      <trkpt lat="43.9409" lon="7.33826">
        <ele>829.9</ele>
        <time>2013-12-07T10:50:04Z</time>
      </trkpt>
      <trkpt lat="43.94082" lon="7.33829">
        <ele>828.5</ele>
        <time>2013-12-07T10:50:20Z</time>
      </trkpt>
      <trkpt lat="43.94081" lon="7.33829">
        <ele>828.6</ele>
        <time>2013-12-07T10:50:21Z</time>
      </trkpt>
      <trkpt lat="43.94065" lon="7.33826">
        <ele>828.3</ele>
        <time>2013-12-07T10:51:34Z</time>
      </trkpt>
      <trkpt lat="43.94064" lon="7.3383">
        <ele>828.2</ele>
        <time>2013-12-07T10:51:35Z</time>
      </trkpt>
      <trkpt lat="43.94059" lon="7.33847">
        <ele>826.9</ele>
        <time>2013-12-07T10:54:15Z</time>
      </trkpt>
      <trkpt lat="43.94058" lon="7.3385">
        <ele>827</ele>
        <time>2013-12-07T10:54:16Z</time>
      </trkpt>
      <trkpt lat="43.94063" lon="7.33869">
        <ele>826.5</ele>
        <time>2013-12-07T10:54:20Z</time>
      </trkpt>
      <trkpt lat="43.94066" lon="7.33875">
        <ele>826.4</ele>
        <time>2013-12-07T10:54:21Z</time>
      </trkpt>
      <trkpt lat="43.94068" lon="7.33881">
        <ele>826.3</ele>
        <time>2013-12-07T10:54:22Z</time>
      </trkpt>
      <trkpt lat="43.94072" lon="7.3389">
        <ele>825.4</ele>
        <time>2013-12-07T10:54:24Z</time>
      </trkpt>
      <trkpt lat="43.94075" lon="7.33898">
        <ele>823.2</ele>
        <time>2013-12-07T10:54:27Z</time>
      </trkpt>
      <trkpt lat="43.94077" lon="7.3391">
        <ele>821.1</ele>
        <time>2013-12-07T10:54:30Z</time>
      </trkpt>
      <trkpt lat="43.94078" lon="7.33919">
        <ele>819.5</ele>
        <time>2013-12-07T10:54:32Z</time>
      </trkpt>
      <trkpt lat="43.94079" lon="7.33929">
        <ele>818.4</ele>
        <time>2013-12-07T10:54:34Z</time>
      </trkpt>
      <trkpt lat="43.94079" lon="7.3394">
        <ele>816.4</ele>
        <time>2013-12-07T10:54:38Z</time>
      </trkpt>
      <trkpt lat="43.94071" lon="7.33942">
        <ele>813.6</ele>
        <time>2013-12-07T10:54:46Z</time>
      </trkpt>
      <trkpt lat="43.94063" lon="7.33941">
        <ele>814.2</ele>
        <time>2013-12-07T10:54:53Z</time>
      </trkpt>
      <trkpt lat="43.94054" lon="7.33941">
        <ele>815.8</ele>
        <time>2013-12-07T10:55:00Z</time>
      </trkpt>
      <trkpt lat="43.94045" lon="7.33941">
        <ele>817.2</ele>
        <time>2013-12-07T10:55:07Z</time>
      </trkpt>
      <trkpt lat="43.94037" lon="7.33942">
        <ele>819</ele>
        <time>2013-12-07T10:55:14Z</time>
      </trkpt>
      <trkpt lat="43.94028" lon="7.33943">
        <ele>820</ele>
        <time>2013-12-07T10:55:22Z</time>
      </trkpt>
      <trkpt lat="43.94027" lon="7.33943">
        <ele>820.1</ele>
        <time>2013-12-07T10:55:23Z</time>
      </trkpt>
      <trkpt lat="43.94013" lon="7.33936">
        <ele>823.9</ele>
        <time>2013-12-07T10:55:39Z</time>
      </trkpt>
      <trkpt lat="43.94005" lon="7.33934">
        <ele>824.5</ele>
        <time>2013-12-07T10:55:46Z</time>
      </trkpt>
      <trkpt lat="43.93997" lon="7.33931">
        <ele>826</ele>
        <time>2013-12-07T10:55:54Z</time>
      </trkpt>
      <trkpt lat="43.93989" lon="7.33925">
        <ele>827.3</ele>
        <time>2013-12-07T10:56:04Z</time>
      </trkpt>
      <trkpt lat="43.93982" lon="7.33919">
        <ele>828.9</ele>
        <time>2013-12-07T10:56:12Z</time>
      </trkpt>
      <trkpt lat="43.93974" lon="7.33916">
        <ele>830.3</ele>
        <time>2013-12-07T10:56:19Z</time>
      </trkpt>
      <trkpt lat="43.93966" lon="7.33911">
        <ele>831.8</ele>
        <time>2013-12-07T10:56:27Z</time>
      </trkpt>
      <trkpt lat="43.93965" lon="7.33911">
        <ele>832.1</ele>
        <time>2013-12-07T10:56:28Z</time>
      </trkpt>
      <trkpt lat="43.93949" lon="7.3391">
        <ele>834.4</ele>
        <time>2013-12-07T10:56:41Z</time>
      </trkpt>
      <trkpt lat="43.93942" lon="7.33906">
        <ele>834.3</ele>
        <time>2013-12-07T10:56:47Z</time>
      </trkpt>
      <trkpt lat="43.93934" lon="7.33902">
        <ele>835.3</ele>
        <time>2013-12-07T10:56:53Z</time>
      </trkpt>
      <trkpt lat="43.93926" lon="7.33903">
        <ele>836.9</ele>
        <time>2013-12-07T10:56:59Z</time>
      </trkpt>
      <trkpt lat="43.93918" lon="7.33908">
        <ele>837.5</ele>
        <time>2013-12-07T10:57:05Z</time>
      </trkpt>
      <trkpt lat="43.93912" lon="7.33916">
        <ele>837</ele>
        <time>2013-12-07T10:57:11Z</time>
      </trkpt>
      <trkpt lat="43.93908" lon="7.33925">
        <ele>837.4</ele>
        <time>2013-12-07T10:57:16Z</time>
      </trkpt>
      <trkpt lat="43.93903" lon="7.33934">
        <ele>837.1</ele>
        <time>2013-12-07T10:57:21Z</time>
      </trkpt>
      <trkpt lat="43.93901" lon="7.33945">
        <ele>836.6</ele>
        <time>2013-12-07T10:57:25Z</time>
      </trkpt>
      <trkpt lat="43.93895" lon="7.33953">
        <ele>836.1</ele>
        <time>2013-12-07T10:57:29Z</time>
      </trkpt>
      <trkpt lat="43.93893" lon="7.33954">
        <ele>836</ele>
        <time>2013-12-07T10:57:30Z</time>
      </trkpt>
      <trkpt lat="43.93881" lon="7.33968">
        <ele>835.6</ele>
        <time>2013-12-07T10:57:37Z</time>
      </trkpt>
      <trkpt lat="43.93879" lon="7.33979">
        <ele>835.9</ele>
        <time>2013-12-07T10:57:41Z</time>
      </trkpt>
      <trkpt lat="43.93876" lon="7.33989">
        <ele>836</ele>
        <time>2013-12-07T10:57:45Z</time>
      </trkpt>
      <trkpt lat="43.93871" lon="7.33999">
        <ele>835.2</ele>
        <time>2013-12-07T10:57:50Z</time>
      </trkpt>
      <trkpt lat="43.93863" lon="7.34005">
        <ele>835</ele>
        <time>2013-12-07T10:57:54Z</time>
      </trkpt>
      <trkpt lat="43.9386" lon="7.34016">
        <ele>834.8</ele>
        <time>2013-12-07T10:57:57Z</time>
      </trkpt>
      <trkpt lat="43.93857" lon="7.34025">
        <ele>835</ele>
        <time>2013-12-07T10:57:59Z</time>
      </trkpt>
      <trkpt lat="43.93854" lon="7.34032">
        <ele>834.9</ele>
        <time>2013-12-07T10:58:01Z</time>
      </trkpt>
      <trkpt lat="43.93849" lon="7.34043">
        <ele>834.3</ele>
        <time>2013-12-07T10:58:04Z</time>
      </trkpt>
      <trkpt lat="43.93842" lon="7.34048">
        <ele>834.8</ele>
        <time>2013-12-07T10:58:07Z</time>
      </trkpt>
      <trkpt lat="43.93835" lon="7.3405">
        <ele>834.7</ele>
        <time>2013-12-07T10:58:10Z</time>
      </trkpt>
      <trkpt lat="43.93828" lon="7.34057">
        <ele>835.2</ele>
        <time>2013-12-07T10:58:13Z</time>
      </trkpt>
      <trkpt lat="43.93824" lon="7.34064">
        <ele>835.4</ele>
        <time>2013-12-07T10:58:15Z</time>
      </trkpt>
      <trkpt lat="43.9382" lon="7.34074">
        <ele>835.5</ele>
        <time>2013-12-07T10:58:17Z</time>
      </trkpt>
      <trkpt lat="43.93817" lon="7.34085">
        <ele>835.6</ele>
        <time>2013-12-07T10:58:19Z</time>
      </trkpt>
      <trkpt lat="43.93815" lon="7.34096">
        <ele>835.1</ele>
        <time>2013-12-07T10:58:21Z</time>
      </trkpt>
      <trkpt lat="43.93814" lon="7.34106">
        <ele>834.8</ele>
        <time>2013-12-07T10:58:23Z</time>
      </trkpt>
      <trkpt lat="43.93817" lon="7.34116">
        <ele>834.4</ele>
        <time>2013-12-07T10:58:25Z</time>
      </trkpt>
      <trkpt lat="43.93818" lon="7.34126">
        <ele>834</ele>
        <time>2013-12-07T10:58:27Z</time>
      </trkpt>
      <trkpt lat="43.93817" lon="7.34135">
        <ele>833.5</ele>
        <time>2013-12-07T10:58:29Z</time>
      </trkpt>
      <trkpt lat="43.93813" lon="7.34146">
        <ele>833</ele>
        <time>2013-12-07T10:58:32Z</time>
      </trkpt>
      <trkpt lat="43.93811" lon="7.34149">
        <ele>833</ele>
        <time>2013-12-07T10:58:33Z</time>
      </trkpt>
      <trkpt lat="43.93802" lon="7.34158">
        <ele>832.9</ele>
        <time>2013-12-07T10:58:36Z</time>
      </trkpt>
      <trkpt lat="43.93796" lon="7.34162">
        <ele>832.7</ele>
        <time>2013-12-07T10:58:38Z</time>
      </trkpt>
      <trkpt lat="43.93789" lon="7.34163">
        <ele>832.7</ele>
        <time>2013-12-07T10:58:40Z</time>
      </trkpt>
      <trkpt lat="43.93783" lon="7.3417">
        <ele>832.8</ele>
        <time>2013-12-07T10:58:42Z</time>
      </trkpt>
      <trkpt lat="43.93779" lon="7.34181">
        <ele>832.3</ele>
        <time>2013-12-07T10:58:44Z</time>
      </trkpt>
      <trkpt lat="43.93778" lon="7.34187">
        <ele>831.9</ele>
        <time>2013-12-07T10:58:45Z</time>
      </trkpt>
      <trkpt lat="43.93776" lon="7.34193">
        <ele>831.7</ele>
        <time>2013-12-07T10:58:46Z</time>
      </trkpt>
      <trkpt lat="43.93774" lon="7.34199">
        <ele>831.5</ele>
        <time>2013-12-07T10:58:47Z</time>
      </trkpt>
      <trkpt lat="43.93772" lon="7.34206">
        <ele>831.2</ele>
        <time>2013-12-07T10:58:48Z</time>
      </trkpt>
      <trkpt lat="43.9377" lon="7.34213">
        <ele>830.9</ele>
        <time>2013-12-07T10:58:49Z</time>
      </trkpt>
      <trkpt lat="43.93769" lon="7.34219">
        <ele>830.7</ele>
        <time>2013-12-07T10:58:50Z</time>
      </trkpt>
      <trkpt lat="43.93767" lon="7.34226">
        <ele>830.1</ele>
        <time>2013-12-07T10:58:51Z</time>
      </trkpt>
      <trkpt lat="43.93765" lon="7.34232">
        <ele>829.7</ele>
        <time>2013-12-07T10:58:52Z</time>
      </trkpt>
      <trkpt lat="43.93761" lon="7.34242">
        <ele>828.5</ele>
        <time>2013-12-07T10:58:54Z</time>
      </trkpt>
      <trkpt lat="43.93756" lon="7.3425">
        <ele>827.4</ele>
        <time>2013-12-07T10:58:56Z</time>
      </trkpt>
      <trkpt lat="43.93748" lon="7.34251">
        <ele>825.9</ele>
        <time>2013-12-07T10:58:59Z</time>
      </trkpt>
      <trkpt lat="43.93741" lon="7.34243">
        <ele>824.7</ele>
        <time>2013-12-07T10:59:11Z</time>
      </trkpt>
      <trkpt lat="43.93735" lon="7.34235">
        <ele>821.9</ele>
        <time>2013-12-07T10:59:27Z</time>
      </trkpt>
      <trkpt lat="43.93726" lon="7.34234">
        <ele>818.2</ele>
        <time>2013-12-07T10:59:56Z</time>
      </trkpt>
      <trkpt lat="43.93726" lon="7.34234">
        <ele>817.9</ele>
        <time>2013-12-07T10:59:57Z</time>
      </trkpt>
      <trkpt lat="43.93715" lon="7.34217">
        <ele>817.6</ele>
        <time>2013-12-07T11:01:10Z</time>
      </trkpt>
      <trkpt lat="43.93714" lon="7.34216">
        <ele>817.5</ele>
        <time>2013-12-07T11:01:11Z</time>
      </trkpt>
      <trkpt lat="43.937" lon="7.34208">
        <ele>819.7</ele>
        <time>2013-12-07T11:01:34Z</time>
      </trkpt>
      <trkpt lat="43.93693" lon="7.342">
        <ele>819.4</ele>
        <time>2013-12-07T11:01:40Z</time>
      </trkpt>
      <trkpt lat="43.93696" lon="7.34189">
        <ele>819.4</ele>
        <time>2013-12-07T11:01:48Z</time>
      </trkpt>
      <trkpt lat="43.937" lon="7.34178">
        <ele>820.7</ele>
        <time>2013-12-07T11:01:56Z</time>
      </trkpt>
      <trkpt lat="43.93702" lon="7.34167">
        <ele>823.2</ele>
        <time>2013-12-07T11:02:04Z</time>
      </trkpt>
      <trkpt lat="43.93703" lon="7.34155">
        <ele>824.2</ele>
        <time>2013-12-07T11:02:12Z</time>
      </trkpt>
      <trkpt lat="43.93703" lon="7.34153">
        <ele>824.2</ele>
        <time>2013-12-07T11:02:13Z</time>
      </trkpt>
      <trkpt lat="43.93701" lon="7.34132">
        <ele>826.1</ele>
        <time>2013-12-07T11:02:25Z</time>
      </trkpt>
      <trkpt lat="43.937" lon="7.3412">
        <ele>826.3</ele>
        <time>2013-12-07T11:02:30Z</time>
      </trkpt>
      <trkpt lat="43.937" lon="7.34108">
        <ele>825.9</ele>
        <time>2013-12-07T11:02:35Z</time>
      </trkpt>
      <trkpt lat="43.93697" lon="7.34096">
        <ele>828.3</ele>
        <time>2013-12-07T11:02:41Z</time>
      </trkpt>
      <trkpt lat="43.93693" lon="7.34087">
        <ele>828.3</ele>
        <time>2013-12-07T11:02:46Z</time>
      </trkpt>
      <trkpt lat="43.93687" lon="7.3408">
        <ele>830.1</ele>
        <time>2013-12-07T11:02:51Z</time>
      </trkpt>
      <trkpt lat="43.9368" lon="7.34076">
        <ele>831.1</ele>
        <time>2013-12-07T11:02:56Z</time>
      </trkpt>
      <trkpt lat="43.93672" lon="7.34074">
        <ele>832.6</ele>
        <time>2013-12-07T11:03:02Z</time>
      </trkpt>
      <trkpt lat="43.93665" lon="7.34067">
        <ele>833.2</ele>
        <time>2013-12-07T11:03:07Z</time>
      </trkpt>
      <trkpt lat="43.93659" lon="7.34062">
        <ele>834.1</ele>
        <time>2013-12-07T11:03:11Z</time>
      </trkpt>
      <trkpt lat="43.93651" lon="7.34055">
        <ele>833.8</ele>
        <time>2013-12-07T11:03:16Z</time>
      </trkpt>
      <trkpt lat="43.9365" lon="7.34054">
        <ele>834.2</ele>
        <time>2013-12-07T11:03:17Z</time>
      </trkpt>
      <trkpt lat="43.93643" lon="7.34035">
        <ele>835.1</ele>
        <time>2013-12-07T11:03:29Z</time>
      </trkpt>
      <trkpt lat="43.93644" lon="7.34024">
        <ele>835.8</ele>
        <time>2013-12-07T11:03:36Z</time>
      </trkpt>
      <trkpt lat="43.93647" lon="7.34013">
        <ele>838.1</ele>
        <time>2013-12-07T11:03:44Z</time>
      </trkpt>
      <trkpt lat="43.9365" lon="7.34002">
        <ele>840</ele>
        <time>2013-12-07T11:03:53Z</time>
      </trkpt>
      <trkpt lat="43.93652" lon="7.33991">
        <ele>842.6</ele>
        <time>2013-12-07T11:04:02Z</time>
      </trkpt>
      <trkpt lat="43.93655" lon="7.33979">
        <ele>844.7</ele>
        <time>2013-12-07T11:04:11Z</time>
      </trkpt>
      <trkpt lat="43.93656" lon="7.33969">
        <ele>847.4</ele>
        <time>2013-12-07T11:04:18Z</time>
      </trkpt>
      <trkpt lat="43.93657" lon="7.33967">
        <ele>847.6</ele>
        <time>2013-12-07T11:04:19Z</time>
      </trkpt>
      <trkpt lat="43.9366" lon="7.33945">
        <ele>852.3</ele>
        <time>2013-12-07T11:04:35Z</time>
      </trkpt>
      <trkpt lat="43.93657" lon="7.33933">
        <ele>856.2</ele>
        <time>2013-12-07T11:04:49Z</time>
      </trkpt>
      <trkpt lat="43.93658" lon="7.33921">
        <ele>857.4</ele>
        <time>2013-12-07T11:05:00Z</time>
      </trkpt>
      <trkpt lat="43.93657" lon="7.3391">
        <ele>859.2</ele>
        <time>2013-12-07T11:05:12Z</time>
      </trkpt>
      <trkpt lat="43.93657" lon="7.33899">
        <ele>860.9</ele>
        <time>2013-12-07T11:05:21Z</time>
      </trkpt>
      <trkpt lat="43.93657" lon="7.33897">
        <ele>860.9</ele>
        <time>2013-12-07T11:05:22Z</time>
      </trkpt>
      <trkpt lat="43.93645" lon="7.33888">
        <ele>867.3</ele>
        <time>2013-12-07T11:05:48Z</time>
      </trkpt>
      <trkpt lat="43.93639" lon="7.33897">
        <ele>869</ele>
        <time>2013-12-07T11:05:57Z</time>
      </trkpt>
      <trkpt lat="43.93633" lon="7.33905">
        <ele>869.6</ele>
        <time>2013-12-07T11:06:04Z</time>
      </trkpt>
      <trkpt lat="43.93627" lon="7.33912">
        <ele>872.4</ele>
        <time>2013-12-07T11:06:12Z</time>
      </trkpt>
      <trkpt lat="43.93619" lon="7.33906">
        <ele>877.3</ele>
        <time>2013-12-07T11:06:32Z</time>
      </trkpt>
      <trkpt lat="43.93619" lon="7.33906">
        <ele>877.6</ele>
        <time>2013-12-07T11:06:33Z</time>
      </trkpt>
      <trkpt lat="43.93608" lon="7.33888">
        <ele>884.4</ele>
        <time>2013-12-07T11:07:13Z</time>
      </trkpt>
      <trkpt lat="43.936" lon="7.33892">
        <ele>886.7</ele>
        <time>2013-12-07T11:07:26Z</time>
      </trkpt>
      <trkpt lat="43.93592" lon="7.33898">
        <ele>888.7</ele>
        <time>2013-12-07T11:07:40Z</time>
      </trkpt>
      <trkpt lat="43.93591" lon="7.33898">
        <ele>889.1</ele>
        <time>2013-12-07T11:07:41Z</time>
      </trkpt>
      <trkpt lat="43.93576" lon="7.33909">
        <ele>893.6</ele>
        <time>2013-12-07T11:08:08Z</time>
      </trkpt>
      <trkpt lat="43.93568" lon="7.33907">
        <ele>895.1</ele>
        <time>2013-12-07T11:08:17Z</time>
      </trkpt>
      <trkpt lat="43.9356" lon="7.33906">
        <ele>896.9</ele>
        <time>2013-12-07T11:08:25Z</time>
      </trkpt>
      <trkpt lat="43.93551" lon="7.33902">
        <ele>898.3</ele>
        <time>2013-12-07T11:08:33Z</time>
      </trkpt>
      <trkpt lat="43.93544" lon="7.33896">
        <ele>899.4</ele>
        <time>2013-12-07T11:08:40Z</time>
      </trkpt>
      <trkpt lat="43.93536" lon="7.33894">
        <ele>901</ele>
        <time>2013-12-07T11:08:47Z</time>
      </trkpt>
      <trkpt lat="43.93535" lon="7.33893">
        <ele>901.1</ele>
        <time>2013-12-07T11:08:48Z</time>
      </trkpt>
      <trkpt lat="43.93525" lon="7.33876">
        <ele>902</ele>
        <time>2013-12-07T11:09:09Z</time>
      </trkpt>
      <trkpt lat="43.93524" lon="7.33864">
        <ele>902.6</ele>
        <time>2013-12-07T11:09:43Z</time>
      </trkpt>
      <trkpt lat="43.93517" lon="7.33859">
        <ele>902.1</ele>
        <time>2013-12-07T11:09:49Z</time>
      </trkpt>
      <trkpt lat="43.93516" lon="7.33858">
        <ele>902.1</ele>
        <time>2013-12-07T11:09:50Z</time>
      </trkpt>
      <trkpt lat="43.93514" lon="7.33837">
        <ele>904.3</ele>
        <time>2013-12-07T11:10:08Z</time>
      </trkpt>
      <trkpt lat="43.93511" lon="7.33825">
        <ele>906.9</ele>
        <time>2013-12-07T11:10:16Z</time>
      </trkpt>
      <trkpt lat="43.93506" lon="7.33815">
        <ele>908.1</ele>
        <time>2013-12-07T11:10:23Z</time>
      </trkpt>
      <trkpt lat="43.935" lon="7.33806">
        <ele>909.5</ele>
        <time>2013-12-07T11:10:30Z</time>
      </trkpt>
      <trkpt lat="43.93493" lon="7.33802">
        <ele>911.3</ele>
        <time>2013-12-07T11:10:36Z</time>
      </trkpt>
      <trkpt lat="43.93485" lon="7.33801">
        <ele>912.2</ele>
        <time>2013-12-07T11:10:42Z</time>
      </trkpt>
      <trkpt lat="43.93477" lon="7.33801">
        <ele>912.8</ele>
        <time>2013-12-07T11:10:48Z</time>
      </trkpt>
      <trkpt lat="43.93469" lon="7.33802">
        <ele>913.2</ele>
        <time>2013-12-07T11:10:53Z</time>
      </trkpt>
      <trkpt lat="43.93467" lon="7.33802">
        <ele>913.2</ele>
        <time>2013-12-07T11:10:54Z</time>
      </trkpt>
      <trkpt lat="43.93453" lon="7.33799">
        <ele>914.1</ele>
        <time>2013-12-07T11:11:04Z</time>
      </trkpt>
      <trkpt lat="43.93453" lon="7.33788">
        <ele>914</ele>
        <time>2013-12-07T11:11:09Z</time>
      </trkpt>
      <trkpt lat="43.93453" lon="7.33777">
        <ele>914.2</ele>
        <time>2013-12-07T11:11:15Z</time>
      </trkpt>
      <trkpt lat="43.9345" lon="7.33766">
        <ele>915.9</ele>
        <time>2013-12-07T11:11:20Z</time>
      </trkpt>
      <trkpt lat="43.93443" lon="7.3376">
        <ele>916.7</ele>
        <time>2013-12-07T11:11:26Z</time>
      </trkpt>
      <trkpt lat="43.93434" lon="7.33761">
        <ele>917.8</ele>
        <time>2013-12-07T11:11:33Z</time>
      </trkpt>
      <trkpt lat="43.93426" lon="7.33765">
        <ele>918.9</ele>
        <time>2013-12-07T11:11:40Z</time>
      </trkpt>
      <trkpt lat="43.93417" lon="7.33764">
        <ele>919.9</ele>
        <time>2013-12-07T11:11:47Z</time>
      </trkpt>
      <trkpt lat="43.93412" lon="7.33754">
        <ele>920.7</ele>
        <time>2013-12-07T11:11:54Z</time>
      </trkpt>
      <trkpt lat="43.93411" lon="7.33752">
        <ele>920.9</ele>
        <time>2013-12-07T11:11:55Z</time>
      </trkpt>
      <trkpt lat="43.93396" lon="7.33748">
        <ele>922.3</ele>
        <time>2013-12-07T11:12:07Z</time>
      </trkpt>
      <trkpt lat="43.93389" lon="7.33742">
        <ele>924.6</ele>
        <time>2013-12-07T11:12:13Z</time>
      </trkpt>
      <trkpt lat="43.93381" lon="7.3374">
        <ele>926.3</ele>
        <time>2013-12-07T11:12:20Z</time>
      </trkpt>
      <trkpt lat="43.93372" lon="7.33736">
        <ele>927.2</ele>
        <time>2013-12-07T11:12:27Z</time>
      </trkpt>
      <trkpt lat="43.93364" lon="7.33734">
        <ele>929.8</ele>
        <time>2013-12-07T11:12:35Z</time>
      </trkpt>
      <trkpt lat="43.93356" lon="7.33728">
        <ele>931.1</ele>
        <time>2013-12-07T11:12:44Z</time>
      </trkpt>
      <trkpt lat="43.93349" lon="7.33721">
        <ele>932.3</ele>
        <time>2013-12-07T11:12:51Z</time>
      </trkpt>
      <trkpt lat="43.93344" lon="7.33714">
        <ele>933.5</ele>
        <time>2013-12-07T11:12:58Z</time>
      </trkpt>
      <trkpt lat="43.93343" lon="7.33712">
        <ele>933.6</ele>
        <time>2013-12-07T11:12:59Z</time>
      </trkpt>
      <trkpt lat="43.93336" lon="7.33695">
        <ele>935.7</ele>
        <time>2013-12-07T11:13:12Z</time>
      </trkpt>
      <trkpt lat="43.9334" lon="7.33685">
        <ele>937.1</ele>
        <time>2013-12-07T11:13:17Z</time>
      </trkpt>
      <trkpt lat="43.93343" lon="7.33673">
        <ele>937.5</ele>
        <time>2013-12-07T11:13:22Z</time>
      </trkpt>
      <trkpt lat="43.93343" lon="7.33661">
        <ele>937.8</ele>
        <time>2013-12-07T11:13:28Z</time>
      </trkpt>
      <trkpt lat="43.93339" lon="7.33651">
        <ele>939</ele>
        <time>2013-12-07T11:13:34Z</time>
      </trkpt>
      <trkpt lat="43.93339" lon="7.3364">
        <ele>939.9</ele>
        <time>2013-12-07T11:13:40Z</time>
      </trkpt>
      <trkpt lat="43.9334" lon="7.33629">
        <ele>940.9</ele>
        <time>2013-12-07T11:13:45Z</time>
      </trkpt>
      <trkpt lat="43.9334" lon="7.33618">
        <ele>941.5</ele>
        <time>2013-12-07T11:13:50Z</time>
      </trkpt>
      <trkpt lat="43.93335" lon="7.3361">
        <ele>942.9</ele>
        <time>2013-12-07T11:13:55Z</time>
      </trkpt>
      <trkpt lat="43.93331" lon="7.33599">
        <ele>944.6</ele>
        <time>2013-12-07T11:14:01Z</time>
      </trkpt>
      <trkpt lat="43.93331" lon="7.33597">
        <ele>944.9</ele>
        <time>2013-12-07T11:14:02Z</time>
      </trkpt>
      <trkpt lat="43.93324" lon="7.33579">
        <ele>945.7</ele>
        <time>2013-12-07T11:14:11Z</time>
      </trkpt>
      <trkpt lat="43.93321" lon="7.33567">
        <ele>945.5</ele>
        <time>2013-12-07T11:14:15Z</time>
      </trkpt>
      <trkpt lat="43.9332" lon="7.33557">
        <ele>945.2</ele>
        <time>2013-12-07T11:14:20Z</time>
      </trkpt>
      <trkpt lat="43.93316" lon="7.33546">
        <ele>946.7</ele>
        <time>2013-12-07T11:14:27Z</time>
      </trkpt>
      <trkpt lat="43.9331" lon="7.33538">
        <ele>947.3</ele>
        <time>2013-12-07T11:14:33Z</time>
      </trkpt>
      <trkpt lat="43.93305" lon="7.33529">
        <ele>945.3</ele>
        <time>2013-12-07T11:15:16Z</time>
      </trkpt>
      <trkpt lat="43.93304" lon="7.33527">
        <ele>945.4</ele>
        <time>2013-12-07T11:15:17Z</time>
      </trkpt>
      <trkpt lat="43.93299" lon="7.33514">
        <ele>943.6</ele>
        <time>2013-12-07T11:15:22Z</time>
      </trkpt>
      <trkpt lat="43.93299" lon="7.33503">
        <ele>943</ele>
        <time>2013-12-07T11:15:24Z</time>
      </trkpt>
      <trkpt lat="43.93297" lon="7.33497">
        <ele>942.1</ele>
        <time>2013-12-07T11:15:25Z</time>
      </trkpt>
      <trkpt lat="43.93293" lon="7.33492">
        <ele>941.4</ele>
        <time>2013-12-07T11:15:26Z</time>
      </trkpt>
      <trkpt lat="43.93289" lon="7.33487">
        <ele>940.9</ele>
        <time>2013-12-07T11:15:27Z</time>
      </trkpt>
      <trkpt lat="43.93286" lon="7.33481">
        <ele>940.2</ele>
        <time>2013-12-07T11:15:28Z</time>
      </trkpt>
      <trkpt lat="43.93283" lon="7.33475">
        <ele>939.8</ele>
        <time>2013-12-07T11:15:29Z</time>
      </trkpt>
      <trkpt lat="43.93279" lon="7.33472">
        <ele>939.5</ele>
        <time>2013-12-07T11:15:30Z</time>
      </trkpt>
      <trkpt lat="43.93274" lon="7.33471">
        <ele>939.3</ele>
        <time>2013-12-07T11:15:31Z</time>
      </trkpt>
      <trkpt lat="43.93269" lon="7.33471">
        <ele>938.8</ele>
        <time>2013-12-07T11:15:32Z</time>
      </trkpt>
      <trkpt lat="43.93261" lon="7.3347">
        <ele>938.1</ele>
        <time>2013-12-07T11:15:34Z</time>
      </trkpt>
      <trkpt lat="43.93253" lon="7.33468">
        <ele>937.7</ele>
        <time>2013-12-07T11:15:36Z</time>
      </trkpt>
      <trkpt lat="43.93245" lon="7.33465">
        <ele>937.3</ele>
        <time>2013-12-07T11:15:38Z</time>
      </trkpt>
      <trkpt lat="43.93237" lon="7.33461">
        <ele>936.9</ele>
        <time>2013-12-07T11:15:40Z</time>
      </trkpt>
      <trkpt lat="43.93233" lon="7.3346">
        <ele>936.8</ele>
        <time>2013-12-07T11:15:41Z</time>
      </trkpt>
      <trkpt lat="43.93228" lon="7.33461">
        <ele>936.6</ele>
        <time>2013-12-07T11:15:42Z</time>
      </trkpt>
      <trkpt lat="43.93223" lon="7.33464">
        <ele>936.5</ele>
        <time>2013-12-07T11:15:43Z</time>
      </trkpt>
      <trkpt lat="43.93219" lon="7.33469">
        <ele>936.1</ele>
        <time>2013-12-07T11:15:44Z</time>
      </trkpt>
      <trkpt lat="43.93213" lon="7.33473">
        <ele>935.9</ele>
        <time>2013-12-07T11:15:45Z</time>
      </trkpt>
      <trkpt lat="43.93207" lon="7.33477">
        <ele>935.7</ele>
        <time>2013-12-07T11:15:46Z</time>
      </trkpt>
      <trkpt lat="43.93202" lon="7.33482">
        <ele>934.5</ele>
        <time>2013-12-07T11:15:47Z</time>
      </trkpt>
      <trkpt lat="43.93196" lon="7.33486">
        <ele>933.7</ele>
        <time>2013-12-07T11:15:48Z</time>
      </trkpt>
      <trkpt lat="43.93191" lon="7.33488">
        <ele>932.6</ele>
        <time>2013-12-07T11:15:49Z</time>
      </trkpt>
      <trkpt lat="43.93186" lon="7.33491">
        <ele>931.7</ele>
        <time>2013-12-07T11:15:50Z</time>
      </trkpt>
      <trkpt lat="43.93181" lon="7.33494">
        <ele>930.8</ele>
        <time>2013-12-07T11:15:51Z</time>
      </trkpt>
      <trkpt lat="43.93175" lon="7.33496">
        <ele>930</ele>
        <time>2013-12-07T11:15:52Z</time>
      </trkpt>
      <trkpt lat="43.93167" lon="7.33498">
        <ele>928.4</ele>
        <time>2013-12-07T11:15:54Z</time>
      </trkpt>
      <trkpt lat="43.9316" lon="7.33501">
        <ele>926.5</ele>
        <time>2013-12-07T11:15:56Z</time>
      </trkpt>
      <trkpt lat="43.93152" lon="7.33503">
        <ele>924.2</ele>
        <time>2013-12-07T11:15:59Z</time>
      </trkpt>
      <trkpt lat="43.93144" lon="7.33508">
        <ele>921.7</ele>
        <time>2013-12-07T11:16:02Z</time>
      </trkpt>
      <trkpt lat="43.93144" lon="7.33518">
        <ele>919</ele>
        <time>2013-12-07T11:16:05Z</time>
      </trkpt>
      <trkpt lat="43.93149" lon="7.33525">
        <ele>918.4</ele>
        <time>2013-12-07T11:16:07Z</time>
      </trkpt>
      <trkpt lat="43.93152" lon="7.33536">
        <ele>915.4</ele>
        <time>2013-12-07T11:16:10Z</time>
      </trkpt>
      <trkpt lat="43.93146" lon="7.3354">
        <ele>914.2</ele>
        <time>2013-12-07T11:16:12Z</time>
      </trkpt>
      <trkpt lat="43.93142" lon="7.33543">
        <ele>912.9</ele>
        <time>2013-12-07T11:16:13Z</time>
      </trkpt>
      <trkpt lat="43.93133" lon="7.33545">
        <ele>911.1</ele>
        <time>2013-12-07T11:16:15Z</time>
      </trkpt>
      <trkpt lat="43.93126" lon="7.33543">
        <ele>910.2</ele>
        <time>2013-12-07T11:16:17Z</time>
      </trkpt>
      <trkpt lat="43.93123" lon="7.33541">
        <ele>909.9</ele>
        <time>2013-12-07T11:16:18Z</time>
      </trkpt>
      <trkpt lat="43.93113" lon="7.33533">
        <ele>909.6</ele>
        <time>2013-12-07T11:16:21Z</time>
      </trkpt>
      <trkpt lat="43.93107" lon="7.33525">
        <ele>909.2</ele>
        <time>2013-12-07T11:16:23Z</time>
      </trkpt>
      <trkpt lat="43.93102" lon="7.33518">
        <ele>908.7</ele>
        <time>2013-12-07T11:16:25Z</time>
      </trkpt>
      <trkpt lat="43.93099" lon="7.33509">
        <ele>908.3</ele>
        <time>2013-12-07T11:16:27Z</time>
      </trkpt>
      <trkpt lat="43.93094" lon="7.33501">
        <ele>908.1</ele>
        <time>2013-12-07T11:16:29Z</time>
      </trkpt>
      <trkpt lat="43.93087" lon="7.33497">
        <ele>908.2</ele>
        <time>2013-12-07T11:16:31Z</time>
      </trkpt>
      <trkpt lat="43.93079" lon="7.33494">
        <ele>907.7</ele>
        <time>2013-12-07T11:16:33Z</time>
      </trkpt>
      <trkpt lat="43.93071" lon="7.33492">
        <ele>907.9</ele>
        <time>2013-12-07T11:16:35Z</time>
      </trkpt>
      <trkpt lat="43.93063" lon="7.33489">
        <ele>907.3</ele>
        <time>2013-12-07T11:16:37Z</time>
      </trkpt>
      <trkpt lat="43.93058" lon="7.33491">
        <ele>907.1</ele>
        <time>2013-12-07T11:16:38Z</time>
      </trkpt>
      <trkpt lat="43.93054" lon="7.33495">
        <ele>906.5</ele>
        <time>2013-12-07T11:16:39Z</time>
      </trkpt>
      <trkpt lat="43.9305" lon="7.33499">
        <ele>906</ele>
        <time>2013-12-07T11:16:40Z</time>
      </trkpt>
      <trkpt lat="43.93047" lon="7.33505">
        <ele>905.2</ele>
        <time>2013-12-07T11:16:41Z</time>
      </trkpt>
      <trkpt lat="43.93045" lon="7.33511">
        <ele>904.6</ele>
        <time>2013-12-07T11:16:42Z</time>
      </trkpt>
      <trkpt lat="43.93042" lon="7.33518">
        <ele>904.1</ele>
        <time>2013-12-07T11:16:43Z</time>
      </trkpt>
      <trkpt lat="43.93037" lon="7.33524">
        <ele>902.9</ele>
        <time>2013-12-07T11:16:44Z</time>
      </trkpt>
      <trkpt lat="43.93032" lon="7.3353">
        <ele>902</ele>
        <time>2013-12-07T11:16:45Z</time>
      </trkpt>
      <trkpt lat="43.93027" lon="7.33536">
        <ele>900.5</ele>
        <time>2013-12-07T11:16:46Z</time>
      </trkpt>
      <trkpt lat="43.93022" lon="7.33541">
        <ele>899.5</ele>
        <time>2013-12-07T11:16:47Z</time>
      </trkpt>
      <trkpt lat="43.93016" lon="7.33544">
        <ele>898.3</ele>
        <time>2013-12-07T11:16:48Z</time>
      </trkpt>
      <trkpt lat="43.9301" lon="7.33547">
        <ele>897.5</ele>
        <time>2013-12-07T11:16:49Z</time>
      </trkpt>
      <trkpt lat="43.93004" lon="7.3355">
        <ele>896.9</ele>
        <time>2013-12-07T11:16:50Z</time>
      </trkpt>
      <trkpt lat="43.92998" lon="7.33552">
        <ele>896.2</ele>
        <time>2013-12-07T11:16:51Z</time>
      </trkpt>
      <trkpt lat="43.92994" lon="7.33553">
        <ele>895.6</ele>
        <time>2013-12-07T11:16:52Z</time>
      </trkpt>
      <trkpt lat="43.92988" lon="7.33555">
        <ele>894.7</ele>
        <time>2013-12-07T11:16:53Z</time>
      </trkpt>
      <trkpt lat="43.92983" lon="7.33557">
        <ele>894</ele>
        <time>2013-12-07T11:16:54Z</time>
      </trkpt>
      <trkpt lat="43.92979" lon="7.3356">
        <ele>892.9</ele>
        <time>2013-12-07T11:16:55Z</time>
      </trkpt>
      <trkpt lat="43.92974" lon="7.33562">
        <ele>892.1</ele>
        <time>2013-12-07T11:16:56Z</time>
      </trkpt>
      <trkpt lat="43.92969" lon="7.33564">
        <ele>891.5</ele>
        <time>2013-12-07T11:16:57Z</time>
      </trkpt>
      <trkpt lat="43.92964" lon="7.33566">
        <ele>890.6</ele>
        <time>2013-12-07T11:16:58Z</time>
      </trkpt>
      <trkpt lat="43.92959" lon="7.33567">
        <ele>889.9</ele>
        <time>2013-12-07T11:16:59Z</time>
      </trkpt>
      <trkpt lat="43.9295" lon="7.33567">
        <ele>888.4</ele>
        <time>2013-12-07T11:17:01Z</time>
      </trkpt>
      <trkpt lat="43.92942" lon="7.33569">
        <ele>886.9</ele>
        <time>2013-12-07T11:17:03Z</time>
      </trkpt>
      <trkpt lat="43.92935" lon="7.33574">
        <ele>885.2</ele>
        <time>2013-12-07T11:17:05Z</time>
      </trkpt>
      <trkpt lat="43.92926" lon="7.33576">
        <ele>883.7</ele>
        <time>2013-12-07T11:17:07Z</time>
      </trkpt>
      <trkpt lat="43.92921" lon="7.33577">
        <ele>883.1</ele>
        <time>2013-12-07T11:17:08Z</time>
      </trkpt>
      <trkpt lat="43.92916" lon="7.33579">
        <ele>882.7</ele>
        <time>2013-12-07T11:17:09Z</time>
      </trkpt>
      <trkpt lat="43.92911" lon="7.33582">
        <ele>882</ele>
        <time>2013-12-07T11:17:10Z</time>
      </trkpt>
      <trkpt lat="43.92907" lon="7.33585">
        <ele>881.5</ele>
        <time>2013-12-07T11:17:11Z</time>
      </trkpt>
      <trkpt lat="43.92903" lon="7.33589">
        <ele>880.2</ele>
        <time>2013-12-07T11:17:12Z</time>
      </trkpt>
      <trkpt lat="43.92899" lon="7.33598">
        <ele>877.7</ele>
        <time>2013-12-07T11:17:14Z</time>
      </trkpt>
      <trkpt lat="43.92902" lon="7.33608">
        <ele>875.7</ele>
        <time>2013-12-07T11:17:16Z</time>
      </trkpt>
      <trkpt lat="43.92907" lon="7.33618">
        <ele>874.3</ele>
        <time>2013-12-07T11:17:18Z</time>
      </trkpt>
      <trkpt lat="43.92908" lon="7.33621">
        <ele>873.7</ele>
        <time>2013-12-07T11:17:19Z</time>
      </trkpt>
      <trkpt lat="43.92916" lon="7.33633">
        <ele>871.7</ele>
        <time>2013-12-07T11:17:23Z</time>
      </trkpt>
      <trkpt lat="43.92922" lon="7.33642">
        <ele>871.5</ele>
        <time>2013-12-07T11:17:25Z</time>
      </trkpt>
      <trkpt lat="43.92929" lon="7.33649">
        <ele>869.8</ele>
        <time>2013-12-07T11:17:27Z</time>
      </trkpt>
      <trkpt lat="43.92936" lon="7.33653">
        <ele>868.9</ele>
        <time>2013-12-07T11:17:29Z</time>
      </trkpt>
      <trkpt lat="43.92945" lon="7.33656">
        <ele>867.8</ele>
        <time>2013-12-07T11:17:31Z</time>
      </trkpt>
      <trkpt lat="43.92949" lon="7.33658">
        <ele>867.2</ele>
        <time>2013-12-07T11:17:32Z</time>
      </trkpt>
      <trkpt lat="43.92954" lon="7.3366">
        <ele>866.6</ele>
        <time>2013-12-07T11:17:33Z</time>
      </trkpt>
      <trkpt lat="43.92959" lon="7.33663">
        <ele>866.2</ele>
        <time>2013-12-07T11:17:34Z</time>
      </trkpt>
      <trkpt lat="43.92964" lon="7.33667">
        <ele>865.9</ele>
        <time>2013-12-07T11:17:35Z</time>
      </trkpt>
      <trkpt lat="43.92968" lon="7.33671">
        <ele>865.3</ele>
        <time>2013-12-07T11:17:36Z</time>
      </trkpt>
      <trkpt lat="43.92972" lon="7.33676">
        <ele>864.9</ele>
        <time>2013-12-07T11:17:37Z</time>
      </trkpt>
      <trkpt lat="43.92975" lon="7.33687">
        <ele>864.6</ele>
        <time>2013-12-07T11:17:39Z</time>
      </trkpt>
      <trkpt lat="43.92977" lon="7.33697">
        <ele>864.1</ele>
        <time>2013-12-07T11:17:42Z</time>
      </trkpt>
      <trkpt lat="43.92975" lon="7.33707">
        <ele>864.3</ele>
        <time>2013-12-07T11:17:46Z</time>
      </trkpt>
      <trkpt lat="43.9297" lon="7.33715">
        <ele>864.5</ele>
        <time>2013-12-07T11:17:50Z</time>
      </trkpt>
      <trkpt lat="43.92969" lon="7.33727">
        <ele>865</ele>
        <time>2013-12-07T11:17:54Z</time>
      </trkpt>
      <trkpt lat="43.92969" lon="7.33738">
        <ele>865.4</ele>
        <time>2013-12-07T11:17:57Z</time>
      </trkpt>
      <trkpt lat="43.92972" lon="7.33746">
        <ele>866.3</ele>
        <time>2013-12-07T11:18:00Z</time>
      </trkpt>
      <trkpt lat="43.92976" lon="7.33755">
        <ele>867.4</ele>
        <time>2013-12-07T11:18:03Z</time>
      </trkpt>
      <trkpt lat="43.9298" lon="7.33763">
        <ele>867.7</ele>
        <time>2013-12-07T11:18:06Z</time>
      </trkpt>
      <trkpt lat="43.92987" lon="7.3377">
        <ele>867.5</ele>
        <time>2013-12-07T11:18:09Z</time>
      </trkpt>
      <trkpt lat="43.92994" lon="7.33776">
        <ele>867.1</ele>
        <time>2013-12-07T11:18:12Z</time>
      </trkpt>
      <trkpt lat="43.92998" lon="7.33784">
        <ele>867.5</ele>
        <time>2013-12-07T11:18:15Z</time>
      </trkpt>
      <trkpt lat="43.93002" lon="7.33794">
        <ele>867.4</ele>
        <time>2013-12-07T11:18:18Z</time>
      </trkpt>
      <trkpt lat="43.93003" lon="7.33806">
        <ele>868.3</ele>
        <time>2013-12-07T11:18:23Z</time>
      </trkpt>
      <trkpt lat="43.93002" lon="7.33807">
        <ele>868.4</ele>
        <time>2013-12-07T11:18:24Z</time>
      </trkpt>
      <trkpt lat="43.92988" lon="7.33807">
        <ele>869.5</ele>
        <time>2013-12-07T11:18:37Z</time>
      </trkpt>
      <trkpt lat="43.92979" lon="7.33807">
        <ele>869.6</ele>
        <time>2013-12-07T11:18:41Z</time>
      </trkpt>
      <trkpt lat="43.9297" lon="7.33808">
        <ele>870.2</ele>
        <time>2013-12-07T11:18:45Z</time>
      </trkpt>
      <trkpt lat="43.92962" lon="7.33808">
        <ele>870.2</ele>
        <time>2013-12-07T11:18:49Z</time>
      </trkpt>
      <trkpt lat="43.92955" lon="7.33808">
        <ele>870.6</ele>
        <time>2013-12-07T11:18:52Z</time>
      </trkpt>
      <trkpt lat="43.92947" lon="7.33809">
        <ele>870.3</ele>
        <time>2013-12-07T11:18:55Z</time>
      </trkpt>
      <trkpt lat="43.9294" lon="7.33815">
        <ele>870.9</ele>
        <time>2013-12-07T11:18:58Z</time>
      </trkpt>
      <trkpt lat="43.92936" lon="7.33822">
        <ele>871.2</ele>
        <time>2013-12-07T11:19:01Z</time>
      </trkpt>
      <trkpt lat="43.92932" lon="7.33832">
        <ele>871</ele>
        <time>2013-12-07T11:19:04Z</time>
      </trkpt>
      <trkpt lat="43.92932" lon="7.33844">
        <ele>870.6</ele>
        <time>2013-12-07T11:19:08Z</time>
      </trkpt>
      <trkpt lat="43.92931" lon="7.33855">
        <ele>871</ele>
        <time>2013-12-07T11:19:13Z</time>
      </trkpt>
      <trkpt lat="43.92933" lon="7.33865">
        <ele>871.8</ele>
        <time>2013-12-07T11:19:17Z</time>
      </trkpt>
      <trkpt lat="43.92935" lon="7.33877">
        <ele>873.4</ele>
        <time>2013-12-07T11:19:22Z</time>
      </trkpt>
      <trkpt lat="43.92937" lon="7.33888">
        <ele>873.9</ele>
        <time>2013-12-07T11:19:26Z</time>
      </trkpt>
      <trkpt lat="43.92937" lon="7.3389">
        <ele>873.8</ele>
        <time>2013-12-07T11:19:27Z</time>
      </trkpt>
      <trkpt lat="43.92942" lon="7.33906">
        <ele>875.5</ele>
        <time>2013-12-07T11:19:34Z</time>
      </trkpt>
      <trkpt lat="43.92945" lon="7.33918">
        <ele>876.7</ele>
        <time>2013-12-07T11:19:38Z</time>
      </trkpt>
      <trkpt lat="43.92947" lon="7.33928">
        <ele>876.5</ele>
        <time>2013-12-07T11:19:41Z</time>
      </trkpt>
      <trkpt lat="43.92947" lon="7.33938">
        <ele>876.3</ele>
        <time>2013-12-07T11:19:43Z</time>
      </trkpt>
      <trkpt lat="43.92949" lon="7.33947">
        <ele>876</ele>
        <time>2013-12-07T11:19:45Z</time>
      </trkpt>
      <trkpt lat="43.9295" lon="7.33956">
        <ele>875.9</ele>
        <time>2013-12-07T11:19:47Z</time>
      </trkpt>
      <trkpt lat="43.92951" lon="7.33968">
        <ele>875.6</ele>
        <time>2013-12-07T11:19:50Z</time>
      </trkpt>
      <trkpt lat="43.92947" lon="7.33978">
        <ele>874.5</ele>
        <time>2013-12-07T11:19:53Z</time>
      </trkpt>
      <trkpt lat="43.9294" lon="7.33985">
        <ele>873.8</ele>
        <time>2013-12-07T11:19:56Z</time>
      </trkpt>
      <trkpt lat="43.92935" lon="7.33991">
        <ele>873.9</ele>
        <time>2013-12-07T11:19:59Z</time>
      </trkpt>
      <trkpt lat="43.92927" lon="7.33994">
        <ele>874.9</ele>
        <time>2013-12-07T11:20:03Z</time>
      </trkpt>
      <trkpt lat="43.92921" lon="7.33998">
        <ele>874.8</ele>
        <time>2013-12-07T11:20:06Z</time>
      </trkpt>
      <trkpt lat="43.92913" lon="7.34005">
        <ele>874.8</ele>
        <time>2013-12-07T11:20:10Z</time>
      </trkpt>
      <trkpt lat="43.92909" lon="7.34014">
        <ele>874.2</ele>
        <time>2013-12-07T11:20:14Z</time>
      </trkpt>
      <trkpt lat="43.92908" lon="7.34024">
        <ele>873.9</ele>
        <time>2013-12-07T11:20:17Z</time>
      </trkpt>
      <trkpt lat="43.92905" lon="7.34035">
        <ele>873.8</ele>
        <time>2013-12-07T11:20:20Z</time>
      </trkpt>
      <trkpt lat="43.92902" lon="7.34044">
        <ele>874.2</ele>
        <time>2013-12-07T11:20:23Z</time>
      </trkpt>
      <trkpt lat="43.92902" lon="7.34054">
        <ele>874.9</ele>
        <time>2013-12-07T11:20:26Z</time>
      </trkpt>
      <trkpt lat="43.929" lon="7.34064">
        <ele>875</ele>
        <time>2013-12-07T11:20:29Z</time>
      </trkpt>
      <trkpt lat="43.92899" lon="7.34067">
        <ele>875.2</ele>
        <time>2013-12-07T11:20:30Z</time>
      </trkpt>
      <trkpt lat="43.92891" lon="7.34081">
        <ele>875.3</ele>
        <time>2013-12-07T11:20:35Z</time>
      </trkpt>
      <trkpt lat="43.92885" lon="7.34086">
        <ele>875.6</ele>
        <time>2013-12-07T11:20:38Z</time>
      </trkpt>
      <trkpt lat="43.9288" lon="7.34093">
        <ele>876.3</ele>
        <time>2013-12-07T11:20:41Z</time>
      </trkpt>
      <trkpt lat="43.92875" lon="7.34099">
        <ele>876.4</ele>
        <time>2013-12-07T11:20:44Z</time>
      </trkpt>
      <trkpt lat="43.92868" lon="7.34107">
        <ele>877.6</ele>
        <time>2013-12-07T11:20:48Z</time>
      </trkpt>
      <trkpt lat="43.92865" lon="7.34119">
        <ele>877.3</ele>
        <time>2013-12-07T11:20:53Z</time>
      </trkpt>
      <trkpt lat="43.92862" lon="7.34128">
        <ele>877.5</ele>
        <time>2013-12-07T11:20:57Z</time>
      </trkpt>
      <trkpt lat="43.92856" lon="7.34136">
        <ele>878.2</ele>
        <time>2013-12-07T11:21:01Z</time>
      </trkpt>
      <trkpt lat="43.92852" lon="7.34146">
        <ele>879.1</ele>
        <time>2013-12-07T11:21:05Z</time>
      </trkpt>
      <trkpt lat="43.92851" lon="7.34157">
        <ele>879.6</ele>
        <time>2013-12-07T11:21:09Z</time>
      </trkpt>
      <trkpt lat="43.92852" lon="7.34169">
        <ele>880.4</ele>
        <time>2013-12-07T11:21:13Z</time>
      </trkpt>
      <trkpt lat="43.92854" lon="7.3418">
        <ele>881.2</ele>
        <time>2013-12-07T11:21:17Z</time>
      </trkpt>
      <trkpt lat="43.92856" lon="7.34191">
        <ele>880.9</ele>
        <time>2013-12-07T11:21:21Z</time>
      </trkpt>
      <trkpt lat="43.92857" lon="7.34203">
        <ele>880.5</ele>
        <time>2013-12-07T11:21:25Z</time>
      </trkpt>
      <trkpt lat="43.92857" lon="7.34215">
        <ele>881.2</ele>
        <time>2013-12-07T11:21:29Z</time>
      </trkpt>
      <trkpt lat="43.92851" lon="7.34222">
        <ele>882.1</ele>
        <time>2013-12-07T11:21:33Z</time>
      </trkpt>
      <trkpt lat="43.92849" lon="7.34222">
        <ele>882.2</ele>
        <time>2013-12-07T11:21:34Z</time>
      </trkpt>
      <trkpt lat="43.92836" lon="7.34215">
        <ele>881.8</ele>
        <time>2013-12-07T11:21:41Z</time>
      </trkpt>
      <trkpt lat="43.92829" lon="7.34217">
        <ele>882.8</ele>
        <time>2013-12-07T11:21:45Z</time>
      </trkpt>
      <trkpt lat="43.92822" lon="7.34224">
        <ele>883.5</ele>
        <time>2013-12-07T11:21:50Z</time>
      </trkpt>
      <trkpt lat="43.9282" lon="7.34236">
        <ele>884.5</ele>
        <time>2013-12-07T11:21:55Z</time>
      </trkpt>
      <trkpt lat="43.92818" lon="7.34246">
        <ele>884.4</ele>
        <time>2013-12-07T11:21:59Z</time>
      </trkpt>
      <trkpt lat="43.92816" lon="7.34256">
        <ele>884.5</ele>
        <time>2013-12-07T11:22:03Z</time>
      </trkpt>
      <trkpt lat="43.92812" lon="7.34267">
        <ele>885.8</ele>
        <time>2013-12-07T11:22:07Z</time>
      </trkpt>
      <trkpt lat="43.92807" lon="7.34277">
        <ele>886.1</ele>
        <time>2013-12-07T11:22:11Z</time>
      </trkpt>
      <trkpt lat="43.92803" lon="7.34286">
        <ele>886.3</ele>
        <time>2013-12-07T11:22:14Z</time>
      </trkpt>
      <trkpt lat="43.92799" lon="7.34294">
        <ele>885.6</ele>
        <time>2013-12-07T11:22:18Z</time>
      </trkpt>
      <trkpt lat="43.92793" lon="7.343">
        <ele>885.3</ele>
        <time>2013-12-07T11:22:22Z</time>
      </trkpt>
      <trkpt lat="43.92786" lon="7.34306">
        <ele>884.6</ele>
        <time>2013-12-07T11:22:25Z</time>
      </trkpt>
      <trkpt lat="43.92778" lon="7.3431">
        <ele>884</ele>
        <time>2013-12-07T11:22:28Z</time>
      </trkpt>
      <trkpt lat="43.92774" lon="7.34317">
        <ele>882.8</ele>
        <time>2013-12-07T11:22:31Z</time>
      </trkpt>
      <trkpt lat="43.9277" lon="7.34326">
        <ele>882.2</ele>
        <time>2013-12-07T11:22:34Z</time>
      </trkpt>
      <trkpt lat="43.92769" lon="7.3433">
        <ele>882.3</ele>
        <time>2013-12-07T11:22:35Z</time>
      </trkpt>
      <trkpt lat="43.92763" lon="7.34348">
        <ele>880.6</ele>
        <time>2013-12-07T11:22:45Z</time>
      </trkpt>
      <trkpt lat="43.92755" lon="7.34356">
        <ele>881.7</ele>
        <time>2013-12-07T11:22:59Z</time>
      </trkpt>
      <trkpt lat="43.92751" lon="7.34346">
        <ele>884.7</ele>
        <time>2013-12-07T11:23:20Z</time>
      </trkpt>
      <trkpt lat="43.92751" lon="7.34334">
        <ele>885.7</ele>
        <time>2013-12-07T11:23:28Z</time>
      </trkpt>
      <trkpt lat="43.92752" lon="7.34322">
        <ele>887</ele>
        <time>2013-12-07T11:23:35Z</time>
      </trkpt>
      <trkpt lat="43.92752" lon="7.3432">
        <ele>887.1</ele>
        <time>2013-12-07T11:23:36Z</time>
      </trkpt>
      <trkpt lat="43.92755" lon="7.34299">
        <ele>889.3</ele>
        <time>2013-12-07T11:23:48Z</time>
      </trkpt>
      <trkpt lat="43.92756" lon="7.34287">
        <ele>889.7</ele>
        <time>2013-12-07T11:23:54Z</time>
      </trkpt>
      <trkpt lat="43.92757" lon="7.34276">
        <ele>889.6</ele>
        <time>2013-12-07T11:23:59Z</time>
      </trkpt>
      <trkpt lat="43.92758" lon="7.34265">
        <ele>890.2</ele>
        <time>2013-12-07T11:24:04Z</time>
      </trkpt>
      <trkpt lat="43.92758" lon="7.34254">
        <ele>891.3</ele>
        <time>2013-12-07T11:24:09Z</time>
      </trkpt>
      <trkpt lat="43.92756" lon="7.34243">
        <ele>893.4</ele>
        <time>2013-12-07T11:24:14Z</time>
      </trkpt>
      <trkpt lat="43.92753" lon="7.34234">
        <ele>894.3</ele>
        <time>2013-12-07T11:24:19Z</time>
      </trkpt>
      <trkpt lat="43.92754" lon="7.34223">
        <ele>895.6</ele>
        <time>2013-12-07T11:24:24Z</time>
      </trkpt>
      <trkpt lat="43.92753" lon="7.34212">
        <ele>896.5</ele>
        <time>2013-12-07T11:24:30Z</time>
      </trkpt>
      <trkpt lat="43.92751" lon="7.34201">
        <ele>896.2</ele>
        <time>2013-12-07T11:24:36Z</time>
      </trkpt>
      <trkpt lat="43.92751" lon="7.34199">
        <ele>896.4</ele>
        <time>2013-12-07T11:24:37Z</time>
      </trkpt>
      <trkpt lat="43.92748" lon="7.34178">
        <ele>898.1</ele>
        <time>2013-12-07T11:24:49Z</time>
      </trkpt>
      <trkpt lat="43.92746" lon="7.34168">
        <ele>899</ele>
        <time>2013-12-07T11:24:56Z</time>
      </trkpt>
      <trkpt lat="43.92746" lon="7.34156">
        <ele>900.1</ele>
        <time>2013-12-07T11:25:02Z</time>
      </trkpt>
      <trkpt lat="43.92746" lon="7.34145">
        <ele>900.9</ele>
        <time>2013-12-07T11:25:08Z</time>
      </trkpt>
      <trkpt lat="43.92744" lon="7.34133">
        <ele>901.2</ele>
        <time>2013-12-07T11:25:14Z</time>
      </trkpt>
      <trkpt lat="43.92741" lon="7.34122">
        <ele>902.2</ele>
        <time>2013-12-07T11:25:19Z</time>
      </trkpt>
      <trkpt lat="43.92739" lon="7.3411">
        <ele>902.9</ele>
        <time>2013-12-07T11:25:24Z</time>
      </trkpt>
      <trkpt lat="43.92737" lon="7.34098">
        <ele>902.7</ele>
        <time>2013-12-07T11:25:29Z</time>
      </trkpt>
      <trkpt lat="43.92734" lon="7.3409">
        <ele>903.5</ele>
        <time>2013-12-07T11:25:33Z</time>
      </trkpt>
      <trkpt lat="43.9273" lon="7.3408">
        <ele>903.4</ele>
        <time>2013-12-07T11:25:36Z</time>
      </trkpt>
      <trkpt lat="43.92726" lon="7.3407">
        <ele>902.3</ele>
        <time>2013-12-07T11:25:40Z</time>
      </trkpt>
      <trkpt lat="43.92725" lon="7.34068">
        <ele>902.2</ele>
        <time>2013-12-07T11:25:41Z</time>
      </trkpt>
      <trkpt lat="43.92721" lon="7.3405">
        <ele>902.7</ele>
        <time>2013-12-07T11:25:47Z</time>
      </trkpt>
      <trkpt lat="43.92717" lon="7.34041">
        <ele>902.8</ele>
        <time>2013-12-07T11:25:50Z</time>
      </trkpt>
      <trkpt lat="43.92714" lon="7.34032">
        <ele>902.6</ele>
        <time>2013-12-07T11:25:53Z</time>
      </trkpt>
      <trkpt lat="43.92712" lon="7.34021">
        <ele>903.6</ele>
        <time>2013-12-07T11:25:57Z</time>
      </trkpt>
      <trkpt lat="43.92711" lon="7.34011">
        <ele>904.4</ele>
        <time>2013-12-07T11:26:00Z</time>
      </trkpt>
      <trkpt lat="43.92709" lon="7.34001">
        <ele>904.8</ele>
        <time>2013-12-07T11:26:03Z</time>
      </trkpt>
      <trkpt lat="43.92706" lon="7.33991">
        <ele>904.1</ele>
        <time>2013-12-07T11:26:06Z</time>
      </trkpt>
      <trkpt lat="43.92701" lon="7.33985">
        <ele>904.1</ele>
        <time>2013-12-07T11:26:09Z</time>
      </trkpt>
      <trkpt lat="43.92695" lon="7.33979">
        <ele>904.5</ele>
        <time>2013-12-07T11:26:12Z</time>
      </trkpt>
      <trkpt lat="43.92688" lon="7.33975">
        <ele>905.7</ele>
        <time>2013-12-07T11:26:15Z</time>
      </trkpt>
      <trkpt lat="43.92683" lon="7.33968">
        <ele>905.2</ele>
        <time>2013-12-07T11:26:18Z</time>
      </trkpt>
      <trkpt lat="43.92679" lon="7.3396">
        <ele>905.3</ele>
        <time>2013-12-07T11:26:21Z</time>
      </trkpt>
      <trkpt lat="43.92672" lon="7.33955">
        <ele>905.2</ele>
        <time>2013-12-07T11:26:24Z</time>
      </trkpt>
      <trkpt lat="43.92665" lon="7.33949">
        <ele>905.2</ele>
        <time>2013-12-07T11:26:27Z</time>
      </trkpt>
      <trkpt lat="43.92658" lon="7.33941">
        <ele>905.2</ele>
        <time>2013-12-07T11:26:30Z</time>
      </trkpt>
      <trkpt lat="43.92652" lon="7.33933">
        <ele>904.6</ele>
        <time>2013-12-07T11:26:33Z</time>
      </trkpt>
      <trkpt lat="43.92648" lon="7.33925">
        <ele>905.6</ele>
        <time>2013-12-07T11:26:36Z</time>
      </trkpt>
      <trkpt lat="43.92643" lon="7.33917">
        <ele>905.9</ele>
        <time>2013-12-07T11:26:39Z</time>
      </trkpt>
      <trkpt lat="43.9264" lon="7.33908">
        <ele>906</ele>
        <time>2013-12-07T11:26:42Z</time>
      </trkpt>
      <trkpt lat="43.92639" lon="7.33905">
        <ele>905.8</ele>
        <time>2013-12-07T11:26:43Z</time>
      </trkpt>
      <trkpt lat="43.92628" lon="7.33896">
        <ele>907.3</ele>
        <time>2013-12-07T11:26:48Z</time>
      </trkpt>
      <trkpt lat="43.92621" lon="7.3389">
        <ele>907.1</ele>
        <time>2013-12-07T11:26:52Z</time>
      </trkpt>
      <trkpt lat="43.92616" lon="7.33883">
        <ele>906.7</ele>
        <time>2013-12-07T11:26:55Z</time>
      </trkpt>
      <trkpt lat="43.92611" lon="7.33876">
        <ele>907.7</ele>
        <time>2013-12-07T11:26:58Z</time>
      </trkpt>
      <trkpt lat="43.92603" lon="7.3387">
        <ele>908.4</ele>
        <time>2013-12-07T11:27:02Z</time>
      </trkpt>
      <trkpt lat="43.92597" lon="7.33865">
        <ele>908.4</ele>
        <time>2013-12-07T11:27:05Z</time>
      </trkpt>
      <trkpt lat="43.92591" lon="7.3386">
        <ele>908.9</ele>
        <time>2013-12-07T11:27:08Z</time>
      </trkpt>
      <trkpt lat="43.92584" lon="7.33854">
        <ele>909.9</ele>
        <time>2013-12-07T11:27:12Z</time>
      </trkpt>
      <trkpt lat="43.9258" lon="7.33845">
        <ele>910.5</ele>
        <time>2013-12-07T11:27:16Z</time>
      </trkpt>
      <trkpt lat="43.92579" lon="7.33833">
        <ele>910.5</ele>
        <time>2013-12-07T11:27:20Z</time>
      </trkpt>
      <trkpt lat="43.92578" lon="7.33822">
        <ele>910.3</ele>
        <time>2013-12-07T11:27:23Z</time>
      </trkpt>
      <trkpt lat="43.92577" lon="7.3381">
        <ele>910.5</ele>
        <time>2013-12-07T11:27:30Z</time>
      </trkpt>
      <trkpt lat="43.92576" lon="7.338">
        <ele>911.2</ele>
        <time>2013-12-07T11:27:34Z</time>
      </trkpt>
      <trkpt lat="43.92574" lon="7.33789">
        <ele>911.1</ele>
        <time>2013-12-07T11:27:37Z</time>
      </trkpt>
      <trkpt lat="43.92573" lon="7.33778">
        <ele>911.7</ele>
        <time>2013-12-07T11:27:41Z</time>
      </trkpt>
      <trkpt lat="43.92574" lon="7.33768">
        <ele>912.4</ele>
        <time>2013-12-07T11:27:44Z</time>
      </trkpt>
      <trkpt lat="43.92573" lon="7.33765">
        <ele>912.6</ele>
        <time>2013-12-07T11:27:45Z</time>
      </trkpt>
      <trkpt lat="43.92567" lon="7.33752">
        <ele>913.6</ele>
        <time>2013-12-07T11:27:50Z</time>
      </trkpt>
      <trkpt lat="43.92561" lon="7.33746">
        <ele>914.3</ele>
        <time>2013-12-07T11:27:53Z</time>
      </trkpt>
      <trkpt lat="43.92553" lon="7.33741">
        <ele>914.5</ele>
        <time>2013-12-07T11:27:57Z</time>
      </trkpt>
      <trkpt lat="43.92545" lon="7.33736">
        <ele>914.9</ele>
        <time>2013-12-07T11:28:01Z</time>
      </trkpt>
      <trkpt lat="43.92538" lon="7.33736">
        <ele>915.3</ele>
        <time>2013-12-07T11:28:05Z</time>
      </trkpt>
      <trkpt lat="43.92531" lon="7.33736">
        <ele>915.7</ele>
        <time>2013-12-07T11:28:08Z</time>
      </trkpt>
      <trkpt lat="43.92525" lon="7.33736">
        <ele>915.3</ele>
        <time>2013-12-07T11:28:10Z</time>
      </trkpt>
      <trkpt lat="43.92517" lon="7.33731">
        <ele>914.9</ele>
        <time>2013-12-07T11:28:13Z</time>
      </trkpt>
      <trkpt lat="43.9251" lon="7.33725">
        <ele>914.5</ele>
        <time>2013-12-07T11:28:17Z</time>
      </trkpt>
      <trkpt lat="43.92503" lon="7.33722">
        <ele>914.9</ele>
        <time>2013-12-07T11:28:20Z</time>
      </trkpt>
      <trkpt lat="43.92496" lon="7.33716">
        <ele>913.7</ele>
        <time>2013-12-07T11:28:23Z</time>
      </trkpt>
      <trkpt lat="43.92489" lon="7.33711">
        <ele>915.4</ele>
        <time>2013-12-07T11:28:27Z</time>
      </trkpt>
      <trkpt lat="43.92482" lon="7.33705">
        <ele>916.6</ele>
        <time>2013-12-07T11:28:31Z</time>
      </trkpt>
      <trkpt lat="43.92475" lon="7.33698">
        <ele>917</ele>
        <time>2013-12-07T11:28:35Z</time>
      </trkpt>
      <trkpt lat="43.92467" lon="7.33693">
        <ele>918.3</ele>
        <time>2013-12-07T11:28:54Z</time>
      </trkpt>
      <trkpt lat="43.92467" lon="7.33692">
        <ele>918.3</ele>
        <time>2013-12-07T11:28:55Z</time>
      </trkpt>
      <trkpt lat="43.92453" lon="7.33688">
        <ele>918.8</ele>
        <time>2013-12-07T11:29:33Z</time>
      </trkpt>
      <trkpt lat="43.92446" lon="7.3369">
        <ele>918.2</ele>
        <time>2013-12-07T11:29:35Z</time>
      </trkpt>
      <trkpt lat="43.92439" lon="7.33694">
        <ele>917.5</ele>
        <time>2013-12-07T11:29:37Z</time>
      </trkpt>
      <trkpt lat="43.92431" lon="7.33699">
        <ele>917.1</ele>
        <time>2013-12-07T11:29:39Z</time>
      </trkpt>
      <trkpt lat="43.92423" lon="7.337">
        <ele>916.9</ele>
        <time>2013-12-07T11:29:41Z</time>
      </trkpt>
      <trkpt lat="43.92417" lon="7.33701">
        <ele>915.9</ele>
        <time>2013-12-07T11:29:43Z</time>
      </trkpt>
      <trkpt lat="43.9241" lon="7.33702">
        <ele>916</ele>
        <time>2013-12-07T11:29:45Z</time>
      </trkpt>
      <trkpt lat="43.92402" lon="7.33703">
        <ele>916.4</ele>
        <time>2013-12-07T11:29:48Z</time>
      </trkpt>
      <trkpt lat="43.92395" lon="7.33705">
        <ele>916.9</ele>
        <time>2013-12-07T11:29:51Z</time>
      </trkpt>
      <trkpt lat="43.92389" lon="7.33712">
        <ele>917.4</ele>
        <time>2013-12-07T11:29:54Z</time>
      </trkpt>
      <trkpt lat="43.92387" lon="7.33721">
        <ele>917.2</ele>
        <time>2013-12-07T11:29:56Z</time>
      </trkpt>
      <trkpt lat="43.92384" lon="7.33725">
        <ele>917.1</ele>
        <time>2013-12-07T11:29:57Z</time>
      </trkpt>
      <trkpt lat="43.92377" lon="7.33734">
        <ele>917.8</ele>
        <time>2013-12-07T11:30:01Z</time>
      </trkpt>
      <trkpt lat="43.92372" lon="7.33744">
        <ele>918</ele>
        <time>2013-12-07T11:30:05Z</time>
      </trkpt>
      <trkpt lat="43.9237" lon="7.33755">
        <ele>917.8</ele>
        <time>2013-12-07T11:30:09Z</time>
      </trkpt>
      <trkpt lat="43.92367" lon="7.33767">
        <ele>917.1</ele>
        <time>2013-12-07T11:30:12Z</time>
      </trkpt>
      <trkpt lat="43.92365" lon="7.33775">
        <ele>917.5</ele>
        <time>2013-12-07T11:30:14Z</time>
      </trkpt>
      <trkpt lat="43.92362" lon="7.33786">
        <ele>918</ele>
        <time>2013-12-07T11:30:17Z</time>
      </trkpt>
      <trkpt lat="43.92361" lon="7.33798">
        <ele>917</ele>
        <time>2013-12-07T11:30:20Z</time>
      </trkpt>
      <trkpt lat="43.92362" lon="7.33808">
        <ele>917.1</ele>
        <time>2013-12-07T11:30:22Z</time>
      </trkpt>
      <trkpt lat="43.92361" lon="7.33819">
        <ele>917.7</ele>
        <time>2013-12-07T11:30:25Z</time>
      </trkpt>
      <trkpt lat="43.92354" lon="7.33825">
        <ele>917.5</ele>
        <time>2013-12-07T11:30:28Z</time>
      </trkpt>
      <trkpt lat="43.92347" lon="7.33826">
        <ele>918.3</ele>
        <time>2013-12-07T11:30:31Z</time>
      </trkpt>
      <trkpt lat="43.92339" lon="7.33827">
        <ele>918.6</ele>
        <time>2013-12-07T11:30:34Z</time>
      </trkpt>
      <trkpt lat="43.92332" lon="7.33831">
        <ele>919</ele>
        <time>2013-12-07T11:30:37Z</time>
      </trkpt>
      <trkpt lat="43.92325" lon="7.33834">
        <ele>919.3</ele>
        <time>2013-12-07T11:30:40Z</time>
      </trkpt>
      <trkpt lat="43.92316" lon="7.33835">
        <ele>920</ele>
        <time>2013-12-07T11:30:44Z</time>
      </trkpt>
      <trkpt lat="43.92309" lon="7.33838">
        <ele>920.9</ele>
        <time>2013-12-07T11:30:47Z</time>
      </trkpt>
      <trkpt lat="43.92302" lon="7.33842">
        <ele>921.1</ele>
        <time>2013-12-07T11:30:50Z</time>
      </trkpt>
      <trkpt lat="43.92295" lon="7.33848">
        <ele>921.3</ele>
        <time>2013-12-07T11:30:54Z</time>
      </trkpt>
      <trkpt lat="43.92289" lon="7.33856">
        <ele>922.9</ele>
        <time>2013-12-07T11:30:58Z</time>
      </trkpt>
      <trkpt lat="43.92288" lon="7.33857">
        <ele>923.5</ele>
        <time>2013-12-07T11:30:59Z</time>
      </trkpt>
      <trkpt lat="43.92281" lon="7.33877">
        <ele>923.6</ele>
        <time>2013-12-07T11:31:07Z</time>
      </trkpt>
      <trkpt lat="43.92276" lon="7.33886">
        <ele>924.2</ele>
        <time>2013-12-07T11:31:11Z</time>
      </trkpt>
      <trkpt lat="43.92273" lon="7.33896">
        <ele>924.2</ele>
        <time>2013-12-07T11:31:15Z</time>
      </trkpt>
      <trkpt lat="43.92272" lon="7.33908">
        <ele>924.6</ele>
        <time>2013-12-07T11:31:19Z</time>
      </trkpt>
      <trkpt lat="43.92271" lon="7.3392">
        <ele>925.1</ele>
        <time>2013-12-07T11:31:23Z</time>
      </trkpt>
      <trkpt lat="43.92264" lon="7.33926">
        <ele>925</ele>
        <time>2013-12-07T11:31:27Z</time>
      </trkpt>
      <trkpt lat="43.92258" lon="7.33933">
        <ele>925.6</ele>
        <time>2013-12-07T11:31:31Z</time>
      </trkpt>
      <trkpt lat="43.92254" lon="7.33943">
        <ele>927</ele>
        <time>2013-12-07T11:31:35Z</time>
      </trkpt>
      <trkpt lat="43.92247" lon="7.3395">
        <ele>928</ele>
        <time>2013-12-07T11:31:39Z</time>
      </trkpt>
      <trkpt lat="43.92241" lon="7.33959">
        <ele>928.1</ele>
        <time>2013-12-07T11:31:43Z</time>
      </trkpt>
      <trkpt lat="43.92239" lon="7.33967">
        <ele>927.9</ele>
        <time>2013-12-07T11:31:46Z</time>
      </trkpt>
      <trkpt lat="43.92238" lon="7.33978">
        <ele>926.9</ele>
        <time>2013-12-07T11:31:49Z</time>
      </trkpt>
      <trkpt lat="43.92236" lon="7.33988">
        <ele>925.5</ele>
        <time>2013-12-07T11:31:52Z</time>
      </trkpt>
      <trkpt lat="43.92236" lon="7.33998">
        <ele>924.5</ele>
        <time>2013-12-07T11:31:54Z</time>
      </trkpt>
      <trkpt lat="43.92234" lon="7.34006">
        <ele>923.1</ele>
        <time>2013-12-07T11:31:56Z</time>
      </trkpt>
      <trkpt lat="43.92229" lon="7.34016">
        <ele>920.9</ele>
        <time>2013-12-07T11:31:59Z</time>
      </trkpt>
      <trkpt lat="43.92227" lon="7.34019">
        <ele>920.5</ele>
        <time>2013-12-07T11:32:00Z</time>
      </trkpt>
      <trkpt lat="43.92216" lon="7.34029">
        <ele>918.1</ele>
        <time>2013-12-07T11:32:05Z</time>
      </trkpt>
      <trkpt lat="43.92209" lon="7.34032">
        <ele>917.9</ele>
        <time>2013-12-07T11:32:08Z</time>
      </trkpt>
      <trkpt lat="43.92201" lon="7.34034">
        <ele>917.6</ele>
        <time>2013-12-07T11:32:11Z</time>
      </trkpt>
      <trkpt lat="43.92192" lon="7.34037">
        <ele>917.3</ele>
        <time>2013-12-07T11:32:14Z</time>
      </trkpt>
      <trkpt lat="43.92186" lon="7.34036">
        <ele>917.2</ele>
        <time>2013-12-07T11:32:16Z</time>
      </trkpt>
      <trkpt lat="43.92178" lon="7.34032">
        <ele>917.6</ele>
        <time>2013-12-07T11:32:19Z</time>
      </trkpt>
      <trkpt lat="43.9217" lon="7.3403">
        <ele>917.9</ele>
        <time>2013-12-07T11:32:22Z</time>
      </trkpt>
      <trkpt lat="43.92163" lon="7.34028">
        <ele>917.7</ele>
        <time>2013-12-07T11:32:24Z</time>
      </trkpt>
      <trkpt lat="43.92156" lon="7.34026">
        <ele>917.7</ele>
        <time>2013-12-07T11:32:26Z</time>
      </trkpt>
      <trkpt lat="43.92148" lon="7.34026">
        <ele>917.5</ele>
        <time>2013-12-07T11:32:28Z</time>
      </trkpt>
      <trkpt lat="43.92143" lon="7.34033">
        <ele>916.9</ele>
        <time>2013-12-07T11:32:30Z</time>
      </trkpt>
      <trkpt lat="43.92138" lon="7.34042">
        <ele>915.4</ele>
        <time>2013-12-07T11:32:33Z</time>
      </trkpt>
      <trkpt lat="43.92132" lon="7.3405">
        <ele>914.3</ele>
        <time>2013-12-07T11:32:36Z</time>
      </trkpt>
      <trkpt lat="43.92126" lon="7.34058">
        <ele>913.5</ele>
        <time>2013-12-07T11:32:39Z</time>
      </trkpt>
      <trkpt lat="43.92123" lon="7.34066">
        <ele>913.3</ele>
        <time>2013-12-07T11:32:42Z</time>
      </trkpt>
      <trkpt lat="43.92122" lon="7.34078">
        <ele>913</ele>
        <time>2013-12-07T11:32:45Z</time>
      </trkpt>
      <trkpt lat="43.92124" lon="7.34088">
        <ele>912.8</ele>
        <time>2013-12-07T11:32:47Z</time>
      </trkpt>
      <trkpt lat="43.92125" lon="7.34094">
        <ele>912.7</ele>
        <time>2013-12-07T11:32:48Z</time>
      </trkpt>
      <trkpt lat="43.92125" lon="7.34101">
        <ele>912</ele>
        <time>2013-12-07T11:32:49Z</time>
      </trkpt>
      <trkpt lat="43.92122" lon="7.34113">
        <ele>911.1</ele>
        <time>2013-12-07T11:32:51Z</time>
      </trkpt>
      <trkpt lat="43.92116" lon="7.34122">
        <ele>910.7</ele>
        <time>2013-12-07T11:32:53Z</time>
      </trkpt>
      <trkpt lat="43.92109" lon="7.34124">
        <ele>910.2</ele>
        <time>2013-12-07T11:32:55Z</time>
      </trkpt>
      <trkpt lat="43.92102" lon="7.34124">
        <ele>909.8</ele>
        <time>2013-12-07T11:32:57Z</time>
      </trkpt>
      <trkpt lat="43.92093" lon="7.34123">
        <ele>909.2</ele>
        <time>2013-12-07T11:32:59Z</time>
      </trkpt>
      <trkpt lat="43.92089" lon="7.34122">
        <ele>908.8</ele>
        <time>2013-12-07T11:33:00Z</time>
      </trkpt>
      <trkpt lat="43.92084" lon="7.34122">
        <ele>908.4</ele>
        <time>2013-12-07T11:33:01Z</time>
      </trkpt>
      <trkpt lat="43.92079" lon="7.34121">
        <ele>908.1</ele>
        <time>2013-12-07T11:33:02Z</time>
      </trkpt>
      <trkpt lat="43.92074" lon="7.34123">
        <ele>907.9</ele>
        <time>2013-12-07T11:33:03Z</time>
      </trkpt>
      <trkpt lat="43.9207" lon="7.34125">
        <ele>907.5</ele>
        <time>2013-12-07T11:33:04Z</time>
      </trkpt>
      <trkpt lat="43.92066" lon="7.34129">
        <ele>907.2</ele>
        <time>2013-12-07T11:33:05Z</time>
      </trkpt>
      <trkpt lat="43.92062" lon="7.34134">
        <ele>906.8</ele>
        <time>2013-12-07T11:33:06Z</time>
      </trkpt>
      <trkpt lat="43.92058" lon="7.3414">
        <ele>906.6</ele>
        <time>2013-12-07T11:33:07Z</time>
      </trkpt>
      <trkpt lat="43.92053" lon="7.34145">
        <ele>906.4</ele>
        <time>2013-12-07T11:33:08Z</time>
      </trkpt>
      <trkpt lat="43.92049" lon="7.3415">
        <ele>905.2</ele>
        <time>2013-12-07T11:33:09Z</time>
      </trkpt>
      <trkpt lat="43.92044" lon="7.34155">
        <ele>904.3</ele>
        <time>2013-12-07T11:33:10Z</time>
      </trkpt>
      <trkpt lat="43.9204" lon="7.34161">
        <ele>903.6</ele>
        <time>2013-12-07T11:33:11Z</time>
      </trkpt>
      <trkpt lat="43.92036" lon="7.34167">
        <ele>903</ele>
        <time>2013-12-07T11:33:12Z</time>
      </trkpt>
      <trkpt lat="43.92033" lon="7.34173">
        <ele>901.9</ele>
        <time>2013-12-07T11:33:13Z</time>
      </trkpt>
      <trkpt lat="43.92031" lon="7.34179">
        <ele>901</ele>
        <time>2013-12-07T11:33:14Z</time>
      </trkpt>
      <trkpt lat="43.92028" lon="7.34185">
        <ele>900.4</ele>
        <time>2013-12-07T11:33:15Z</time>
      </trkpt>
      <trkpt lat="43.92025" lon="7.3419">
        <ele>900.1</ele>
        <time>2013-12-07T11:33:16Z</time>
      </trkpt>
      <trkpt lat="43.92019" lon="7.34199">
        <ele>899.5</ele>
        <time>2013-12-07T11:33:18Z</time>
      </trkpt>
      <trkpt lat="43.92011" lon="7.34203">
        <ele>898.9</ele>
        <time>2013-12-07T11:33:21Z</time>
      </trkpt>
      <trkpt lat="43.92003" lon="7.34199">
        <ele>898.1</ele>
        <time>2013-12-07T11:33:38Z</time>
      </trkpt>
      <trkpt lat="43.91996" lon="7.34192">
        <ele>898.9</ele>
        <time>2013-12-07T11:33:57Z</time>
      </trkpt>
      <trkpt lat="43.91998" lon="7.3418">
        <ele>900.1</ele>
        <time>2013-12-07T11:34:10Z</time>
      </trkpt>
      <trkpt lat="43.91998" lon="7.34179">
        <ele>900.4</ele>
        <time>2013-12-07T11:34:11Z</time>
      </trkpt>
      <trkpt lat="43.91997" lon="7.34158">
        <ele>902.6</ele>
        <time>2013-12-07T11:34:25Z</time>
      </trkpt>
      <trkpt lat="43.91996" lon="7.34146">
        <ele>903.7</ele>
        <time>2013-12-07T11:34:31Z</time>
      </trkpt>
      <trkpt lat="43.91999" lon="7.34136">
        <ele>904.9</ele>
        <time>2013-12-07T11:34:36Z</time>
      </trkpt>
      <trkpt lat="43.92" lon="7.34125">
        <ele>905.6</ele>
        <time>2013-12-07T11:34:41Z</time>
      </trkpt>
      <trkpt lat="43.92" lon="7.34114">
        <ele>906.2</ele>
        <time>2013-12-07T11:34:46Z</time>
      </trkpt>
      <trkpt lat="43.92" lon="7.34104">
        <ele>907</ele>
        <time>2013-12-07T11:34:51Z</time>
      </trkpt>
      <trkpt lat="43.92" lon="7.34092">
        <ele>908.1</ele>
        <time>2013-12-07T11:34:56Z</time>
      </trkpt>
      <trkpt lat="43.91996" lon="7.34081">
        <ele>909.1</ele>
        <time>2013-12-07T11:35:01Z</time>
      </trkpt>
      <trkpt lat="43.91991" lon="7.34074">
        <ele>910</ele>
        <time>2013-12-07T11:35:05Z</time>
      </trkpt>
      <trkpt lat="43.91984" lon="7.34069">
        <ele>910.6</ele>
        <time>2013-12-07T11:35:09Z</time>
      </trkpt>
      <trkpt lat="43.91978" lon="7.34063">
        <ele>911.4</ele>
        <time>2013-12-07T11:35:13Z</time>
      </trkpt>
      <trkpt lat="43.91977" lon="7.34061">
        <ele>911.7</ele>
        <time>2013-12-07T11:35:14Z</time>
      </trkpt>
      <trkpt lat="43.91971" lon="7.34044">
        <ele>913.6</ele>
        <time>2013-12-07T11:35:23Z</time>
      </trkpt>
      <trkpt lat="43.91966" lon="7.34034">
        <ele>914.1</ele>
        <time>2013-12-07T11:35:28Z</time>
      </trkpt>
      <trkpt lat="43.91962" lon="7.34025">
        <ele>914.4</ele>
        <time>2013-12-07T11:35:32Z</time>
      </trkpt>
      <trkpt lat="43.91958" lon="7.34014">
        <ele>915.3</ele>
        <time>2013-12-07T11:35:37Z</time>
      </trkpt>
      <trkpt lat="43.91957" lon="7.34003">
        <ele>916.1</ele>
        <time>2013-12-07T11:35:42Z</time>
      </trkpt>
      <trkpt lat="43.91954" lon="7.33993">
        <ele>916.9</ele>
        <time>2013-12-07T11:35:47Z</time>
      </trkpt>
      <trkpt lat="43.91952" lon="7.33981">
        <ele>918.1</ele>
        <time>2013-12-07T11:35:52Z</time>
      </trkpt>
      <trkpt lat="43.91951" lon="7.33971">
        <ele>918.7</ele>
        <time>2013-12-07T11:35:56Z</time>
      </trkpt>
      <trkpt lat="43.91947" lon="7.33962">
        <ele>919.1</ele>
        <time>2013-12-07T11:36:00Z</time>
      </trkpt>
      <trkpt lat="43.91947" lon="7.33951">
        <ele>919.7</ele>
        <time>2013-12-07T11:36:04Z</time>
      </trkpt>
      <trkpt lat="43.91947" lon="7.3394">
        <ele>920.1</ele>
        <time>2013-12-07T11:36:08Z</time>
      </trkpt>
      <trkpt lat="43.91943" lon="7.33931">
        <ele>920.4</ele>
        <time>2013-12-07T11:36:12Z</time>
      </trkpt>
      <trkpt lat="43.91936" lon="7.33923">
        <ele>921.4</ele>
        <time>2013-12-07T11:36:16Z</time>
      </trkpt>
      <trkpt lat="43.91934" lon="7.33922">
        <ele>921.6</ele>
        <time>2013-12-07T11:36:17Z</time>
      </trkpt>
      <trkpt lat="43.91923" lon="7.33907">
        <ele>922.4</ele>
        <time>2013-12-07T11:36:24Z</time>
      </trkpt>
      <trkpt lat="43.91919" lon="7.33897">
        <ele>922.1</ele>
        <time>2013-12-07T11:36:28Z</time>
      </trkpt>
      <trkpt lat="43.91916" lon="7.33887">
        <ele>922.2</ele>
        <time>2013-12-07T11:36:32Z</time>
      </trkpt>
      <trkpt lat="43.91914" lon="7.33877">
        <ele>923.8</ele>
        <time>2013-12-07T11:36:36Z</time>
      </trkpt>
      <trkpt lat="43.91911" lon="7.33868">
        <ele>924.2</ele>
        <time>2013-12-07T11:36:40Z</time>
      </trkpt>
      <trkpt lat="43.91908" lon="7.33858">
        <ele>924.9</ele>
        <time>2013-12-07T11:36:44Z</time>
      </trkpt>
      <trkpt lat="43.91905" lon="7.33847">
        <ele>925.9</ele>
        <time>2013-12-07T11:36:48Z</time>
      </trkpt>
      <trkpt lat="43.91902" lon="7.33837">
        <ele>926.4</ele>
        <time>2013-12-07T11:36:52Z</time>
      </trkpt>
      <trkpt lat="43.91896" lon="7.33829">
        <ele>926.7</ele>
        <time>2013-12-07T11:36:56Z</time>
      </trkpt>
      <trkpt lat="43.91889" lon="7.33826">
        <ele>927.4</ele>
        <time>2013-12-07T11:37:00Z</time>
      </trkpt>
      <trkpt lat="43.91881" lon="7.33827">
        <ele>927.7</ele>
        <time>2013-12-07T11:37:04Z</time>
      </trkpt>
      <trkpt lat="43.91873" lon="7.33827">
        <ele>928.4</ele>
        <time>2013-12-07T11:37:08Z</time>
      </trkpt>
      <trkpt lat="43.91865" lon="7.33828">
        <ele>928.3</ele>
        <time>2013-12-07T11:37:12Z</time>
      </trkpt>
      <trkpt lat="43.91858" lon="7.33831">
        <ele>927.6</ele>
        <time>2013-12-07T11:37:17Z</time>
      </trkpt>
      <trkpt lat="43.91856" lon="7.33834">
        <ele>927.4</ele>
        <time>2013-12-07T11:37:18Z</time>
      </trkpt>
      <trkpt lat="43.91843" lon="7.3384">
        <ele>927.5</ele>
        <time>2013-12-07T11:37:23Z</time>
      </trkpt>
      <trkpt lat="43.91835" lon="7.33838">
        <ele>927.1</ele>
        <time>2013-12-07T11:37:26Z</time>
      </trkpt>
      <trkpt lat="43.91826" lon="7.33839">
        <ele>928</ele>
        <time>2013-12-07T11:37:29Z</time>
      </trkpt>
      <trkpt lat="43.91819" lon="7.3384">
        <ele>927.7</ele>
        <time>2013-12-07T11:37:31Z</time>
      </trkpt>
      <trkpt lat="43.91813" lon="7.33839">
        <ele>927.4</ele>
        <time>2013-12-07T11:37:33Z</time>
      </trkpt>
      <trkpt lat="43.91805" lon="7.33837">
        <ele>926.7</ele>
        <time>2013-12-07T11:37:35Z</time>
      </trkpt>
      <trkpt lat="43.91797" lon="7.33836">
        <ele>926.1</ele>
        <time>2013-12-07T11:37:37Z</time>
      </trkpt>
      <trkpt lat="43.91789" lon="7.33837">
        <ele>925.6</ele>
        <time>2013-12-07T11:37:39Z</time>
      </trkpt>
      <trkpt lat="43.91783" lon="7.33836">
        <ele>925.1</ele>
        <time>2013-12-07T11:37:41Z</time>
      </trkpt>
      <trkpt lat="43.91777" lon="7.33835">
        <ele>924.7</ele>
        <time>2013-12-07T11:37:43Z</time>
      </trkpt>
      <trkpt lat="43.91771" lon="7.33835">
        <ele>925.1</ele>
        <time>2013-12-07T11:37:45Z</time>
      </trkpt>
      <trkpt lat="43.91765" lon="7.33838">
        <ele>925.7</ele>
        <time>2013-12-07T11:37:47Z</time>
      </trkpt>
      <trkpt lat="43.91758" lon="7.33845">
        <ele>926.1</ele>
        <time>2013-12-07T11:37:50Z</time>
      </trkpt>
      <trkpt lat="43.91752" lon="7.33849">
        <ele>925.8</ele>
        <time>2013-12-07T11:37:52Z</time>
      </trkpt>
      <trkpt lat="43.91746" lon="7.33851">
        <ele>925.8</ele>
        <time>2013-12-07T11:37:54Z</time>
      </trkpt>
      <trkpt lat="43.9174" lon="7.33853">
        <ele>925.8</ele>
        <time>2013-12-07T11:37:56Z</time>
      </trkpt>
      <trkpt lat="43.91732" lon="7.33856">
        <ele>925.2</ele>
        <time>2013-12-07T11:37:59Z</time>
      </trkpt>
      <trkpt lat="43.91724" lon="7.33859">
        <ele>923.9</ele>
        <time>2013-12-07T11:38:02Z</time>
      </trkpt>
      <trkpt lat="43.91717" lon="7.33863">
        <ele>924.1</ele>
        <time>2013-12-07T11:38:05Z</time>
      </trkpt>
      <trkpt lat="43.9171" lon="7.33869">
        <ele>924.1</ele>
        <time>2013-12-07T11:38:09Z</time>
      </trkpt>
      <trkpt lat="43.91703" lon="7.33876">
        <ele>924.1</ele>
        <time>2013-12-07T11:38:13Z</time>
      </trkpt>
      <trkpt lat="43.91697" lon="7.33883">
        <ele>924.9</ele>
        <time>2013-12-07T11:38:17Z</time>
      </trkpt>
      <trkpt lat="43.91691" lon="7.33891">
        <ele>926.3</ele>
        <time>2013-12-07T11:38:21Z</time>
      </trkpt>
      <trkpt lat="43.91689" lon="7.33893">
        <ele>926.7</ele>
        <time>2013-12-07T11:38:22Z</time>
      </trkpt>
      <trkpt lat="43.91679" lon="7.33907">
        <ele>926.2</ele>
        <time>2013-12-07T11:38:29Z</time>
      </trkpt>
      <trkpt lat="43.91673" lon="7.33914">
        <ele>927.8</ele>
        <time>2013-12-07T11:38:33Z</time>
      </trkpt>
      <trkpt lat="43.91667" lon="7.33921">
        <ele>928.9</ele>
        <time>2013-12-07T11:38:37Z</time>
      </trkpt>
      <trkpt lat="43.91661" lon="7.33927">
        <ele>929.3</ele>
        <time>2013-12-07T11:38:41Z</time>
      </trkpt>
      <trkpt lat="43.91653" lon="7.33933">
        <ele>930.5</ele>
        <time>2013-12-07T11:38:46Z</time>
      </trkpt>
      <trkpt lat="43.91645" lon="7.33935">
        <ele>931</ele>
        <time>2013-12-07T11:38:50Z</time>
      </trkpt>
      <trkpt lat="43.91637" lon="7.3394">
        <ele>932</ele>
        <time>2013-12-07T11:38:55Z</time>
      </trkpt>
      <trkpt lat="43.91629" lon="7.33941">
        <ele>932.6</ele>
        <time>2013-12-07T11:38:59Z</time>
      </trkpt>
      <trkpt lat="43.91622" lon="7.33938">
        <ele>933.1</ele>
        <time>2013-12-07T11:39:03Z</time>
      </trkpt>
      <trkpt lat="43.91614" lon="7.33936">
        <ele>934</ele>
        <time>2013-12-07T11:39:08Z</time>
      </trkpt>
      <trkpt lat="43.91605" lon="7.33938">
        <ele>935.1</ele>
        <time>2013-12-07T11:39:13Z</time>
      </trkpt>
      <trkpt lat="43.91597" lon="7.33943">
        <ele>936.1</ele>
        <time>2013-12-07T11:39:18Z</time>
      </trkpt>
      <trkpt lat="43.9159" lon="7.33948">
        <ele>937.1</ele>
        <time>2013-12-07T11:39:22Z</time>
      </trkpt>
      <trkpt lat="43.91589" lon="7.3395">
        <ele>937</ele>
        <time>2013-12-07T11:39:23Z</time>
      </trkpt>
      <trkpt lat="43.91577" lon="7.3396">
        <ele>937.2</ele>
        <time>2013-12-07T11:39:30Z</time>
      </trkpt>
      <trkpt lat="43.91571" lon="7.33965">
        <ele>938.5</ele>
        <time>2013-12-07T11:39:34Z</time>
      </trkpt>
      <trkpt lat="43.91563" lon="7.33971">
        <ele>938.7</ele>
        <time>2013-12-07T11:39:38Z</time>
      </trkpt>
      <trkpt lat="43.91556" lon="7.33972">
        <ele>938.2</ele>
        <time>2013-12-07T11:39:41Z</time>
      </trkpt>
      <trkpt lat="43.91549" lon="7.33969">
        <ele>938.7</ele>
        <time>2013-12-07T11:39:44Z</time>
      </trkpt>
      <trkpt lat="43.91543" lon="7.33965">
        <ele>938.7</ele>
        <time>2013-12-07T11:39:47Z</time>
      </trkpt>
      <trkpt lat="43.91536" lon="7.33959">
        <ele>939</ele>
        <time>2013-12-07T11:39:51Z</time>
      </trkpt>
      <trkpt lat="43.91533" lon="7.3395">
        <ele>938.4</ele>
        <time>2013-12-07T11:39:55Z</time>
      </trkpt>
      <trkpt lat="43.91532" lon="7.33939">
        <ele>939.2</ele>
        <time>2013-12-07T11:39:59Z</time>
      </trkpt>
      <trkpt lat="43.91535" lon="7.33927">
        <ele>939.4</ele>
        <time>2013-12-07T11:40:03Z</time>
      </trkpt>
      <trkpt lat="43.91537" lon="7.33917">
        <ele>940.3</ele>
        <time>2013-12-07T11:40:07Z</time>
      </trkpt>
      <trkpt lat="43.91539" lon="7.33905">
        <ele>940.6</ele>
        <time>2013-12-07T11:40:13Z</time>
      </trkpt>
      <trkpt lat="43.91541" lon="7.33893">
        <ele>941.3</ele>
        <time>2013-12-07T11:40:18Z</time>
      </trkpt>
      <trkpt lat="43.91543" lon="7.33882">
        <ele>942.8</ele>
        <time>2013-12-07T11:40:25Z</time>
      </trkpt>
      <trkpt lat="43.91544" lon="7.3388">
        <ele>942.8</ele>
        <time>2013-12-07T11:40:26Z</time>
      </trkpt>
      <trkpt lat="43.91548" lon="7.33861">
        <ele>944.1</ele>
        <time>2013-12-07T11:40:34Z</time>
      </trkpt>
      <trkpt lat="43.91549" lon="7.33851">
        <ele>944.2</ele>
        <time>2013-12-07T11:40:38Z</time>
      </trkpt>
      <trkpt lat="43.91551" lon="7.33841">
        <ele>945.6</ele>
        <time>2013-12-07T11:40:42Z</time>
      </trkpt>
      <trkpt lat="43.91554" lon="7.33831">
        <ele>946.3</ele>
        <time>2013-12-07T11:40:46Z</time>
      </trkpt>
      <trkpt lat="43.91555" lon="7.3382">
        <ele>947.1</ele>
        <time>2013-12-07T11:40:50Z</time>
      </trkpt>
      <trkpt lat="43.91555" lon="7.33809">
        <ele>947.5</ele>
        <time>2013-12-07T11:40:54Z</time>
      </trkpt>
      <trkpt lat="43.91553" lon="7.33799">
        <ele>947.8</ele>
        <time>2013-12-07T11:40:58Z</time>
      </trkpt>
      <trkpt lat="43.9155" lon="7.3379">
        <ele>947.9</ele>
        <time>2013-12-07T11:41:02Z</time>
      </trkpt>
      <trkpt lat="43.91545" lon="7.3378">
        <ele>949.3</ele>
        <time>2013-12-07T11:41:06Z</time>
      </trkpt>
      <trkpt lat="43.9154" lon="7.33773">
        <ele>950.2</ele>
        <time>2013-12-07T11:41:10Z</time>
      </trkpt>
      <trkpt lat="43.91534" lon="7.33766">
        <ele>950.7</ele>
        <time>2013-12-07T11:41:14Z</time>
      </trkpt>
      <trkpt lat="43.91529" lon="7.33757">
        <ele>950.8</ele>
        <time>2013-12-07T11:41:18Z</time>
      </trkpt>
      <trkpt lat="43.91527" lon="7.33747">
        <ele>951.3</ele>
        <time>2013-12-07T11:41:22Z</time>
      </trkpt>
      <trkpt lat="43.91523" lon="7.33738">
        <ele>952.4</ele>
        <time>2013-12-07T11:41:26Z</time>
      </trkpt>
      <trkpt lat="43.91522" lon="7.33736">
        <ele>952.8</ele>
        <time>2013-12-07T11:41:27Z</time>
      </trkpt>
      <trkpt lat="43.91513" lon="7.33723">
        <ele>953.5</ele>
        <time>2013-12-07T11:41:34Z</time>
      </trkpt>
      <trkpt lat="43.91507" lon="7.33716">
        <ele>954.8</ele>
        <time>2013-12-07T11:41:38Z</time>
      </trkpt>
      <trkpt lat="43.915" lon="7.33709">
        <ele>955.1</ele>
        <time>2013-12-07T11:41:42Z</time>
      </trkpt>
      <trkpt lat="43.91495" lon="7.33702">
        <ele>955.5</ele>
        <time>2013-12-07T11:41:46Z</time>
      </trkpt>
      <trkpt lat="43.9149" lon="7.33693">
        <ele>956.4</ele>
        <time>2013-12-07T11:41:50Z</time>
      </trkpt>
      <trkpt lat="43.91485" lon="7.33686">
        <ele>957.4</ele>
        <time>2013-12-07T11:41:54Z</time>
      </trkpt>
      <trkpt lat="43.91478" lon="7.33677">
        <ele>958.3</ele>
        <time>2013-12-07T11:41:59Z</time>
      </trkpt>
      <trkpt lat="43.91473" lon="7.33671">
        <ele>958.9</ele>
        <time>2013-12-07T11:42:03Z</time>
      </trkpt>
      <trkpt lat="43.91467" lon="7.33664">
        <ele>959.4</ele>
        <time>2013-12-07T11:42:07Z</time>
      </trkpt>
      <trkpt lat="43.91463" lon="7.33656">
        <ele>960.1</ele>
        <time>2013-12-07T11:42:11Z</time>
      </trkpt>
      <trkpt lat="43.91459" lon="7.33647">
        <ele>960.8</ele>
        <time>2013-12-07T11:42:15Z</time>
      </trkpt>
      <trkpt lat="43.91455" lon="7.33638">
        <ele>962</ele>
        <time>2013-12-07T11:42:19Z</time>
      </trkpt>
      <trkpt lat="43.91451" lon="7.33629">
        <ele>962.3</ele>
        <time>2013-12-07T11:42:23Z</time>
      </trkpt>
      <trkpt lat="43.91447" lon="7.3362">
        <ele>962.9</ele>
        <time>2013-12-07T11:42:27Z</time>
      </trkpt>
      <trkpt lat="43.91446" lon="7.33618">
        <ele>962.9</ele>
        <time>2013-12-07T11:42:28Z</time>
      </trkpt>
      <trkpt lat="43.91438" lon="7.33603">
        <ele>963.4</ele>
        <time>2013-12-07T11:42:35Z</time>
      </trkpt>
      <trkpt lat="43.91434" lon="7.33594">
        <ele>964.9</ele>
        <time>2013-12-07T11:42:39Z</time>
      </trkpt>
      <trkpt lat="43.91431" lon="7.33583">
        <ele>966.1</ele>
        <time>2013-12-07T11:42:44Z</time>
      </trkpt>
      <trkpt lat="43.91426" lon="7.33573">
        <ele>967</ele>
        <time>2013-12-07T11:42:49Z</time>
      </trkpt>
      <trkpt lat="43.9142" lon="7.33563">
        <ele>966.7</ele>
        <time>2013-12-07T11:42:54Z</time>
      </trkpt>
      <trkpt lat="43.91416" lon="7.33555">
        <ele>967.4</ele>
        <time>2013-12-07T11:42:58Z</time>
      </trkpt>
      <trkpt lat="43.91411" lon="7.33547">
        <ele>967.9</ele>
        <time>2013-12-07T11:43:02Z</time>
      </trkpt>
      <trkpt lat="43.91406" lon="7.33539">
        <ele>969.2</ele>
        <time>2013-12-07T11:43:06Z</time>
      </trkpt>
      <trkpt lat="43.91402" lon="7.33531">
        <ele>970.2</ele>
        <time>2013-12-07T11:43:10Z</time>
      </trkpt>
      <trkpt lat="43.91397" lon="7.33523">
        <ele>970.8</ele>
        <time>2013-12-07T11:43:14Z</time>
      </trkpt>
      <trkpt lat="43.91392" lon="7.33514">
        <ele>971.4</ele>
        <time>2013-12-07T11:43:18Z</time>
      </trkpt>
      <trkpt lat="43.91387" lon="7.33505">
        <ele>972.4</ele>
        <time>2013-12-07T11:43:22Z</time>
      </trkpt>
      <trkpt lat="43.91382" lon="7.33497">
        <ele>973</ele>
        <time>2013-12-07T11:43:26Z</time>
      </trkpt>
      <trkpt lat="43.91375" lon="7.33492">
        <ele>973.5</ele>
        <time>2013-12-07T11:43:30Z</time>
      </trkpt>
      <trkpt lat="43.91373" lon="7.33491">
        <ele>973.9</ele>
        <time>2013-12-07T11:43:31Z</time>
      </trkpt>
      <trkpt lat="43.91362" lon="7.33501">
        <ele>974.3</ele>
        <time>2013-12-07T11:43:40Z</time>
      </trkpt>
      <trkpt lat="43.91367" lon="7.33511">
        <ele>975.7</ele>
        <time>2013-12-07T11:43:46Z</time>
      </trkpt>
      <trkpt lat="43.91374" lon="7.33519">
        <ele>976.1</ele>
        <time>2013-12-07T11:43:51Z</time>
      </trkpt>
      <trkpt lat="43.9138" lon="7.33526">
        <ele>977</ele>
        <time>2013-12-07T11:43:55Z</time>
      </trkpt>
      <trkpt lat="43.91386" lon="7.33534">
        <ele>977.4</ele>
        <time>2013-12-07T11:43:59Z</time>
      </trkpt>
      <trkpt lat="43.9139" lon="7.33544">
        <ele>977.1</ele>
        <time>2013-12-07T11:44:03Z</time>
      </trkpt>
      <trkpt lat="43.91396" lon="7.33554">
        <ele>977.9</ele>
        <time>2013-12-07T11:44:07Z</time>
      </trkpt>
      <trkpt lat="43.91401" lon="7.33564">
        <ele>977.7</ele>
        <time>2013-12-07T11:44:11Z</time>
      </trkpt>
      <trkpt lat="43.91404" lon="7.33573">
        <ele>978.4</ele>
        <time>2013-12-07T11:44:14Z</time>
      </trkpt>
      <trkpt lat="43.91403" lon="7.33584">
        <ele>979.6</ele>
        <time>2013-12-07T11:44:18Z</time>
      </trkpt>
      <trkpt lat="43.91394" lon="7.33582">
        <ele>979.5</ele>
        <time>2013-12-07T11:44:24Z</time>
      </trkpt>
      <trkpt lat="43.9139" lon="7.33571">
        <ele>980.7</ele>
        <time>2013-12-07T11:44:30Z</time>
      </trkpt>
      <trkpt lat="43.91385" lon="7.33563">
        <ele>981.6</ele>
        <time>2013-12-07T11:44:35Z</time>
      </trkpt>
      <trkpt lat="43.91384" lon="7.33561">
        <ele>981.8</ele>
        <time>2013-12-07T11:44:36Z</time>
      </trkpt>
      <trkpt lat="43.91375" lon="7.33544">
        <ele>982.8</ele>
        <time>2013-12-07T11:44:45Z</time>
      </trkpt>
      <trkpt lat="43.91368" lon="7.33537">
        <ele>983.1</ele>
        <time>2013-12-07T11:44:50Z</time>
      </trkpt>
      <trkpt lat="43.91361" lon="7.33533">
        <ele>983.4</ele>
        <time>2013-12-07T11:44:54Z</time>
      </trkpt>
      <trkpt lat="43.91354" lon="7.33529">
        <ele>984.3</ele>
        <time>2013-12-07T11:44:58Z</time>
      </trkpt>
      <trkpt lat="43.91348" lon="7.33523">
        <ele>984.5</ele>
        <time>2013-12-07T11:45:02Z</time>
      </trkpt>
      <trkpt lat="43.91341" lon="7.33516">
        <ele>985.9</ele>
        <time>2013-12-07T11:45:06Z</time>
      </trkpt>
      <trkpt lat="43.91335" lon="7.33506">
        <ele>986.4</ele>
        <time>2013-12-07T11:45:10Z</time>
      </trkpt>
      <trkpt lat="43.91331" lon="7.33497">
        <ele>987.1</ele>
        <time>2013-12-07T11:45:14Z</time>
      </trkpt>
      <trkpt lat="43.91326" lon="7.3349">
        <ele>987.9</ele>
        <time>2013-12-07T11:45:18Z</time>
      </trkpt>
      <trkpt lat="43.91319" lon="7.33486">
        <ele>988.8</ele>
        <time>2013-12-07T11:45:22Z</time>
      </trkpt>
      <trkpt lat="43.9131" lon="7.33485">
        <ele>990.3</ele>
        <time>2013-12-07T11:45:27Z</time>
      </trkpt>
      <trkpt lat="43.91303" lon="7.33487">
        <ele>990.3</ele>
        <time>2013-12-07T11:45:31Z</time>
      </trkpt>
      <trkpt lat="43.91295" lon="7.33488">
        <ele>992</ele>
        <time>2013-12-07T11:45:35Z</time>
      </trkpt>
      <trkpt lat="43.91287" lon="7.33489">
        <ele>992.6</ele>
        <time>2013-12-07T11:45:39Z</time>
      </trkpt>
      <trkpt lat="43.91285" lon="7.33489">
        <ele>992.8</ele>
        <time>2013-12-07T11:45:40Z</time>
      </trkpt>
      <trkpt lat="43.91273" lon="7.33483">
        <ele>993.2</ele>
        <time>2013-12-07T11:45:47Z</time>
      </trkpt>
      <trkpt lat="43.9127" lon="7.33472">
        <ele>994.3</ele>
        <time>2013-12-07T11:45:52Z</time>
      </trkpt>
      <trkpt lat="43.9127" lon="7.3346">
        <ele>995.4</ele>
        <time>2013-12-07T11:45:57Z</time>
      </trkpt>
      <trkpt lat="43.91272" lon="7.33449">
        <ele>995.9</ele>
        <time>2013-12-07T11:46:02Z</time>
      </trkpt>
      <trkpt lat="43.91274" lon="7.33439">
        <ele>995.7</ele>
        <time>2013-12-07T11:46:06Z</time>
      </trkpt>
      <trkpt lat="43.91276" lon="7.33427">
        <ele>997.5</ele>
        <time>2013-12-07T11:46:11Z</time>
      </trkpt>
      <trkpt lat="43.91275" lon="7.33417">
        <ele>999.1</ele>
        <time>2013-12-07T11:46:15Z</time>
      </trkpt>
      <trkpt lat="43.91272" lon="7.33408">
        <ele>999.8</ele>
        <time>2013-12-07T11:46:19Z</time>
      </trkpt>
      <trkpt lat="43.91265" lon="7.33403">
        <ele>1000.8</ele>
        <time>2013-12-07T11:46:23Z</time>
      </trkpt>
      <trkpt lat="43.91258" lon="7.33404">
        <ele>1001.2</ele>
        <time>2013-12-07T11:46:27Z</time>
      </trkpt>
      <trkpt lat="43.91252" lon="7.3341">
        <ele>1002.5</ele>
        <time>2013-12-07T11:46:31Z</time>
      </trkpt>
      <trkpt lat="43.91246" lon="7.33417">
        <ele>1003.5</ele>
        <time>2013-12-07T11:46:35Z</time>
      </trkpt>
      <trkpt lat="43.9124" lon="7.33423">
        <ele>1004.2</ele>
        <time>2013-12-07T11:46:39Z</time>
      </trkpt>
      <trkpt lat="43.91234" lon="7.33429">
        <ele>1004.6</ele>
        <time>2013-12-07T11:46:43Z</time>
      </trkpt>
      <trkpt lat="43.91232" lon="7.3343">
        <ele>1004.7</ele>
        <time>2013-12-07T11:46:44Z</time>
      </trkpt>
      <trkpt lat="43.91221" lon="7.33439">
        <ele>1005.7</ele>
        <time>2013-12-07T11:46:51Z</time>
      </trkpt>
      <trkpt lat="43.91214" lon="7.33444">
        <ele>1006.8</ele>
        <time>2013-12-07T11:46:55Z</time>
      </trkpt>
      <trkpt lat="43.91206" lon="7.33446">
        <ele>1007.2</ele>
        <time>2013-12-07T11:46:59Z</time>
      </trkpt>
      <trkpt lat="43.91198" lon="7.33447">
        <ele>1007</ele>
        <time>2013-12-07T11:47:03Z</time>
      </trkpt>
      <trkpt lat="43.9119" lon="7.33446">
        <ele>1007.1</ele>
        <time>2013-12-07T11:47:08Z</time>
      </trkpt>
      <trkpt lat="43.91182" lon="7.33445">
        <ele>1008.3</ele>
        <time>2013-12-07T11:47:12Z</time>
      </trkpt>
      <trkpt lat="43.91175" lon="7.33444">
        <ele>1009.7</ele>
        <time>2013-12-07T11:47:16Z</time>
      </trkpt>
      <trkpt lat="43.91168" lon="7.33444">
        <ele>1010.1</ele>
        <time>2013-12-07T11:47:20Z</time>
      </trkpt>
      <trkpt lat="43.9116" lon="7.33444">
        <ele>1011</ele>
        <time>2013-12-07T11:47:24Z</time>
      </trkpt>
      <trkpt lat="43.91153" lon="7.33443">
        <ele>1011.5</ele>
        <time>2013-12-07T11:47:28Z</time>
      </trkpt>
      <trkpt lat="43.91146" lon="7.33443">
        <ele>1012.2</ele>
        <time>2013-12-07T11:47:32Z</time>
      </trkpt>
      <trkpt lat="43.91137" lon="7.33444">
        <ele>1012.3</ele>
        <time>2013-12-07T11:47:37Z</time>
      </trkpt>
      <trkpt lat="43.9113" lon="7.33445">
        <ele>1012.9</ele>
        <time>2013-12-07T11:47:41Z</time>
      </trkpt>
      <trkpt lat="43.91122" lon="7.33446">
        <ele>1013.8</ele>
        <time>2013-12-07T11:47:45Z</time>
      </trkpt>
      <trkpt lat="43.9112" lon="7.33445">
        <ele>1014.2</ele>
        <time>2013-12-07T11:47:46Z</time>
      </trkpt>
      <trkpt lat="43.91108" lon="7.33438">
        <ele>1015.8</ele>
        <time>2013-12-07T11:47:53Z</time>
      </trkpt>
      <trkpt lat="43.91102" lon="7.3343">
        <ele>1017.4</ele>
        <time>2013-12-07T11:47:58Z</time>
      </trkpt>
      <trkpt lat="43.91103" lon="7.33419">
        <ele>1018.2</ele>
        <time>2013-12-07T11:48:02Z</time>
      </trkpt>
      <trkpt lat="43.91106" lon="7.33408">
        <ele>1017.1</ele>
        <time>2013-12-07T11:48:07Z</time>
      </trkpt>
      <trkpt lat="43.9111" lon="7.33399">
        <ele>1018.3</ele>
        <time>2013-12-07T11:48:11Z</time>
      </trkpt>
      <trkpt lat="43.91114" lon="7.3339">
        <ele>1019.1</ele>
        <time>2013-12-07T11:48:15Z</time>
      </trkpt>
      <trkpt lat="43.91118" lon="7.33381">
        <ele>1020.9</ele>
        <time>2013-12-07T11:48:19Z</time>
      </trkpt>
      <trkpt lat="43.91121" lon="7.33369">
        <ele>1021</ele>
        <time>2013-12-07T11:48:24Z</time>
      </trkpt>
      <trkpt lat="43.91121" lon="7.33359">
        <ele>1021.6</ele>
        <time>2013-12-07T11:48:28Z</time>
      </trkpt>
      <trkpt lat="43.9112" lon="7.33347">
        <ele>1022.2</ele>
        <time>2013-12-07T11:48:33Z</time>
      </trkpt>
      <trkpt lat="43.9112" lon="7.33337">
        <ele>1022.4</ele>
        <time>2013-12-07T11:48:37Z</time>
      </trkpt>
      <trkpt lat="43.91121" lon="7.33326">
        <ele>1022.4</ele>
        <time>2013-12-07T11:48:41Z</time>
      </trkpt>
      <trkpt lat="43.91119" lon="7.33316">
        <ele>1023.6</ele>
        <time>2013-12-07T11:48:45Z</time>
      </trkpt>
      <trkpt lat="43.91115" lon="7.33306">
        <ele>1024.7</ele>
        <time>2013-12-07T11:48:50Z</time>
      </trkpt>
      <trkpt lat="43.91113" lon="7.33304">
        <ele>1024.7</ele>
        <time>2013-12-07T11:48:51Z</time>
      </trkpt>
      <trkpt lat="43.91102" lon="7.33292">
        <ele>1026.6</ele>
        <time>2013-12-07T11:48:58Z</time>
      </trkpt>
      <trkpt lat="43.91095" lon="7.33291">
        <ele>1027.3</ele>
        <time>2013-12-07T11:49:02Z</time>
      </trkpt>
      <trkpt lat="43.91087" lon="7.33288">
        <ele>1027.6</ele>
        <time>2013-12-07T11:49:07Z</time>
      </trkpt>
      <trkpt lat="43.9108" lon="7.33285">
        <ele>1027.9</ele>
        <time>2013-12-07T11:49:11Z</time>
      </trkpt>
      <trkpt lat="43.91072" lon="7.33284">
        <ele>1029.2</ele>
        <time>2013-12-07T11:49:15Z</time>
      </trkpt>
      <trkpt lat="43.91064" lon="7.33286">
        <ele>1029.9</ele>
        <time>2013-12-07T11:49:19Z</time>
      </trkpt>
      <trkpt lat="43.91057" lon="7.33289">
        <ele>1031</ele>
        <time>2013-12-07T11:49:23Z</time>
      </trkpt>
      <trkpt lat="43.9105" lon="7.33294">
        <ele>1031.3</ele>
        <time>2013-12-07T11:49:27Z</time>
      </trkpt>
      <trkpt lat="43.91042" lon="7.33298">
        <ele>1032.4</ele>
        <time>2013-12-07T11:49:31Z</time>
      </trkpt>
      <trkpt lat="43.91035" lon="7.33302">
        <ele>1033.4</ele>
        <time>2013-12-07T11:49:35Z</time>
      </trkpt>
      <trkpt lat="43.91028" lon="7.33308">
        <ele>1034.4</ele>
        <time>2013-12-07T11:49:39Z</time>
      </trkpt>
      <trkpt lat="43.91024" lon="7.33317">
        <ele>1034.7</ele>
        <time>2013-12-07T11:49:43Z</time>
      </trkpt>
      <trkpt lat="43.91022" lon="7.33326">
        <ele>1035.1</ele>
        <time>2013-12-07T11:49:47Z</time>
      </trkpt>
      <trkpt lat="43.9102" lon="7.33337">
        <ele>1035.5</ele>
        <time>2013-12-07T11:49:51Z</time>
      </trkpt>
      <trkpt lat="43.9102" lon="7.3334">
        <ele>1035.9</ele>
        <time>2013-12-07T11:49:52Z</time>
      </trkpt>
      <trkpt lat="43.91018" lon="7.33359">
        <ele>1036.5</ele>
        <time>2013-12-07T11:49:59Z</time>
      </trkpt>
      <trkpt lat="43.91014" lon="7.33367">
        <ele>1037.1</ele>
        <time>2013-12-07T11:50:03Z</time>
      </trkpt>
      <trkpt lat="43.91007" lon="7.33372">
        <ele>1037.6</ele>
        <time>2013-12-07T11:50:07Z</time>
      </trkpt>
      <trkpt lat="43.91" lon="7.33375">
        <ele>1038</ele>
        <time>2013-12-07T11:50:11Z</time>
      </trkpt>
      <trkpt lat="43.90993" lon="7.33377">
        <ele>1038.4</ele>
        <time>2013-12-07T11:50:15Z</time>
      </trkpt>
      <trkpt lat="43.90985" lon="7.33379">
        <ele>1040.2</ele>
        <time>2013-12-07T11:50:20Z</time>
      </trkpt>
      <trkpt lat="43.90977" lon="7.33378">
        <ele>1040.4</ele>
        <time>2013-12-07T11:50:24Z</time>
      </trkpt>
      <trkpt lat="43.90968" lon="7.33379">
        <ele>1041.2</ele>
        <time>2013-12-07T11:50:29Z</time>
      </trkpt>
      <trkpt lat="43.9096" lon="7.3338">
        <ele>1041.7</ele>
        <time>2013-12-07T11:50:33Z</time>
      </trkpt>
      <trkpt lat="43.90951" lon="7.33382">
        <ele>1042.3</ele>
        <time>2013-12-07T11:50:37Z</time>
      </trkpt>
      <trkpt lat="43.90944" lon="7.33382">
        <ele>1042.9</ele>
        <time>2013-12-07T11:50:41Z</time>
      </trkpt>
      <trkpt lat="43.90936" lon="7.33381">
        <ele>1043.7</ele>
        <time>2013-12-07T11:50:45Z</time>
      </trkpt>
      <trkpt lat="43.90928" lon="7.3338">
        <ele>1043.9</ele>
        <time>2013-12-07T11:50:49Z</time>
      </trkpt>
      <trkpt lat="43.9092" lon="7.33379">
        <ele>1045</ele>
        <time>2013-12-07T11:50:53Z</time>
      </trkpt>
      <trkpt lat="43.90918" lon="7.3338">
        <ele>1045.2</ele>
        <time>2013-12-07T11:50:54Z</time>
      </trkpt>
      <trkpt lat="43.90906" lon="7.33389">
        <ele>1046.6</ele>
        <time>2013-12-07T11:51:01Z</time>
      </trkpt>
      <trkpt lat="43.90899" lon="7.33395">
        <ele>1047.4</ele>
        <time>2013-12-07T11:51:05Z</time>
      </trkpt>
      <trkpt lat="43.90892" lon="7.334">
        <ele>1048.3</ele>
        <time>2013-12-07T11:51:09Z</time>
      </trkpt>
      <trkpt lat="43.90885" lon="7.33403">
        <ele>1048.5</ele>
        <time>2013-12-07T11:51:13Z</time>
      </trkpt>
      <trkpt lat="43.90877" lon="7.33403">
        <ele>1048.5</ele>
        <time>2013-12-07T11:51:17Z</time>
      </trkpt>
      <trkpt lat="43.90869" lon="7.33398">
        <ele>1049.1</ele>
        <time>2013-12-07T11:51:22Z</time>
      </trkpt>
      <trkpt lat="43.9086" lon="7.33395">
        <ele>1050.2</ele>
        <time>2013-12-07T11:51:27Z</time>
      </trkpt>
      <trkpt lat="43.90852" lon="7.33398">
        <ele>1051</ele>
        <time>2013-12-07T11:51:31Z</time>
      </trkpt>
      <trkpt lat="43.90844" lon="7.33403">
        <ele>1051.5</ele>
        <time>2013-12-07T11:51:35Z</time>
      </trkpt>
      <trkpt lat="43.90836" lon="7.33403">
        <ele>1051.7</ele>
        <time>2013-12-07T11:51:39Z</time>
      </trkpt>
      <trkpt lat="43.9083" lon="7.33397">
        <ele>1051.8</ele>
        <time>2013-12-07T11:51:43Z</time>
      </trkpt>
      <trkpt lat="43.90826" lon="7.33387">
        <ele>1052.8</ele>
        <time>2013-12-07T11:51:48Z</time>
      </trkpt>
      <trkpt lat="43.90823" lon="7.33376">
        <ele>1053.9</ele>
        <time>2013-12-07T11:51:53Z</time>
      </trkpt>
      <trkpt lat="43.90817" lon="7.33368">
        <ele>1054.8</ele>
        <time>2013-12-07T11:51:57Z</time>
      </trkpt>
      <trkpt lat="43.90815" lon="7.33366">
        <ele>1054.9</ele>
        <time>2013-12-07T11:51:58Z</time>
      </trkpt>
      <trkpt lat="43.90802" lon="7.33356">
        <ele>1055.7</ele>
        <time>2013-12-07T11:52:05Z</time>
      </trkpt>
      <trkpt lat="43.90794" lon="7.33351">
        <ele>1056.5</ele>
        <time>2013-12-07T11:52:09Z</time>
      </trkpt>
      <trkpt lat="43.90788" lon="7.33346">
        <ele>1056.8</ele>
        <time>2013-12-07T11:52:12Z</time>
      </trkpt>
      <trkpt lat="43.90779" lon="7.33343">
        <ele>1056.4</ele>
        <time>2013-12-07T11:52:16Z</time>
      </trkpt>
      <trkpt lat="43.90773" lon="7.33347">
        <ele>1056.6</ele>
        <time>2013-12-07T11:52:19Z</time>
      </trkpt>
      <trkpt lat="43.90767" lon="7.33355">
        <ele>1057.8</ele>
        <time>2013-12-07T11:52:23Z</time>
      </trkpt>
      <trkpt lat="43.9076" lon="7.3336">
        <ele>1057</ele>
        <time>2013-12-07T11:52:28Z</time>
      </trkpt>
      <trkpt lat="43.90753" lon="7.33352">
        <ele>1057.3</ele>
        <time>2013-12-07T11:52:33Z</time>
      </trkpt>
      <trkpt lat="43.9075" lon="7.33342">
        <ele>1056.8</ele>
        <time>2013-12-07T11:52:37Z</time>
      </trkpt>
      <trkpt lat="43.90749" lon="7.3333">
        <ele>1058.1</ele>
        <time>2013-12-07T11:52:42Z</time>
      </trkpt>
      <trkpt lat="43.9075" lon="7.33318">
        <ele>1059.3</ele>
        <time>2013-12-07T11:52:47Z</time>
      </trkpt>
      <trkpt lat="43.90753" lon="7.33308">
        <ele>1061</ele>
        <time>2013-12-07T11:52:52Z</time>
      </trkpt>
      <trkpt lat="43.90757" lon="7.33299">
        <ele>1060.8</ele>
        <time>2013-12-07T11:52:56Z</time>
      </trkpt>
      <trkpt lat="43.90761" lon="7.33291">
        <ele>1061.2</ele>
        <time>2013-12-07T11:53:00Z</time>
      </trkpt>
      <trkpt lat="43.90763" lon="7.33289">
        <ele>1061.3</ele>
        <time>2013-12-07T11:53:01Z</time>
      </trkpt>
      <trkpt lat="43.90776" lon="7.33283">
        <ele>1061.6</ele>
        <time>2013-12-07T11:53:08Z</time>
      </trkpt>
      <trkpt lat="43.90783" lon="7.33277">
        <ele>1062.5</ele>
        <time>2013-12-07T11:53:12Z</time>
      </trkpt>
      <trkpt lat="43.90791" lon="7.33273">
        <ele>1062</ele>
        <time>2013-12-07T11:53:16Z</time>
      </trkpt>
      <trkpt lat="43.90797" lon="7.33269">
        <ele>1061.6</ele>
        <time>2013-12-07T11:53:19Z</time>
      </trkpt>
      <trkpt lat="43.90803" lon="7.33264">
        <ele>1061.9</ele>
        <time>2013-12-07T11:53:22Z</time>
      </trkpt>
      <trkpt lat="43.90809" lon="7.33261">
        <ele>1062</ele>
        <time>2013-12-07T11:53:25Z</time>
      </trkpt>
      <trkpt lat="43.90816" lon="7.33256">
        <ele>1062.1</ele>
        <time>2013-12-07T11:53:28Z</time>
      </trkpt>
      <trkpt lat="43.90822" lon="7.33251">
        <ele>1062.1</ele>
        <time>2013-12-07T11:53:31Z</time>
      </trkpt>
      <trkpt lat="43.90828" lon="7.33246">
        <ele>1062.3</ele>
        <time>2013-12-07T11:53:34Z</time>
      </trkpt>
      <trkpt lat="43.90835" lon="7.33241">
        <ele>1061.8</ele>
        <time>2013-12-07T11:53:37Z</time>
      </trkpt>
      <trkpt lat="43.90843" lon="7.33236">
        <ele>1062.1</ele>
        <time>2013-12-07T11:53:41Z</time>
      </trkpt>
      <trkpt lat="43.90851" lon="7.33232">
        <ele>1062.6</ele>
        <time>2013-12-07T11:53:45Z</time>
      </trkpt>
      <trkpt lat="43.90859" lon="7.33228">
        <ele>1063.3</ele>
        <time>2013-12-07T11:53:49Z</time>
      </trkpt>
      <trkpt lat="43.90867" lon="7.33222">
        <ele>1063.5</ele>
        <time>2013-12-07T11:53:53Z</time>
      </trkpt>
      <trkpt lat="43.90874" lon="7.33217">
        <ele>1063.8</ele>
        <time>2013-12-07T11:53:57Z</time>
      </trkpt>
      <trkpt lat="43.9088" lon="7.3321">
        <ele>1064.8</ele>
        <time>2013-12-07T11:54:01Z</time>
      </trkpt>
      <trkpt lat="43.90882" lon="7.33208">
        <ele>1065.2</ele>
        <time>2013-12-07T11:54:02Z</time>
      </trkpt>
      <trkpt lat="43.9089" lon="7.33192">
        <ele>1066.2</ele>
        <time>2013-12-07T11:54:09Z</time>
      </trkpt>
      <trkpt lat="43.90892" lon="7.33182">
        <ele>1066.7</ele>
        <time>2013-12-07T11:54:13Z</time>
      </trkpt>
      <trkpt lat="43.90895" lon="7.33172">
        <ele>1067.5</ele>
        <time>2013-12-07T11:54:17Z</time>
      </trkpt>
      <trkpt lat="43.909" lon="7.33164">
        <ele>1067.9</ele>
        <time>2013-12-07T11:54:21Z</time>
      </trkpt>
      <trkpt lat="43.90907" lon="7.33159">
        <ele>1068.4</ele>
        <time>2013-12-07T11:54:25Z</time>
      </trkpt>
      <trkpt lat="43.90913" lon="7.33152">
        <ele>1069.3</ele>
        <time>2013-12-07T11:54:30Z</time>
      </trkpt>
      <trkpt lat="43.90919" lon="7.33143">
        <ele>1069.6</ele>
        <time>2013-12-07T11:54:35Z</time>
      </trkpt>
      <trkpt lat="43.90923" lon="7.33134">
        <ele>1070.2</ele>
        <time>2013-12-07T11:54:39Z</time>
      </trkpt>
      <trkpt lat="43.90927" lon="7.33125">
        <ele>1070.8</ele>
        <time>2013-12-07T11:54:43Z</time>
      </trkpt>
      <trkpt lat="43.90933" lon="7.33116">
        <ele>1071.4</ele>
        <time>2013-12-07T11:54:48Z</time>
      </trkpt>
      <trkpt lat="43.90938" lon="7.33107">
        <ele>1071.9</ele>
        <time>2013-12-07T11:54:53Z</time>
      </trkpt>
      <trkpt lat="43.90941" lon="7.33098">
        <ele>1073.8</ele>
        <time>2013-12-07T11:54:57Z</time>
      </trkpt>
      <trkpt lat="43.90945" lon="7.33087">
        <ele>1073.2</ele>
        <time>2013-12-07T11:55:02Z</time>
      </trkpt>
      <trkpt lat="43.90947" lon="7.33085">
        <ele>1073.4</ele>
        <time>2013-12-07T11:55:03Z</time>
      </trkpt>
      <trkpt lat="43.90961" lon="7.33077">
        <ele>1074.6</ele>
        <time>2013-12-07T11:55:12Z</time>
      </trkpt>
      <trkpt lat="43.90968" lon="7.33076">
        <ele>1075.8</ele>
        <time>2013-12-07T11:55:16Z</time>
      </trkpt>
      <trkpt lat="43.90976" lon="7.33077">
        <ele>1077.1</ele>
        <time>2013-12-07T11:55:20Z</time>
      </trkpt>
      <trkpt lat="43.90984" lon="7.3308">
        <ele>1077.6</ele>
        <time>2013-12-07T11:55:25Z</time>
      </trkpt>
      <trkpt lat="43.90992" lon="7.33078">
        <ele>1078.4</ele>
        <time>2013-12-07T11:55:30Z</time>
      </trkpt>
      <trkpt lat="43.91" lon="7.33071">
        <ele>1080.1</ele>
        <time>2013-12-07T11:55:35Z</time>
      </trkpt>
      <trkpt lat="43.91007" lon="7.33064">
        <ele>1080</ele>
        <time>2013-12-07T11:55:40Z</time>
      </trkpt>
      <trkpt lat="43.91014" lon="7.33059">
        <ele>1080.6</ele>
        <time>2013-12-07T11:55:45Z</time>
      </trkpt>
      <trkpt lat="43.91022" lon="7.33054">
        <ele>1082.2</ele>
        <time>2013-12-07T11:55:50Z</time>
      </trkpt>
      <trkpt lat="43.91029" lon="7.33049">
        <ele>1083</ele>
        <time>2013-12-07T11:55:55Z</time>
      </trkpt>
      <trkpt lat="43.91037" lon="7.33043">
        <ele>1084.7</ele>
        <time>2013-12-07T11:56:00Z</time>
      </trkpt>
      <trkpt lat="43.91044" lon="7.33039">
        <ele>1086.1</ele>
        <time>2013-12-07T11:56:05Z</time>
      </trkpt>
      <trkpt lat="43.91046" lon="7.33039">
        <ele>1086.2</ele>
        <time>2013-12-07T11:56:06Z</time>
      </trkpt>
      <trkpt lat="43.91059" lon="7.33033">
        <ele>1087.3</ele>
        <time>2013-12-07T11:56:15Z</time>
      </trkpt>
      <trkpt lat="43.91067" lon="7.33029">
        <ele>1088.5</ele>
        <time>2013-12-07T11:56:20Z</time>
      </trkpt>
      <trkpt lat="43.91075" lon="7.33027">
        <ele>1088.7</ele>
        <time>2013-12-07T11:56:25Z</time>
      </trkpt>
      <trkpt lat="43.91083" lon="7.33025">
        <ele>1089.8</ele>
        <time>2013-12-07T11:56:31Z</time>
      </trkpt>
      <trkpt lat="43.91091" lon="7.33023">
        <ele>1091.1</ele>
        <time>2013-12-07T11:56:37Z</time>
      </trkpt>
      <trkpt lat="43.91099" lon="7.3302">
        <ele>1091.7</ele>
        <time>2013-12-07T11:56:43Z</time>
      </trkpt>
      <trkpt lat="43.91107" lon="7.33016">
        <ele>1092.4</ele>
        <time>2013-12-07T11:56:49Z</time>
      </trkpt>
      <trkpt lat="43.91113" lon="7.3301">
        <ele>1093.5</ele>
        <time>2013-12-07T11:56:54Z</time>
      </trkpt>
      <trkpt lat="43.91119" lon="7.33002">
        <ele>1094.5</ele>
        <time>2013-12-07T11:56:59Z</time>
      </trkpt>
      <trkpt lat="43.91124" lon="7.32994">
        <ele>1095.2</ele>
        <time>2013-12-07T11:57:04Z</time>
      </trkpt>
      <trkpt lat="43.91128" lon="7.32986">
        <ele>1095.3</ele>
        <time>2013-12-07T11:57:09Z</time>
      </trkpt>
      <trkpt lat="43.91129" lon="7.32984">
        <ele>1095.6</ele>
        <time>2013-12-07T11:57:10Z</time>
      </trkpt>
      <trkpt lat="43.91137" lon="7.32965">
        <ele>1098</ele>
        <time>2013-12-07T11:57:21Z</time>
      </trkpt>
      <trkpt lat="43.91142" lon="7.32957">
        <ele>1097.8</ele>
        <time>2013-12-07T11:57:25Z</time>
      </trkpt>
      <trkpt lat="43.91146" lon="7.32949">
        <ele>1098.5</ele>
        <time>2013-12-07T11:57:29Z</time>
      </trkpt>
      <trkpt lat="43.91152" lon="7.32942">
        <ele>1098.3</ele>
        <time>2013-12-07T11:57:33Z</time>
      </trkpt>
      <trkpt lat="43.91157" lon="7.32934">
        <ele>1098.8</ele>
        <time>2013-12-07T11:57:37Z</time>
      </trkpt>
      <trkpt lat="43.91161" lon="7.32925">
        <ele>1099.4</ele>
        <time>2013-12-07T11:57:41Z</time>
      </trkpt>
      <trkpt lat="43.91168" lon="7.32917">
        <ele>1099.6</ele>
        <time>2013-12-07T11:57:45Z</time>
      </trkpt>
      <trkpt lat="43.91174" lon="7.3291">
        <ele>1100.1</ele>
        <time>2013-12-07T11:57:49Z</time>
      </trkpt>
      <trkpt lat="43.91181" lon="7.32904">
        <ele>1100.2</ele>
        <time>2013-12-07T11:57:53Z</time>
      </trkpt>
      <trkpt lat="43.91188" lon="7.32898">
        <ele>1101</ele>
        <time>2013-12-07T11:57:59Z</time>
      </trkpt>
      <trkpt lat="43.91196" lon="7.32893">
        <ele>1101.2</ele>
        <time>2013-12-07T11:58:04Z</time>
      </trkpt>
      <trkpt lat="43.91204" lon="7.32889">
        <ele>1101</ele>
        <time>2013-12-07T11:58:08Z</time>
      </trkpt>
      <trkpt lat="43.91211" lon="7.32887">
        <ele>1101.1</ele>
        <time>2013-12-07T11:58:11Z</time>
      </trkpt>
      <trkpt lat="43.91213" lon="7.32886">
        <ele>1101.1</ele>
        <time>2013-12-07T11:58:12Z</time>
      </trkpt>
      <trkpt lat="43.91227" lon="7.32879">
        <ele>1100.8</ele>
        <time>2013-12-07T11:58:17Z</time>
      </trkpt>
      <trkpt lat="43.91232" lon="7.32874">
        <ele>1100.9</ele>
        <time>2013-12-07T11:58:19Z</time>
      </trkpt>
      <trkpt lat="43.91237" lon="7.32868">
        <ele>1100.3</ele>
        <time>2013-12-07T11:58:21Z</time>
      </trkpt>
      <trkpt lat="43.91242" lon="7.32862">
        <ele>1099.3</ele>
        <time>2013-12-07T11:58:23Z</time>
      </trkpt>
      <trkpt lat="43.91247" lon="7.32856">
        <ele>1099.1</ele>
        <time>2013-12-07T11:58:25Z</time>
      </trkpt>
      <trkpt lat="43.91251" lon="7.32847">
        <ele>1099.1</ele>
        <time>2013-12-07T11:58:27Z</time>
      </trkpt>
      <trkpt lat="43.91257" lon="7.3284">
        <ele>1099</ele>
        <time>2013-12-07T11:58:29Z</time>
      </trkpt>
      <trkpt lat="43.91264" lon="7.32835">
        <ele>1098.9</ele>
        <time>2013-12-07T11:58:31Z</time>
      </trkpt>
      <trkpt lat="43.91271" lon="7.3283">
        <ele>1098.3</ele>
        <time>2013-12-07T11:58:33Z</time>
      </trkpt>
      <trkpt lat="43.91279" lon="7.32825">
        <ele>1097.8</ele>
        <time>2013-12-07T11:58:35Z</time>
      </trkpt>
      <trkpt lat="43.91283" lon="7.32823">
        <ele>1097.6</ele>
        <time>2013-12-07T11:58:36Z</time>
      </trkpt>
      <trkpt lat="43.91288" lon="7.3282">
        <ele>1097.1</ele>
        <time>2013-12-07T11:58:37Z</time>
      </trkpt>
      <trkpt lat="43.91296" lon="7.32814">
        <ele>1096.1</ele>
        <time>2013-12-07T11:58:39Z</time>
      </trkpt>
      <trkpt lat="43.91302" lon="7.32809">
        <ele>1095.7</ele>
        <time>2013-12-07T11:58:41Z</time>
      </trkpt>
      <trkpt lat="43.91307" lon="7.32804">
        <ele>1096</ele>
        <time>2013-12-07T11:58:43Z</time>
      </trkpt>
      <trkpt lat="43.91312" lon="7.32798">
        <ele>1096.2</ele>
        <time>2013-12-07T11:58:45Z</time>
      </trkpt>
      <trkpt lat="43.91317" lon="7.32793">
        <ele>1096.1</ele>
        <time>2013-12-07T11:58:47Z</time>
      </trkpt>
      <trkpt lat="43.91322" lon="7.32789">
        <ele>1096</ele>
        <time>2013-12-07T11:58:49Z</time>
      </trkpt>
      <trkpt lat="43.91327" lon="7.32784">
        <ele>1095.8</ele>
        <time>2013-12-07T11:58:51Z</time>
      </trkpt>
      <trkpt lat="43.91335" lon="7.32777">
        <ele>1096.2</ele>
        <time>2013-12-07T11:58:54Z</time>
      </trkpt>
      <trkpt lat="43.91343" lon="7.32771">
        <ele>1096.8</ele>
        <time>2013-12-07T11:58:57Z</time>
      </trkpt>
      <trkpt lat="43.91348" lon="7.32767">
        <ele>1097.7</ele>
        <time>2013-12-07T11:58:59Z</time>
      </trkpt>
      <trkpt lat="43.91354" lon="7.32763">
        <ele>1096.9</ele>
        <time>2013-12-07T11:59:01Z</time>
      </trkpt>
      <trkpt lat="43.91361" lon="7.32758">
        <ele>1096.9</ele>
        <time>2013-12-07T11:59:04Z</time>
      </trkpt>
      <trkpt lat="43.91369" lon="7.32754">
        <ele>1098.2</ele>
        <time>2013-12-07T11:59:07Z</time>
      </trkpt>
      <trkpt lat="43.91376" lon="7.32748">
        <ele>1099.5</ele>
        <time>2013-12-07T11:59:10Z</time>
      </trkpt>
      <trkpt lat="43.91383" lon="7.32744">
        <ele>1100</ele>
        <time>2013-12-07T11:59:13Z</time>
      </trkpt>
      <trkpt lat="43.91385" lon="7.32743">
        <ele>1100.1</ele>
        <time>2013-12-07T11:59:14Z</time>
      </trkpt>
      <trkpt lat="43.91396" lon="7.32736">
        <ele>1100.8</ele>
        <time>2013-12-07T11:59:19Z</time>
      </trkpt>
      <trkpt lat="43.91404" lon="7.32731">
        <ele>1100.8</ele>
        <time>2013-12-07T11:59:23Z</time>
      </trkpt>
      <trkpt lat="43.91413" lon="7.32727">
        <ele>1102.4</ele>
        <time>2013-12-07T11:59:27Z</time>
      </trkpt>
      <trkpt lat="43.91419" lon="7.32724">
        <ele>1102.5</ele>
        <time>2013-12-07T11:59:30Z</time>
      </trkpt>
      <trkpt lat="43.91427" lon="7.3272">
        <ele>1103.8</ele>
        <time>2013-12-07T11:59:34Z</time>
      </trkpt>
      <trkpt lat="43.91434" lon="7.32717">
        <ele>1104.6</ele>
        <time>2013-12-07T11:59:37Z</time>
      </trkpt>
      <trkpt lat="43.91441" lon="7.32713">
        <ele>1105.4</ele>
        <time>2013-12-07T11:59:40Z</time>
      </trkpt>
      <trkpt lat="43.91447" lon="7.32709">
        <ele>1105.2</ele>
        <time>2013-12-07T11:59:43Z</time>
      </trkpt>
      <trkpt lat="43.91454" lon="7.32704">
        <ele>1104.7</ele>
        <time>2013-12-07T11:59:46Z</time>
      </trkpt>
      <trkpt lat="43.9146" lon="7.32697">
        <ele>1104.8</ele>
        <time>2013-12-07T11:59:49Z</time>
      </trkpt>
      <trkpt lat="43.91463" lon="7.32687">
        <ele>1105.6</ele>
        <time>2013-12-07T11:59:52Z</time>
      </trkpt>
      <trkpt lat="43.91463" lon="7.32675">
        <ele>1106.2</ele>
        <time>2013-12-07T11:59:55Z</time>
      </trkpt>
      <trkpt lat="43.91463" lon="7.32664">
        <ele>1106.4</ele>
        <time>2013-12-07T11:59:58Z</time>
      </trkpt>
      <trkpt lat="43.91463" lon="7.32654">
        <ele>1107.1</ele>
        <time>2013-12-07T12:00:01Z</time>
      </trkpt>
      <trkpt lat="43.91464" lon="7.32644">
        <ele>1107.1</ele>
        <time>2013-12-07T12:00:04Z</time>
      </trkpt>
      <trkpt lat="43.91464" lon="7.32634">
        <ele>1107</ele>
        <time>2013-12-07T12:00:07Z</time>
      </trkpt>
      <trkpt lat="43.91464" lon="7.32623">
        <ele>1106.9</ele>
        <time>2013-12-07T12:00:10Z</time>
      </trkpt>
      <trkpt lat="43.91464" lon="7.32612">
        <ele>1106.8</ele>
        <time>2013-12-07T12:00:13Z</time>
      </trkpt>
      <trkpt lat="43.91462" lon="7.32602">
        <ele>1107.2</ele>
        <time>2013-12-07T12:00:16Z</time>
      </trkpt>
      <trkpt lat="43.91461" lon="7.32599">
        <ele>1107.5</ele>
        <time>2013-12-07T12:00:17Z</time>
      </trkpt>
      <trkpt lat="43.9146" lon="7.32581">
        <ele>1108.3</ele>
        <time>2013-12-07T12:00:22Z</time>
      </trkpt>
      <trkpt lat="43.91459" lon="7.3257">
        <ele>1109.5</ele>
        <time>2013-12-07T12:00:25Z</time>
      </trkpt>
      <trkpt lat="43.91459" lon="7.32559">
        <ele>1110.1</ele>
        <time>2013-12-07T12:00:28Z</time>
      </trkpt>
      <trkpt lat="43.91458" lon="7.32548">
        <ele>1110.8</ele>
        <time>2013-12-07T12:00:31Z</time>
      </trkpt>
      <trkpt lat="43.91455" lon="7.32536">
        <ele>1110.6</ele>
        <time>2013-12-07T12:00:34Z</time>
      </trkpt>
      <trkpt lat="43.91449" lon="7.32528">
        <ele>1110.2</ele>
        <time>2013-12-07T12:00:37Z</time>
      </trkpt>
      <trkpt lat="43.91443" lon="7.3252">
        <ele>1110.3</ele>
        <time>2013-12-07T12:00:40Z</time>
      </trkpt>
      <trkpt lat="43.91441" lon="7.3251">
        <ele>1110.1</ele>
        <time>2013-12-07T12:00:42Z</time>
      </trkpt>
      <trkpt lat="43.91443" lon="7.32499">
        <ele>1109.8</ele>
        <time>2013-12-07T12:00:44Z</time>
      </trkpt>
      <trkpt lat="43.91445" lon="7.32493">
        <ele>1109.5</ele>
        <time>2013-12-07T12:00:45Z</time>
      </trkpt>
      <trkpt lat="43.91446" lon="7.32486">
        <ele>1109.2</ele>
        <time>2013-12-07T12:00:46Z</time>
      </trkpt>
      <trkpt lat="43.91443" lon="7.32474">
        <ele>1108</ele>
        <time>2013-12-07T12:00:48Z</time>
      </trkpt>
      <trkpt lat="43.91439" lon="7.3247">
        <ele>1107.6</ele>
        <time>2013-12-07T12:00:49Z</time>
      </trkpt>
      <trkpt lat="43.91434" lon="7.3246">
        <ele>1106.4</ele>
        <time>2013-12-07T12:00:51Z</time>
      </trkpt>
      <trkpt lat="43.91435" lon="7.32449">
        <ele>1105.4</ele>
        <time>2013-12-07T12:00:53Z</time>
      </trkpt>
      <trkpt lat="43.91436" lon="7.32443">
        <ele>1105</ele>
        <time>2013-12-07T12:00:54Z</time>
      </trkpt>
      <trkpt lat="43.91438" lon="7.32437">
        <ele>1104.7</ele>
        <time>2013-12-07T12:00:55Z</time>
      </trkpt>
      <trkpt lat="43.91439" lon="7.3243">
        <ele>1104.4</ele>
        <time>2013-12-07T12:00:56Z</time>
      </trkpt>
      <trkpt lat="43.91439" lon="7.32422">
        <ele>1104.1</ele>
        <time>2013-12-07T12:00:57Z</time>
      </trkpt>
      <trkpt lat="43.91438" lon="7.32414">
        <ele>1103.9</ele>
        <time>2013-12-07T12:00:58Z</time>
      </trkpt>
      <trkpt lat="43.91438" lon="7.32405">
        <ele>1103.2</ele>
        <time>2013-12-07T12:00:59Z</time>
      </trkpt>
      <trkpt lat="43.91437" lon="7.32398">
        <ele>1102.7</ele>
        <time>2013-12-07T12:01:00Z</time>
      </trkpt>
      <trkpt lat="43.91437" lon="7.3239">
        <ele>1102.4</ele>
        <time>2013-12-07T12:01:01Z</time>
      </trkpt>
      <trkpt lat="43.91438" lon="7.32384">
        <ele>1102.2</ele>
        <time>2013-12-07T12:01:02Z</time>
      </trkpt>
      <trkpt lat="43.91438" lon="7.32377">
        <ele>1102.1</ele>
        <time>2013-12-07T12:01:03Z</time>
      </trkpt>
      <trkpt lat="43.91438" lon="7.32365">
        <ele>1101.8</ele>
        <time>2013-12-07T12:01:05Z</time>
      </trkpt>
      <trkpt lat="43.91439" lon="7.32353">
        <ele>1102.1</ele>
        <time>2013-12-07T12:01:08Z</time>
      </trkpt>
      <trkpt lat="43.9144" lon="7.32342">
        <ele>1102.7</ele>
        <time>2013-12-07T12:01:11Z</time>
      </trkpt>
      <trkpt lat="43.9144" lon="7.32332">
        <ele>1104.1</ele>
        <time>2013-12-07T12:01:14Z</time>
      </trkpt>
      <trkpt lat="43.9144" lon="7.3232">
        <ele>1104.7</ele>
        <time>2013-12-07T12:01:18Z</time>
      </trkpt>
      <trkpt lat="43.91441" lon="7.32318">
        <ele>1104.7</ele>
        <time>2013-12-07T12:01:19Z</time>
      </trkpt>
      <trkpt lat="43.91447" lon="7.32311">
        <ele>1103.5</ele>
        <time>2013-12-07T12:03:26Z</time>
      </trkpt>
      <trkpt lat="43.91455" lon="7.32307">
        <ele>1106.2</ele>
        <time>2013-12-07T12:12:26Z</time>
      </trkpt>
      <trkpt lat="43.91465" lon="7.32301">
        <ele>1108.2</ele>
        <time>2013-12-07T12:17:13Z</time>
      </trkpt>
      <trkpt lat="43.91475" lon="7.32287">
        <ele>1104.9</ele>
        <time>2013-12-07T12:17:18Z</time>
      </trkpt>
      <trkpt lat="43.91481" lon="7.3228">
        <ele>1103.7</ele>
        <time>2013-12-07T12:17:21Z</time>
      </trkpt>
      <trkpt lat="43.91487" lon="7.32274">
        <ele>1103</ele>
        <time>2013-12-07T12:17:23Z</time>
      </trkpt>
      <trkpt lat="43.91493" lon="7.32269">
        <ele>1101.2</ele>
        <time>2013-12-07T12:17:25Z</time>
      </trkpt>
      <trkpt lat="43.91498" lon="7.32263">
        <ele>1099.2</ele>
        <time>2013-12-07T12:17:27Z</time>
      </trkpt>
      <trkpt lat="43.91503" lon="7.32255">
        <ele>1097.5</ele>
        <time>2013-12-07T12:17:30Z</time>
      </trkpt>
      <trkpt lat="43.91509" lon="7.32248">
        <ele>1096.7</ele>
        <time>2013-12-07T12:17:33Z</time>
      </trkpt>
      <trkpt lat="43.91515" lon="7.32239">
        <ele>1095.2</ele>
        <time>2013-12-07T12:17:38Z</time>
      </trkpt>
      <trkpt lat="43.9152" lon="7.32229">
        <ele>1093.7</ele>
        <time>2013-12-07T12:17:44Z</time>
      </trkpt>
      <trkpt lat="43.91525" lon="7.32222">
        <ele>1093.1</ele>
        <time>2013-12-07T12:17:46Z</time>
      </trkpt>
      <trkpt lat="43.91528" lon="7.32215">
        <ele>1092.4</ele>
        <time>2013-12-07T12:17:48Z</time>
      </trkpt>
      <trkpt lat="43.91532" lon="7.32206">
        <ele>1091.8</ele>
        <time>2013-12-07T12:17:50Z</time>
      </trkpt>
      <trkpt lat="43.91535" lon="7.32199">
        <ele>1090.7</ele>
        <time>2013-12-07T12:17:52Z</time>
      </trkpt>
      <trkpt lat="43.91539" lon="7.32191">
        <ele>1089.7</ele>
        <time>2013-12-07T12:17:54Z</time>
      </trkpt>
      <trkpt lat="43.91542" lon="7.32183">
        <ele>1089.1</ele>
        <time>2013-12-07T12:17:56Z</time>
      </trkpt>
      <trkpt lat="43.91545" lon="7.32172">
        <ele>1087.8</ele>
        <time>2013-12-07T12:17:59Z</time>
      </trkpt>
      <trkpt lat="43.91549" lon="7.32165">
        <ele>1087.3</ele>
        <time>2013-12-07T12:18:02Z</time>
      </trkpt>
      <trkpt lat="43.91555" lon="7.32157">
        <ele>1087.6</ele>
        <time>2013-12-07T12:18:10Z</time>
      </trkpt>
      <trkpt lat="43.91563" lon="7.3215">
        <ele>1088.3</ele>
        <time>2013-12-07T12:18:24Z</time>
      </trkpt>
      <trkpt lat="43.91563" lon="7.3215">
        <ele>1088.4</ele>
        <time>2013-12-07T12:18:25Z</time>
      </trkpt>
      <trkpt lat="43.91577" lon="7.32146">
        <ele>1087.3</ele>
        <time>2013-12-07T12:18:52Z</time>
      </trkpt>
      <trkpt lat="43.91585" lon="7.32142">
        <ele>1086.6</ele>
        <time>2013-12-07T12:18:55Z</time>
      </trkpt>
      <trkpt lat="43.91591" lon="7.32137">
        <ele>1086.5</ele>
        <time>2013-12-07T12:18:58Z</time>
      </trkpt>
      <trkpt lat="43.91597" lon="7.32133">
        <ele>1086.2</ele>
        <time>2013-12-07T12:19:00Z</time>
      </trkpt>
      <trkpt lat="43.91603" lon="7.32128">
        <ele>1084.9</ele>
        <time>2013-12-07T12:19:02Z</time>
      </trkpt>
      <trkpt lat="43.9161" lon="7.32122">
        <ele>1083.8</ele>
        <time>2013-12-07T12:19:04Z</time>
      </trkpt>
      <trkpt lat="43.91617" lon="7.32115">
        <ele>1082.9</ele>
        <time>2013-12-07T12:19:06Z</time>
      </trkpt>
      <trkpt lat="43.91621" lon="7.32111">
        <ele>1082.6</ele>
        <time>2013-12-07T12:19:07Z</time>
      </trkpt>
      <trkpt lat="43.91628" lon="7.32103">
        <ele>1082.2</ele>
        <time>2013-12-07T12:19:09Z</time>
      </trkpt>
      <trkpt lat="43.91635" lon="7.32098">
        <ele>1081.7</ele>
        <time>2013-12-07T12:19:11Z</time>
      </trkpt>
      <trkpt lat="43.91639" lon="7.32095">
        <ele>1081.4</ele>
        <time>2013-12-07T12:19:12Z</time>
      </trkpt>
      <trkpt lat="43.91644" lon="7.32093">
        <ele>1080.7</ele>
        <time>2013-12-07T12:19:13Z</time>
      </trkpt>
      <trkpt lat="43.91648" lon="7.32091">
        <ele>1080.2</ele>
        <time>2013-12-07T12:19:14Z</time>
      </trkpt>
      <trkpt lat="43.91652" lon="7.32087">
        <ele>1079.6</ele>
        <time>2013-12-07T12:19:15Z</time>
      </trkpt>
      <trkpt lat="43.91655" lon="7.32083">
        <ele>1079.2</ele>
        <time>2013-12-07T12:19:16Z</time>
      </trkpt>
      <trkpt lat="43.91663" lon="7.32077">
        <ele>1078.2</ele>
        <time>2013-12-07T12:19:18Z</time>
      </trkpt>
      <trkpt lat="43.9167" lon="7.32071">
        <ele>1076.5</ele>
        <time>2013-12-07T12:19:21Z</time>
      </trkpt>
      <trkpt lat="43.91674" lon="7.32065">
        <ele>1075.1</ele>
        <time>2013-12-07T12:19:23Z</time>
      </trkpt>
      <trkpt lat="43.91678" lon="7.32058">
        <ele>1074.5</ele>
        <time>2013-12-07T12:19:25Z</time>
      </trkpt>
      <trkpt lat="43.91682" lon="7.32056">
        <ele>1074.4</ele>
        <time>2013-12-07T12:19:26Z</time>
      </trkpt>
      <trkpt lat="43.91691" lon="7.32053">
        <ele>1074.2</ele>
        <time>2013-12-07T12:19:29Z</time>
      </trkpt>
      <trkpt lat="43.91698" lon="7.32049">
        <ele>1074.1</ele>
        <time>2013-12-07T12:19:31Z</time>
      </trkpt>
      <trkpt lat="43.91704" lon="7.32044">
        <ele>1073.1</ele>
        <time>2013-12-07T12:19:33Z</time>
      </trkpt>
      <trkpt lat="43.91712" lon="7.32043">
        <ele>1071.6</ele>
        <time>2013-12-07T12:19:35Z</time>
      </trkpt>
      <trkpt lat="43.91719" lon="7.32039">
        <ele>1070.3</ele>
        <time>2013-12-07T12:19:37Z</time>
      </trkpt>
      <trkpt lat="43.91726" lon="7.32036">
        <ele>1068.7</ele>
        <time>2013-12-07T12:19:40Z</time>
      </trkpt>
      <trkpt lat="43.91731" lon="7.3204">
        <ele>1068.2</ele>
        <time>2013-12-07T12:19:42Z</time>
      </trkpt>
      <trkpt lat="43.91737" lon="7.32041">
        <ele>1067.5</ele>
        <time>2013-12-07T12:19:44Z</time>
      </trkpt>
      <trkpt lat="43.91743" lon="7.32044">
        <ele>1066.2</ele>
        <time>2013-12-07T12:19:46Z</time>
      </trkpt>
      <trkpt lat="43.9175" lon="7.32044">
        <ele>1065</ele>
        <time>2013-12-07T12:19:48Z</time>
      </trkpt>
      <trkpt lat="43.91759" lon="7.32041">
        <ele>1063.7</ele>
        <time>2013-12-07T12:19:50Z</time>
      </trkpt>
      <trkpt lat="43.91763" lon="7.3204">
        <ele>1063.2</ele>
        <time>2013-12-07T12:19:51Z</time>
      </trkpt>
      <trkpt lat="43.91771" lon="7.32036">
        <ele>1062.4</ele>
        <time>2013-12-07T12:19:53Z</time>
      </trkpt>
      <trkpt lat="43.9178" lon="7.32033">
        <ele>1061.8</ele>
        <time>2013-12-07T12:19:55Z</time>
      </trkpt>
      <trkpt lat="43.91785" lon="7.32033">
        <ele>1061</ele>
        <time>2013-12-07T12:19:56Z</time>
      </trkpt>
      <trkpt lat="43.9179" lon="7.32032">
        <ele>1060.4</ele>
        <time>2013-12-07T12:19:57Z</time>
      </trkpt>
      <trkpt lat="43.91794" lon="7.3203">
        <ele>1059.1</ele>
        <time>2013-12-07T12:19:58Z</time>
      </trkpt>
      <trkpt lat="43.91799" lon="7.32027">
        <ele>1058</ele>
        <time>2013-12-07T12:19:59Z</time>
      </trkpt>
      <trkpt lat="43.91808" lon="7.32023">
        <ele>1055.3</ele>
        <time>2013-12-07T12:20:01Z</time>
      </trkpt>
      <trkpt lat="43.91815" lon="7.3202">
        <ele>1053.5</ele>
        <time>2013-12-07T12:20:03Z</time>
      </trkpt>
      <trkpt lat="43.91821" lon="7.32014">
        <ele>1051.6</ele>
        <time>2013-12-07T12:20:06Z</time>
      </trkpt>
      <trkpt lat="43.91828" lon="7.32007">
        <ele>1049.2</ele>
        <time>2013-12-07T12:20:23Z</time>
      </trkpt>
      <trkpt lat="43.91833" lon="7.31999">
        <ele>1049.8</ele>
        <time>2013-12-07T12:20:27Z</time>
      </trkpt>
      <trkpt lat="43.91834" lon="7.31996">
        <ele>1049.9</ele>
        <time>2013-12-07T12:20:28Z</time>
      </trkpt>
      <trkpt lat="43.91847" lon="7.31999">
        <ele>1047.5</ele>
        <time>2013-12-07T12:20:49Z</time>
      </trkpt>
      <trkpt lat="43.91852" lon="7.31991">
        <ele>1046.2</ele>
        <time>2013-12-07T12:20:53Z</time>
      </trkpt>
      <trkpt lat="43.91857" lon="7.31984">
        <ele>1045.7</ele>
        <time>2013-12-07T12:20:56Z</time>
      </trkpt>
      <trkpt lat="43.91863" lon="7.31977">
        <ele>1045.5</ele>
        <time>2013-12-07T12:21:00Z</time>
      </trkpt>
      <trkpt lat="43.91871" lon="7.3197">
        <ele>1046.2</ele>
        <time>2013-12-07T12:21:10Z</time>
      </trkpt>
      <trkpt lat="43.91878" lon="7.31968">
        <ele>1045.1</ele>
        <time>2013-12-07T12:21:15Z</time>
      </trkpt>
      <trkpt lat="43.91887" lon="7.31966">
        <ele>1043.1</ele>
        <time>2013-12-07T12:21:21Z</time>
      </trkpt>
      <trkpt lat="43.91895" lon="7.31963">
        <ele>1041.1</ele>
        <time>2013-12-07T12:21:30Z</time>
      </trkpt>
      <trkpt lat="43.91897" lon="7.31962">
        <ele>1040.5</ele>
        <time>2013-12-07T12:21:31Z</time>
      </trkpt>
      <trkpt lat="43.91909" lon="7.31958">
        <ele>1037</ele>
        <time>2013-12-07T12:21:37Z</time>
      </trkpt>
      <trkpt lat="43.91916" lon="7.31956">
        <ele>1034.7</ele>
        <time>2013-12-07T12:21:49Z</time>
      </trkpt>
      <trkpt lat="43.91923" lon="7.31952">
        <ele>1034.2</ele>
        <time>2013-12-07T12:21:52Z</time>
      </trkpt>
      <trkpt lat="43.91928" lon="7.31944">
        <ele>1033.6</ele>
        <time>2013-12-07T12:21:55Z</time>
      </trkpt>
      <trkpt lat="43.91927" lon="7.31956">
        <ele>1031.9</ele>
        <time>2013-12-07T12:22:23Z</time>
      </trkpt>
      <trkpt lat="43.91926" lon="7.31968">
        <ele>1029.3</ele>
        <time>2013-12-07T12:22:39Z</time>
      </trkpt>
      <trkpt lat="43.91925" lon="7.31969">
        <ele>1029.5</ele>
        <time>2013-12-07T12:22:40Z</time>
      </trkpt>
      <trkpt lat="43.91927" lon="7.3199">
        <ele>1025.2</ele>
        <time>2013-12-07T12:23:04Z</time>
      </trkpt>
      <trkpt lat="43.91934" lon="7.31998">
        <ele>1022.4</ele>
        <time>2013-12-07T12:24:16Z</time>
      </trkpt>
      <trkpt lat="43.91936" lon="7.31998">
        <ele>1022.1</ele>
        <time>2013-12-07T12:24:17Z</time>
      </trkpt>
      <trkpt lat="43.91948" lon="7.31994">
        <ele>1020.3</ele>
        <time>2013-12-07T12:24:21Z</time>
      </trkpt>
      <trkpt lat="43.91954" lon="7.31992">
        <ele>1018.9</ele>
        <time>2013-12-07T12:24:23Z</time>
      </trkpt>
      <trkpt lat="43.91957" lon="7.3199">
        <ele>1018.3</ele>
        <time>2013-12-07T12:24:24Z</time>
      </trkpt>
      <trkpt lat="43.91962" lon="7.31986">
        <ele>1017.8</ele>
        <time>2013-12-07T12:24:25Z</time>
      </trkpt>
      <trkpt lat="43.91969" lon="7.3198">
        <ele>1015.9</ele>
        <time>2013-12-07T12:24:27Z</time>
      </trkpt>
      <trkpt lat="43.91976" lon="7.3198">
        <ele>1014.3</ele>
        <time>2013-12-07T12:24:29Z</time>
      </trkpt>
      <trkpt lat="43.91982" lon="7.31978">
        <ele>1012.4</ele>
        <time>2013-12-07T12:24:31Z</time>
      </trkpt>
      <trkpt lat="43.9199" lon="7.31973">
        <ele>1009.5</ele>
        <time>2013-12-07T12:24:37Z</time>
      </trkpt>
      <trkpt lat="43.91997" lon="7.31966">
        <ele>1008</ele>
        <time>2013-12-07T12:24:46Z</time>
      </trkpt>
      <trkpt lat="43.92004" lon="7.31961">
        <ele>1007.3</ele>
        <time>2013-12-07T12:24:52Z</time>
      </trkpt>
      <trkpt lat="43.92011" lon="7.31955">
        <ele>1006.4</ele>
        <time>2013-12-07T12:24:56Z</time>
      </trkpt>
      <trkpt lat="43.92018" lon="7.31948">
        <ele>1006.6</ele>
        <time>2013-12-07T12:25:00Z</time>
      </trkpt>
      <trkpt lat="43.92022" lon="7.31941">
        <ele>1006</ele>
        <time>2013-12-07T12:25:03Z</time>
      </trkpt>
      <trkpt lat="43.92027" lon="7.31934">
        <ele>1005.4</ele>
        <time>2013-12-07T12:25:05Z</time>
      </trkpt>
      <trkpt lat="43.92032" lon="7.31928">
        <ele>1004.6</ele>
        <time>2013-12-07T12:25:07Z</time>
      </trkpt>
      <trkpt lat="43.92038" lon="7.31925">
        <ele>1003.8</ele>
        <time>2013-12-07T12:25:09Z</time>
      </trkpt>
      <trkpt lat="43.92045" lon="7.31919">
        <ele>1002.8</ele>
        <time>2013-12-07T12:25:11Z</time>
      </trkpt>
      <trkpt lat="43.92049" lon="7.31911">
        <ele>1001.9</ele>
        <time>2013-12-07T12:25:13Z</time>
      </trkpt>
      <trkpt lat="43.92052" lon="7.31902">
        <ele>999.9</ele>
        <time>2013-12-07T12:25:15Z</time>
      </trkpt>
      <trkpt lat="43.92056" lon="7.31892">
        <ele>998.6</ele>
        <time>2013-12-07T12:25:17Z</time>
      </trkpt>
      <trkpt lat="43.92057" lon="7.31887">
        <ele>998.2</ele>
        <time>2013-12-07T12:25:18Z</time>
      </trkpt>
      <trkpt lat="43.92063" lon="7.3187">
        <ele>995.8</ele>
        <time>2013-12-07T12:25:21Z</time>
      </trkpt>
      <trkpt lat="43.92065" lon="7.31858">
        <ele>994.2</ele>
        <time>2013-12-07T12:25:23Z</time>
      </trkpt>
      <trkpt lat="43.92066" lon="7.31847">
        <ele>993.2</ele>
        <time>2013-12-07T12:25:25Z</time>
      </trkpt>
      <trkpt lat="43.92066" lon="7.31836">
        <ele>991.8</ele>
        <time>2013-12-07T12:25:27Z</time>
      </trkpt>
      <trkpt lat="43.92066" lon="7.31829">
        <ele>991</ele>
        <time>2013-12-07T12:25:28Z</time>
      </trkpt>
      <trkpt lat="43.92067" lon="7.31818">
        <ele>989.7</ele>
        <time>2013-12-07T12:25:30Z</time>
      </trkpt>
      <trkpt lat="43.92068" lon="7.31806">
        <ele>988.7</ele>
        <time>2013-12-07T12:25:32Z</time>
      </trkpt>
      <trkpt lat="43.92067" lon="7.31794">
        <ele>984.7</ele>
        <time>2013-12-07T12:25:41Z</time>
      </trkpt>
      <trkpt lat="43.92064" lon="7.31784">
        <ele>984.7</ele>
        <time>2013-12-07T12:25:54Z</time>
      </trkpt>
      <trkpt lat="43.92071" lon="7.31776">
        <ele>983.1</ele>
        <time>2013-12-07T12:26:07Z</time>
      </trkpt>
      <trkpt lat="43.92079" lon="7.31773">
        <ele>983.9</ele>
        <time>2013-12-07T12:26:17Z</time>
      </trkpt>
      <trkpt lat="43.92087" lon="7.31769">
        <ele>984.7</ele>
        <time>2013-12-07T12:26:25Z</time>
      </trkpt>
      <trkpt lat="43.92088" lon="7.31769">
        <ele>984.9</ele>
        <time>2013-12-07T12:26:26Z</time>
      </trkpt>
      <trkpt lat="43.92101" lon="7.31759">
        <ele>985.4</ele>
        <time>2013-12-07T12:26:43Z</time>
      </trkpt>
      <trkpt lat="43.92108" lon="7.31753">
        <ele>985.7</ele>
        <time>2013-12-07T12:26:47Z</time>
      </trkpt>
      <trkpt lat="43.92114" lon="7.31748">
        <ele>987</ele>
        <time>2013-12-07T12:26:52Z</time>
      </trkpt>
      <trkpt lat="43.92121" lon="7.31743">
        <ele>987.5</ele>
        <time>2013-12-07T12:26:57Z</time>
      </trkpt>
      <trkpt lat="43.92127" lon="7.31738">
        <ele>986.9</ele>
        <time>2013-12-07T12:27:00Z</time>
      </trkpt>
      <trkpt lat="43.92134" lon="7.31734">
        <ele>987.4</ele>
        <time>2013-12-07T12:27:03Z</time>
      </trkpt>
      <trkpt lat="43.92141" lon="7.31731">
        <ele>988.2</ele>
        <time>2013-12-07T12:27:06Z</time>
      </trkpt>
      <trkpt lat="43.92149" lon="7.31728">
        <ele>987.8</ele>
        <time>2013-12-07T12:27:09Z</time>
      </trkpt>
      <trkpt lat="43.92156" lon="7.3172">
        <ele>987.6</ele>
        <time>2013-12-07T12:27:19Z</time>
      </trkpt>
      <trkpt lat="43.9216" lon="7.3171">
        <ele>989</ele>
        <time>2013-12-07T12:27:29Z</time>
      </trkpt>
      <trkpt lat="43.92161" lon="7.31709">
        <ele>989.1</ele>
        <time>2013-12-07T12:27:30Z</time>
      </trkpt>
      <trkpt lat="43.92169" lon="7.31691">
        <ele>988.8</ele>
        <time>2013-12-07T12:27:37Z</time>
      </trkpt>
      <trkpt lat="43.9217" lon="7.3168">
        <ele>988.8</ele>
        <time>2013-12-07T12:27:45Z</time>
      </trkpt>
      <trkpt lat="43.92171" lon="7.3167">
        <ele>988.7</ele>
        <time>2013-12-07T12:27:48Z</time>
      </trkpt>
      <trkpt lat="43.92172" lon="7.3166">
        <ele>988.6</ele>
        <time>2013-12-07T12:27:51Z</time>
      </trkpt>
      <trkpt lat="43.92174" lon="7.31649">
        <ele>988</ele>
        <time>2013-12-07T12:27:55Z</time>
      </trkpt>
      <trkpt lat="43.92176" lon="7.31639">
        <ele>987.9</ele>
        <time>2013-12-07T12:27:59Z</time>
      </trkpt>
      <trkpt lat="43.92179" lon="7.31627">
        <ele>987.6</ele>
        <time>2013-12-07T12:28:08Z</time>
      </trkpt>
      <trkpt lat="43.92181" lon="7.31616">
        <ele>986.8</ele>
        <time>2013-12-07T12:28:16Z</time>
      </trkpt>
      <trkpt lat="43.92183" lon="7.31604">
        <ele>986.9</ele>
        <time>2013-12-07T12:28:23Z</time>
      </trkpt>
      <trkpt lat="43.92183" lon="7.31592">
        <ele>987.1</ele>
        <time>2013-12-07T12:28:34Z</time>
      </trkpt>
      <trkpt lat="43.92183" lon="7.31591">
        <ele>987.2</ele>
        <time>2013-12-07T12:28:35Z</time>
      </trkpt>
      <trkpt lat="43.92185" lon="7.31571">
        <ele>986.1</ele>
        <time>2013-12-07T12:28:53Z</time>
      </trkpt>
      <trkpt lat="43.92187" lon="7.31559">
        <ele>985.5</ele>
        <time>2013-12-07T12:28:59Z</time>
      </trkpt>
      <trkpt lat="43.92194" lon="7.31552">
        <ele>986.8</ele>
        <time>2013-12-07T12:29:06Z</time>
      </trkpt>
      <trkpt lat="43.92199" lon="7.31544">
        <ele>988.5</ele>
        <time>2013-12-07T12:29:13Z</time>
      </trkpt>
      <trkpt lat="43.92204" lon="7.31535">
        <ele>989.5</ele>
        <time>2013-12-07T12:29:20Z</time>
      </trkpt>
      <trkpt lat="43.92208" lon="7.31525">
        <ele>990.4</ele>
        <time>2013-12-07T12:29:26Z</time>
      </trkpt>
      <trkpt lat="43.92212" lon="7.31515">
        <ele>991.2</ele>
        <time>2013-12-07T12:29:31Z</time>
      </trkpt>
      <trkpt lat="43.92215" lon="7.31506">
        <ele>990.6</ele>
        <time>2013-12-07T12:29:35Z</time>
      </trkpt>
      <trkpt lat="43.92216" lon="7.31503">
        <ele>990.7</ele>
        <time>2013-12-07T12:29:36Z</time>
      </trkpt>
      <trkpt lat="43.92218" lon="7.31482">
        <ele>990.8</ele>
        <time>2013-12-07T12:29:52Z</time>
      </trkpt>
      <trkpt lat="43.92222" lon="7.31471">
        <ele>991.6</ele>
        <time>2013-12-07T12:29:57Z</time>
      </trkpt>
      <trkpt lat="43.92225" lon="7.31459">
        <ele>990.5</ele>
        <time>2013-12-07T12:30:03Z</time>
      </trkpt>
      <trkpt lat="43.92228" lon="7.31448">
        <ele>991.1</ele>
        <time>2013-12-07T12:30:08Z</time>
      </trkpt>
      <trkpt lat="43.92229" lon="7.31436">
        <ele>991</ele>
        <time>2013-12-07T12:30:16Z</time>
      </trkpt>
      <trkpt lat="43.92229" lon="7.31424">
        <ele>990.6</ele>
        <time>2013-12-07T12:30:21Z</time>
      </trkpt>
      <trkpt lat="43.92232" lon="7.31412">
        <ele>991.7</ele>
        <time>2013-12-07T12:30:44Z</time>
      </trkpt>
      <trkpt lat="43.92232" lon="7.31411">
        <ele>991.7</ele>
        <time>2013-12-07T12:30:45Z</time>
      </trkpt>
      <trkpt lat="43.92234" lon="7.31389">
        <ele>991.5</ele>
        <time>2013-12-07T12:31:13Z</time>
      </trkpt>
      <trkpt lat="43.92235" lon="7.31377">
        <ele>991.6</ele>
        <time>2013-12-07T12:31:18Z</time>
      </trkpt>
      <trkpt lat="43.92236" lon="7.31367">
        <ele>991.3</ele>
        <time>2013-12-07T12:31:22Z</time>
      </trkpt>
      <trkpt lat="43.92235" lon="7.31357">
        <ele>992.2</ele>
        <time>2013-12-07T12:31:27Z</time>
      </trkpt>
      <trkpt lat="43.92235" lon="7.31346">
        <ele>993.6</ele>
        <time>2013-12-07T12:31:32Z</time>
      </trkpt>
      <trkpt lat="43.92235" lon="7.31336">
        <ele>993.6</ele>
        <time>2013-12-07T12:31:35Z</time>
      </trkpt>
      <trkpt lat="43.92233" lon="7.31325">
        <ele>992.5</ele>
        <time>2013-12-07T12:31:39Z</time>
      </trkpt>
      <trkpt lat="43.92234" lon="7.31313">
        <ele>990.6</ele>
        <time>2013-12-07T12:31:46Z</time>
      </trkpt>
      <trkpt lat="43.92235" lon="7.3131">
        <ele>990.5</ele>
        <time>2013-12-07T12:31:47Z</time>
      </trkpt>
      <trkpt lat="43.92239" lon="7.31297">
        <ele>989</ele>
        <time>2013-12-07T12:31:50Z</time>
      </trkpt>
      <trkpt lat="43.9224" lon="7.3129">
        <ele>988.5</ele>
        <time>2013-12-07T12:31:52Z</time>
      </trkpt>
      <trkpt lat="43.92242" lon="7.3128">
        <ele>988.3</ele>
        <time>2013-12-07T12:31:54Z</time>
      </trkpt>
      <trkpt lat="43.92243" lon="7.3127">
        <ele>987.7</ele>
        <time>2013-12-07T12:31:57Z</time>
      </trkpt>
      <trkpt lat="43.92243" lon="7.31258">
        <ele>987.4</ele>
        <time>2013-12-07T12:32:00Z</time>
      </trkpt>
      <trkpt lat="43.92242" lon="7.31249">
        <ele>986.9</ele>
        <time>2013-12-07T12:32:02Z</time>
      </trkpt>
      <trkpt lat="43.9224" lon="7.3124">
        <ele>986</ele>
        <time>2013-12-07T12:32:04Z</time>
      </trkpt>
      <trkpt lat="43.92239" lon="7.31228">
        <ele>985.2</ele>
        <time>2013-12-07T12:32:06Z</time>
      </trkpt>
      <trkpt lat="43.92236" lon="7.31216">
        <ele>984.4</ele>
        <time>2013-12-07T12:32:09Z</time>
      </trkpt>
      <trkpt lat="43.92234" lon="7.31208">
        <ele>984.1</ele>
        <time>2013-12-07T12:32:11Z</time>
      </trkpt>
      <trkpt lat="43.92233" lon="7.31199">
        <ele>983.8</ele>
        <time>2013-12-07T12:32:13Z</time>
      </trkpt>
      <trkpt lat="43.92231" lon="7.31188">
        <ele>982.6</ele>
        <time>2013-12-07T12:32:16Z</time>
      </trkpt>
      <trkpt lat="43.92229" lon="7.31178">
        <ele>981.9</ele>
        <time>2013-12-07T12:32:18Z</time>
      </trkpt>
      <trkpt lat="43.9223" lon="7.3117">
        <ele>981.1</ele>
        <time>2013-12-07T12:32:20Z</time>
      </trkpt>
      <trkpt lat="43.92232" lon="7.31162">
        <ele>980.4</ele>
        <time>2013-12-07T12:32:22Z</time>
      </trkpt>
      <trkpt lat="43.92237" lon="7.31155">
        <ele>979.8</ele>
        <time>2013-12-07T12:32:24Z</time>
      </trkpt>
      <trkpt lat="43.92242" lon="7.31146">
        <ele>978.7</ele>
        <time>2013-12-07T12:32:26Z</time>
      </trkpt>
      <trkpt lat="43.92246" lon="7.31137">
        <ele>977.7</ele>
        <time>2013-12-07T12:32:28Z</time>
      </trkpt>
      <trkpt lat="43.92249" lon="7.31128">
        <ele>976.7</ele>
        <time>2013-12-07T12:32:30Z</time>
      </trkpt>
      <trkpt lat="43.9225" lon="7.31119">
        <ele>975.2</ele>
        <time>2013-12-07T12:32:33Z</time>
      </trkpt>
      <trkpt lat="43.92249" lon="7.31107">
        <ele>973.6</ele>
        <time>2013-12-07T12:32:36Z</time>
      </trkpt>
      <trkpt lat="43.92247" lon="7.31098">
        <ele>972.2</ele>
        <time>2013-12-07T12:32:38Z</time>
      </trkpt>
      <trkpt lat="43.92244" lon="7.31087">
        <ele>970.2</ele>
        <time>2013-12-07T12:32:41Z</time>
      </trkpt>
      <trkpt lat="43.92243" lon="7.31078">
        <ele>969.2</ele>
        <time>2013-12-07T12:32:44Z</time>
      </trkpt>
      <trkpt lat="43.92242" lon="7.31066">
        <ele>968</ele>
        <time>2013-12-07T12:32:47Z</time>
      </trkpt>
      <trkpt lat="43.92243" lon="7.31062">
        <ele>967.9</ele>
        <time>2013-12-07T12:32:48Z</time>
      </trkpt>
      <trkpt lat="43.92245" lon="7.31045">
        <ele>967.3</ele>
        <time>2013-12-07T12:32:53Z</time>
      </trkpt>
      <trkpt lat="43.92246" lon="7.31035">
        <ele>967.5</ele>
        <time>2013-12-07T12:32:56Z</time>
      </trkpt>
      <trkpt lat="43.92248" lon="7.31026">
        <ele>967.4</ele>
        <time>2013-12-07T12:32:58Z</time>
      </trkpt>
      <trkpt lat="43.92247" lon="7.31017">
        <ele>967.1</ele>
        <time>2013-12-07T12:33:00Z</time>
      </trkpt>
      <trkpt lat="43.92248" lon="7.31008">
        <ele>966.3</ele>
        <time>2013-12-07T12:33:02Z</time>
      </trkpt>
      <trkpt lat="43.92247" lon="7.30997">
        <ele>965.8</ele>
        <time>2013-12-07T12:33:05Z</time>
      </trkpt>
      <trkpt lat="43.92246" lon="7.30985">
        <ele>965.7</ele>
        <time>2013-12-07T12:33:09Z</time>
      </trkpt>
      <trkpt lat="43.92242" lon="7.30974">
        <ele>965.8</ele>
        <time>2013-12-07T12:33:13Z</time>
      </trkpt>
      <trkpt lat="43.92244" lon="7.30963">
        <ele>965.1</ele>
        <time>2013-12-07T12:33:18Z</time>
      </trkpt>
      <trkpt lat="43.9225" lon="7.30955">
        <ele>965</ele>
        <time>2013-12-07T12:33:22Z</time>
      </trkpt>
      <trkpt lat="43.92256" lon="7.30949">
        <ele>965.9</ele>
        <time>2013-12-07T12:33:27Z</time>
      </trkpt>
      <trkpt lat="43.92263" lon="7.30942">
        <ele>967.8</ele>
        <time>2013-12-07T12:33:33Z</time>
      </trkpt>
      <trkpt lat="43.92269" lon="7.30949">
        <ele>968.3</ele>
        <time>2013-12-07T12:33:42Z</time>
      </trkpt>
      <trkpt lat="43.92277" lon="7.30956">
        <ele>966.7</ele>
        <time>2013-12-07T12:33:47Z</time>
      </trkpt>
      <trkpt lat="43.92283" lon="7.30962">
        <ele>965.6</ele>
        <time>2013-12-07T12:33:52Z</time>
      </trkpt>
      <trkpt lat="43.92285" lon="7.30963">
        <ele>965.4</ele>
        <time>2013-12-07T12:33:53Z</time>
      </trkpt>
      <trkpt lat="43.923" lon="7.30969">
        <ele>966.7</ele>
        <time>2013-12-07T12:34:05Z</time>
      </trkpt>
      <trkpt lat="43.92307" lon="7.30973">
        <ele>967.5</ele>
        <time>2013-12-07T12:34:09Z</time>
      </trkpt>
      <trkpt lat="43.92315" lon="7.30976">
        <ele>967.3</ele>
        <time>2013-12-07T12:34:14Z</time>
      </trkpt>
      <trkpt lat="43.92323" lon="7.30977">
        <ele>967.6</ele>
        <time>2013-12-07T12:34:19Z</time>
      </trkpt>
      <trkpt lat="43.92332" lon="7.30975">
        <ele>968.4</ele>
        <time>2013-12-07T12:34:25Z</time>
      </trkpt>
      <trkpt lat="43.9234" lon="7.30977">
        <ele>970.1</ele>
        <time>2013-12-07T12:34:35Z</time>
      </trkpt>
      <trkpt lat="43.92347" lon="7.30982">
        <ele>969.6</ele>
        <time>2013-12-07T12:34:45Z</time>
      </trkpt>
      <trkpt lat="43.92355" lon="7.30988">
        <ele>969</ele>
        <time>2013-12-07T12:34:50Z</time>
      </trkpt>
      <trkpt lat="43.92361" lon="7.30993">
        <ele>968.6</ele>
        <time>2013-12-07T12:34:53Z</time>
      </trkpt>
      <trkpt lat="43.92362" lon="7.30995">
        <ele>968.4</ele>
        <time>2013-12-07T12:34:54Z</time>
      </trkpt>
      <trkpt lat="43.92375" lon="7.31003">
        <ele>965.2</ele>
        <time>2013-12-07T12:35:01Z</time>
      </trkpt>
      <trkpt lat="43.92382" lon="7.31008">
        <ele>962.2</ele>
        <time>2013-12-07T12:35:06Z</time>
      </trkpt>
      <trkpt lat="43.92388" lon="7.31017">
        <ele>959.8</ele>
        <time>2013-12-07T12:35:11Z</time>
      </trkpt>
      <trkpt lat="43.92394" lon="7.31023">
        <ele>957.2</ele>
        <time>2013-12-07T12:35:15Z</time>
      </trkpt>
      <trkpt lat="43.92402" lon="7.31028">
        <ele>954.6</ele>
        <time>2013-12-07T12:35:19Z</time>
      </trkpt>
      <trkpt lat="43.92411" lon="7.31031">
        <ele>951.9</ele>
        <time>2013-12-07T12:35:24Z</time>
      </trkpt>
      <trkpt lat="43.9242" lon="7.31032">
        <ele>947.9</ele>
        <time>2013-12-07T12:35:30Z</time>
      </trkpt>
      <trkpt lat="43.92427" lon="7.31032">
        <ele>945.6</ele>
        <time>2013-12-07T12:35:33Z</time>
      </trkpt>
      <trkpt lat="43.92433" lon="7.31032">
        <ele>943.7</ele>
        <time>2013-12-07T12:35:36Z</time>
      </trkpt>
      <trkpt lat="43.92441" lon="7.31035">
        <ele>941.4</ele>
        <time>2013-12-07T12:35:39Z</time>
      </trkpt>
      <trkpt lat="43.9245" lon="7.31037">
        <ele>938</ele>
        <time>2013-12-07T12:35:43Z</time>
      </trkpt>
      <trkpt lat="43.92457" lon="7.31038">
        <ele>935.5</ele>
        <time>2013-12-07T12:35:46Z</time>
      </trkpt>
      <trkpt lat="43.92465" lon="7.31036">
        <ele>932.6</ele>
        <time>2013-12-07T12:35:50Z</time>
      </trkpt>
      <trkpt lat="43.92473" lon="7.3104">
        <ele>930</ele>
        <time>2013-12-07T12:35:53Z</time>
      </trkpt>
      <trkpt lat="43.92481" lon="7.31043">
        <ele>927.3</ele>
        <time>2013-12-07T12:35:56Z</time>
      </trkpt>
      <trkpt lat="43.92483" lon="7.31044">
        <ele>926.4</ele>
        <time>2013-12-07T12:35:57Z</time>
      </trkpt>
      <trkpt lat="43.92494" lon="7.31039">
        <ele>923.6</ele>
        <time>2013-12-07T12:36:00Z</time>
      </trkpt>
      <trkpt lat="43.92502" lon="7.31037">
        <ele>922.2</ele>
        <time>2013-12-07T12:36:02Z</time>
      </trkpt>
      <trkpt lat="43.92509" lon="7.31037">
        <ele>920.9</ele>
        <time>2013-12-07T12:36:04Z</time>
      </trkpt>
      <trkpt lat="43.92517" lon="7.31035">
        <ele>919.4</ele>
        <time>2013-12-07T12:36:06Z</time>
      </trkpt>
      <trkpt lat="43.92523" lon="7.31035">
        <ele>918.1</ele>
        <time>2013-12-07T12:36:08Z</time>
      </trkpt>
      <trkpt lat="43.92531" lon="7.31034">
        <ele>916</ele>
        <time>2013-12-07T12:36:11Z</time>
      </trkpt>
      <trkpt lat="43.92537" lon="7.31034">
        <ele>915</ele>
        <time>2013-12-07T12:36:13Z</time>
      </trkpt>
      <trkpt lat="43.92544" lon="7.31034">
        <ele>914.5</ele>
        <time>2013-12-07T12:36:15Z</time>
      </trkpt>
      <trkpt lat="43.92551" lon="7.31034">
        <ele>912.6</ele>
        <time>2013-12-07T12:36:17Z</time>
      </trkpt>
      <trkpt lat="43.92559" lon="7.31036">
        <ele>909.1</ele>
        <time>2013-12-07T12:36:20Z</time>
      </trkpt>
      <trkpt lat="43.92567" lon="7.31034">
        <ele>905.7</ele>
        <time>2013-12-07T12:36:23Z</time>
      </trkpt>
      <trkpt lat="43.92575" lon="7.31031">
        <ele>903.5</ele>
        <time>2013-12-07T12:36:26Z</time>
      </trkpt>
      <trkpt lat="43.92583" lon="7.31028">
        <ele>901.7</ele>
        <time>2013-12-07T12:36:31Z</time>
      </trkpt>
      <trkpt lat="43.92591" lon="7.31025">
        <ele>900.9</ele>
        <time>2013-12-07T12:36:38Z</time>
      </trkpt>
      <trkpt lat="43.92599" lon="7.31023">
        <ele>900.8</ele>
        <time>2013-12-07T12:36:46Z</time>
      </trkpt>
      <trkpt lat="43.92607" lon="7.31022">
        <ele>900.5</ele>
        <time>2013-12-07T12:36:57Z</time>
      </trkpt>
      <trkpt lat="43.92608" lon="7.31022">
        <ele>900.5</ele>
        <time>2013-12-07T12:36:58Z</time>
      </trkpt>
      <trkpt lat="43.92622" lon="7.31017">
        <ele>900.3</ele>
        <time>2013-12-07T12:37:16Z</time>
      </trkpt>
      <trkpt lat="43.92629" lon="7.31014">
        <ele>899.6</ele>
        <time>2013-12-07T12:37:19Z</time>
      </trkpt>
      <trkpt lat="43.92637" lon="7.31012">
        <ele>898.4</ele>
        <time>2013-12-07T12:37:22Z</time>
      </trkpt>
      <trkpt lat="43.92646" lon="7.31014">
        <ele>895.1</ele>
        <time>2013-12-07T12:37:27Z</time>
      </trkpt>
      <trkpt lat="43.92654" lon="7.31015">
        <ele>891.6</ele>
        <time>2013-12-07T12:37:31Z</time>
      </trkpt>
      <trkpt lat="43.92659" lon="7.31018">
        <ele>888.9</ele>
        <time>2013-12-07T12:37:34Z</time>
      </trkpt>
      <trkpt lat="43.92666" lon="7.31018">
        <ele>887.2</ele>
        <time>2013-12-07T12:37:36Z</time>
      </trkpt>
      <trkpt lat="43.92672" lon="7.31017">
        <ele>885.6</ele>
        <time>2013-12-07T12:37:38Z</time>
      </trkpt>
      <trkpt lat="43.92678" lon="7.31014">
        <ele>884.6</ele>
        <time>2013-12-07T12:37:40Z</time>
      </trkpt>
      <trkpt lat="43.92685" lon="7.31014">
        <ele>883.1</ele>
        <time>2013-12-07T12:37:42Z</time>
      </trkpt>
      <trkpt lat="43.92692" lon="7.31015">
        <ele>882.7</ele>
        <time>2013-12-07T12:37:44Z</time>
      </trkpt>
      <trkpt lat="43.92697" lon="7.31015">
        <ele>882.8</ele>
        <time>2013-12-07T12:37:45Z</time>
      </trkpt>
      <trkpt lat="43.92701" lon="7.31014">
        <ele>882.2</ele>
        <time>2013-12-07T12:37:46Z</time>
      </trkpt>
      <trkpt lat="43.92706" lon="7.31013">
        <ele>881.8</ele>
        <time>2013-12-07T12:37:47Z</time>
      </trkpt>
      <trkpt lat="43.92711" lon="7.31013">
        <ele>880.9</ele>
        <time>2013-12-07T12:37:48Z</time>
      </trkpt>
      <trkpt lat="43.92716" lon="7.31014">
        <ele>880.3</ele>
        <time>2013-12-07T12:37:49Z</time>
      </trkpt>
      <trkpt lat="43.92724" lon="7.31016">
        <ele>879.2</ele>
        <time>2013-12-07T12:37:51Z</time>
      </trkpt>
      <trkpt lat="43.92728" lon="7.31019">
        <ele>878.7</ele>
        <time>2013-12-07T12:37:52Z</time>
      </trkpt>
      <trkpt lat="43.92732" lon="7.31022">
        <ele>877.7</ele>
        <time>2013-12-07T12:37:53Z</time>
      </trkpt>
      <trkpt lat="43.92741" lon="7.31022">
        <ele>876.3</ele>
        <time>2013-12-07T12:37:55Z</time>
      </trkpt>
      <trkpt lat="43.92749" lon="7.31023">
        <ele>875.7</ele>
        <time>2013-12-07T12:37:57Z</time>
      </trkpt>
      <trkpt lat="43.92758" lon="7.31023">
        <ele>874.9</ele>
        <time>2013-12-07T12:37:59Z</time>
      </trkpt>
      <trkpt lat="43.92763" lon="7.31023">
        <ele>874.4</ele>
        <time>2013-12-07T12:38:00Z</time>
      </trkpt>
      <trkpt lat="43.92768" lon="7.31024">
        <ele>874</ele>
        <time>2013-12-07T12:38:01Z</time>
      </trkpt>
      <trkpt lat="43.92772" lon="7.31026">
        <ele>873.7</ele>
        <time>2013-12-07T12:38:02Z</time>
      </trkpt>
      <trkpt lat="43.92778" lon="7.31025">
        <ele>872.6</ele>
        <time>2013-12-07T12:38:03Z</time>
      </trkpt>
      <trkpt lat="43.92784" lon="7.31025">
        <ele>871.8</ele>
        <time>2013-12-07T12:38:04Z</time>
      </trkpt>
      <trkpt lat="43.92789" lon="7.31025">
        <ele>871.7</ele>
        <time>2013-12-07T12:38:05Z</time>
      </trkpt>
      <trkpt lat="43.92795" lon="7.31024">
        <ele>871.6</ele>
        <time>2013-12-07T12:38:06Z</time>
      </trkpt>
      <trkpt lat="43.928" lon="7.31022">
        <ele>870.8</ele>
        <time>2013-12-07T12:38:07Z</time>
      </trkpt>
      <trkpt lat="43.92804" lon="7.31022">
        <ele>870.2</ele>
        <time>2013-12-07T12:38:08Z</time>
      </trkpt>
      <trkpt lat="43.92809" lon="7.31022">
        <ele>869.8</ele>
        <time>2013-12-07T12:38:09Z</time>
      </trkpt>
      <trkpt lat="43.92814" lon="7.31023">
        <ele>868.8</ele>
        <time>2013-12-07T12:38:10Z</time>
      </trkpt>
      <trkpt lat="43.92819" lon="7.31024">
        <ele>868.1</ele>
        <time>2013-12-07T12:38:11Z</time>
      </trkpt>
      <trkpt lat="43.92827" lon="7.31026">
        <ele>866.8</ele>
        <time>2013-12-07T12:38:13Z</time>
      </trkpt>
      <trkpt lat="43.92832" lon="7.31028">
        <ele>866.4</ele>
        <time>2013-12-07T12:38:14Z</time>
      </trkpt>
      <trkpt lat="43.92836" lon="7.3103">
        <ele>865.6</ele>
        <time>2013-12-07T12:38:15Z</time>
      </trkpt>
      <trkpt lat="43.92844" lon="7.31034">
        <ele>864.1</ele>
        <time>2013-12-07T12:38:17Z</time>
      </trkpt>
      <trkpt lat="43.92851" lon="7.31036">
        <ele>863.1</ele>
        <time>2013-12-07T12:38:19Z</time>
      </trkpt>
      <trkpt lat="43.92858" lon="7.31038">
        <ele>862.7</ele>
        <time>2013-12-07T12:38:21Z</time>
      </trkpt>
      <trkpt lat="43.92866" lon="7.31041">
        <ele>862.1</ele>
        <time>2013-12-07T12:38:23Z</time>
      </trkpt>
      <trkpt lat="43.92873" lon="7.31046">
        <ele>860.4</ele>
        <time>2013-12-07T12:38:25Z</time>
      </trkpt>
      <trkpt lat="43.92877" lon="7.31048">
        <ele>859.7</ele>
        <time>2013-12-07T12:38:26Z</time>
      </trkpt>
      <trkpt lat="43.92881" lon="7.3105">
        <ele>859.2</ele>
        <time>2013-12-07T12:38:27Z</time>
      </trkpt>
      <trkpt lat="43.9289" lon="7.31053">
        <ele>858.2</ele>
        <time>2013-12-07T12:38:29Z</time>
      </trkpt>
      <trkpt lat="43.92897" lon="7.31055">
        <ele>857.3</ele>
        <time>2013-12-07T12:38:31Z</time>
      </trkpt>
      <trkpt lat="43.92905" lon="7.31058">
        <ele>856.4</ele>
        <time>2013-12-07T12:38:34Z</time>
      </trkpt>
      <trkpt lat="43.9291" lon="7.31061">
        <ele>855.6</ele>
        <time>2013-12-07T12:38:36Z</time>
      </trkpt>
      <trkpt lat="43.92917" lon="7.31064">
        <ele>854.5</ele>
        <time>2013-12-07T12:38:38Z</time>
      </trkpt>
      <trkpt lat="43.92924" lon="7.31069">
        <ele>853.1</ele>
        <time>2013-12-07T12:38:41Z</time>
      </trkpt>
      <trkpt lat="43.92931" lon="7.31075">
        <ele>849.9</ele>
        <time>2013-12-07T12:38:45Z</time>
      </trkpt>
      <trkpt lat="43.92937" lon="7.3108">
        <ele>847.8</ele>
        <time>2013-12-07T12:38:54Z</time>
      </trkpt>
      <trkpt lat="43.92944" lon="7.31085">
        <ele>847.4</ele>
        <time>2013-12-07T12:38:56Z</time>
      </trkpt>
      <trkpt lat="43.92948" lon="7.31088">
        <ele>846.9</ele>
        <time>2013-12-07T12:38:57Z</time>
      </trkpt>
      <trkpt lat="43.92956" lon="7.31091">
        <ele>846.1</ele>
        <time>2013-12-07T12:38:59Z</time>
      </trkpt>
      <trkpt lat="43.92963" lon="7.31096">
        <ele>843.9</ele>
        <time>2013-12-07T12:39:07Z</time>
      </trkpt>
      <trkpt lat="43.92964" lon="7.31098">
        <ele>843.7</ele>
        <time>2013-12-07T12:39:08Z</time>
      </trkpt>
      <trkpt lat="43.92975" lon="7.31108">
        <ele>842.5</ele>
        <time>2013-12-07T12:39:13Z</time>
      </trkpt>
      <trkpt lat="43.92983" lon="7.31114">
        <ele>840.1</ele>
        <time>2013-12-07T12:39:18Z</time>
      </trkpt>
      <trkpt lat="43.92988" lon="7.31112">
        <ele>839.4</ele>
        <time>2013-12-07T12:39:20Z</time>
      </trkpt>
      <trkpt lat="43.92995" lon="7.3111">
        <ele>838.9</ele>
        <time>2013-12-07T12:39:22Z</time>
      </trkpt>
      <trkpt lat="43.93001" lon="7.31106">
        <ele>838</ele>
        <time>2013-12-07T12:39:24Z</time>
      </trkpt>
      <trkpt lat="43.93007" lon="7.31101">
        <ele>837.7</ele>
        <time>2013-12-07T12:39:26Z</time>
      </trkpt>
      <trkpt lat="43.93013" lon="7.31097">
        <ele>837.5</ele>
        <time>2013-12-07T12:39:28Z</time>
      </trkpt>
      <trkpt lat="43.93018" lon="7.31094">
        <ele>837.2</ele>
        <time>2013-12-07T12:39:30Z</time>
      </trkpt>
      <trkpt lat="43.93024" lon="7.31092">
        <ele>837.5</ele>
        <time>2013-12-07T12:39:32Z</time>
      </trkpt>
      <trkpt lat="43.9303" lon="7.31091">
        <ele>837.5</ele>
        <time>2013-12-07T12:39:34Z</time>
      </trkpt>
      <trkpt lat="43.93037" lon="7.31089">
        <ele>837.4</ele>
        <time>2013-12-07T12:39:36Z</time>
      </trkpt>
      <trkpt lat="43.93043" lon="7.31086">
        <ele>837</ele>
        <time>2013-12-07T12:39:38Z</time>
      </trkpt>
      <trkpt lat="43.93051" lon="7.31081">
        <ele>836.3</ele>
        <time>2013-12-07T12:39:41Z</time>
      </trkpt>
      <trkpt lat="43.93059" lon="7.31076">
        <ele>835.9</ele>
        <time>2013-12-07T12:39:45Z</time>
      </trkpt>
      <trkpt lat="43.93067" lon="7.31074">
        <ele>836</ele>
        <time>2013-12-07T12:39:49Z</time>
      </trkpt>
      <trkpt lat="43.93073" lon="7.31071">
        <ele>835.3</ele>
        <time>2013-12-07T12:39:52Z</time>
      </trkpt>
      <trkpt lat="43.93079" lon="7.31065">
        <ele>834.9</ele>
        <time>2013-12-07T12:39:56Z</time>
      </trkpt>
      <trkpt lat="43.93085" lon="7.31057">
        <ele>835.8</ele>
        <time>2013-12-07T12:40:01Z</time>
      </trkpt>
      <trkpt lat="43.93092" lon="7.31049">
        <ele>835.1</ele>
        <time>2013-12-07T12:40:10Z</time>
      </trkpt>
      <trkpt lat="43.93093" lon="7.31048">
        <ele>835.5</ele>
        <time>2013-12-07T12:40:11Z</time>
      </trkpt>
      <trkpt lat="43.93108" lon="7.31054">
        <ele>832.2</ele>
        <time>2013-12-07T12:40:22Z</time>
      </trkpt>
      <trkpt lat="43.93117" lon="7.31056">
        <ele>829.7</ele>
        <time>2013-12-07T12:40:27Z</time>
      </trkpt>
      <trkpt lat="43.93124" lon="7.31055">
        <ele>829.1</ele>
        <time>2013-12-07T12:40:30Z</time>
      </trkpt>
      <trkpt lat="43.93132" lon="7.31053">
        <ele>827.4</ele>
        <time>2013-12-07T12:40:34Z</time>
      </trkpt>
      <trkpt lat="43.9314" lon="7.3105">
        <ele>827.1</ele>
        <time>2013-12-07T12:40:38Z</time>
      </trkpt>
      <trkpt lat="43.93147" lon="7.31045">
        <ele>826.1</ele>
        <time>2013-12-07T12:40:43Z</time>
      </trkpt>
      <trkpt lat="43.93144" lon="7.31056">
        <ele>826</ele>
        <time>2013-12-07T12:40:56Z</time>
      </trkpt>
      <trkpt lat="43.93152" lon="7.31062">
        <ele>823.5</ele>
        <time>2013-12-07T12:41:01Z</time>
      </trkpt>
      <trkpt lat="43.93158" lon="7.31069">
        <ele>822.1</ele>
        <time>2013-12-07T12:41:06Z</time>
      </trkpt>
      <trkpt lat="43.93164" lon="7.31076">
        <ele>818.6</ele>
        <time>2013-12-07T12:41:13Z</time>
      </trkpt>
      <trkpt lat="43.93166" lon="7.31076">
        <ele>818.5</ele>
        <time>2013-12-07T12:41:14Z</time>
      </trkpt>
      <trkpt lat="43.93176" lon="7.31091">
        <ele>816</ele>
        <time>2013-12-07T12:41:31Z</time>
      </trkpt>
      <trkpt lat="43.93184" lon="7.31094">
        <ele>814.8</ele>
        <time>2013-12-07T12:41:35Z</time>
      </trkpt>
      <trkpt lat="43.93192" lon="7.311">
        <ele>811.7</ele>
        <time>2013-12-07T12:41:51Z</time>
      </trkpt>
      <trkpt lat="43.932" lon="7.31105">
        <ele>810.5</ele>
        <time>2013-12-07T12:41:58Z</time>
      </trkpt>
      <trkpt lat="43.93208" lon="7.31108">
        <ele>809.6</ele>
        <time>2013-12-07T12:42:07Z</time>
      </trkpt>
      <trkpt lat="43.93217" lon="7.31105">
        <ele>809.9</ele>
        <time>2013-12-07T12:42:19Z</time>
      </trkpt>
      <trkpt lat="43.93218" lon="7.31105">
        <ele>809.8</ele>
        <time>2013-12-07T12:42:20Z</time>
      </trkpt>
      <trkpt lat="43.93231" lon="7.31101">
        <ele>808.7</ele>
        <time>2013-12-07T12:42:33Z</time>
      </trkpt>
      <trkpt lat="43.93238" lon="7.31095">
        <ele>808.4</ele>
        <time>2013-12-07T12:42:37Z</time>
      </trkpt>
      <trkpt lat="43.93245" lon="7.31098">
        <ele>808</ele>
        <time>2013-12-07T12:42:41Z</time>
      </trkpt>
      <trkpt lat="43.93253" lon="7.311">
        <ele>805.9</ele>
        <time>2013-12-07T12:42:45Z</time>
      </trkpt>
      <trkpt lat="43.93254" lon="7.31111">
        <ele>802.3</ele>
        <time>2013-12-07T12:43:09Z</time>
      </trkpt>
      <trkpt lat="43.9325" lon="7.31119">
        <ele>801.2</ele>
        <time>2013-12-07T12:43:18Z</time>
      </trkpt>
      <trkpt lat="43.93244" lon="7.31128">
        <ele>800.3</ele>
        <time>2013-12-07T12:43:22Z</time>
      </trkpt>
      <trkpt lat="43.93244" lon="7.3113">
        <ele>800</ele>
        <time>2013-12-07T12:43:23Z</time>
      </trkpt>
      <trkpt lat="43.93259" lon="7.31125">
        <ele>798.2</ele>
        <time>2013-12-07T12:43:29Z</time>
      </trkpt>
      <trkpt lat="43.93266" lon="7.3112">
        <ele>798.3</ele>
        <time>2013-12-07T12:43:32Z</time>
      </trkpt>
      <trkpt lat="43.93273" lon="7.31115">
        <ele>798.1</ele>
        <time>2013-12-07T12:43:35Z</time>
      </trkpt>
      <trkpt lat="43.9328" lon="7.3111">
        <ele>797.1</ele>
        <time>2013-12-07T12:43:38Z</time>
      </trkpt>
      <trkpt lat="43.93285" lon="7.31105">
        <ele>796.5</ele>
        <time>2013-12-07T12:43:40Z</time>
      </trkpt>
      <trkpt lat="43.93291" lon="7.311">
        <ele>795.8</ele>
        <time>2013-12-07T12:43:42Z</time>
      </trkpt>
      <trkpt lat="43.93298" lon="7.31097">
        <ele>794.9</ele>
        <time>2013-12-07T12:43:44Z</time>
      </trkpt>
      <trkpt lat="43.93306" lon="7.31093">
        <ele>794.2</ele>
        <time>2013-12-07T12:43:46Z</time>
      </trkpt>
      <trkpt lat="43.93312" lon="7.31087">
        <ele>793</ele>
        <time>2013-12-07T12:43:48Z</time>
      </trkpt>
      <trkpt lat="43.93316" lon="7.31083">
        <ele>792.4</ele>
        <time>2013-12-07T12:43:49Z</time>
      </trkpt>
      <trkpt lat="43.93319" lon="7.31078">
        <ele>791.9</ele>
        <time>2013-12-07T12:43:50Z</time>
      </trkpt>
      <trkpt lat="43.93322" lon="7.31072">
        <ele>791.6</ele>
        <time>2013-12-07T12:43:51Z</time>
      </trkpt>
      <trkpt lat="43.93326" lon="7.31062">
        <ele>790.4</ele>
        <time>2013-12-07T12:43:53Z</time>
      </trkpt>
      <trkpt lat="43.93334" lon="7.31057">
        <ele>789.1</ele>
        <time>2013-12-07T12:43:55Z</time>
      </trkpt>
      <trkpt lat="43.93341" lon="7.31055">
        <ele>788.7</ele>
        <time>2013-12-07T12:43:57Z</time>
      </trkpt>
      <trkpt lat="43.93347" lon="7.31053">
        <ele>788</ele>
        <time>2013-12-07T12:43:59Z</time>
      </trkpt>
      <trkpt lat="43.93355" lon="7.31051">
        <ele>787.4</ele>
        <time>2013-12-07T12:44:02Z</time>
      </trkpt>
      <trkpt lat="43.93363" lon="7.31052">
        <ele>787.2</ele>
        <time>2013-12-07T12:44:05Z</time>
      </trkpt>
      <trkpt lat="43.9337" lon="7.31045">
        <ele>786.5</ele>
        <time>2013-12-07T12:44:08Z</time>
      </trkpt>
      <trkpt lat="43.93375" lon="7.31036">
        <ele>785.8</ele>
        <time>2013-12-07T12:44:10Z</time>
      </trkpt>
      <trkpt lat="43.93379" lon="7.31032">
        <ele>784.8</ele>
        <time>2013-12-07T12:44:11Z</time>
      </trkpt>
      <trkpt lat="43.93383" lon="7.31027">
        <ele>784.1</ele>
        <time>2013-12-07T12:44:12Z</time>
      </trkpt>
      <trkpt lat="43.93387" lon="7.31022">
        <ele>783.1</ele>
        <time>2013-12-07T12:44:13Z</time>
      </trkpt>
      <trkpt lat="43.93391" lon="7.31017">
        <ele>782.4</ele>
        <time>2013-12-07T12:44:14Z</time>
      </trkpt>
      <trkpt lat="43.93395" lon="7.31012">
        <ele>780.9</ele>
        <time>2013-12-07T12:44:15Z</time>
      </trkpt>
      <trkpt lat="43.934" lon="7.31006">
        <ele>779.8</ele>
        <time>2013-12-07T12:44:16Z</time>
      </trkpt>
      <trkpt lat="43.93404" lon="7.31002">
        <ele>779</ele>
        <time>2013-12-07T12:44:17Z</time>
      </trkpt>
      <trkpt lat="43.9341" lon="7.30999">
        <ele>778.3</ele>
        <time>2013-12-07T12:44:18Z</time>
      </trkpt>
      <trkpt lat="43.93415" lon="7.30998">
        <ele>777.7</ele>
        <time>2013-12-07T12:44:19Z</time>
      </trkpt>
      <trkpt lat="43.93421" lon="7.30999">
        <ele>777.2</ele>
        <time>2013-12-07T12:44:20Z</time>
      </trkpt>
      <trkpt lat="43.93427" lon="7.30999">
        <ele>776.9</ele>
        <time>2013-12-07T12:44:21Z</time>
      </trkpt>
      <trkpt lat="43.93433" lon="7.31">
        <ele>776</ele>
        <time>2013-12-07T12:44:22Z</time>
      </trkpt>
      <trkpt lat="43.93439" lon="7.31">
        <ele>775.2</ele>
        <time>2013-12-07T12:44:23Z</time>
      </trkpt>
      <trkpt lat="43.93445" lon="7.30999">
        <ele>774.7</ele>
        <time>2013-12-07T12:44:24Z</time>
      </trkpt>
      <trkpt lat="43.93451" lon="7.30997">
        <ele>774.2</ele>
        <time>2013-12-07T12:44:25Z</time>
      </trkpt>
      <trkpt lat="43.93456" lon="7.30994">
        <ele>773.8</ele>
        <time>2013-12-07T12:44:26Z</time>
      </trkpt>
      <trkpt lat="43.93461" lon="7.3099">
        <ele>773.6</ele>
        <time>2013-12-07T12:44:27Z</time>
      </trkpt>
      <trkpt lat="43.93466" lon="7.30987">
        <ele>773.5</ele>
        <time>2013-12-07T12:44:28Z</time>
      </trkpt>
      <trkpt lat="43.93471" lon="7.30985">
        <ele>773.4</ele>
        <time>2013-12-07T12:44:29Z</time>
      </trkpt>
      <trkpt lat="43.93476" lon="7.30982">
        <ele>773</ele>
        <time>2013-12-07T12:44:30Z</time>
      </trkpt>
      <trkpt lat="43.93484" lon="7.30978">
        <ele>772.1</ele>
        <time>2013-12-07T12:44:32Z</time>
      </trkpt>
      <trkpt lat="43.9349" lon="7.3097">
        <ele>771</ele>
        <time>2013-12-07T12:44:35Z</time>
      </trkpt>
      <trkpt lat="43.93494" lon="7.30961">
        <ele>770.3</ele>
        <time>2013-12-07T12:44:40Z</time>
      </trkpt>
      <trkpt lat="43.93497" lon="7.30951">
        <ele>770.5</ele>
        <time>2013-12-07T12:44:45Z</time>
      </trkpt>
      <trkpt lat="43.93503" lon="7.30946">
        <ele>770.8</ele>
        <time>2013-12-07T12:44:51Z</time>
      </trkpt>
      <trkpt lat="43.93509" lon="7.30936">
        <ele>770.8</ele>
        <time>2013-12-07T12:44:54Z</time>
      </trkpt>
      <trkpt lat="43.93514" lon="7.30929">
        <ele>769.8</ele>
        <time>2013-12-07T12:44:56Z</time>
      </trkpt>
      <trkpt lat="43.9352" lon="7.30922">
        <ele>768.7</ele>
        <time>2013-12-07T12:44:58Z</time>
      </trkpt>
      <trkpt lat="43.93527" lon="7.30919">
        <ele>768.2</ele>
        <time>2013-12-07T12:45:00Z</time>
      </trkpt>
      <trkpt lat="43.93534" lon="7.30918">
        <ele>767.8</ele>
        <time>2013-12-07T12:45:03Z</time>
      </trkpt>
      <trkpt lat="43.93542" lon="7.30916">
        <ele>766.6</ele>
        <time>2013-12-07T12:45:06Z</time>
      </trkpt>
      <trkpt lat="43.9355" lon="7.30915">
        <ele>765.8</ele>
        <time>2013-12-07T12:45:11Z</time>
      </trkpt>
      <trkpt lat="43.93558" lon="7.30916">
        <ele>764.4</ele>
        <time>2013-12-07T12:45:14Z</time>
      </trkpt>
      <trkpt lat="43.93567" lon="7.30914">
        <ele>764.6</ele>
        <time>2013-12-07T12:45:17Z</time>
      </trkpt>
      <trkpt lat="43.93575" lon="7.3091">
        <ele>764.7</ele>
        <time>2013-12-07T12:45:20Z</time>
      </trkpt>
      <trkpt lat="43.93581" lon="7.30908">
        <ele>764.3</ele>
        <time>2013-12-07T12:45:22Z</time>
      </trkpt>
      <trkpt lat="43.93588" lon="7.30902">
        <ele>764</ele>
        <time>2013-12-07T12:45:25Z</time>
      </trkpt>
      <trkpt lat="43.93589" lon="7.30899">
        <ele>764.6</ele>
        <time>2013-12-07T12:45:26Z</time>
      </trkpt>
      <trkpt lat="43.93601" lon="7.30891">
        <ele>765.2</ele>
        <time>2013-12-07T12:45:31Z</time>
      </trkpt>
      <trkpt lat="43.93607" lon="7.30891">
        <ele>764.9</ele>
        <time>2013-12-07T12:45:33Z</time>
      </trkpt>
      <trkpt lat="43.93614" lon="7.3089">
        <ele>764.2</ele>
        <time>2013-12-07T12:45:35Z</time>
      </trkpt>
      <trkpt lat="43.9362" lon="7.30886">
        <ele>764.2</ele>
        <time>2013-12-07T12:45:37Z</time>
      </trkpt>
      <trkpt lat="43.93625" lon="7.30881">
        <ele>764.8</ele>
        <time>2013-12-07T12:45:39Z</time>
      </trkpt>
      <trkpt lat="43.93631" lon="7.30873">
        <ele>764.5</ele>
        <time>2013-12-07T12:45:42Z</time>
      </trkpt>
      <trkpt lat="43.93634" lon="7.30867">
        <ele>763.8</ele>
        <time>2013-12-07T12:45:44Z</time>
      </trkpt>
      <trkpt lat="43.9364" lon="7.30857">
        <ele>763.7</ele>
        <time>2013-12-07T12:45:47Z</time>
      </trkpt>
      <trkpt lat="43.93646" lon="7.30851">
        <ele>764.2</ele>
        <time>2013-12-07T12:45:50Z</time>
      </trkpt>
      <trkpt lat="43.93654" lon="7.30847">
        <ele>764.5</ele>
        <time>2013-12-07T12:45:53Z</time>
      </trkpt>
      <trkpt lat="43.93661" lon="7.30843">
        <ele>764.5</ele>
        <time>2013-12-07T12:45:56Z</time>
      </trkpt>
      <trkpt lat="43.93666" lon="7.30836">
        <ele>764.2</ele>
        <time>2013-12-07T12:45:59Z</time>
      </trkpt>
      <trkpt lat="43.93671" lon="7.30825">
        <ele>764.3</ele>
        <time>2013-12-07T12:46:03Z</time>
      </trkpt>
      <trkpt lat="43.93674" lon="7.30814">
        <ele>764.4</ele>
        <time>2013-12-07T12:46:06Z</time>
      </trkpt>
      <trkpt lat="43.93679" lon="7.30805">
        <ele>764.7</ele>
        <time>2013-12-07T12:46:09Z</time>
      </trkpt>
      <trkpt lat="43.93684" lon="7.30795">
        <ele>764.5</ele>
        <time>2013-12-07T12:46:14Z</time>
      </trkpt>
      <trkpt lat="43.93688" lon="7.30784">
        <ele>763.5</ele>
        <time>2013-12-07T12:46:18Z</time>
      </trkpt>
      <trkpt lat="43.93689" lon="7.30775">
        <ele>762.4</ele>
        <time>2013-12-07T12:46:21Z</time>
      </trkpt>
      <trkpt lat="43.93689" lon="7.30767">
        <ele>761.9</ele>
        <time>2013-12-07T12:46:23Z</time>
      </trkpt>
      <trkpt lat="43.93688" lon="7.30755">
        <ele>760.8</ele>
        <time>2013-12-07T12:46:26Z</time>
      </trkpt>
      <trkpt lat="43.93687" lon="7.30754">
        <ele>760.6</ele>
        <time>2013-12-07T12:46:27Z</time>
      </trkpt>
      <trkpt lat="43.93685" lon="7.30737">
        <ele>760.2</ele>
        <time>2013-12-07T12:46:31Z</time>
      </trkpt>
      <trkpt lat="43.93686" lon="7.30729">
        <ele>759.7</ele>
        <time>2013-12-07T12:46:33Z</time>
      </trkpt>
      <trkpt lat="43.93685" lon="7.30718">
        <ele>757.9</ele>
        <time>2013-12-07T12:46:36Z</time>
      </trkpt>
      <trkpt lat="43.93687" lon="7.30706">
        <ele>755.1</ele>
        <time>2013-12-07T12:46:40Z</time>
      </trkpt>
      <trkpt lat="43.93686" lon="7.30697">
        <ele>753.3</ele>
        <time>2013-12-07T12:46:42Z</time>
      </trkpt>
      <trkpt lat="43.93683" lon="7.30688">
        <ele>752</ele>
        <time>2013-12-07T12:46:44Z</time>
      </trkpt>
      <trkpt lat="43.93682" lon="7.3068">
        <ele>750.9</ele>
        <time>2013-12-07T12:46:46Z</time>
      </trkpt>
      <trkpt lat="43.93681" lon="7.3067">
        <ele>749.8</ele>
        <time>2013-12-07T12:46:48Z</time>
      </trkpt>
      <trkpt lat="43.93684" lon="7.30662">
        <ele>748.6</ele>
        <time>2013-12-07T12:46:50Z</time>
      </trkpt>
      <trkpt lat="43.93691" lon="7.30657">
        <ele>747.7</ele>
        <time>2013-12-07T12:46:53Z</time>
      </trkpt>
      <trkpt lat="43.93696" lon="7.30652">
        <ele>746.6</ele>
        <time>2013-12-07T12:46:55Z</time>
      </trkpt>
      <trkpt lat="43.93698" lon="7.30643">
        <ele>745.9</ele>
        <time>2013-12-07T12:46:57Z</time>
      </trkpt>
      <trkpt lat="43.93703" lon="7.30633">
        <ele>744.6</ele>
        <time>2013-12-07T12:47:00Z</time>
      </trkpt>
      <trkpt lat="43.93708" lon="7.30623">
        <ele>743.3</ele>
        <time>2013-12-07T12:47:03Z</time>
      </trkpt>
      <trkpt lat="43.93713" lon="7.30615">
        <ele>742.5</ele>
        <time>2013-12-07T12:47:06Z</time>
      </trkpt>
      <trkpt lat="43.9372" lon="7.30607">
        <ele>740.2</ele>
        <time>2013-12-07T12:47:12Z</time>
      </trkpt>
      <trkpt lat="43.93726" lon="7.30601">
        <ele>737.6</ele>
        <time>2013-12-07T12:47:18Z</time>
      </trkpt>
      <trkpt lat="43.93733" lon="7.30595">
        <ele>735.8</ele>
        <time>2013-12-07T12:47:28Z</time>
      </trkpt>
      <trkpt lat="43.93734" lon="7.30595">
        <ele>735.4</ele>
        <time>2013-12-07T12:47:29Z</time>
      </trkpt>
      <trkpt lat="43.93742" lon="7.30589">
        <ele>735.3</ele>
        <time>2013-12-07T12:48:43Z</time>
      </trkpt>
      <trkpt lat="43.93756" lon="7.30579">
        <ele>732</ele>
        <time>2013-12-07T12:48:52Z</time>
      </trkpt>
      <trkpt lat="43.93762" lon="7.30577">
        <ele>730.3</ele>
        <time>2013-12-07T12:48:56Z</time>
      </trkpt>
      <trkpt lat="43.93771" lon="7.30573">
        <ele>727.5</ele>
        <time>2013-12-07T12:49:01Z</time>
      </trkpt>
      <trkpt lat="43.93771" lon="7.30561">
        <ele>725</ele>
        <time>2013-12-07T12:49:05Z</time>
      </trkpt>
      <trkpt lat="43.93772" lon="7.30549">
        <ele>720.8</ele>
        <time>2013-12-07T12:49:17Z</time>
      </trkpt>
      <trkpt lat="43.93777" lon="7.30542">
        <ele>720.6</ele>
        <time>2013-12-07T12:49:37Z</time>
      </trkpt>
      <trkpt lat="43.93774" lon="7.30531">
        <ele>719.1</ele>
        <time>2013-12-07T12:49:44Z</time>
      </trkpt>
      <trkpt lat="43.93773" lon="7.30529">
        <ele>718.8</ele>
        <time>2013-12-07T12:49:45Z</time>
      </trkpt>
      <trkpt lat="43.93768" lon="7.30509">
        <ele>716.2</ele>
        <time>2013-12-07T12:49:52Z</time>
      </trkpt>
      <trkpt lat="43.93773" lon="7.30501">
        <ele>714.4</ele>
        <time>2013-12-07T12:49:56Z</time>
      </trkpt>
      <trkpt lat="43.93775" lon="7.30489">
        <ele>711</ele>
        <time>2013-12-07T12:49:59Z</time>
      </trkpt>
      <trkpt lat="43.93778" lon="7.30481">
        <ele>708.6</ele>
        <time>2013-12-07T12:50:02Z</time>
      </trkpt>
      <trkpt lat="43.93781" lon="7.30472">
        <ele>705.6</ele>
        <time>2013-12-07T12:50:05Z</time>
      </trkpt>
      <trkpt lat="43.93784" lon="7.30462">
        <ele>703.3</ele>
        <time>2013-12-07T12:50:08Z</time>
      </trkpt>
      <trkpt lat="43.93787" lon="7.30451">
        <ele>700.7</ele>
        <time>2013-12-07T12:50:11Z</time>
      </trkpt>
      <trkpt lat="43.93791" lon="7.3044">
        <ele>698.3</ele>
        <time>2013-12-07T12:50:14Z</time>
      </trkpt>
      <trkpt lat="43.9379" lon="7.30432">
        <ele>696.5</ele>
        <time>2013-12-07T12:50:16Z</time>
      </trkpt>
      <trkpt lat="43.93787" lon="7.30422">
        <ele>694.4</ele>
        <time>2013-12-07T12:50:18Z</time>
      </trkpt>
      <trkpt lat="43.93784" lon="7.30413">
        <ele>692.7</ele>
        <time>2013-12-07T12:50:20Z</time>
      </trkpt>
      <trkpt lat="43.93779" lon="7.30406">
        <ele>690.9</ele>
        <time>2013-12-07T12:50:22Z</time>
      </trkpt>
      <trkpt lat="43.93776" lon="7.30397">
        <ele>688.6</ele>
        <time>2013-12-07T12:50:24Z</time>
      </trkpt>
      <trkpt lat="43.93773" lon="7.30388">
        <ele>686.4</ele>
        <time>2013-12-07T12:50:26Z</time>
      </trkpt>
      <trkpt lat="43.93771" lon="7.30377">
        <ele>684.2</ele>
        <time>2013-12-07T12:50:28Z</time>
      </trkpt>
      <trkpt lat="43.93769" lon="7.30368">
        <ele>681.8</ele>
        <time>2013-12-07T12:50:30Z</time>
      </trkpt>
      <trkpt lat="43.93767" lon="7.30359">
        <ele>679.7</ele>
        <time>2013-12-07T12:50:32Z</time>
      </trkpt>
      <trkpt lat="43.93761" lon="7.3035">
        <ele>677.3</ele>
        <time>2013-12-07T12:50:35Z</time>
      </trkpt>
      <trkpt lat="43.93755" lon="7.30345">
        <ele>675.8</ele>
        <time>2013-12-07T12:50:37Z</time>
      </trkpt>
      <trkpt lat="43.93749" lon="7.30341">
        <ele>674.8</ele>
        <time>2013-12-07T12:50:39Z</time>
      </trkpt>
      <trkpt lat="43.93743" lon="7.30334">
        <ele>672.7</ele>
        <time>2013-12-07T12:50:42Z</time>
      </trkpt>
      <trkpt lat="43.93743" lon="7.30323">
        <ele>670.6</ele>
        <time>2013-12-07T12:50:45Z</time>
      </trkpt>
      <trkpt lat="43.93743" lon="7.30319">
        <ele>669.6</ele>
        <time>2013-12-07T12:50:46Z</time>
      </trkpt>
      <trkpt lat="43.93745" lon="7.30305">
        <ele>667</ele>
        <time>2013-12-07T12:50:49Z</time>
      </trkpt>
      <trkpt lat="43.93745" lon="7.30294">
        <ele>666.2</ele>
        <time>2013-12-07T12:50:51Z</time>
      </trkpt>
      <trkpt lat="43.93744" lon="7.30282">
        <ele>665.2</ele>
        <time>2013-12-07T12:50:53Z</time>
      </trkpt>
      <trkpt lat="43.93744" lon="7.30272">
        <ele>664.2</ele>
        <time>2013-12-07T12:50:55Z</time>
      </trkpt>
      <trkpt lat="43.93744" lon="7.3026">
        <ele>662.8</ele>
        <time>2013-12-07T12:50:57Z</time>
      </trkpt>
      <trkpt lat="43.93742" lon="7.30253">
        <ele>662.4</ele>
        <time>2013-12-07T12:50:58Z</time>
      </trkpt>
      <trkpt lat="43.93742" lon="7.30246">
        <ele>661.6</ele>
        <time>2013-12-07T12:50:59Z</time>
      </trkpt>
      <trkpt lat="43.93741" lon="7.30239">
        <ele>661.1</ele>
        <time>2013-12-07T12:51:00Z</time>
      </trkpt>
      <trkpt lat="43.93739" lon="7.30232">
        <ele>659.8</ele>
        <time>2013-12-07T12:51:01Z</time>
      </trkpt>
      <trkpt lat="43.93738" lon="7.30225">
        <ele>658.9</ele>
        <time>2013-12-07T12:51:02Z</time>
      </trkpt>
      <trkpt lat="43.93737" lon="7.30217">
        <ele>658.2</ele>
        <time>2013-12-07T12:51:03Z</time>
      </trkpt>
      <trkpt lat="43.93737" lon="7.30208">
        <ele>657.5</ele>
        <time>2013-12-07T12:51:05Z</time>
      </trkpt>
      <trkpt lat="43.93739" lon="7.30196">
        <ele>656.4</ele>
        <time>2013-12-07T12:51:07Z</time>
      </trkpt>
      <trkpt lat="43.9374" lon="7.30189">
        <ele>655.8</ele>
        <time>2013-12-07T12:51:08Z</time>
      </trkpt>
      <trkpt lat="43.93742" lon="7.30182">
        <ele>655.3</ele>
        <time>2013-12-07T12:51:09Z</time>
      </trkpt>
      <trkpt lat="43.93744" lon="7.30175">
        <ele>654.9</ele>
        <time>2013-12-07T12:51:10Z</time>
      </trkpt>
      <trkpt lat="43.93746" lon="7.30164">
        <ele>654.1</ele>
        <time>2013-12-07T12:51:12Z</time>
      </trkpt>
      <trkpt lat="43.93745" lon="7.30155">
        <ele>653.7</ele>
        <time>2013-12-07T12:51:14Z</time>
      </trkpt>
      <trkpt lat="43.93744" lon="7.30143">
        <ele>653</ele>
        <time>2013-12-07T12:51:16Z</time>
      </trkpt>
      <trkpt lat="43.93743" lon="7.30137">
        <ele>652.8</ele>
        <time>2013-12-07T12:51:17Z</time>
      </trkpt>
      <trkpt lat="43.9374" lon="7.3013">
        <ele>651.9</ele>
        <time>2013-12-07T12:51:18Z</time>
      </trkpt>
      <trkpt lat="43.93737" lon="7.30122">
        <ele>651.2</ele>
        <time>2013-12-07T12:51:19Z</time>
      </trkpt>
      <trkpt lat="43.93734" lon="7.30115">
        <ele>650.5</ele>
        <time>2013-12-07T12:51:20Z</time>
      </trkpt>
      <trkpt lat="43.93731" lon="7.30109">
        <ele>649.9</ele>
        <time>2013-12-07T12:51:21Z</time>
      </trkpt>
      <trkpt lat="43.93727" lon="7.30105">
        <ele>649.5</ele>
        <time>2013-12-07T12:51:22Z</time>
      </trkpt>
      <trkpt lat="43.9372" lon="7.30097">
        <ele>649.2</ele>
        <time>2013-12-07T12:51:24Z</time>
      </trkpt>
      <trkpt lat="43.93713" lon="7.30089">
        <ele>648.5</ele>
        <time>2013-12-07T12:51:26Z</time>
      </trkpt>
      <trkpt lat="43.9371" lon="7.30084">
        <ele>647.8</ele>
        <time>2013-12-07T12:51:27Z</time>
      </trkpt>
      <trkpt lat="43.93708" lon="7.30073">
        <ele>647</ele>
        <time>2013-12-07T12:51:29Z</time>
      </trkpt>
      <trkpt lat="43.93706" lon="7.30067">
        <ele>646.5</ele>
        <time>2013-12-07T12:51:30Z</time>
      </trkpt>
      <trkpt lat="43.93704" lon="7.30061">
        <ele>646.1</ele>
        <time>2013-12-07T12:51:31Z</time>
      </trkpt>
      <trkpt lat="43.93701" lon="7.30055">
        <ele>645.3</ele>
        <time>2013-12-07T12:51:32Z</time>
      </trkpt>
      <trkpt lat="43.93698" lon="7.30048">
        <ele>644.8</ele>
        <time>2013-12-07T12:51:33Z</time>
      </trkpt>
      <trkpt lat="43.93696" lon="7.30041">
        <ele>643.4</ele>
        <time>2013-12-07T12:51:34Z</time>
      </trkpt>
      <trkpt lat="43.93696" lon="7.30029">
        <ele>641.6</ele>
        <time>2013-12-07T12:51:36Z</time>
      </trkpt>
      <trkpt lat="43.937" lon="7.30018">
        <ele>639.8</ele>
        <time>2013-12-07T12:51:39Z</time>
      </trkpt>
      <trkpt lat="43.93703" lon="7.3001">
        <ele>638.9</ele>
        <time>2013-12-07T12:51:41Z</time>
      </trkpt>
      <trkpt lat="43.93706" lon="7.30001">
        <ele>637.9</ele>
        <time>2013-12-07T12:51:43Z</time>
      </trkpt>
      <trkpt lat="43.93709" lon="7.29993">
        <ele>638</ele>
        <time>2013-12-07T12:51:45Z</time>
      </trkpt>
      <trkpt lat="43.93713" lon="7.29982">
        <ele>637.5</ele>
        <time>2013-12-07T12:51:47Z</time>
      </trkpt>
      <trkpt lat="43.93714" lon="7.29978">
        <ele>637.3</ele>
        <time>2013-12-07T12:51:48Z</time>
      </trkpt>
      <trkpt lat="43.93717" lon="7.29961">
        <ele>636.3</ele>
        <time>2013-12-07T12:51:51Z</time>
      </trkpt>
      <trkpt lat="43.93719" lon="7.29949">
        <ele>635.1</ele>
        <time>2013-12-07T12:51:54Z</time>
      </trkpt>
      <trkpt lat="43.93722" lon="7.29938">
        <ele>633.6</ele>
        <time>2013-12-07T12:51:58Z</time>
      </trkpt>
      <trkpt lat="43.93724" lon="7.29927">
        <ele>632.4</ele>
        <time>2013-12-07T12:52:03Z</time>
      </trkpt>
      <trkpt lat="43.93726" lon="7.29918">
        <ele>632.4</ele>
        <time>2013-12-07T12:52:06Z</time>
      </trkpt>
      <trkpt lat="43.93728" lon="7.2991">
        <ele>632.3</ele>
        <time>2013-12-07T12:52:08Z</time>
      </trkpt>
      <trkpt lat="43.93729" lon="7.299">
        <ele>632</ele>
        <time>2013-12-07T12:52:10Z</time>
      </trkpt>
      <trkpt lat="43.93728" lon="7.29889">
        <ele>631.2</ele>
        <time>2013-12-07T12:52:13Z</time>
      </trkpt>
      <trkpt lat="43.93725" lon="7.29879">
        <ele>630.4</ele>
        <time>2013-12-07T12:52:16Z</time>
      </trkpt>
      <trkpt lat="43.9372" lon="7.29872">
        <ele>630.4</ele>
        <time>2013-12-07T12:52:19Z</time>
      </trkpt>
      <trkpt lat="43.93716" lon="7.29865">
        <ele>630.7</ele>
        <time>2013-12-07T12:52:21Z</time>
      </trkpt>
      <trkpt lat="43.93711" lon="7.29856">
        <ele>629.8</ele>
        <time>2013-12-07T12:52:23Z</time>
      </trkpt>
      <trkpt lat="43.93714" lon="7.29846">
        <ele>629.2</ele>
        <time>2013-12-07T12:52:26Z</time>
      </trkpt>
      <trkpt lat="43.9372" lon="7.29839">
        <ele>627.3</ele>
        <time>2013-12-07T12:52:29Z</time>
      </trkpt>
      <trkpt lat="43.93726" lon="7.29834">
        <ele>625.8</ele>
        <time>2013-12-07T12:52:31Z</time>
      </trkpt>
      <trkpt lat="43.93733" lon="7.29829">
        <ele>624.8</ele>
        <time>2013-12-07T12:52:33Z</time>
      </trkpt>
      <trkpt lat="43.9374" lon="7.29821">
        <ele>621.9</ele>
        <time>2013-12-07T12:52:36Z</time>
      </trkpt>
      <trkpt lat="43.93747" lon="7.29815">
        <ele>619.1</ele>
        <time>2013-12-07T12:52:39Z</time>
      </trkpt>
      <trkpt lat="43.93754" lon="7.29815">
        <ele>615.5</ele>
        <time>2013-12-07T12:52:43Z</time>
      </trkpt>
      <trkpt lat="43.9376" lon="7.29806">
        <ele>613.3</ele>
        <time>2013-12-07T12:52:46Z</time>
      </trkpt>
      <trkpt lat="43.93766" lon="7.29798">
        <ele>610.6</ele>
        <time>2013-12-07T12:52:49Z</time>
      </trkpt>
      <trkpt lat="43.93769" lon="7.29795">
        <ele>609.4</ele>
        <time>2013-12-07T12:52:50Z</time>
      </trkpt>
      <trkpt lat="43.93773" lon="7.29783">
        <ele>606.8</ele>
        <time>2013-12-07T12:52:53Z</time>
      </trkpt>
      <trkpt lat="43.93779" lon="7.29773">
        <ele>604.2</ele>
        <time>2013-12-07T12:52:56Z</time>
      </trkpt>
      <trkpt lat="43.93784" lon="7.29768">
        <ele>602.4</ele>
        <time>2013-12-07T12:52:58Z</time>
      </trkpt>
      <trkpt lat="43.93787" lon="7.29759">
        <ele>600.9</ele>
        <time>2013-12-07T12:53:00Z</time>
      </trkpt>
      <trkpt lat="43.93791" lon="7.29748">
        <ele>597.7</ele>
        <time>2013-12-07T12:53:04Z</time>
      </trkpt>
      <trkpt lat="43.93794" lon="7.29739">
        <ele>595.7</ele>
        <time>2013-12-07T12:53:07Z</time>
      </trkpt>
      <trkpt lat="43.93797" lon="7.29731">
        <ele>593.4</ele>
        <time>2013-12-07T12:53:10Z</time>
      </trkpt>
      <trkpt lat="43.93801" lon="7.29722">
        <ele>591.3</ele>
        <time>2013-12-07T12:53:13Z</time>
      </trkpt>
      <trkpt lat="43.93807" lon="7.29714">
        <ele>589.4</ele>
        <time>2013-12-07T12:53:17Z</time>
      </trkpt>
      <trkpt lat="43.93812" lon="7.29708">
        <ele>588.9</ele>
        <time>2013-12-07T12:53:19Z</time>
      </trkpt>
      <trkpt lat="43.93816" lon="7.29699">
        <ele>588.3</ele>
        <time>2013-12-07T12:53:21Z</time>
      </trkpt>
      <trkpt lat="43.9382" lon="7.29691">
        <ele>587.7</ele>
        <time>2013-12-07T12:53:23Z</time>
      </trkpt>
      <trkpt lat="43.93825" lon="7.29684">
        <ele>586.4</ele>
        <time>2013-12-07T12:53:25Z</time>
      </trkpt>
      <trkpt lat="43.93833" lon="7.29679">
        <ele>584.1</ele>
        <time>2013-12-07T12:53:29Z</time>
      </trkpt>
      <trkpt lat="43.93839" lon="7.29675">
        <ele>583.7</ele>
        <time>2013-12-07T12:53:32Z</time>
      </trkpt>
      <trkpt lat="43.93846" lon="7.29671">
        <ele>582.9</ele>
        <time>2013-12-07T12:53:35Z</time>
      </trkpt>
      <trkpt lat="43.93852" lon="7.29666">
        <ele>581.4</ele>
        <time>2013-12-07T12:53:37Z</time>
      </trkpt>
      <trkpt lat="43.93858" lon="7.29662">
        <ele>580.4</ele>
        <time>2013-12-07T12:53:39Z</time>
      </trkpt>
      <trkpt lat="43.93865" lon="7.29656">
        <ele>578.4</ele>
        <time>2013-12-07T12:53:43Z</time>
      </trkpt>
      <trkpt lat="43.93873" lon="7.29651">
        <ele>577.3</ele>
        <time>2013-12-07T12:53:56Z</time>
      </trkpt>
      <trkpt lat="43.93874" lon="7.29651">
        <ele>577.4</ele>
        <time>2013-12-07T12:53:57Z</time>
      </trkpt>
      <trkpt lat="43.93889" lon="7.29642">
        <ele>575.3</ele>
        <time>2013-12-07T12:54:20Z</time>
      </trkpt>
      <trkpt lat="43.93897" lon="7.29638">
        <ele>574.8</ele>
        <time>2013-12-07T12:54:30Z</time>
      </trkpt>
      <trkpt lat="43.93902" lon="7.29631">
        <ele>573.9</ele>
        <time>2013-12-07T12:54:33Z</time>
      </trkpt>
      <trkpt lat="43.93909" lon="7.29623">
        <ele>571.2</ele>
        <time>2013-12-07T12:54:39Z</time>
      </trkpt>
      <trkpt lat="43.93915" lon="7.29616">
        <ele>569.7</ele>
        <time>2013-12-07T12:54:43Z</time>
      </trkpt>
      <trkpt lat="43.93921" lon="7.29606">
        <ele>568.2</ele>
        <time>2013-12-07T12:54:48Z</time>
      </trkpt>
      <trkpt lat="43.93925" lon="7.29599">
        <ele>565.8</ele>
        <time>2013-12-07T12:54:52Z</time>
      </trkpt>
      <trkpt lat="43.93929" lon="7.29589">
        <ele>564</ele>
        <time>2013-12-07T12:54:55Z</time>
      </trkpt>
      <trkpt lat="43.93932" lon="7.29582">
        <ele>562.1</ele>
        <time>2013-12-07T12:54:57Z</time>
      </trkpt>
      <trkpt lat="43.93933" lon="7.29579">
        <ele>561.5</ele>
        <time>2013-12-07T12:54:58Z</time>
      </trkpt>
      <trkpt lat="43.93936" lon="7.29561">
        <ele>557.5</ele>
        <time>2013-12-07T12:55:05Z</time>
      </trkpt>
      <trkpt lat="43.93933" lon="7.29552">
        <ele>557</ele>
        <time>2013-12-07T12:55:08Z</time>
      </trkpt>
      <trkpt lat="43.93927" lon="7.29547">
        <ele>552.8</ele>
        <time>2013-12-07T12:55:16Z</time>
      </trkpt>
      <trkpt lat="43.93921" lon="7.2954">
        <ele>552</ele>
        <time>2013-12-07T12:55:20Z</time>
      </trkpt>
      <trkpt lat="43.93915" lon="7.29533">
        <ele>550.4</ele>
        <time>2013-12-07T12:55:23Z</time>
      </trkpt>
      <trkpt lat="43.9391" lon="7.29529">
        <ele>549.9</ele>
        <time>2013-12-07T12:55:25Z</time>
      </trkpt>
      <trkpt lat="43.93905" lon="7.29522">
        <ele>548.9</ele>
        <time>2013-12-07T12:55:27Z</time>
      </trkpt>
      <trkpt lat="43.93901" lon="7.29513">
        <ele>547.4</ele>
        <time>2013-12-07T12:55:29Z</time>
      </trkpt>
      <trkpt lat="43.93898" lon="7.29503">
        <ele>546.2</ele>
        <time>2013-12-07T12:55:31Z</time>
      </trkpt>
      <trkpt lat="43.93897" lon="7.29491">
        <ele>544.8</ele>
        <time>2013-12-07T12:55:33Z</time>
      </trkpt>
      <trkpt lat="43.93898" lon="7.2948">
        <ele>543.8</ele>
        <time>2013-12-07T12:55:35Z</time>
      </trkpt>
      <trkpt lat="43.93898" lon="7.29471">
        <ele>543.2</ele>
        <time>2013-12-07T12:55:37Z</time>
      </trkpt>
      <trkpt lat="43.93898" lon="7.2946">
        <ele>541.8</ele>
        <time>2013-12-07T12:55:40Z</time>
      </trkpt>
      <trkpt lat="43.93899" lon="7.29448">
        <ele>540.6</ele>
        <time>2013-12-07T12:55:43Z</time>
      </trkpt>
      <trkpt lat="43.93901" lon="7.29436">
        <ele>539.6</ele>
        <time>2013-12-07T12:55:46Z</time>
      </trkpt>
      <trkpt lat="43.93902" lon="7.29423">
        <ele>538.9</ele>
        <time>2013-12-07T12:55:59Z</time>
      </trkpt>
      <trkpt lat="43.93903" lon="7.29422">
        <ele>538.9</ele>
        <time>2013-12-07T12:56:00Z</time>
      </trkpt>
      <trkpt lat="43.93909" lon="7.29403">
        <ele>537.7</ele>
        <time>2013-12-07T12:56:16Z</time>
      </trkpt>
      <trkpt lat="43.93913" lon="7.29393">
        <ele>536.2</ele>
        <time>2013-12-07T12:56:21Z</time>
      </trkpt>
      <trkpt lat="43.93917" lon="7.29384">
        <ele>534.7</ele>
        <time>2013-12-07T12:56:24Z</time>
      </trkpt>
      <trkpt lat="43.9392" lon="7.29373">
        <ele>534.2</ele>
        <time>2013-12-07T12:56:27Z</time>
      </trkpt>
      <trkpt lat="43.93924" lon="7.29365">
        <ele>533.9</ele>
        <time>2013-12-07T12:56:30Z</time>
      </trkpt>
      <trkpt lat="43.93926" lon="7.29354">
        <ele>533.9</ele>
        <time>2013-12-07T12:56:34Z</time>
      </trkpt>
      <trkpt lat="43.93931" lon="7.29344">
        <ele>535.6</ele>
        <time>2013-12-07T12:56:39Z</time>
      </trkpt>
      <trkpt lat="43.93935" lon="7.29333">
        <ele>536.3</ele>
        <time>2013-12-07T12:56:44Z</time>
      </trkpt>
      <trkpt lat="43.93938" lon="7.29322">
        <ele>536.3</ele>
        <time>2013-12-07T12:56:48Z</time>
      </trkpt>
      <trkpt lat="43.93941" lon="7.29313">
        <ele>536.5</ele>
        <time>2013-12-07T12:56:51Z</time>
      </trkpt>
      <trkpt lat="43.93945" lon="7.29304">
        <ele>536.1</ele>
        <time>2013-12-07T12:56:53Z</time>
      </trkpt>
      <trkpt lat="43.93949" lon="7.29296">
        <ele>534.8</ele>
        <time>2013-12-07T12:56:55Z</time>
      </trkpt>
      <trkpt lat="43.93954" lon="7.29285">
        <ele>532.5</ele>
        <time>2013-12-07T12:57:17Z</time>
      </trkpt>
      <trkpt lat="43.93955" lon="7.29286">
        <ele>532.6</ele>
        <time>2013-12-07T12:57:18Z</time>
      </trkpt>
      <trkpt lat="43.93964" lon="7.29267">
        <ele>531.9</ele>
        <time>2013-12-07T12:57:36Z</time>
      </trkpt>
      <trkpt lat="43.93971" lon="7.29265">
        <ele>531.2</ele>
        <time>2013-12-07T12:57:39Z</time>
      </trkpt>
      <trkpt lat="43.93977" lon="7.2926">
        <ele>530.1</ele>
        <time>2013-12-07T12:57:42Z</time>
      </trkpt>
      <trkpt lat="43.93981" lon="7.29248">
        <ele>530.7</ele>
        <time>2013-12-07T12:57:46Z</time>
      </trkpt>
      <trkpt lat="43.93982" lon="7.29238">
        <ele>530.5</ele>
        <time>2013-12-07T12:57:50Z</time>
      </trkpt>
      <trkpt lat="43.93979" lon="7.29226">
        <ele>531.3</ele>
        <time>2013-12-07T12:57:58Z</time>
      </trkpt>
      <trkpt lat="43.93983" lon="7.29215">
        <ele>534.2</ele>
        <time>2013-12-07T12:58:13Z</time>
      </trkpt>
      <trkpt lat="43.9399" lon="7.2921">
        <ele>535.8</ele>
        <time>2013-12-07T12:58:23Z</time>
      </trkpt>
      <trkpt lat="43.93991" lon="7.2921">
        <ele>535.9</ele>
        <time>2013-12-07T12:58:24Z</time>
      </trkpt>
      <trkpt lat="43.94006" lon="7.29212">
        <ele>538.2</ele>
        <time>2013-12-07T12:58:44Z</time>
      </trkpt>
      <trkpt lat="43.94014" lon="7.29208">
        <ele>537.6</ele>
        <time>2013-12-07T12:58:48Z</time>
      </trkpt>
      <trkpt lat="43.94023" lon="7.29207">
        <ele>537.3</ele>
        <time>2013-12-07T12:58:52Z</time>
      </trkpt>
      <trkpt lat="43.94031" lon="7.29206">
        <ele>536.9</ele>
        <time>2013-12-07T12:58:56Z</time>
      </trkpt>
      <trkpt lat="43.94037" lon="7.29209">
        <ele>537.4</ele>
        <time>2013-12-07T12:58:58Z</time>
      </trkpt>
      <trkpt lat="43.94043" lon="7.29212">
        <ele>537.7</ele>
        <time>2013-12-07T12:59:00Z</time>
      </trkpt>
      <trkpt lat="43.94051" lon="7.29211">
        <ele>536.6</ele>
        <time>2013-12-07T12:59:03Z</time>
      </trkpt>
      <trkpt lat="43.9406" lon="7.29209">
        <ele>534.8</ele>
        <time>2013-12-07T12:59:06Z</time>
      </trkpt>
      <trkpt lat="43.94064" lon="7.2921">
        <ele>534.4</ele>
        <time>2013-12-07T12:59:07Z</time>
      </trkpt>
      <trkpt lat="43.94069" lon="7.29211">
        <ele>533.6</ele>
        <time>2013-12-07T12:59:08Z</time>
      </trkpt>
      <trkpt lat="43.94073" lon="7.29213">
        <ele>532.9</ele>
        <time>2013-12-07T12:59:09Z</time>
      </trkpt>
      <trkpt lat="43.94081" lon="7.29215">
        <ele>531.5</ele>
        <time>2013-12-07T12:59:11Z</time>
      </trkpt>
      <trkpt lat="43.94086" lon="7.29212">
        <ele>530.3</ele>
        <time>2013-12-07T12:59:13Z</time>
      </trkpt>
      <trkpt lat="43.94094" lon="7.29209">
        <ele>529.7</ele>
        <time>2013-12-07T12:59:16Z</time>
      </trkpt>
      <trkpt lat="43.94101" lon="7.29206">
        <ele>528.9</ele>
        <time>2013-12-07T12:59:21Z</time>
      </trkpt>
      <trkpt lat="43.94108" lon="7.29197">
        <ele>532.4</ele>
        <time>2013-12-07T12:59:36Z</time>
      </trkpt>
      <trkpt lat="43.94109" lon="7.29196">
        <ele>532.3</ele>
        <time>2013-12-07T12:59:37Z</time>
      </trkpt>
      <trkpt lat="43.94104" lon="7.29174">
        <ele>530.2</ele>
        <time>2013-12-07T12:59:45Z</time>
      </trkpt>
      <trkpt lat="43.94105" lon="7.29162">
        <ele>530.5</ele>
        <time>2013-12-07T12:59:50Z</time>
      </trkpt>
      <trkpt lat="43.941" lon="7.29152">
        <ele>531.5</ele>
        <time>2013-12-07T12:59:56Z</time>
      </trkpt>
      <trkpt lat="43.94098" lon="7.29141">
        <ele>531.4</ele>
        <time>2013-12-07T13:00:00Z</time>
      </trkpt>
      <trkpt lat="43.94098" lon="7.29129">
        <ele>532</ele>
        <time>2013-12-07T13:00:03Z</time>
      </trkpt>
      <trkpt lat="43.94099" lon="7.29118">
        <ele>531.8</ele>
        <time>2013-12-07T13:00:07Z</time>
      </trkpt>
      <trkpt lat="43.941" lon="7.29107">
        <ele>532.3</ele>
        <time>2013-12-07T13:00:12Z</time>
      </trkpt>
      <trkpt lat="43.94104" lon="7.29099">
        <ele>532.1</ele>
        <time>2013-12-07T13:00:15Z</time>
      </trkpt>
      <trkpt lat="43.94106" lon="7.29089">
        <ele>531.4</ele>
        <time>2013-12-07T13:00:18Z</time>
      </trkpt>
      <trkpt lat="43.94106" lon="7.29078">
        <ele>529.4</ele>
        <time>2013-12-07T13:00:22Z</time>
      </trkpt>
      <trkpt lat="43.94111" lon="7.29071">
        <ele>527.1</ele>
        <time>2013-12-07T13:00:25Z</time>
      </trkpt>
      <trkpt lat="43.94112" lon="7.2906">
        <ele>524.5</ele>
        <time>2013-12-07T13:00:29Z</time>
      </trkpt>
      <trkpt lat="43.9411" lon="7.29049">
        <ele>522.5</ele>
        <time>2013-12-07T13:00:32Z</time>
      </trkpt>
      <trkpt lat="43.9411" lon="7.29041">
        <ele>521.3</ele>
        <time>2013-12-07T13:00:34Z</time>
      </trkpt>
      <trkpt lat="43.94111" lon="7.2903">
        <ele>520.9</ele>
        <time>2013-12-07T13:00:38Z</time>
      </trkpt>
      <trkpt lat="43.94112" lon="7.29028">
        <ele>520.8</ele>
        <time>2013-12-07T13:00:39Z</time>
      </trkpt>
      <trkpt lat="43.94119" lon="7.2901">
        <ele>520.7</ele>
        <time>2013-12-07T13:00:49Z</time>
      </trkpt>
      <trkpt lat="43.94124" lon="7.29">
        <ele>522</ele>
        <time>2013-12-07T13:00:55Z</time>
      </trkpt>
      <trkpt lat="43.9413" lon="7.28996">
        <ele>523.9</ele>
        <time>2013-12-07T13:00:59Z</time>
      </trkpt>
      <trkpt lat="43.94137" lon="7.28989">
        <ele>524.4</ele>
        <time>2013-12-07T13:01:02Z</time>
      </trkpt>
      <trkpt lat="43.94145" lon="7.28986">
        <ele>524.4</ele>
        <time>2013-12-07T13:01:06Z</time>
      </trkpt>
      <trkpt lat="43.94153" lon="7.28988">
        <ele>524.7</ele>
        <time>2013-12-07T13:01:12Z</time>
      </trkpt>
      <trkpt lat="43.94161" lon="7.28983">
        <ele>527.3</ele>
        <time>2013-12-07T13:01:21Z</time>
      </trkpt>
      <trkpt lat="43.94166" lon="7.28973">
        <ele>528.3</ele>
        <time>2013-12-07T13:01:29Z</time>
      </trkpt>
      <trkpt lat="43.94169" lon="7.28963">
        <ele>529</ele>
        <time>2013-12-07T13:01:36Z</time>
      </trkpt>
      <trkpt lat="43.94178" lon="7.28959">
        <ele>528.4</ele>
        <time>2013-12-07T13:01:40Z</time>
      </trkpt>
      <trkpt lat="43.94181" lon="7.28958">
        <ele>528.2</ele>
        <time>2013-12-07T13:01:41Z</time>
      </trkpt>
      <trkpt lat="43.94191" lon="7.28954">
        <ele>527.1</ele>
        <time>2013-12-07T13:01:44Z</time>
      </trkpt>
      <trkpt lat="43.94197" lon="7.28946">
        <ele>527</ele>
        <time>2013-12-07T13:01:48Z</time>
      </trkpt>
      <trkpt lat="43.94204" lon="7.2894">
        <ele>526.3</ele>
        <time>2013-12-07T13:02:44Z</time>
      </trkpt>
      <trkpt lat="43.94204" lon="7.2894">
        <ele>526.5</ele>
        <time>2013-12-07T13:02:45Z</time>
      </trkpt>
      <trkpt lat="43.94208" lon="7.28928">
        <ele>525.8</ele>
        <time>2013-12-07T13:06:21Z</time>
      </trkpt>
      <trkpt lat="43.94198" lon="7.28924">
        <ele>521.9</ele>
        <time>2013-12-07T13:09:31Z</time>
      </trkpt>
      <trkpt lat="43.94187" lon="7.28909">
        <ele>519.3</ele>
        <time>2013-12-07T13:09:39Z</time>
      </trkpt>
      <trkpt lat="43.94185" lon="7.28899">
        <ele>513.7</ele>
        <time>2013-12-07T13:09:56Z</time>
      </trkpt>
      <trkpt lat="43.94177" lon="7.28895">
        <ele>511.3</ele>
        <time>2013-12-07T13:10:00Z</time>
      </trkpt>
      <trkpt lat="43.94169" lon="7.28891">
        <ele>509.1</ele>
        <time>2013-12-07T13:10:03Z</time>
      </trkpt>
      <trkpt lat="43.94163" lon="7.28881">
        <ele>503.6</ele>
        <time>2013-12-07T13:10:42Z</time>
      </trkpt>
      <trkpt lat="43.94163" lon="7.28881">
        <ele>503.7</ele>
        <time>2013-12-07T13:10:43Z</time>
      </trkpt>
      <trkpt lat="43.94168" lon="7.28872">
        <ele>501.3</ele>
        <time>2013-12-07T13:11:17Z</time>
      </trkpt>
      <trkpt lat="43.94163" lon="7.28864">
        <ele>500.1</ele>
        <time>2013-12-07T13:11:20Z</time>
      </trkpt>
      <trkpt lat="43.94159" lon="7.28858">
        <ele>498.3</ele>
        <time>2013-12-07T13:11:22Z</time>
      </trkpt>
      <trkpt lat="43.94153" lon="7.28854">
        <ele>496.4</ele>
        <time>2013-12-07T13:11:25Z</time>
      </trkpt>
      <trkpt lat="43.94145" lon="7.28849">
        <ele>494.3</ele>
        <time>2013-12-07T13:11:29Z</time>
      </trkpt>
      <trkpt lat="43.94138" lon="7.28847">
        <ele>491.7</ele>
        <time>2013-12-07T13:11:33Z</time>
      </trkpt>
      <trkpt lat="43.9413" lon="7.2884">
        <ele>489.4</ele>
        <time>2013-12-07T13:11:37Z</time>
      </trkpt>
      <trkpt lat="43.94124" lon="7.28833">
        <ele>486.9</ele>
        <time>2013-12-07T13:11:40Z</time>
      </trkpt>
      <trkpt lat="43.9412" lon="7.28827">
        <ele>485.5</ele>
        <time>2013-12-07T13:11:42Z</time>
      </trkpt>
      <trkpt lat="43.94116" lon="7.28816">
        <ele>483.9</ele>
        <time>2013-12-07T13:11:45Z</time>
      </trkpt>
      <trkpt lat="43.94114" lon="7.28814">
        <ele>483.3</ele>
        <time>2013-12-07T13:11:46Z</time>
      </trkpt>
      <trkpt lat="43.94104" lon="7.28798">
        <ele>478.1</ele>
        <time>2013-12-07T13:12:25Z</time>
      </trkpt>
      <trkpt lat="43.94098" lon="7.2879">
        <ele>476.1</ele>
        <time>2013-12-07T13:12:30Z</time>
      </trkpt>
      <trkpt lat="43.94106" lon="7.28784">
        <ele>471.3</ele>
        <time>2013-12-07T13:12:39Z</time>
      </trkpt>
      <trkpt lat="43.94113" lon="7.28784">
        <ele>469.1</ele>
        <time>2013-12-07T13:12:44Z</time>
      </trkpt>
      <trkpt lat="43.9412" lon="7.28788">
        <ele>467.6</ele>
        <time>2013-12-07T13:12:47Z</time>
      </trkpt>
      <trkpt lat="43.94122" lon="7.2879">
        <ele>467</ele>
        <time>2013-12-07T13:12:48Z</time>
      </trkpt>
      <trkpt lat="43.94136" lon="7.2879">
        <ele>462.3</ele>
        <time>2013-12-07T13:12:54Z</time>
      </trkpt>
      <trkpt lat="43.94141" lon="7.28786">
        <ele>459.6</ele>
        <time>2013-12-07T13:12:57Z</time>
      </trkpt>
      <trkpt lat="43.94141" lon="7.28775">
        <ele>453.4</ele>
        <time>2013-12-07T13:13:04Z</time>
      </trkpt>
      <trkpt lat="43.94135" lon="7.2877">
        <ele>451.4</ele>
        <time>2013-12-07T13:13:06Z</time>
      </trkpt>
      <trkpt lat="43.94131" lon="7.28766">
        <ele>449.7</ele>
        <time>2013-12-07T13:13:08Z</time>
      </trkpt>
      <trkpt lat="43.94126" lon="7.28758">
        <ele>447.7</ele>
        <time>2013-12-07T13:13:10Z</time>
      </trkpt>
      <trkpt lat="43.9412" lon="7.28752">
        <ele>446.1</ele>
        <time>2013-12-07T13:13:12Z</time>
      </trkpt>
      <trkpt lat="43.94114" lon="7.28745">
        <ele>443.3</ele>
        <time>2013-12-07T13:13:15Z</time>
      </trkpt>
      <trkpt lat="43.94107" lon="7.28738">
        <ele>439.1</ele>
        <time>2013-12-07T13:13:20Z</time>
      </trkpt>
      <trkpt lat="43.94111" lon="7.28728">
        <ele>433.9</ele>
        <time>2013-12-07T13:14:04Z</time>
      </trkpt>
      <trkpt lat="43.9411" lon="7.28726">
        <ele>433.7</ele>
        <time>2013-12-07T13:14:05Z</time>
      </trkpt>
      <trkpt lat="43.94096" lon="7.28718">
        <ele>430.5</ele>
        <time>2013-12-07T13:14:14Z</time>
      </trkpt>
      <trkpt lat="43.9409" lon="7.28713">
        <ele>428.7</ele>
        <time>2013-12-07T13:14:18Z</time>
      </trkpt>
      <trkpt lat="43.94085" lon="7.28704">
        <ele>426.2</ele>
        <time>2013-12-07T13:14:21Z</time>
      </trkpt>
      <trkpt lat="43.94084" lon="7.28693">
        <ele>419.1</ele>
        <time>2013-12-07T13:14:32Z</time>
      </trkpt>
      <trkpt lat="43.94086" lon="7.28681">
        <ele>414.7</ele>
        <time>2013-12-07T13:14:40Z</time>
      </trkpt>
      <trkpt lat="43.94088" lon="7.2867">
        <ele>410.3</ele>
        <time>2013-12-07T13:14:49Z</time>
      </trkpt>
      <trkpt lat="43.94086" lon="7.28659">
        <ele>406.5</ele>
        <time>2013-12-07T13:14:55Z</time>
      </trkpt>
      <trkpt lat="43.94089" lon="7.28649">
        <ele>403.6</ele>
        <time>2013-12-07T13:15:00Z</time>
      </trkpt>
      <trkpt lat="43.94091" lon="7.28639">
        <ele>401.8</ele>
        <time>2013-12-07T13:15:03Z</time>
      </trkpt>
      <trkpt lat="43.94093" lon="7.28628">
        <ele>399.4</ele>
        <time>2013-12-07T13:15:07Z</time>
      </trkpt>
      <trkpt lat="43.94093" lon="7.28624">
        <ele>398.8</ele>
        <time>2013-12-07T13:15:08Z</time>
      </trkpt>
      <trkpt lat="43.94093" lon="7.28604">
        <ele>394.4</ele>
        <time>2013-12-07T13:16:43Z</time>
      </trkpt>
      <trkpt lat="43.94093" lon="7.28603">
        <ele>394.6</ele>
        <time>2013-12-07T13:16:44Z</time>
      </trkpt>
      <trkpt lat="43.94077" lon="7.28603">
        <ele>396.1</ele>
        <time>2013-12-07T13:17:08Z</time>
      </trkpt>
      <trkpt lat="43.9407" lon="7.28603">
        <ele>396.6</ele>
        <time>2013-12-07T13:17:12Z</time>
      </trkpt>
      <trkpt lat="43.94061" lon="7.28601">
        <ele>397</ele>
        <time>2013-12-07T13:17:17Z</time>
      </trkpt>
      <trkpt lat="43.94055" lon="7.28595">
        <ele>397.7</ele>
        <time>2013-12-07T13:17:21Z</time>
      </trkpt>
      <trkpt lat="43.94048" lon="7.28589">
        <ele>398.9</ele>
        <time>2013-12-07T13:17:25Z</time>
      </trkpt>
      <trkpt lat="43.94043" lon="7.28582">
        <ele>399.7</ele>
        <time>2013-12-07T13:17:29Z</time>
      </trkpt>
      <trkpt lat="43.94036" lon="7.28577">
        <ele>400.6</ele>
        <time>2013-12-07T13:17:33Z</time>
      </trkpt>
      <trkpt lat="43.9403" lon="7.2857">
        <ele>401.2</ele>
        <time>2013-12-07T13:17:37Z</time>
      </trkpt>
      <trkpt lat="43.94022" lon="7.28564">
        <ele>401.8</ele>
        <time>2013-12-07T13:17:41Z</time>
      </trkpt>
      <trkpt lat="43.94015" lon="7.28559">
        <ele>403</ele>
        <time>2013-12-07T13:17:45Z</time>
      </trkpt>
      <trkpt lat="43.94013" lon="7.28559">
        <ele>403</ele>
        <time>2013-12-07T13:17:46Z</time>
      </trkpt>
      <trkpt lat="43.93998" lon="7.28553">
        <ele>403.7</ele>
        <time>2013-12-07T13:17:56Z</time>
      </trkpt>
      <trkpt lat="43.9399" lon="7.28552">
        <ele>405.7</ele>
        <time>2013-12-07T13:18:03Z</time>
      </trkpt>
      <trkpt lat="43.93981" lon="7.2855">
        <ele>406.9</ele>
        <time>2013-12-07T13:18:10Z</time>
      </trkpt>
      <trkpt lat="43.93973" lon="7.28545">
        <ele>407.9</ele>
        <time>2013-12-07T13:18:18Z</time>
      </trkpt>
      <trkpt lat="43.93965" lon="7.28546">
        <ele>409.7</ele>
        <time>2013-12-07T13:18:28Z</time>
      </trkpt>
      <trkpt lat="43.93956" lon="7.28548">
        <ele>412.8</ele>
        <time>2013-12-07T13:18:41Z</time>
      </trkpt>
      <trkpt lat="43.93947" lon="7.28549">
        <ele>414.9</ele>
        <time>2013-12-07T13:18:53Z</time>
      </trkpt>
      <trkpt lat="43.93947" lon="7.28549">
        <ele>415.5</ele>
        <time>2013-12-07T13:18:54Z</time>
      </trkpt>
      <trkpt lat="43.9393" lon="7.28553">
        <ele>419.8</ele>
        <time>2013-12-07T13:19:16Z</time>
      </trkpt>
      <trkpt lat="43.93922" lon="7.28555">
        <ele>422.9</ele>
        <time>2013-12-07T13:19:28Z</time>
      </trkpt>
      <trkpt lat="43.93913" lon="7.28558">
        <ele>425.1</ele>
        <time>2013-12-07T13:19:41Z</time>
      </trkpt>
      <trkpt lat="43.93905" lon="7.2856">
        <ele>427.5</ele>
        <time>2013-12-07T13:19:54Z</time>
      </trkpt>
      <trkpt lat="43.93904" lon="7.2856">
        <ele>427.5</ele>
        <time>2013-12-07T13:19:55Z</time>
      </trkpt>
      <trkpt lat="43.93888" lon="7.28562">
        <ele>431.3</ele>
        <time>2013-12-07T13:20:24Z</time>
      </trkpt>
      <trkpt lat="43.9388" lon="7.28567">
        <ele>433.6</ele>
        <time>2013-12-07T13:20:38Z</time>
      </trkpt>
      <trkpt lat="43.93872" lon="7.28567">
        <ele>438.4</ele>
        <time>2013-12-07T13:21:04Z</time>
      </trkpt>
      <trkpt lat="43.93871" lon="7.28566">
        <ele>438.7</ele>
        <time>2013-12-07T13:21:05Z</time>
      </trkpt>
      <trkpt lat="43.93856" lon="7.28571">
        <ele>445</ele>
        <time>2013-12-07T13:21:38Z</time>
      </trkpt>
      <trkpt lat="43.93848" lon="7.28576">
        <ele>448.9</ele>
        <time>2013-12-07T13:21:58Z</time>
      </trkpt>
      <trkpt lat="43.93839" lon="7.28573">
        <ele>452.3</ele>
        <time>2013-12-07T13:22:17Z</time>
      </trkpt>
      <trkpt lat="43.93838" lon="7.28573">
        <ele>452.5</ele>
        <time>2013-12-07T13:22:18Z</time>
      </trkpt>
      <trkpt lat="43.93824" lon="7.28569">
        <ele>458.3</ele>
        <time>2013-12-07T13:22:50Z</time>
      </trkpt>
      <trkpt lat="43.93816" lon="7.28576">
        <ele>459.9</ele>
        <time>2013-12-07T13:23:05Z</time>
      </trkpt>
      <trkpt lat="43.93808" lon="7.28579">
        <ele>462.8</ele>
        <time>2013-12-07T13:23:18Z</time>
      </trkpt>
      <trkpt lat="43.93808" lon="7.28579">
        <ele>463.2</ele>
        <time>2013-12-07T13:23:19Z</time>
      </trkpt>
      <trkpt lat="43.93791" lon="7.28583">
        <ele>466.4</ele>
        <time>2013-12-07T13:23:44Z</time>
      </trkpt>
      <trkpt lat="43.93783" lon="7.28583">
        <ele>469.1</ele>
        <time>2013-12-07T13:23:56Z</time>
      </trkpt>
      <trkpt lat="43.93774" lon="7.28583">
        <ele>472</ele>
        <time>2013-12-07T13:24:07Z</time>
      </trkpt>
      <trkpt lat="43.93766" lon="7.28587">
        <ele>472.6</ele>
        <time>2013-12-07T13:24:19Z</time>
      </trkpt>
      <trkpt lat="43.93766" lon="7.28588">
        <ele>472.6</ele>
        <time>2013-12-07T13:24:20Z</time>
      </trkpt>
      <trkpt lat="43.93753" lon="7.28603">
        <ele>479.2</ele>
        <time>2013-12-07T13:24:53Z</time>
      </trkpt>
      <trkpt lat="43.93747" lon="7.28612">
        <ele>482.7</ele>
        <time>2013-12-07T13:25:09Z</time>
      </trkpt>
      <trkpt lat="43.93739" lon="7.28616">
        <ele>484</ele>
        <time>2013-12-07T13:25:21Z</time>
      </trkpt>
      <trkpt lat="43.93737" lon="7.28616">
        <ele>484.2</ele>
        <time>2013-12-07T13:25:22Z</time>
      </trkpt>
      <trkpt lat="43.93722" lon="7.28625">
        <ele>488.1</ele>
        <time>2013-12-07T13:25:40Z</time>
      </trkpt>
      <trkpt lat="43.93715" lon="7.28631">
        <ele>489.4</ele>
        <time>2013-12-07T13:25:57Z</time>
      </trkpt>
      <trkpt lat="43.93708" lon="7.28639">
        <ele>489.9</ele>
        <time>2013-12-07T13:26:21Z</time>
      </trkpt>
      <trkpt lat="43.93701" lon="7.28643">
        <ele>492.7</ele>
        <time>2013-12-07T13:26:49Z</time>
      </trkpt>
      <trkpt lat="43.937" lon="7.28644">
        <ele>492.8</ele>
        <time>2013-12-07T13:26:50Z</time>
      </trkpt>
      <trkpt lat="43.93689" lon="7.28661">
        <ele>496.4</ele>
        <time>2013-12-07T13:28:08Z</time>
      </trkpt>
      <trkpt lat="43.93688" lon="7.28661">
        <ele>496.5</ele>
        <time>2013-12-07T13:28:09Z</time>
      </trkpt>
      <trkpt lat="43.93674" lon="7.28674">
        <ele>497</ele>
        <time>2013-12-07T13:28:29Z</time>
      </trkpt>
      <trkpt lat="43.93666" lon="7.28674">
        <ele>496.6</ele>
        <time>2013-12-07T13:28:33Z</time>
      </trkpt>
      <trkpt lat="43.93658" lon="7.28678">
        <ele>496.4</ele>
        <time>2013-12-07T13:28:36Z</time>
      </trkpt>
      <trkpt lat="43.93649" lon="7.28679">
        <ele>494.6</ele>
        <time>2013-12-07T13:28:40Z</time>
      </trkpt>
      <trkpt lat="43.93643" lon="7.28686">
        <ele>494.9</ele>
        <time>2013-12-07T13:28:46Z</time>
      </trkpt>
      <trkpt lat="43.93634" lon="7.28689">
        <ele>494.3</ele>
        <time>2013-12-07T13:28:51Z</time>
      </trkpt>
      <trkpt lat="43.93627" lon="7.28681">
        <ele>492.7</ele>
        <time>2013-12-07T13:28:58Z</time>
      </trkpt>
      <trkpt lat="43.93625" lon="7.28669">
        <ele>493.6</ele>
        <time>2013-12-07T13:29:04Z</time>
      </trkpt>
      <trkpt lat="43.93624" lon="7.28658">
        <ele>495.3</ele>
        <time>2013-12-07T13:29:10Z</time>
      </trkpt>
      <trkpt lat="43.93623" lon="7.28656">
        <ele>495.8</ele>
        <time>2013-12-07T13:29:11Z</time>
      </trkpt>
      <trkpt lat="43.93622" lon="7.28634">
        <ele>499.1</ele>
        <time>2013-12-07T13:29:22Z</time>
      </trkpt>
      <trkpt lat="43.93623" lon="7.28622">
        <ele>501</ele>
        <time>2013-12-07T13:29:29Z</time>
      </trkpt>
      <trkpt lat="43.93619" lon="7.28612">
        <ele>503.7</ele>
        <time>2013-12-07T13:29:42Z</time>
      </trkpt>
      <trkpt lat="43.93615" lon="7.28601">
        <ele>506</ele>
        <time>2013-12-07T13:29:53Z</time>
      </trkpt>
      <trkpt lat="43.93613" lon="7.28589">
        <ele>508.5</ele>
        <time>2013-12-07T13:30:04Z</time>
      </trkpt>
      <trkpt lat="43.93608" lon="7.2858">
        <ele>510.7</ele>
        <time>2013-12-07T13:30:17Z</time>
      </trkpt>
      <trkpt lat="43.93607" lon="7.28579">
        <ele>511</ele>
        <time>2013-12-07T13:30:18Z</time>
      </trkpt>
      <trkpt lat="43.936" lon="7.28558">
        <ele>517</ele>
        <time>2013-12-07T13:30:42Z</time>
      </trkpt>
      <trkpt lat="43.93597" lon="7.28546">
        <ele>518.7</ele>
        <time>2013-12-07T13:30:55Z</time>
      </trkpt>
      <trkpt lat="43.93593" lon="7.28536">
        <ele>518.7</ele>
        <time>2013-12-07T13:31:02Z</time>
      </trkpt>
      <trkpt lat="43.93586" lon="7.28529">
        <ele>520.7</ele>
        <time>2013-12-07T13:31:11Z</time>
      </trkpt>
      <trkpt lat="43.93579" lon="7.28523">
        <ele>523.4</ele>
        <time>2013-12-07T13:31:20Z</time>
      </trkpt>
      <trkpt lat="43.93578" lon="7.28522">
        <ele>523.7</ele>
        <time>2013-12-07T13:31:21Z</time>
      </trkpt>
      <trkpt lat="43.93566" lon="7.2851">
        <ele>527.2</ele>
        <time>2013-12-07T13:31:38Z</time>
      </trkpt>
      <trkpt lat="43.93559" lon="7.28504">
        <ele>528.4</ele>
        <time>2013-12-07T13:31:47Z</time>
      </trkpt>
      <trkpt lat="43.9355" lon="7.285">
        <ele>530.1</ele>
        <time>2013-12-07T13:31:56Z</time>
      </trkpt>
      <trkpt lat="43.93544" lon="7.28492">
        <ele>532.4</ele>
        <time>2013-12-07T13:32:04Z</time>
      </trkpt>
      <trkpt lat="43.93538" lon="7.28483">
        <ele>533.2</ele>
        <time>2013-12-07T13:32:12Z</time>
      </trkpt>
      <trkpt lat="43.93535" lon="7.28471">
        <ele>536.5</ele>
        <time>2013-12-07T13:32:23Z</time>
      </trkpt>
      <trkpt lat="43.93535" lon="7.28471">
        <ele>536.7</ele>
        <time>2013-12-07T13:32:24Z</time>
      </trkpt>
      <trkpt lat="43.93524" lon="7.28461">
        <ele>544.2</ele>
        <time>2013-12-07T13:33:06Z</time>
      </trkpt>
      <trkpt lat="43.93517" lon="7.28454">
        <ele>546.5</ele>
        <time>2013-12-07T13:33:22Z</time>
      </trkpt>
      <trkpt lat="43.93513" lon="7.28443">
        <ele>549</ele>
        <time>2013-12-07T13:33:35Z</time>
      </trkpt>
      <trkpt lat="43.93513" lon="7.28442">
        <ele>549.1</ele>
        <time>2013-12-07T13:33:36Z</time>
      </trkpt>
      <trkpt lat="43.93508" lon="7.28422">
        <ele>554</ele>
        <time>2013-12-07T13:34:04Z</time>
      </trkpt>
      <trkpt lat="43.935" lon="7.28417">
        <ele>556.4</ele>
        <time>2013-12-07T13:34:21Z</time>
      </trkpt>
      <trkpt lat="43.93492" lon="7.28412">
        <ele>558.6</ele>
        <time>2013-12-07T13:34:33Z</time>
      </trkpt>
      <trkpt lat="43.93485" lon="7.28419">
        <ele>560.2</ele>
        <time>2013-12-07T13:34:45Z</time>
      </trkpt>
      <trkpt lat="43.93485" lon="7.2842">
        <ele>560.6</ele>
        <time>2013-12-07T13:34:46Z</time>
      </trkpt>
      <trkpt lat="43.93472" lon="7.28433">
        <ele>567.6</ele>
        <time>2013-12-07T13:35:26Z</time>
      </trkpt>
      <trkpt lat="43.93464" lon="7.28438">
        <ele>571</ele>
        <time>2013-12-07T13:35:46Z</time>
      </trkpt>
      <trkpt lat="43.93464" lon="7.28438">
        <ele>571.2</ele>
        <time>2013-12-07T13:35:47Z</time>
      </trkpt>
      <trkpt lat="43.93447" lon="7.28437">
        <ele>576.3</ele>
        <time>2013-12-07T13:36:17Z</time>
      </trkpt>
      <trkpt lat="43.93438" lon="7.28434">
        <ele>579</ele>
        <time>2013-12-07T13:36:35Z</time>
      </trkpt>
      <trkpt lat="43.93433" lon="7.28424">
        <ele>581.9</ele>
        <time>2013-12-07T13:36:53Z</time>
      </trkpt>
      <trkpt lat="43.93433" lon="7.28424">
        <ele>582.1</ele>
        <time>2013-12-07T13:36:54Z</time>
      </trkpt>
      <trkpt lat="43.93429" lon="7.28401">
        <ele>587</ele>
        <time>2013-12-07T13:37:21Z</time>
      </trkpt>
      <trkpt lat="43.93424" lon="7.2839">
        <ele>589.7</ele>
        <time>2013-12-07T13:37:35Z</time>
      </trkpt>
      <trkpt lat="43.93416" lon="7.28386">
        <ele>591.9</ele>
        <time>2013-12-07T13:37:48Z</time>
      </trkpt>
      <trkpt lat="43.93408" lon="7.28382">
        <ele>594.6</ele>
        <time>2013-12-07T13:38:02Z</time>
      </trkpt>
      <trkpt lat="43.93407" lon="7.28381">
        <ele>594.4</ele>
        <time>2013-12-07T13:38:03Z</time>
      </trkpt>
      <trkpt lat="43.93393" lon="7.28376">
        <ele>598.8</ele>
        <time>2013-12-07T13:38:25Z</time>
      </trkpt>
      <trkpt lat="43.93385" lon="7.28372">
        <ele>600.2</ele>
        <time>2013-12-07T13:38:38Z</time>
      </trkpt>
      <trkpt lat="43.93377" lon="7.28366">
        <ele>601.6</ele>
        <time>2013-12-07T13:38:47Z</time>
      </trkpt>
      <trkpt lat="43.93369" lon="7.28361">
        <ele>604.2</ele>
        <time>2013-12-07T13:38:57Z</time>
      </trkpt>
      <trkpt lat="43.9336" lon="7.28359">
        <ele>608</ele>
        <time>2013-12-07T13:39:12Z</time>
      </trkpt>
      <trkpt lat="43.9336" lon="7.28358">
        <ele>608.2</ele>
        <time>2013-12-07T13:39:13Z</time>
      </trkpt>
      <trkpt lat="43.93348" lon="7.28342">
        <ele>612.2</ele>
        <time>2013-12-07T13:39:36Z</time>
      </trkpt>
      <trkpt lat="43.9334" lon="7.28342">
        <ele>615.1</ele>
        <time>2013-12-07T13:39:54Z</time>
      </trkpt>
      <trkpt lat="43.93332" lon="7.28336">
        <ele>620.2</ele>
        <time>2013-12-07T13:41:03Z</time>
      </trkpt>
      <trkpt lat="43.93331" lon="7.28336">
        <ele>620.4</ele>
        <time>2013-12-07T13:41:04Z</time>
      </trkpt>
      <trkpt lat="43.93314" lon="7.2833">
        <ele>628.9</ele>
        <time>2013-12-07T13:41:48Z</time>
      </trkpt>
      <trkpt lat="43.93307" lon="7.28324">
        <ele>633.1</ele>
        <time>2013-12-07T13:42:07Z</time>
      </trkpt>
      <trkpt lat="43.93307" lon="7.28323">
        <ele>633.3</ele>
        <time>2013-12-07T13:42:08Z</time>
      </trkpt>
      <trkpt lat="43.93299" lon="7.28303">
        <ele>640.5</ele>
        <time>2013-12-07T13:42:49Z</time>
      </trkpt>
      <trkpt lat="43.93295" lon="7.28292">
        <ele>642.9</ele>
        <time>2013-12-07T13:43:06Z</time>
      </trkpt>
      <trkpt lat="43.93294" lon="7.2828">
        <ele>646.6</ele>
        <time>2013-12-07T13:43:31Z</time>
      </trkpt>
      <trkpt lat="43.93293" lon="7.28279">
        <ele>646.8</ele>
        <time>2013-12-07T13:43:32Z</time>
      </trkpt>
      <trkpt lat="43.93282" lon="7.28263">
        <ele>653.5</ele>
        <time>2013-12-07T13:44:09Z</time>
      </trkpt>
      <trkpt lat="43.93274" lon="7.28259">
        <ele>657.3</ele>
        <time>2013-12-07T13:44:23Z</time>
      </trkpt>
      <trkpt lat="43.93266" lon="7.28255">
        <ele>657.7</ele>
        <time>2013-12-07T13:44:31Z</time>
      </trkpt>
      <trkpt lat="43.93259" lon="7.28248">
        <ele>658.3</ele>
        <time>2013-12-07T13:44:41Z</time>
      </trkpt>
      <trkpt lat="43.93259" lon="7.28247">
        <ele>658.5</ele>
        <time>2013-12-07T13:44:42Z</time>
      </trkpt>
      <trkpt lat="43.93245" lon="7.28235">
        <ele>662.4</ele>
        <time>2013-12-07T13:45:02Z</time>
      </trkpt>
      <trkpt lat="43.93237" lon="7.2823">
        <ele>664</ele>
        <time>2013-12-07T13:45:14Z</time>
      </trkpt>
      <trkpt lat="43.93229" lon="7.28226">
        <ele>666.6</ele>
        <time>2013-12-07T13:45:25Z</time>
      </trkpt>
      <trkpt lat="43.9322" lon="7.28227">
        <ele>669.4</ele>
        <time>2013-12-07T13:45:40Z</time>
      </trkpt>
      <trkpt lat="43.93215" lon="7.28217">
        <ele>671.9</ele>
        <time>2013-12-07T13:45:52Z</time>
      </trkpt>
      <trkpt lat="43.93214" lon="7.28217">
        <ele>672</ele>
        <time>2013-12-07T13:45:53Z</time>
      </trkpt>
      <trkpt lat="43.93202" lon="7.28202">
        <ele>675.7</ele>
        <time>2013-12-07T13:46:14Z</time>
      </trkpt>
      <trkpt lat="43.93194" lon="7.28196">
        <ele>678.2</ele>
        <time>2013-12-07T13:46:26Z</time>
      </trkpt>
      <trkpt lat="43.93187" lon="7.2819">
        <ele>680.6</ele>
        <time>2013-12-07T13:46:38Z</time>
      </trkpt>
      <trkpt lat="43.93179" lon="7.28184">
        <ele>683</ele>
        <time>2013-12-07T13:46:50Z</time>
      </trkpt>
      <trkpt lat="43.93172" lon="7.28178">
        <ele>685</ele>
        <time>2013-12-07T13:47:03Z</time>
      </trkpt>
      <trkpt lat="43.93171" lon="7.28178">
        <ele>685.3</ele>
        <time>2013-12-07T13:47:04Z</time>
      </trkpt>
      <trkpt lat="43.93157" lon="7.28168">
        <ele>696.5</ele>
        <time>2013-12-07T13:48:18Z</time>
      </trkpt>
      <trkpt lat="43.93156" lon="7.28168">
        <ele>696.9</ele>
        <time>2013-12-07T13:48:19Z</time>
      </trkpt>
      <trkpt lat="43.9314" lon="7.28174">
        <ele>702.5</ele>
        <time>2013-12-07T13:48:58Z</time>
      </trkpt>
      <trkpt lat="43.93133" lon="7.28181">
        <ele>707.2</ele>
        <time>2013-12-07T13:49:24Z</time>
      </trkpt>
      <trkpt lat="43.93133" lon="7.28182">
        <ele>707.4</ele>
        <time>2013-12-07T13:49:25Z</time>
      </trkpt>
      <trkpt lat="43.93117" lon="7.28188">
        <ele>714.9</ele>
        <time>2013-12-07T13:50:04Z</time>
      </trkpt>
      <trkpt lat="43.93108" lon="7.2819">
        <ele>716.5</ele>
        <time>2013-12-07T13:50:16Z</time>
      </trkpt>
      <trkpt lat="43.93101" lon="7.28196">
        <ele>718.6</ele>
        <time>2013-12-07T13:50:28Z</time>
      </trkpt>
      <trkpt lat="43.931" lon="7.28197">
        <ele>719</ele>
        <time>2013-12-07T13:50:29Z</time>
      </trkpt>
      <trkpt lat="43.93086" lon="7.28211">
        <ele>726</ele>
        <time>2013-12-07T13:51:11Z</time>
      </trkpt>
      <trkpt lat="43.93078" lon="7.28215">
        <ele>728.8</ele>
        <time>2013-12-07T13:51:25Z</time>
      </trkpt>
      <trkpt lat="43.93071" lon="7.28221">
        <ele>730.2</ele>
        <time>2013-12-07T13:51:37Z</time>
      </trkpt>
      <trkpt lat="43.9307" lon="7.28222">
        <ele>730.5</ele>
        <time>2013-12-07T13:51:38Z</time>
      </trkpt>
      <trkpt lat="43.9306" lon="7.2824">
        <ele>735.9</ele>
        <time>2013-12-07T13:52:07Z</time>
      </trkpt>
      <trkpt lat="43.93056" lon="7.28251">
        <ele>739.7</ele>
        <time>2013-12-07T13:52:25Z</time>
      </trkpt>
      <trkpt lat="43.93048" lon="7.28258">
        <ele>742.4</ele>
        <time>2013-12-07T13:52:41Z</time>
      </trkpt>
      <trkpt lat="43.93048" lon="7.28258">
        <ele>742.3</ele>
        <time>2013-12-07T13:52:42Z</time>
      </trkpt>
      <trkpt lat="43.93035" lon="7.28267">
        <ele>746.7</ele>
        <time>2013-12-07T13:53:21Z</time>
      </trkpt>
      <trkpt lat="43.93026" lon="7.28264">
        <ele>747.8</ele>
        <time>2013-12-07T13:55:34Z</time>
      </trkpt>
      <trkpt lat="43.93026" lon="7.28263">
        <ele>747.6</ele>
        <time>2013-12-07T13:55:35Z</time>
      </trkpt>
      <trkpt lat="43.93013" lon="7.28272">
        <ele>753.8</ele>
        <time>2013-12-07T13:56:12Z</time>
      </trkpt>
      <trkpt lat="43.93006" lon="7.28279">
        <ele>758.7</ele>
        <time>2013-12-07T13:56:38Z</time>
      </trkpt>
      <trkpt lat="43.93005" lon="7.2828">
        <ele>759.1</ele>
        <time>2013-12-07T13:56:39Z</time>
      </trkpt>
      <trkpt lat="43.92991" lon="7.28289">
        <ele>764.3</ele>
        <time>2013-12-07T13:57:06Z</time>
      </trkpt>
      <trkpt lat="43.92983" lon="7.28292">
        <ele>764.8</ele>
        <time>2013-12-07T13:57:16Z</time>
      </trkpt>
      <trkpt lat="43.92975" lon="7.28296">
        <ele>766.3</ele>
        <time>2013-12-07T13:57:26Z</time>
      </trkpt>
      <trkpt lat="43.92967" lon="7.283">
        <ele>766.5</ele>
        <time>2013-12-07T13:57:33Z</time>
      </trkpt>
      <trkpt lat="43.92959" lon="7.28301">
        <ele>767.1</ele>
        <time>2013-12-07T13:57:39Z</time>
      </trkpt>
      <trkpt lat="43.92958" lon="7.28301">
        <ele>767.4</ele>
        <time>2013-12-07T13:57:40Z</time>
      </trkpt>
      <trkpt lat="43.92944" lon="7.28293">
        <ele>770.3</ele>
        <time>2013-12-07T13:57:54Z</time>
      </trkpt>
      <trkpt lat="43.92936" lon="7.28287">
        <ele>772</ele>
        <time>2013-12-07T13:58:03Z</time>
      </trkpt>
      <trkpt lat="43.92934" lon="7.28276">
        <ele>774.6</ele>
        <time>2013-12-07T13:58:12Z</time>
      </trkpt>
      <trkpt lat="43.92932" lon="7.28264">
        <ele>777.3</ele>
        <time>2013-12-07T13:58:21Z</time>
      </trkpt>
      <trkpt lat="43.92925" lon="7.28256">
        <ele>779.5</ele>
        <time>2013-12-07T13:58:34Z</time>
      </trkpt>
      <trkpt lat="43.92917" lon="7.28256">
        <ele>783.6</ele>
        <time>2013-12-07T13:58:52Z</time>
      </trkpt>
      <trkpt lat="43.92916" lon="7.28256">
        <ele>784.1</ele>
        <time>2013-12-07T13:58:53Z</time>
      </trkpt>
      <trkpt lat="43.92901" lon="7.28265">
        <ele>792.2</ele>
        <time>2013-12-07T13:59:39Z</time>
      </trkpt>
      <trkpt lat="43.92892" lon="7.28265">
        <ele>797.7</ele>
        <time>2013-12-07T14:00:07Z</time>
      </trkpt>
      <trkpt lat="43.92891" lon="7.28265">
        <ele>797.6</ele>
        <time>2013-12-07T14:00:08Z</time>
      </trkpt>
      <trkpt lat="43.92874" lon="7.28271">
        <ele>805.2</ele>
        <time>2013-12-07T14:00:54Z</time>
      </trkpt>
      <trkpt lat="43.92868" lon="7.28278">
        <ele>809.5</ele>
        <time>2013-12-07T14:01:14Z</time>
      </trkpt>
      <trkpt lat="43.92867" lon="7.28279">
        <ele>809.9</ele>
        <time>2013-12-07T14:01:15Z</time>
      </trkpt>
      <trkpt lat="43.92854" lon="7.28291">
        <ele>816.5</ele>
        <time>2013-12-07T14:01:51Z</time>
      </trkpt>
      <trkpt lat="43.92846" lon="7.28285">
        <ele>818.9</ele>
        <time>2013-12-07T14:02:06Z</time>
      </trkpt>
      <trkpt lat="43.92838" lon="7.28284">
        <ele>820.8</ele>
        <time>2013-12-07T14:02:21Z</time>
      </trkpt>
      <trkpt lat="43.92837" lon="7.28284">
        <ele>821</ele>
        <time>2013-12-07T14:02:22Z</time>
      </trkpt>
      <trkpt lat="43.92822" lon="7.28294">
        <ele>829.8</ele>
        <time>2013-12-07T14:03:07Z</time>
      </trkpt>
      <trkpt lat="43.92813" lon="7.28292">
        <ele>831.7</ele>
        <time>2013-12-07T14:03:20Z</time>
      </trkpt>
      <trkpt lat="43.92805" lon="7.2829">
        <ele>833.2</ele>
        <time>2013-12-07T14:03:30Z</time>
      </trkpt>
      <trkpt lat="43.92804" lon="7.2829">
        <ele>833.2</ele>
        <time>2013-12-07T14:03:31Z</time>
      </trkpt>
      <trkpt lat="43.92788" lon="7.28289">
        <ele>837.6</ele>
        <time>2013-12-07T14:03:56Z</time>
      </trkpt>
      <trkpt lat="43.9278" lon="7.28293">
        <ele>842.5</ele>
        <time>2013-12-07T14:04:19Z</time>
      </trkpt>
      <trkpt lat="43.92773" lon="7.28301">
        <ele>845.2</ele>
        <time>2013-12-07T14:04:34Z</time>
      </trkpt>
      <trkpt lat="43.92773" lon="7.28302">
        <ele>845.3</ele>
        <time>2013-12-07T14:04:35Z</time>
      </trkpt>
      <trkpt lat="43.92759" lon="7.28313">
        <ele>849.6</ele>
        <time>2013-12-07T14:04:59Z</time>
      </trkpt>
      <trkpt lat="43.92752" lon="7.28322">
        <ele>851.8</ele>
        <time>2013-12-07T14:05:16Z</time>
      </trkpt>
      <trkpt lat="43.92746" lon="7.28329">
        <ele>852.6</ele>
        <time>2013-12-07T14:05:27Z</time>
      </trkpt>
      <trkpt lat="43.92741" lon="7.28339">
        <ele>854</ele>
        <time>2013-12-07T14:05:41Z</time>
      </trkpt>
      <trkpt lat="43.9274" lon="7.2834">
        <ele>853.8</ele>
        <time>2013-12-07T14:05:42Z</time>
      </trkpt>
      <trkpt lat="43.92728" lon="7.28356">
        <ele>858.1</ele>
        <time>2013-12-07T14:06:07Z</time>
      </trkpt>
      <trkpt lat="43.92721" lon="7.28362">
        <ele>862.7</ele>
        <time>2013-12-07T14:06:32Z</time>
      </trkpt>
      <trkpt lat="43.92712" lon="7.28362">
        <ele>867.9</ele>
        <time>2013-12-07T14:06:59Z</time>
      </trkpt>
      <trkpt lat="43.92712" lon="7.28362">
        <ele>868</ele>
        <time>2013-12-07T14:07:00Z</time>
      </trkpt>
      <trkpt lat="43.92695" lon="7.28359">
        <ele>871.7</ele>
        <time>2013-12-07T14:07:24Z</time>
      </trkpt>
      <trkpt lat="43.92686" lon="7.2836">
        <ele>873.4</ele>
        <time>2013-12-07T14:07:39Z</time>
      </trkpt>
      <trkpt lat="43.92678" lon="7.28356">
        <ele>875.8</ele>
        <time>2013-12-07T14:07:52Z</time>
      </trkpt>
      <trkpt lat="43.92669" lon="7.28355">
        <ele>877</ele>
        <time>2013-12-07T14:08:02Z</time>
      </trkpt>
      <trkpt lat="43.92668" lon="7.28355">
        <ele>877</ele>
        <time>2013-12-07T14:08:03Z</time>
      </trkpt>
      <trkpt lat="43.92652" lon="7.28353">
        <ele>882.9</ele>
        <time>2013-12-07T14:08:34Z</time>
      </trkpt>
      <trkpt lat="43.92643" lon="7.28352">
        <ele>886</ele>
        <time>2013-12-07T14:08:50Z</time>
      </trkpt>
      <trkpt lat="43.92635" lon="7.28353">
        <ele>887.9</ele>
        <time>2013-12-07T14:09:15Z</time>
      </trkpt>
      <trkpt lat="43.92634" lon="7.28353">
        <ele>888.3</ele>
        <time>2013-12-07T14:09:16Z</time>
      </trkpt>
      <trkpt lat="43.92626" lon="7.28372">
        <ele>897</ele>
        <time>2013-12-07T14:10:04Z</time>
      </trkpt>
      <trkpt lat="43.92625" lon="7.28384">
        <ele>900</ele>
        <time>2013-12-07T14:10:19Z</time>
      </trkpt>
      <trkpt lat="43.92625" lon="7.28385">
        <ele>900.1</ele>
        <time>2013-12-07T14:10:20Z</time>
      </trkpt>
      <trkpt lat="43.92611" lon="7.28398">
        <ele>903.7</ele>
        <time>2013-12-07T14:10:46Z</time>
      </trkpt>
      <trkpt lat="43.92602" lon="7.284">
        <ele>906.6</ele>
        <time>2013-12-07T14:10:57Z</time>
      </trkpt>
      <trkpt lat="43.92594" lon="7.284">
        <ele>908.9</ele>
        <time>2013-12-07T14:11:09Z</time>
      </trkpt>
      <trkpt lat="43.92586" lon="7.28403">
        <ele>912.5</ele>
        <time>2013-12-07T14:11:32Z</time>
      </trkpt>
      <trkpt lat="43.92585" lon="7.28404">
        <ele>912.9</ele>
        <time>2013-12-07T14:11:33Z</time>
      </trkpt>
      <trkpt lat="43.92574" lon="7.28422">
        <ele>919.4</ele>
        <time>2013-12-07T14:12:10Z</time>
      </trkpt>
      <trkpt lat="43.92568" lon="7.28431">
        <ele>922</ele>
        <time>2013-12-07T14:12:24Z</time>
      </trkpt>
      <trkpt lat="43.92562" lon="7.28439">
        <ele>925</ele>
        <time>2013-12-07T14:12:37Z</time>
      </trkpt>
      <trkpt lat="43.92561" lon="7.2844">
        <ele>925</ele>
        <time>2013-12-07T14:12:38Z</time>
      </trkpt>
      <trkpt lat="43.9255" lon="7.28455">
        <ele>927.7</ele>
        <time>2013-12-07T14:13:02Z</time>
      </trkpt>
      <trkpt lat="43.92544" lon="7.28464">
        <ele>929.3</ele>
        <time>2013-12-07T14:13:20Z</time>
      </trkpt>
      <trkpt lat="43.92536" lon="7.28468">
        <ele>931.1</ele>
        <time>2013-12-07T14:13:39Z</time>
      </trkpt>
      <trkpt lat="43.92535" lon="7.28469">
        <ele>931</ele>
        <time>2013-12-07T14:13:40Z</time>
      </trkpt>
      <trkpt lat="43.92521" lon="7.28477">
        <ele>931.8</ele>
        <time>2013-12-07T14:13:59Z</time>
      </trkpt>
      <trkpt lat="43.92514" lon="7.28483">
        <ele>932.8</ele>
        <time>2013-12-07T14:14:06Z</time>
      </trkpt>
      <trkpt lat="43.92507" lon="7.2849">
        <ele>934.2</ele>
        <time>2013-12-07T14:14:13Z</time>
      </trkpt>
      <trkpt lat="43.92501" lon="7.28497">
        <ele>935</ele>
        <time>2013-12-07T14:14:22Z</time>
      </trkpt>
      <trkpt lat="43.92493" lon="7.28502">
        <ele>935.6</ele>
        <time>2013-12-07T14:14:31Z</time>
      </trkpt>
      <trkpt lat="43.92485" lon="7.28508">
        <ele>936.9</ele>
        <time>2013-12-07T14:14:41Z</time>
      </trkpt>
      <trkpt lat="43.92484" lon="7.28508">
        <ele>937</ele>
        <time>2013-12-07T14:14:42Z</time>
      </trkpt>
      <trkpt lat="43.9247" lon="7.28498">
        <ele>943.2</ele>
        <time>2013-12-07T14:15:12Z</time>
      </trkpt>
      <trkpt lat="43.92462" lon="7.285">
        <ele>952.5</ele>
        <time>2013-12-07T14:17:17Z</time>
      </trkpt>
      <trkpt lat="43.92461" lon="7.285">
        <ele>952.4</ele>
        <time>2013-12-07T14:17:18Z</time>
      </trkpt>
      <trkpt lat="43.92445" lon="7.28501">
        <ele>956.9</ele>
        <time>2013-12-07T14:17:40Z</time>
      </trkpt>
      <trkpt lat="43.92437" lon="7.28504">
        <ele>957.6</ele>
        <time>2013-12-07T14:17:51Z</time>
      </trkpt>
      <trkpt lat="43.92428" lon="7.28507">
        <ele>959.9</ele>
        <time>2013-12-07T14:18:03Z</time>
      </trkpt>
      <trkpt lat="43.92421" lon="7.28512">
        <ele>962.3</ele>
        <time>2013-12-07T14:18:17Z</time>
      </trkpt>
      <trkpt lat="43.92412" lon="7.28517">
        <ele>966</ele>
        <time>2013-12-07T14:18:35Z</time>
      </trkpt>
      <trkpt lat="43.92412" lon="7.28517">
        <ele>966.4</ele>
        <time>2013-12-07T14:18:36Z</time>
      </trkpt>
      <trkpt lat="43.92399" lon="7.2853">
        <ele>971.3</ele>
        <time>2013-12-07T14:19:05Z</time>
      </trkpt>
      <trkpt lat="43.92391" lon="7.28535">
        <ele>974.8</ele>
        <time>2013-12-07T14:19:23Z</time>
      </trkpt>
      <trkpt lat="43.92382" lon="7.28539">
        <ele>979.3</ele>
        <time>2013-12-07T14:19:50Z</time>
      </trkpt>
      <trkpt lat="43.92382" lon="7.2854">
        <ele>979.3</ele>
        <time>2013-12-07T14:19:51Z</time>
      </trkpt>
      <trkpt lat="43.92365" lon="7.2854">
        <ele>987.7</ele>
        <time>2013-12-07T14:20:29Z</time>
      </trkpt>
      <trkpt lat="43.92356" lon="7.28542">
        <ele>989.7</ele>
        <time>2013-12-07T14:20:45Z</time>
      </trkpt>
      <trkpt lat="43.92348" lon="7.28538">
        <ele>991.8</ele>
        <time>2013-12-07T14:20:56Z</time>
      </trkpt>
      <trkpt lat="43.92347" lon="7.28538">
        <ele>991.9</ele>
        <time>2013-12-07T14:20:57Z</time>
      </trkpt>
      <trkpt lat="43.92331" lon="7.2854">
        <ele>997</ele>
        <time>2013-12-07T14:21:26Z</time>
      </trkpt>
      <trkpt lat="43.92325" lon="7.28548">
        <ele>1000.3</ele>
        <time>2013-12-07T14:21:42Z</time>
      </trkpt>
      <trkpt lat="43.92317" lon="7.28543">
        <ele>1003.9</ele>
        <time>2013-12-07T14:22:07Z</time>
      </trkpt>
      <trkpt lat="43.92316" lon="7.28542">
        <ele>1003.9</ele>
        <time>2013-12-07T14:22:08Z</time>
      </trkpt>
      <trkpt lat="43.92301" lon="7.28542">
        <ele>1008.1</ele>
        <time>2013-12-07T14:22:30Z</time>
      </trkpt>
      <trkpt lat="43.92293" lon="7.28542">
        <ele>1009.5</ele>
        <time>2013-12-07T14:22:40Z</time>
      </trkpt>
      <trkpt lat="43.92285" lon="7.28546">
        <ele>1010.1</ele>
        <time>2013-12-07T14:32:36Z</time>
      </trkpt>
      <trkpt lat="43.92285" lon="7.28546">
        <ele>1010.2</ele>
        <time>2013-12-07T14:32:37Z</time>
      </trkpt>
      <trkpt lat="43.92281" lon="7.28559">
        <ele>1012.1</ele>
        <time>2013-12-07T14:35:26Z</time>
      </trkpt>
      <trkpt lat="43.92267" lon="7.2856">
        <ele>1008.7</ele>
        <time>2013-12-07T14:36:32Z</time>
      </trkpt>
      <trkpt lat="43.92266" lon="7.28561">
        <ele>1008.6</ele>
        <time>2013-12-07T14:36:33Z</time>
      </trkpt>
      <trkpt lat="43.92253" lon="7.28569">
        <ele>1006.8</ele>
        <time>2013-12-07T14:37:07Z</time>
      </trkpt>
      <trkpt lat="43.92246" lon="7.28575">
        <ele>1006.6</ele>
        <time>2013-12-07T14:37:13Z</time>
      </trkpt>
      <trkpt lat="43.9224" lon="7.28582">
        <ele>1006.8</ele>
        <time>2013-12-07T14:37:29Z</time>
      </trkpt>
      <trkpt lat="43.92234" lon="7.28589">
        <ele>1005.5</ele>
        <time>2013-12-07T14:37:33Z</time>
      </trkpt>
      <trkpt lat="43.92232" lon="7.2859">
        <ele>1005.1</ele>
        <time>2013-12-07T14:37:34Z</time>
      </trkpt>
      <trkpt lat="43.9222" lon="7.28601">
        <ele>1006</ele>
        <time>2013-12-07T14:37:41Z</time>
      </trkpt>
      <trkpt lat="43.92214" lon="7.28608">
        <ele>1004.8</ele>
        <time>2013-12-07T14:37:52Z</time>
      </trkpt>
      <trkpt lat="43.92208" lon="7.28616">
        <ele>1004.4</ele>
        <time>2013-12-07T14:37:56Z</time>
      </trkpt>
      <trkpt lat="43.92204" lon="7.28622">
        <ele>1004.5</ele>
        <time>2013-12-07T14:37:58Z</time>
      </trkpt>
      <trkpt lat="43.92199" lon="7.28628">
        <ele>1004.4</ele>
        <time>2013-12-07T14:38:00Z</time>
      </trkpt>
      <trkpt lat="43.92194" lon="7.28634">
        <ele>1004.3</ele>
        <time>2013-12-07T14:38:02Z</time>
      </trkpt>
      <trkpt lat="43.92187" lon="7.28639">
        <ele>1003.5</ele>
        <time>2013-12-07T14:38:04Z</time>
      </trkpt>
      <trkpt lat="43.92179" lon="7.28644">
        <ele>1002.8</ele>
        <time>2013-12-07T14:38:06Z</time>
      </trkpt>
      <trkpt lat="43.92173" lon="7.28647">
        <ele>1001.4</ele>
        <time>2013-12-07T14:38:08Z</time>
      </trkpt>
      <trkpt lat="43.92166" lon="7.28652">
        <ele>1001.1</ele>
        <time>2013-12-07T14:38:11Z</time>
      </trkpt>
      <trkpt lat="43.92158" lon="7.28658">
        <ele>1002</ele>
        <time>2013-12-07T14:38:16Z</time>
      </trkpt>
      <trkpt lat="43.92149" lon="7.28661">
        <ele>1000.4</ele>
        <time>2013-12-07T14:40:13Z</time>
      </trkpt>
      <trkpt lat="43.92149" lon="7.28661">
        <ele>1000</ele>
        <time>2013-12-07T14:40:14Z</time>
      </trkpt>
      <trkpt lat="43.92138" lon="7.28676">
        <ele>1000.6</ele>
        <time>2013-12-07T14:40:34Z</time>
      </trkpt>
      <trkpt lat="43.92132" lon="7.28684">
        <ele>1001.7</ele>
        <time>2013-12-07T14:40:39Z</time>
      </trkpt>
      <trkpt lat="43.92134" lon="7.28694">
        <ele>1002.3</ele>
        <time>2013-12-07T14:43:02Z</time>
      </trkpt>
      <trkpt lat="43.92134" lon="7.28697">
        <ele>1002</ele>
        <time>2013-12-07T14:43:03Z</time>
      </trkpt>
      <trkpt lat="43.92128" lon="7.28714">
        <ele>1001.1</ele>
        <time>2013-12-07T14:43:12Z</time>
      </trkpt>
      <trkpt lat="43.92123" lon="7.28722">
        <ele>1000.4</ele>
        <time>2013-12-07T14:43:14Z</time>
      </trkpt>
      <trkpt lat="43.92121" lon="7.28734">
        <ele>998.2</ele>
        <time>2013-12-07T14:43:22Z</time>
      </trkpt>
      <trkpt lat="43.92119" lon="7.28741">
        <ele>998</ele>
        <time>2013-12-07T14:43:26Z</time>
      </trkpt>
      <trkpt lat="43.92117" lon="7.2875">
        <ele>998.3</ele>
        <time>2013-12-07T14:43:28Z</time>
      </trkpt>
      <trkpt lat="43.92115" lon="7.28761">
        <ele>998.4</ele>
        <time>2013-12-07T14:43:30Z</time>
      </trkpt>
      <trkpt lat="43.92113" lon="7.28773">
        <ele>998</ele>
        <time>2013-12-07T14:43:32Z</time>
      </trkpt>
      <trkpt lat="43.92112" lon="7.28779">
        <ele>997.7</ele>
        <time>2013-12-07T14:43:33Z</time>
      </trkpt>
      <trkpt lat="43.9211" lon="7.2879">
        <ele>997.1</ele>
        <time>2013-12-07T14:43:35Z</time>
      </trkpt>
      <trkpt lat="43.92111" lon="7.288">
        <ele>996.5</ele>
        <time>2013-12-07T14:43:38Z</time>
      </trkpt>
      <trkpt lat="43.92114" lon="7.28809">
        <ele>995.4</ele>
        <time>2013-12-07T14:43:40Z</time>
      </trkpt>
      <trkpt lat="43.92116" lon="7.28819">
        <ele>993.5</ele>
        <time>2013-12-07T14:43:43Z</time>
      </trkpt>
      <trkpt lat="43.92113" lon="7.28826">
        <ele>992.6</ele>
        <time>2013-12-07T14:43:46Z</time>
      </trkpt>
      <trkpt lat="43.92109" lon="7.28834">
        <ele>991</ele>
        <time>2013-12-07T14:43:48Z</time>
      </trkpt>
      <trkpt lat="43.92102" lon="7.28835">
        <ele>989.2</ele>
        <time>2013-12-07T14:43:51Z</time>
      </trkpt>
      <trkpt lat="43.92095" lon="7.28837">
        <ele>988</ele>
        <time>2013-12-07T14:43:53Z</time>
      </trkpt>
      <trkpt lat="43.92088" lon="7.2884">
        <ele>986.5</ele>
        <time>2013-12-07T14:43:55Z</time>
      </trkpt>
      <trkpt lat="43.92085" lon="7.2885">
        <ele>982.8</ele>
        <time>2013-12-07T14:43:59Z</time>
      </trkpt>
      <trkpt lat="43.92081" lon="7.28857">
        <ele>980.6</ele>
        <time>2013-12-07T14:44:02Z</time>
      </trkpt>
      <trkpt lat="43.92075" lon="7.28859">
        <ele>979.9</ele>
        <time>2013-12-07T14:44:04Z</time>
      </trkpt>
      <trkpt lat="43.92071" lon="7.2886">
        <ele>979.7</ele>
        <time>2013-12-07T14:44:05Z</time>
      </trkpt>
      <trkpt lat="43.92064" lon="7.28871">
        <ele>978.1</ele>
        <time>2013-12-07T14:44:08Z</time>
      </trkpt>
      <trkpt lat="43.9206" lon="7.28882">
        <ele>976.3</ele>
        <time>2013-12-07T14:44:10Z</time>
      </trkpt>
      <trkpt lat="43.92055" lon="7.2889">
        <ele>973.8</ele>
        <time>2013-12-07T14:44:13Z</time>
      </trkpt>
      <trkpt lat="43.92048" lon="7.28897">
        <ele>972.3</ele>
        <time>2013-12-07T14:44:15Z</time>
      </trkpt>
      <trkpt lat="43.92046" lon="7.28903">
        <ele>971.3</ele>
        <time>2013-12-07T14:44:16Z</time>
      </trkpt>
      <trkpt lat="43.92043" lon="7.2891">
        <ele>970.6</ele>
        <time>2013-12-07T14:44:17Z</time>
      </trkpt>
      <trkpt lat="43.9204" lon="7.28916">
        <ele>969</ele>
        <time>2013-12-07T14:44:18Z</time>
      </trkpt>
      <trkpt lat="43.92037" lon="7.28923">
        <ele>967.8</ele>
        <time>2013-12-07T14:44:19Z</time>
      </trkpt>
      <trkpt lat="43.92034" lon="7.28929">
        <ele>967.3</ele>
        <time>2013-12-07T14:44:20Z</time>
      </trkpt>
      <trkpt lat="43.92031" lon="7.28934">
        <ele>966.9</ele>
        <time>2013-12-07T14:44:21Z</time>
      </trkpt>
      <trkpt lat="43.92027" lon="7.28939">
        <ele>966.6</ele>
        <time>2013-12-07T14:44:22Z</time>
      </trkpt>
      <trkpt lat="43.92023" lon="7.28944">
        <ele>966</ele>
        <time>2013-12-07T14:44:23Z</time>
      </trkpt>
      <trkpt lat="43.9202" lon="7.28948">
        <ele>965.5</ele>
        <time>2013-12-07T14:44:24Z</time>
      </trkpt>
      <trkpt lat="43.92017" lon="7.28953">
        <ele>964.9</ele>
        <time>2013-12-07T14:44:25Z</time>
      </trkpt>
      <trkpt lat="43.92014" lon="7.28958">
        <ele>964.4</ele>
        <time>2013-12-07T14:44:26Z</time>
      </trkpt>
      <trkpt lat="43.92008" lon="7.28967">
        <ele>963.7</ele>
        <time>2013-12-07T14:44:28Z</time>
      </trkpt>
      <trkpt lat="43.92005" lon="7.28971">
        <ele>963.5</ele>
        <time>2013-12-07T14:44:29Z</time>
      </trkpt>
      <trkpt lat="43.92001" lon="7.28975">
        <ele>963</ele>
        <time>2013-12-07T14:44:30Z</time>
      </trkpt>
      <trkpt lat="43.91994" lon="7.28982">
        <ele>962.2</ele>
        <time>2013-12-07T14:44:32Z</time>
      </trkpt>
      <trkpt lat="43.91987" lon="7.28986">
        <ele>961.3</ele>
        <time>2013-12-07T14:44:35Z</time>
      </trkpt>
      <trkpt lat="43.91981" lon="7.28993">
        <ele>959.8</ele>
        <time>2013-12-07T14:44:39Z</time>
      </trkpt>
      <trkpt lat="43.91976" lon="7.29003">
        <ele>956.7</ele>
        <time>2013-12-07T14:44:44Z</time>
      </trkpt>
      <trkpt lat="43.91974" lon="7.29015">
        <ele>951.3</ele>
        <time>2013-12-07T14:44:52Z</time>
      </trkpt>
      <trkpt lat="43.91971" lon="7.29025">
        <ele>947.2</ele>
        <time>2013-12-07T14:44:58Z</time>
      </trkpt>
      <trkpt lat="43.91966" lon="7.29033">
        <ele>945.1</ele>
        <time>2013-12-07T14:45:01Z</time>
      </trkpt>
      <trkpt lat="43.91961" lon="7.29035">
        <ele>943.7</ele>
        <time>2013-12-07T14:45:03Z</time>
      </trkpt>
      <trkpt lat="43.91954" lon="7.29036">
        <ele>942.8</ele>
        <time>2013-12-07T14:45:05Z</time>
      </trkpt>
      <trkpt lat="43.91951" lon="7.29039">
        <ele>941.8</ele>
        <time>2013-12-07T14:45:06Z</time>
      </trkpt>
      <trkpt lat="43.91941" lon="7.29043">
        <ele>939.8</ele>
        <time>2013-12-07T14:45:09Z</time>
      </trkpt>
      <trkpt lat="43.91936" lon="7.29051">
        <ele>937</ele>
        <time>2013-12-07T14:45:12Z</time>
      </trkpt>
      <trkpt lat="43.9193" lon="7.29057">
        <ele>933.9</ele>
        <time>2013-12-07T14:45:15Z</time>
      </trkpt>
      <trkpt lat="43.91927" lon="7.29068">
        <ele>928.6</ele>
        <time>2013-12-07T14:45:21Z</time>
      </trkpt>
      <trkpt lat="43.9192" lon="7.29073">
        <ele>926.6</ele>
        <time>2013-12-07T14:45:25Z</time>
      </trkpt>
      <trkpt lat="43.91914" lon="7.29075">
        <ele>925.6</ele>
        <time>2013-12-07T14:45:27Z</time>
      </trkpt>
      <trkpt lat="43.91908" lon="7.29079">
        <ele>924.2</ele>
        <time>2013-12-07T14:45:29Z</time>
      </trkpt>
      <trkpt lat="43.91903" lon="7.29086">
        <ele>922.1</ele>
        <time>2013-12-07T14:45:32Z</time>
      </trkpt>
      <trkpt lat="43.91906" lon="7.29095">
        <ele>920.6</ele>
        <time>2013-12-07T14:45:34Z</time>
      </trkpt>
      <trkpt lat="43.91905" lon="7.29108">
        <ele>919.2</ele>
        <time>2013-12-07T14:45:36Z</time>
      </trkpt>
      <trkpt lat="43.91903" lon="7.29119">
        <ele>918.2</ele>
        <time>2013-12-07T14:45:38Z</time>
      </trkpt>
      <trkpt lat="43.91899" lon="7.2913">
        <ele>914.8</ele>
        <time>2013-12-07T14:45:46Z</time>
      </trkpt>
      <trkpt lat="43.91894" lon="7.29139">
        <ele>912.9</ele>
        <time>2013-12-07T14:46:02Z</time>
      </trkpt>
      <trkpt lat="43.91886" lon="7.29144">
        <ele>913.2</ele>
        <time>2013-12-07T14:46:36Z</time>
      </trkpt>
      <trkpt lat="43.91885" lon="7.29145">
        <ele>913.5</ele>
        <time>2013-12-07T14:46:37Z</time>
      </trkpt>
      <trkpt lat="43.91874" lon="7.29157">
        <ele>907.7</ele>
        <time>2013-12-07T14:46:56Z</time>
      </trkpt>
      <trkpt lat="43.91866" lon="7.29158">
        <ele>906.3</ele>
        <time>2013-12-07T14:46:59Z</time>
      </trkpt>
      <trkpt lat="43.91857" lon="7.29156">
        <ele>901.8</ele>
        <time>2013-12-07T14:47:08Z</time>
      </trkpt>
      <trkpt lat="43.91852" lon="7.29163">
        <ele>900.5</ele>
        <time>2013-12-07T14:47:12Z</time>
      </trkpt>
      <trkpt lat="43.91847" lon="7.2917">
        <ele>898.6</ele>
        <time>2013-12-07T14:47:16Z</time>
      </trkpt>
      <trkpt lat="43.91838" lon="7.29169">
        <ele>897.9</ele>
        <time>2013-12-07T14:47:19Z</time>
      </trkpt>
      <trkpt lat="43.91831" lon="7.29174">
        <ele>896.6</ele>
        <time>2013-12-07T14:47:24Z</time>
      </trkpt>
      <trkpt lat="43.91826" lon="7.29164">
        <ele>893.2</ele>
        <time>2013-12-07T14:47:30Z</time>
      </trkpt>
      <trkpt lat="43.91823" lon="7.29155">
        <ele>891.6</ele>
        <time>2013-12-07T14:47:33Z</time>
      </trkpt>
      <trkpt lat="43.91818" lon="7.29146">
        <ele>890.2</ele>
        <time>2013-12-07T14:47:35Z</time>
      </trkpt>
      <trkpt lat="43.91815" lon="7.29134">
        <ele>888.8</ele>
        <time>2013-12-07T14:47:37Z</time>
      </trkpt>
      <trkpt lat="43.91814" lon="7.29129">
        <ele>888.3</ele>
        <time>2013-12-07T14:47:38Z</time>
      </trkpt>
      <trkpt lat="43.91812" lon="7.29113">
        <ele>886.2</ele>
        <time>2013-12-07T14:47:41Z</time>
      </trkpt>
      <trkpt lat="43.91813" lon="7.29102">
        <ele>884.6</ele>
        <time>2013-12-07T14:47:44Z</time>
      </trkpt>
      <trkpt lat="43.91815" lon="7.2909">
        <ele>882</ele>
        <time>2013-12-07T14:47:47Z</time>
      </trkpt>
      <trkpt lat="43.91815" lon="7.29078">
        <ele>878.4</ele>
        <time>2013-12-07T14:47:51Z</time>
      </trkpt>
      <trkpt lat="43.91815" lon="7.29068">
        <ele>876.6</ele>
        <time>2013-12-07T14:47:54Z</time>
      </trkpt>
      <trkpt lat="43.91814" lon="7.29059">
        <ele>875.4</ele>
        <time>2013-12-07T14:47:56Z</time>
      </trkpt>
      <trkpt lat="43.91811" lon="7.29048">
        <ele>874.7</ele>
        <time>2013-12-07T14:47:58Z</time>
      </trkpt>
      <trkpt lat="43.91809" lon="7.29043">
        <ele>873.9</ele>
        <time>2013-12-07T14:47:59Z</time>
      </trkpt>
      <trkpt lat="43.91807" lon="7.29036">
        <ele>873.3</ele>
        <time>2013-12-07T14:48:00Z</time>
      </trkpt>
      <trkpt lat="43.91805" lon="7.2903">
        <ele>872.3</ele>
        <time>2013-12-07T14:48:01Z</time>
      </trkpt>
      <trkpt lat="43.91803" lon="7.2902">
        <ele>871</ele>
        <time>2013-12-07T14:48:03Z</time>
      </trkpt>
      <trkpt lat="43.91803" lon="7.29012">
        <ele>869.9</ele>
        <time>2013-12-07T14:48:05Z</time>
      </trkpt>
      <trkpt lat="43.91802" lon="7.29001">
        <ele>868.3</ele>
        <time>2013-12-07T14:48:07Z</time>
      </trkpt>
      <trkpt lat="43.91801" lon="7.28989">
        <ele>864.7</ele>
        <time>2013-12-07T14:48:10Z</time>
      </trkpt>
      <trkpt lat="43.91798" lon="7.28979">
        <ele>863.3</ele>
        <time>2013-12-07T14:48:12Z</time>
      </trkpt>
      <trkpt lat="43.91796" lon="7.28969">
        <ele>862.1</ele>
        <time>2013-12-07T14:48:14Z</time>
      </trkpt>
      <trkpt lat="43.91794" lon="7.28963">
        <ele>861.2</ele>
        <time>2013-12-07T14:48:15Z</time>
      </trkpt>
      <trkpt lat="43.91788" lon="7.28955">
        <ele>859.9</ele>
        <time>2013-12-07T14:48:17Z</time>
      </trkpt>
      <trkpt lat="43.91781" lon="7.28948">
        <ele>857.9</ele>
        <time>2013-12-07T14:48:19Z</time>
      </trkpt>
      <trkpt lat="43.91779" lon="7.2894">
        <ele>856.1</ele>
        <time>2013-12-07T14:48:21Z</time>
      </trkpt>
      <trkpt lat="43.91775" lon="7.28932">
        <ele>854.5</ele>
        <time>2013-12-07T14:48:23Z</time>
      </trkpt>
      <trkpt lat="43.91775" lon="7.2892">
        <ele>851.9</ele>
        <time>2013-12-07T14:48:26Z</time>
      </trkpt>
      <trkpt lat="43.91776" lon="7.28908">
        <ele>850.1</ele>
        <time>2013-12-07T14:48:28Z</time>
      </trkpt>
      <trkpt lat="43.91778" lon="7.28898">
        <ele>849.4</ele>
        <time>2013-12-07T14:48:30Z</time>
      </trkpt>
      <trkpt lat="43.91779" lon="7.28888">
        <ele>848.1</ele>
        <time>2013-12-07T14:48:32Z</time>
      </trkpt>
      <trkpt lat="43.91777" lon="7.28876">
        <ele>846.4</ele>
        <time>2013-12-07T14:48:34Z</time>
      </trkpt>
      <trkpt lat="43.91774" lon="7.2887">
        <ele>845.8</ele>
        <time>2013-12-07T14:48:35Z</time>
      </trkpt>
      <trkpt lat="43.91772" lon="7.28864">
        <ele>845.4</ele>
        <time>2013-12-07T14:48:36Z</time>
      </trkpt>
      <trkpt lat="43.91769" lon="7.28858">
        <ele>844.9</ele>
        <time>2013-12-07T14:48:37Z</time>
      </trkpt>
      <trkpt lat="43.91766" lon="7.28853">
        <ele>844.6</ele>
        <time>2013-12-07T14:48:38Z</time>
      </trkpt>
      <trkpt lat="43.91762" lon="7.28848">
        <ele>843.8</ele>
        <time>2013-12-07T14:48:39Z</time>
      </trkpt>
      <trkpt lat="43.91756" lon="7.28841">
        <ele>842.7</ele>
        <time>2013-12-07T14:48:41Z</time>
      </trkpt>
      <trkpt lat="43.91751" lon="7.28833">
        <ele>840.1</ele>
        <time>2013-12-07T14:48:44Z</time>
      </trkpt>
      <trkpt lat="43.91748" lon="7.28822">
        <ele>837.8</ele>
        <time>2013-12-07T14:48:47Z</time>
      </trkpt>
      <trkpt lat="43.91744" lon="7.28813">
        <ele>834.5</ele>
        <time>2013-12-07T14:48:51Z</time>
      </trkpt>
      <trkpt lat="43.91743" lon="7.288">
        <ele>832.3</ele>
        <time>2013-12-07T14:48:56Z</time>
      </trkpt>
      <trkpt lat="43.91739" lon="7.28792">
        <ele>829.2</ele>
        <time>2013-12-07T14:49:01Z</time>
      </trkpt>
      <trkpt lat="43.91737" lon="7.28782">
        <ele>826.5</ele>
        <time>2013-12-07T14:49:05Z</time>
      </trkpt>
      <trkpt lat="43.91738" lon="7.2877">
        <ele>824.5</ele>
        <time>2013-12-07T14:49:08Z</time>
      </trkpt>
      <trkpt lat="43.91732" lon="7.28761">
        <ele>819</ele>
        <time>2013-12-07T14:49:16Z</time>
      </trkpt>
      <trkpt lat="43.91733" lon="7.28748">
        <ele>816.2</ele>
        <time>2013-12-07T14:50:38Z</time>
      </trkpt>
      <trkpt lat="43.91734" lon="7.28747">
        <ele>816.5</ele>
        <time>2013-12-07T14:50:39Z</time>
      </trkpt>
      <trkpt lat="43.91741" lon="7.28731">
        <ele>812.3</ele>
        <time>2013-12-07T14:50:52Z</time>
      </trkpt>
      <trkpt lat="43.91748" lon="7.28725">
        <ele>810.4</ele>
        <time>2013-12-07T14:50:55Z</time>
      </trkpt>
      <trkpt lat="43.91755" lon="7.2872">
        <ele>809</ele>
        <time>2013-12-07T14:50:57Z</time>
      </trkpt>
      <trkpt lat="43.91761" lon="7.28713">
        <ele>805.8</ele>
        <time>2013-12-07T14:51:00Z</time>
      </trkpt>
      <trkpt lat="43.91768" lon="7.28706">
        <ele>803.4</ele>
        <time>2013-12-07T14:51:03Z</time>
      </trkpt>
      <trkpt lat="43.91771" lon="7.28699">
        <ele>801.6</ele>
        <time>2013-12-07T14:51:05Z</time>
      </trkpt>
      <trkpt lat="43.91776" lon="7.28691">
        <ele>798.8</ele>
        <time>2013-12-07T14:51:07Z</time>
      </trkpt>
      <trkpt lat="43.91779" lon="7.28687">
        <ele>797.9</ele>
        <time>2013-12-07T14:51:08Z</time>
      </trkpt>
      <trkpt lat="43.91783" lon="7.28683">
        <ele>796.8</ele>
        <time>2013-12-07T14:51:09Z</time>
      </trkpt>
      <trkpt lat="43.91786" lon="7.28678">
        <ele>796.1</ele>
        <time>2013-12-07T14:51:10Z</time>
      </trkpt>
      <trkpt lat="43.9179" lon="7.28673">
        <ele>794.9</ele>
        <time>2013-12-07T14:51:11Z</time>
      </trkpt>
      <trkpt lat="43.91793" lon="7.28668">
        <ele>794.1</ele>
        <time>2013-12-07T14:51:12Z</time>
      </trkpt>
      <trkpt lat="43.918" lon="7.28661">
        <ele>792.8</ele>
        <time>2013-12-07T14:51:14Z</time>
      </trkpt>
      <trkpt lat="43.91803" lon="7.2865">
        <ele>791.8</ele>
        <time>2013-12-07T14:51:16Z</time>
      </trkpt>
      <trkpt lat="43.91805" lon="7.28639">
        <ele>790.9</ele>
        <time>2013-12-07T14:51:18Z</time>
      </trkpt>
      <trkpt lat="43.91802" lon="7.28629">
        <ele>790.3</ele>
        <time>2013-12-07T14:51:20Z</time>
      </trkpt>
      <trkpt lat="43.91801" lon="7.28617">
        <ele>789.5</ele>
        <time>2013-12-07T14:51:22Z</time>
      </trkpt>
      <trkpt lat="43.91801" lon="7.28605">
        <ele>788.7</ele>
        <time>2013-12-07T14:51:26Z</time>
      </trkpt>
      <trkpt lat="43.91801" lon="7.28593">
        <ele>787.9</ele>
        <time>2013-12-07T14:51:41Z</time>
      </trkpt>
      <trkpt lat="43.91801" lon="7.2859">
        <ele>788.1</ele>
        <time>2013-12-07T14:51:42Z</time>
      </trkpt>
      <trkpt lat="43.91802" lon="7.28574">
        <ele>788.1</ele>
        <time>2013-12-07T14:51:45Z</time>
      </trkpt>
      <trkpt lat="43.91802" lon="7.28562">
        <ele>787.9</ele>
        <time>2013-12-07T14:51:47Z</time>
      </trkpt>
      <trkpt lat="43.91802" lon="7.28556">
        <ele>787.8</ele>
        <time>2013-12-07T14:51:48Z</time>
      </trkpt>
      <trkpt lat="43.91802" lon="7.28549">
        <ele>787.1</ele>
        <time>2013-12-07T14:51:49Z</time>
      </trkpt>
      <trkpt lat="43.91801" lon="7.28542">
        <ele>786.5</ele>
        <time>2013-12-07T14:51:50Z</time>
      </trkpt>
      <trkpt lat="43.91803" lon="7.28531">
        <ele>785.2</ele>
        <time>2013-12-07T14:51:52Z</time>
      </trkpt>
      <trkpt lat="43.91807" lon="7.28527">
        <ele>784.8</ele>
        <time>2013-12-07T14:51:53Z</time>
      </trkpt>
      <trkpt lat="43.9181" lon="7.28522">
        <ele>784.5</ele>
        <time>2013-12-07T14:51:54Z</time>
      </trkpt>
      <trkpt lat="43.91814" lon="7.28517">
        <ele>784.3</ele>
        <time>2013-12-07T14:51:55Z</time>
      </trkpt>
      <trkpt lat="43.91818" lon="7.28513">
        <ele>783.9</ele>
        <time>2013-12-07T14:51:56Z</time>
      </trkpt>
      <trkpt lat="43.91824" lon="7.28504">
        <ele>783.3</ele>
        <time>2013-12-07T14:51:58Z</time>
      </trkpt>
      <trkpt lat="43.91831" lon="7.28496">
        <ele>783.2</ele>
        <time>2013-12-07T14:52:00Z</time>
      </trkpt>
      <trkpt lat="43.91837" lon="7.2849">
        <ele>783.1</ele>
        <time>2013-12-07T14:52:02Z</time>
      </trkpt>
      <trkpt lat="43.9184" lon="7.28478">
        <ele>781.7</ele>
        <time>2013-12-07T14:52:07Z</time>
      </trkpt>
      <trkpt lat="43.91839" lon="7.28469">
        <ele>780.9</ele>
        <time>2013-12-07T14:52:09Z</time>
      </trkpt>
      <trkpt lat="43.91838" lon="7.28459">
        <ele>780.5</ele>
        <time>2013-12-07T14:52:11Z</time>
      </trkpt>
      <trkpt lat="43.91838" lon="7.2845">
        <ele>780.2</ele>
        <time>2013-12-07T14:52:13Z</time>
      </trkpt>
      <trkpt lat="43.91839" lon="7.2844">
        <ele>780.1</ele>
        <time>2013-12-07T14:52:15Z</time>
      </trkpt>
      <trkpt lat="43.91841" lon="7.28431">
        <ele>780.1</ele>
        <time>2013-12-07T14:52:17Z</time>
      </trkpt>
      <trkpt lat="43.91844" lon="7.28424">
        <ele>780.1</ele>
        <time>2013-12-07T14:52:19Z</time>
      </trkpt>
      <trkpt lat="43.91849" lon="7.28417">
        <ele>779.6</ele>
        <time>2013-12-07T14:52:21Z</time>
      </trkpt>
      <trkpt lat="43.91854" lon="7.28408">
        <ele>778.6</ele>
        <time>2013-12-07T14:52:23Z</time>
      </trkpt>
      <trkpt lat="43.91859" lon="7.284">
        <ele>778.1</ele>
        <time>2013-12-07T14:52:25Z</time>
      </trkpt>
      <trkpt lat="43.91863" lon="7.28396">
        <ele>778</ele>
        <time>2013-12-07T14:52:26Z</time>
      </trkpt>
      <trkpt lat="43.91866" lon="7.28392">
        <ele>777.3</ele>
        <time>2013-12-07T14:52:27Z</time>
      </trkpt>
      <trkpt lat="43.9187" lon="7.28388">
        <ele>776.7</ele>
        <time>2013-12-07T14:52:28Z</time>
      </trkpt>
      <trkpt lat="43.91874" lon="7.28384">
        <ele>776.8</ele>
        <time>2013-12-07T14:52:29Z</time>
      </trkpt>
      <trkpt lat="43.91877" lon="7.2838">
        <ele>776.8</ele>
        <time>2013-12-07T14:52:30Z</time>
      </trkpt>
      <trkpt lat="43.91885" lon="7.28374">
        <ele>776.4</ele>
        <time>2013-12-07T14:52:32Z</time>
      </trkpt>
      <trkpt lat="43.91892" lon="7.28369">
        <ele>775.5</ele>
        <time>2013-12-07T14:52:34Z</time>
      </trkpt>
      <trkpt lat="43.91899" lon="7.28364">
        <ele>775.3</ele>
        <time>2013-12-07T14:52:36Z</time>
      </trkpt>
      <trkpt lat="43.91902" lon="7.28354">
        <ele>775.3</ele>
        <time>2013-12-07T14:52:39Z</time>
      </trkpt>
      <trkpt lat="43.91898" lon="7.28346">
        <ele>774.2</ele>
        <time>2013-12-07T14:52:42Z</time>
      </trkpt>
      <trkpt lat="43.91895" lon="7.28343">
        <ele>774</ele>
        <time>2013-12-07T14:52:43Z</time>
      </trkpt>
      <trkpt lat="43.91884" lon="7.28337">
        <ele>773.6</ele>
        <time>2013-12-07T14:52:46Z</time>
      </trkpt>
      <trkpt lat="43.91876" lon="7.28332">
        <ele>773.1</ele>
        <time>2013-12-07T14:52:48Z</time>
      </trkpt>
      <trkpt lat="43.91869" lon="7.28327">
        <ele>772.8</ele>
        <time>2013-12-07T14:52:50Z</time>
      </trkpt>
      <trkpt lat="43.91865" lon="7.28319">
        <ele>771.5</ele>
        <time>2013-12-07T14:52:52Z</time>
      </trkpt>
      <trkpt lat="43.91862" lon="7.28308">
        <ele>770.8</ele>
        <time>2013-12-07T14:52:54Z</time>
      </trkpt>
      <trkpt lat="43.91862" lon="7.28298">
        <ele>770.5</ele>
        <time>2013-12-07T14:52:56Z</time>
      </trkpt>
      <trkpt lat="43.91862" lon="7.28285">
        <ele>770.3</ele>
        <time>2013-12-07T14:52:59Z</time>
      </trkpt>
      <trkpt lat="43.91858" lon="7.28279">
        <ele>770.2</ele>
        <time>2013-12-07T14:53:01Z</time>
      </trkpt>
      <trkpt lat="43.91851" lon="7.28275">
        <ele>770.2</ele>
        <time>2013-12-07T14:53:03Z</time>
      </trkpt>
      <trkpt lat="43.91845" lon="7.28271">
        <ele>769.7</ele>
        <time>2013-12-07T14:53:05Z</time>
      </trkpt>
      <trkpt lat="43.91838" lon="7.28266">
        <ele>769.1</ele>
        <time>2013-12-07T14:53:07Z</time>
      </trkpt>
      <trkpt lat="43.91834" lon="7.28264">
        <ele>768.9</ele>
        <time>2013-12-07T14:53:08Z</time>
      </trkpt>
      <trkpt lat="43.91829" lon="7.28263">
        <ele>768.7</ele>
        <time>2013-12-07T14:53:09Z</time>
      </trkpt>
      <trkpt lat="43.91821" lon="7.28259">
        <ele>768.6</ele>
        <time>2013-12-07T14:53:11Z</time>
      </trkpt>
      <trkpt lat="43.91816" lon="7.28256">
        <ele>768</ele>
        <time>2013-12-07T14:53:12Z</time>
      </trkpt>
      <trkpt lat="43.91812" lon="7.28254">
        <ele>767.5</ele>
        <time>2013-12-07T14:53:13Z</time>
      </trkpt>
      <trkpt lat="43.91807" lon="7.28253">
        <ele>766.4</ele>
        <time>2013-12-07T14:53:14Z</time>
      </trkpt>
      <trkpt lat="43.91802" lon="7.28251">
        <ele>765.5</ele>
        <time>2013-12-07T14:53:15Z</time>
      </trkpt>
      <trkpt lat="43.91797" lon="7.28251">
        <ele>764.9</ele>
        <time>2013-12-07T14:53:16Z</time>
      </trkpt>
      <trkpt lat="43.9179" lon="7.2825">
        <ele>764.6</ele>
        <time>2013-12-07T14:53:18Z</time>
      </trkpt>
      <trkpt lat="43.91783" lon="7.28249">
        <ele>763.9</ele>
        <time>2013-12-07T14:53:20Z</time>
      </trkpt>
      <trkpt lat="43.91775" lon="7.28251">
        <ele>763.8</ele>
        <time>2013-12-07T14:53:22Z</time>
      </trkpt>
      <trkpt lat="43.9177" lon="7.28252">
        <ele>763.8</ele>
        <time>2013-12-07T14:53:23Z</time>
      </trkpt>
      <trkpt lat="43.91766" lon="7.28254">
        <ele>763.5</ele>
        <time>2013-12-07T14:53:24Z</time>
      </trkpt>
      <trkpt lat="43.91757" lon="7.28258">
        <ele>763.1</ele>
        <time>2013-12-07T14:53:26Z</time>
      </trkpt>
      <trkpt lat="43.91749" lon="7.28259">
        <ele>762.9</ele>
        <time>2013-12-07T14:53:28Z</time>
      </trkpt>
      <trkpt lat="43.91741" lon="7.28258">
        <ele>763</ele>
        <time>2013-12-07T14:53:30Z</time>
      </trkpt>
      <trkpt lat="43.91734" lon="7.28256">
        <ele>763</ele>
        <time>2013-12-07T14:53:32Z</time>
      </trkpt>
      <trkpt lat="43.91728" lon="7.28253">
        <ele>762.2</ele>
        <time>2013-12-07T14:53:34Z</time>
      </trkpt>
      <trkpt lat="43.91721" lon="7.2825">
        <ele>761.7</ele>
        <time>2013-12-07T14:53:36Z</time>
      </trkpt>
      <trkpt lat="43.91714" lon="7.28249">
        <ele>761.4</ele>
        <time>2013-12-07T14:53:38Z</time>
      </trkpt>
      <trkpt lat="43.91706" lon="7.28247">
        <ele>761.1</ele>
        <time>2013-12-07T14:53:40Z</time>
      </trkpt>
      <trkpt lat="43.91699" lon="7.28242">
        <ele>760.6</ele>
        <time>2013-12-07T14:53:42Z</time>
      </trkpt>
      <trkpt lat="43.91695" lon="7.28234">
        <ele>760.4</ele>
        <time>2013-12-07T14:53:44Z</time>
      </trkpt>
      <trkpt lat="43.91693" lon="7.2823">
        <ele>759.7</ele>
        <time>2013-12-07T14:53:45Z</time>
      </trkpt>
      <trkpt lat="43.9169" lon="7.28214">
        <ele>758.3</ele>
        <time>2013-12-07T14:53:48Z</time>
      </trkpt>
      <trkpt lat="43.91689" lon="7.28203">
        <ele>757.4</ele>
        <time>2013-12-07T14:53:50Z</time>
      </trkpt>
      <trkpt lat="43.91689" lon="7.28192">
        <ele>755.9</ele>
        <time>2013-12-07T14:53:52Z</time>
      </trkpt>
      <trkpt lat="43.9169" lon="7.28181">
        <ele>754.3</ele>
        <time>2013-12-07T14:53:54Z</time>
      </trkpt>
      <trkpt lat="43.9169" lon="7.28173">
        <ele>752.4</ele>
        <time>2013-12-07T14:53:56Z</time>
      </trkpt>
      <trkpt lat="43.91694" lon="7.28166">
        <ele>751.5</ele>
        <time>2013-12-07T14:53:58Z</time>
      </trkpt>
      <trkpt lat="43.917" lon="7.28157">
        <ele>750</ele>
        <time>2013-12-07T14:54:01Z</time>
      </trkpt>
      <trkpt lat="43.91706" lon="7.28152">
        <ele>748.8</ele>
        <time>2013-12-07T14:54:03Z</time>
      </trkpt>
      <trkpt lat="43.91712" lon="7.28146">
        <ele>748</ele>
        <time>2013-12-07T14:54:06Z</time>
      </trkpt>
      <trkpt lat="43.91717" lon="7.28138">
        <ele>744.5</ele>
        <time>2013-12-07T14:54:11Z</time>
      </trkpt>
      <trkpt lat="43.91714" lon="7.28129">
        <ele>742.1</ele>
        <time>2013-12-07T14:54:15Z</time>
      </trkpt>
      <trkpt lat="43.91709" lon="7.28123">
        <ele>740.7</ele>
        <time>2013-12-07T14:54:17Z</time>
      </trkpt>
      <trkpt lat="43.91703" lon="7.28117">
        <ele>739.6</ele>
        <time>2013-12-07T14:54:19Z</time>
      </trkpt>
      <trkpt lat="43.91696" lon="7.28113">
        <ele>739.2</ele>
        <time>2013-12-07T14:54:21Z</time>
      </trkpt>
      <trkpt lat="43.91689" lon="7.28107">
        <ele>738.7</ele>
        <time>2013-12-07T14:54:23Z</time>
      </trkpt>
      <trkpt lat="43.91685" lon="7.28104">
        <ele>738.4</ele>
        <time>2013-12-07T14:54:24Z</time>
      </trkpt>
      <trkpt lat="43.91681" lon="7.281">
        <ele>738.1</ele>
        <time>2013-12-07T14:54:25Z</time>
      </trkpt>
      <trkpt lat="43.91678" lon="7.28095">
        <ele>737.4</ele>
        <time>2013-12-07T14:54:26Z</time>
      </trkpt>
      <trkpt lat="43.91676" lon="7.28089">
        <ele>736.8</ele>
        <time>2013-12-07T14:54:27Z</time>
      </trkpt>
      <trkpt lat="43.91675" lon="7.28083">
        <ele>736.6</ele>
        <time>2013-12-07T14:54:28Z</time>
      </trkpt>
      <trkpt lat="43.91673" lon="7.28076">
        <ele>736.5</ele>
        <time>2013-12-07T14:54:29Z</time>
      </trkpt>
      <trkpt lat="43.91672" lon="7.2807">
        <ele>736.1</ele>
        <time>2013-12-07T14:54:30Z</time>
      </trkpt>
      <trkpt lat="43.91671" lon="7.28063">
        <ele>735.7</ele>
        <time>2013-12-07T14:54:31Z</time>
      </trkpt>
      <trkpt lat="43.91669" lon="7.28057">
        <ele>735.5</ele>
        <time>2013-12-07T14:54:32Z</time>
      </trkpt>
      <trkpt lat="43.91667" lon="7.2805">
        <ele>735.1</ele>
        <time>2013-12-07T14:54:33Z</time>
      </trkpt>
      <trkpt lat="43.91666" lon="7.28043">
        <ele>734.8</ele>
        <time>2013-12-07T14:54:34Z</time>
      </trkpt>
      <trkpt lat="43.91665" lon="7.28036">
        <ele>734.1</ele>
        <time>2013-12-07T14:54:35Z</time>
      </trkpt>
      <trkpt lat="43.91664" lon="7.28029">
        <ele>733.6</ele>
        <time>2013-12-07T14:54:36Z</time>
      </trkpt>
      <trkpt lat="43.91662" lon="7.28023">
        <ele>733.2</ele>
        <time>2013-12-07T14:54:37Z</time>
      </trkpt>
      <trkpt lat="43.9166" lon="7.28017">
        <ele>733.4</ele>
        <time>2013-12-07T14:54:38Z</time>
      </trkpt>
      <trkpt lat="43.91657" lon="7.2801">
        <ele>733.6</ele>
        <time>2013-12-07T14:54:39Z</time>
      </trkpt>
      <trkpt lat="43.91654" lon="7.28004">
        <ele>733</ele>
        <time>2013-12-07T14:54:40Z</time>
      </trkpt>
      <trkpt lat="43.9165" lon="7.27997">
        <ele>732.5</ele>
        <time>2013-12-07T14:54:41Z</time>
      </trkpt>
      <trkpt lat="43.91646" lon="7.2799">
        <ele>732</ele>
        <time>2013-12-07T14:54:42Z</time>
      </trkpt>
      <trkpt lat="43.91642" lon="7.27984">
        <ele>731.6</ele>
        <time>2013-12-07T14:54:43Z</time>
      </trkpt>
      <trkpt lat="43.91639" lon="7.27978">
        <ele>731.4</ele>
        <time>2013-12-07T14:54:44Z</time>
      </trkpt>
      <trkpt lat="43.91635" lon="7.27972">
        <ele>731</ele>
        <time>2013-12-07T14:54:45Z</time>
      </trkpt>
      <trkpt lat="43.91631" lon="7.27967">
        <ele>730.7</ele>
        <time>2013-12-07T14:54:46Z</time>
      </trkpt>
      <trkpt lat="43.91627" lon="7.27961">
        <ele>730.1</ele>
        <time>2013-12-07T14:54:47Z</time>
      </trkpt>
      <trkpt lat="43.91624" lon="7.27955">
        <ele>729.6</ele>
        <time>2013-12-07T14:54:48Z</time>
      </trkpt>
      <trkpt lat="43.91621" lon="7.2795">
        <ele>729.2</ele>
        <time>2013-12-07T14:54:49Z</time>
      </trkpt>
      <trkpt lat="43.91618" lon="7.27945">
        <ele>729</ele>
        <time>2013-12-07T14:54:50Z</time>
      </trkpt>
      <trkpt lat="43.91614" lon="7.2794">
        <ele>728.8</ele>
        <time>2013-12-07T14:54:51Z</time>
      </trkpt>
      <trkpt lat="43.91612" lon="7.27935">
        <ele>728.4</ele>
        <time>2013-12-07T14:54:52Z</time>
      </trkpt>
      <trkpt lat="43.91607" lon="7.27926">
        <ele>727.7</ele>
        <time>2013-12-07T14:54:54Z</time>
      </trkpt>
      <trkpt lat="43.91604" lon="7.2792">
        <ele>727.5</ele>
        <time>2013-12-07T14:54:55Z</time>
      </trkpt>
      <trkpt lat="43.91601" lon="7.27915">
        <ele>727.3</ele>
        <time>2013-12-07T14:54:56Z</time>
      </trkpt>
      <trkpt lat="43.91598" lon="7.27909">
        <ele>726.9</ele>
        <time>2013-12-07T14:54:57Z</time>
      </trkpt>
      <trkpt lat="43.91596" lon="7.27903">
        <ele>726.6</ele>
        <time>2013-12-07T14:54:58Z</time>
      </trkpt>
      <trkpt lat="43.91594" lon="7.27891">
        <ele>725.4</ele>
        <time>2013-12-07T14:55:00Z</time>
      </trkpt>
      <trkpt lat="43.91591" lon="7.2788">
        <ele>724.7</ele>
        <time>2013-12-07T14:55:02Z</time>
      </trkpt>
      <trkpt lat="43.9159" lon="7.27869">
        <ele>723.8</ele>
        <time>2013-12-07T14:55:04Z</time>
      </trkpt>
      <trkpt lat="43.91587" lon="7.27859">
        <ele>723.2</ele>
        <time>2013-12-07T14:55:06Z</time>
      </trkpt>
      <trkpt lat="43.91585" lon="7.2785">
        <ele>722.4</ele>
        <time>2013-12-07T14:55:08Z</time>
      </trkpt>
      <trkpt lat="43.91583" lon="7.27842">
        <ele>721.5</ele>
        <time>2013-12-07T14:55:10Z</time>
      </trkpt>
      <trkpt lat="43.91583" lon="7.27831">
        <ele>719.8</ele>
        <time>2013-12-07T14:55:13Z</time>
      </trkpt>
      <trkpt lat="43.91584" lon="7.27821">
        <ele>719.7</ele>
        <time>2013-12-07T14:55:16Z</time>
      </trkpt>
      <trkpt lat="43.91585" lon="7.27809">
        <ele>719.8</ele>
        <time>2013-12-07T14:55:22Z</time>
      </trkpt>
      <trkpt lat="43.91588" lon="7.27801">
        <ele>719.5</ele>
        <time>2013-12-07T14:55:27Z</time>
      </trkpt>
      <trkpt lat="43.91595" lon="7.27794">
        <ele>719.7</ele>
        <time>2013-12-07T14:55:30Z</time>
      </trkpt>
      <trkpt lat="43.91602" lon="7.27786">
        <ele>717.8</ele>
        <time>2013-12-07T14:55:33Z</time>
      </trkpt>
      <trkpt lat="43.91608" lon="7.27782">
        <ele>717.7</ele>
        <time>2013-12-07T14:55:35Z</time>
      </trkpt>
      <trkpt lat="43.91613" lon="7.27777">
        <ele>717.3</ele>
        <time>2013-12-07T14:55:37Z</time>
      </trkpt>
      <trkpt lat="43.91621" lon="7.27771">
        <ele>717.3</ele>
        <time>2013-12-07T14:55:41Z</time>
      </trkpt>
      <trkpt lat="43.91625" lon="7.27761">
        <ele>718</ele>
        <time>2013-12-07T14:56:12Z</time>
      </trkpt>
      <trkpt lat="43.91625" lon="7.2776">
        <ele>718</ele>
        <time>2013-12-07T14:56:13Z</time>
      </trkpt>
      <trkpt lat="43.91635" lon="7.27744">
        <ele>718.2</ele>
        <time>2013-12-07T14:56:58Z</time>
      </trkpt>
      <trkpt lat="43.9164" lon="7.27738">
        <ele>718.1</ele>
        <time>2013-12-07T14:57:00Z</time>
      </trkpt>
      <trkpt lat="43.91645" lon="7.27732">
        <ele>717.6</ele>
        <time>2013-12-07T14:57:02Z</time>
      </trkpt>
      <trkpt lat="43.91652" lon="7.27727">
        <ele>717.2</ele>
        <time>2013-12-07T14:57:04Z</time>
      </trkpt>
      <trkpt lat="43.91657" lon="7.27717">
        <ele>714.9</ele>
        <time>2013-12-07T14:57:07Z</time>
      </trkpt>
      <trkpt lat="43.91656" lon="7.27709">
        <ele>714.3</ele>
        <time>2013-12-07T14:57:09Z</time>
      </trkpt>
      <trkpt lat="43.91653" lon="7.27699">
        <ele>714.1</ele>
        <time>2013-12-07T14:57:11Z</time>
      </trkpt>
      <trkpt lat="43.91648" lon="7.27689">
        <ele>713.8</ele>
        <time>2013-12-07T14:57:13Z</time>
      </trkpt>
      <trkpt lat="43.91646" lon="7.27684">
        <ele>713.4</ele>
        <time>2013-12-07T14:57:14Z</time>
      </trkpt>
      <trkpt lat="43.91641" lon="7.27671">
        <ele>712</ele>
        <time>2013-12-07T14:57:17Z</time>
      </trkpt>
      <trkpt lat="43.91638" lon="7.27662">
        <ele>710.9</ele>
        <time>2013-12-07T14:57:19Z</time>
      </trkpt>
      <trkpt lat="43.91636" lon="7.27651">
        <ele>709.9</ele>
        <time>2013-12-07T14:57:21Z</time>
      </trkpt>
      <trkpt lat="43.91632" lon="7.2764">
        <ele>708.9</ele>
        <time>2013-12-07T14:57:23Z</time>
      </trkpt>
      <trkpt lat="43.91629" lon="7.27635">
        <ele>708.1</ele>
        <time>2013-12-07T14:57:24Z</time>
      </trkpt>
      <trkpt lat="43.91626" lon="7.2763">
        <ele>707.4</ele>
        <time>2013-12-07T14:57:25Z</time>
      </trkpt>
      <trkpt lat="43.91623" lon="7.27625">
        <ele>706.8</ele>
        <time>2013-12-07T14:57:26Z</time>
      </trkpt>
      <trkpt lat="43.9162" lon="7.27619">
        <ele>706.4</ele>
        <time>2013-12-07T14:57:27Z</time>
      </trkpt>
      <trkpt lat="43.91616" lon="7.27614">
        <ele>705.8</ele>
        <time>2013-12-07T14:57:28Z</time>
      </trkpt>
      <trkpt lat="43.91612" lon="7.2761">
        <ele>705.3</ele>
        <time>2013-12-07T14:57:29Z</time>
      </trkpt>
      <trkpt lat="43.91608" lon="7.27605">
        <ele>704.9</ele>
        <time>2013-12-07T14:57:30Z</time>
      </trkpt>
      <trkpt lat="43.91605" lon="7.276">
        <ele>704.3</ele>
        <time>2013-12-07T14:57:31Z</time>
      </trkpt>
      <trkpt lat="43.91602" lon="7.27596">
        <ele>703.9</ele>
        <time>2013-12-07T14:57:32Z</time>
      </trkpt>
      <trkpt lat="43.91595" lon="7.27589">
        <ele>702.8</ele>
        <time>2013-12-07T14:57:34Z</time>
      </trkpt>
      <trkpt lat="43.9159" lon="7.27586">
        <ele>702.4</ele>
        <time>2013-12-07T14:57:35Z</time>
      </trkpt>
      <trkpt lat="43.91586" lon="7.27584">
        <ele>702.3</ele>
        <time>2013-12-07T14:57:36Z</time>
      </trkpt>
      <trkpt lat="43.9158" lon="7.27583">
        <ele>702.2</ele>
        <time>2013-12-07T14:57:37Z</time>
      </trkpt>
      <trkpt lat="43.91573" lon="7.27586">
        <ele>701.6</ele>
        <time>2013-12-07T14:57:39Z</time>
      </trkpt>
      <trkpt lat="43.91567" lon="7.27584">
        <ele>701.5</ele>
        <time>2013-12-07T14:57:41Z</time>
      </trkpt>
      <trkpt lat="43.91559" lon="7.27581">
        <ele>701.1</ele>
        <time>2013-12-07T14:57:43Z</time>
      </trkpt>
      <trkpt lat="43.91552" lon="7.27575">
        <ele>700.3</ele>
        <time>2013-12-07T14:57:45Z</time>
      </trkpt>
      <trkpt lat="43.91548" lon="7.27571">
        <ele>699.9</ele>
        <time>2013-12-07T14:57:46Z</time>
      </trkpt>
      <trkpt lat="43.91544" lon="7.27568">
        <ele>699.2</ele>
        <time>2013-12-07T14:57:47Z</time>
      </trkpt>
      <trkpt lat="43.9154" lon="7.27564">
        <ele>698.7</ele>
        <time>2013-12-07T14:57:48Z</time>
      </trkpt>
      <trkpt lat="43.91537" lon="7.27559">
        <ele>698.4</ele>
        <time>2013-12-07T14:57:49Z</time>
      </trkpt>
      <trkpt lat="43.91534" lon="7.27555">
        <ele>697.8</ele>
        <time>2013-12-07T14:57:50Z</time>
      </trkpt>
      <trkpt lat="43.91531" lon="7.2755">
        <ele>697.5</ele>
        <time>2013-12-07T14:57:51Z</time>
      </trkpt>
      <trkpt lat="43.91527" lon="7.27545">
        <ele>696.8</ele>
        <time>2013-12-07T14:57:52Z</time>
      </trkpt>
      <trkpt lat="43.91524" lon="7.27534">
        <ele>695.9</ele>
        <time>2013-12-07T14:57:54Z</time>
      </trkpt>
      <trkpt lat="43.91524" lon="7.27522">
        <ele>695.7</ele>
        <time>2013-12-07T14:57:57Z</time>
      </trkpt>
      <trkpt lat="43.91524" lon="7.27514">
        <ele>696.1</ele>
        <time>2013-12-07T14:57:59Z</time>
      </trkpt>
      <trkpt lat="43.91524" lon="7.27505">
        <ele>696.2</ele>
        <time>2013-12-07T14:58:01Z</time>
      </trkpt>
      <trkpt lat="43.91524" lon="7.27495">
        <ele>696.1</ele>
        <time>2013-12-07T14:58:03Z</time>
      </trkpt>
      <trkpt lat="43.91523" lon="7.27485">
        <ele>696</ele>
        <time>2013-12-07T14:58:05Z</time>
      </trkpt>
      <trkpt lat="43.91522" lon="7.27474">
        <ele>696.4</ele>
        <time>2013-12-07T14:58:07Z</time>
      </trkpt>
      <trkpt lat="43.91521" lon="7.27465">
        <ele>696.9</ele>
        <time>2013-12-07T14:58:09Z</time>
      </trkpt>
      <trkpt lat="43.91518" lon="7.27456">
        <ele>697</ele>
        <time>2013-12-07T14:58:11Z</time>
      </trkpt>
      <trkpt lat="43.91516" lon="7.27448">
        <ele>696.9</ele>
        <time>2013-12-07T14:58:13Z</time>
      </trkpt>
      <trkpt lat="43.91515" lon="7.27436">
        <ele>697.5</ele>
        <time>2013-12-07T14:58:23Z</time>
      </trkpt>
      <trkpt lat="43.91514" lon="7.27435">
        <ele>697.3</ele>
        <time>2013-12-07T14:58:24Z</time>
      </trkpt>
      <trkpt lat="43.91511" lon="7.27418">
        <ele>696.4</ele>
        <time>2013-12-07T14:58:33Z</time>
      </trkpt>
      <trkpt lat="43.9151" lon="7.27412">
        <ele>696.2</ele>
        <time>2013-12-07T14:58:34Z</time>
      </trkpt>
      <trkpt lat="43.91509" lon="7.27405">
        <ele>695.7</ele>
        <time>2013-12-07T14:58:35Z</time>
      </trkpt>
      <trkpt lat="43.91507" lon="7.27399">
        <ele>695.3</ele>
        <time>2013-12-07T14:58:36Z</time>
      </trkpt>
      <trkpt lat="43.91505" lon="7.27393">
        <ele>695</ele>
        <time>2013-12-07T14:58:37Z</time>
      </trkpt>
      <trkpt lat="43.91502" lon="7.27381">
        <ele>694.7</ele>
        <time>2013-12-07T14:58:39Z</time>
      </trkpt>
      <trkpt lat="43.91501" lon="7.2737">
        <ele>694.2</ele>
        <time>2013-12-07T14:58:41Z</time>
      </trkpt>
      <trkpt lat="43.91497" lon="7.27361">
        <ele>693.2</ele>
        <time>2013-12-07T14:58:43Z</time>
      </trkpt>
      <trkpt lat="43.91492" lon="7.27351">
        <ele>692.9</ele>
        <time>2013-12-07T14:58:45Z</time>
      </trkpt>
      <trkpt lat="43.91486" lon="7.27342">
        <ele>692.6</ele>
        <time>2013-12-07T14:58:47Z</time>
      </trkpt>
      <trkpt lat="43.91483" lon="7.27332">
        <ele>692</ele>
        <time>2013-12-07T14:58:49Z</time>
      </trkpt>
      <trkpt lat="43.91479" lon="7.27323">
        <ele>691.4</ele>
        <time>2013-12-07T14:58:51Z</time>
      </trkpt>
      <trkpt lat="43.91475" lon="7.27315">
        <ele>690.2</ele>
        <time>2013-12-07T14:58:53Z</time>
      </trkpt>
      <trkpt lat="43.9147" lon="7.27306">
        <ele>689.5</ele>
        <time>2013-12-07T14:58:55Z</time>
      </trkpt>
      <trkpt lat="43.91465" lon="7.27297">
        <ele>688.8</ele>
        <time>2013-12-07T14:58:57Z</time>
      </trkpt>
      <trkpt lat="43.91459" lon="7.27289">
        <ele>688.1</ele>
        <time>2013-12-07T14:58:59Z</time>
      </trkpt>
      <trkpt lat="43.91452" lon="7.27282">
        <ele>687.4</ele>
        <time>2013-12-07T14:59:01Z</time>
      </trkpt>
      <trkpt lat="43.91449" lon="7.27278">
        <ele>687.2</ele>
        <time>2013-12-07T14:59:02Z</time>
      </trkpt>
      <trkpt lat="43.91444" lon="7.27275">
        <ele>687.1</ele>
        <time>2013-12-07T14:59:03Z</time>
      </trkpt>
      <trkpt lat="43.9144" lon="7.27272">
        <ele>687</ele>
        <time>2013-12-07T14:59:04Z</time>
      </trkpt>
      <trkpt lat="43.91435" lon="7.27269">
        <ele>686.9</ele>
        <time>2013-12-07T14:59:05Z</time>
      </trkpt>
      <trkpt lat="43.91427" lon="7.27264">
        <ele>685.8</ele>
        <time>2013-12-07T14:59:07Z</time>
      </trkpt>
      <trkpt lat="43.9142" lon="7.27256">
        <ele>684.7</ele>
        <time>2013-12-07T14:59:09Z</time>
      </trkpt>
      <trkpt lat="43.91418" lon="7.27245">
        <ele>683.7</ele>
        <time>2013-12-07T14:59:11Z</time>
      </trkpt>
      <trkpt lat="43.91417" lon="7.27234">
        <ele>683.5</ele>
        <time>2013-12-07T14:59:13Z</time>
      </trkpt>
      <trkpt lat="43.91416" lon="7.27224">
        <ele>683.9</ele>
        <time>2013-12-07T14:59:15Z</time>
      </trkpt>
      <trkpt lat="43.91416" lon="7.27213">
        <ele>684.2</ele>
        <time>2013-12-07T14:59:17Z</time>
      </trkpt>
      <trkpt lat="43.91414" lon="7.27202">
        <ele>684.5</ele>
        <time>2013-12-07T14:59:19Z</time>
      </trkpt>
      <trkpt lat="43.91412" lon="7.2719">
        <ele>684.9</ele>
        <time>2013-12-07T14:59:21Z</time>
      </trkpt>
      <trkpt lat="43.91411" lon="7.27179">
        <ele>684.3</ele>
        <time>2013-12-07T14:59:23Z</time>
      </trkpt>
      <trkpt lat="43.91414" lon="7.27168">
        <ele>684</ele>
        <time>2013-12-07T14:59:25Z</time>
      </trkpt>
      <trkpt lat="43.91416" lon="7.27162">
        <ele>683.9</ele>
        <time>2013-12-07T14:59:26Z</time>
      </trkpt>
      <trkpt lat="43.91419" lon="7.27151">
        <ele>683.2</ele>
        <time>2013-12-07T14:59:28Z</time>
      </trkpt>
      <trkpt lat="43.91421" lon="7.27144">
        <ele>682.6</ele>
        <time>2013-12-07T14:59:29Z</time>
      </trkpt>
      <trkpt lat="43.91423" lon="7.27138">
        <ele>682.1</ele>
        <time>2013-12-07T14:59:30Z</time>
      </trkpt>
      <trkpt lat="43.91424" lon="7.27132">
        <ele>681.8</ele>
        <time>2013-12-07T14:59:31Z</time>
      </trkpt>
      <trkpt lat="43.91426" lon="7.27125">
        <ele>681.3</ele>
        <time>2013-12-07T14:59:32Z</time>
      </trkpt>
      <trkpt lat="43.91429" lon="7.27114">
        <ele>680</ele>
        <time>2013-12-07T14:59:34Z</time>
      </trkpt>
      <trkpt lat="43.91431" lon="7.27103">
        <ele>679</ele>
        <time>2013-12-07T14:59:36Z</time>
      </trkpt>
      <trkpt lat="43.91433" lon="7.27096">
        <ele>678.8</ele>
        <time>2013-12-07T14:59:37Z</time>
      </trkpt>
      <trkpt lat="43.91433" lon="7.2709">
        <ele>678.6</ele>
        <time>2013-12-07T14:59:38Z</time>
      </trkpt>
      <trkpt lat="43.91434" lon="7.27082">
        <ele>677.9</ele>
        <time>2013-12-07T14:59:39Z</time>
      </trkpt>
      <trkpt lat="43.91435" lon="7.27076">
        <ele>677.4</ele>
        <time>2013-12-07T14:59:40Z</time>
      </trkpt>
      <trkpt lat="43.91436" lon="7.2707">
        <ele>676.8</ele>
        <time>2013-12-07T14:59:41Z</time>
      </trkpt>
      <trkpt lat="43.91435" lon="7.27063">
        <ele>676.4</ele>
        <time>2013-12-07T14:59:42Z</time>
      </trkpt>
      <trkpt lat="43.91435" lon="7.27057">
        <ele>676.1</ele>
        <time>2013-12-07T14:59:43Z</time>
      </trkpt>
      <trkpt lat="43.91434" lon="7.2705">
        <ele>675.5</ele>
        <time>2013-12-07T14:59:44Z</time>
      </trkpt>
      <trkpt lat="43.91433" lon="7.27044">
        <ele>675</ele>
        <time>2013-12-07T14:59:45Z</time>
      </trkpt>
      <trkpt lat="43.91432" lon="7.27037">
        <ele>675.3</ele>
        <time>2013-12-07T14:59:46Z</time>
      </trkpt>
      <trkpt lat="43.91428" lon="7.27028">
        <ele>675.2</ele>
        <time>2013-12-07T14:59:48Z</time>
      </trkpt>
      <trkpt lat="43.91424" lon="7.27018">
        <ele>674.4</ele>
        <time>2013-12-07T14:59:52Z</time>
      </trkpt>
      <trkpt lat="43.91422" lon="7.27006">
        <ele>673.2</ele>
        <time>2013-12-07T15:01:42Z</time>
      </trkpt>
      <trkpt lat="43.91422" lon="7.27005">
        <ele>673</ele>
        <time>2013-12-07T15:01:43Z</time>
      </trkpt>
      <trkpt lat="43.9142" lon="7.26986">
        <ele>672.6</ele>
        <time>2013-12-07T15:01:57Z</time>
      </trkpt>
      <trkpt lat="43.91418" lon="7.26975">
        <ele>668.2</ele>
        <time>2013-12-07T15:02:05Z</time>
      </trkpt>
      <trkpt lat="43.91426" lon="7.26974">
        <ele>664.6</ele>
        <time>2013-12-07T15:02:14Z</time>
      </trkpt>
      <trkpt lat="43.91434" lon="7.26979">
        <ele>662.4</ele>
        <time>2013-12-07T15:02:18Z</time>
      </trkpt>
      <trkpt lat="43.91431" lon="7.26968">
        <ele>658.1</ele>
        <time>2013-12-07T15:02:26Z</time>
      </trkpt>
      <trkpt lat="43.91426" lon="7.26957">
        <ele>656.1</ele>
        <time>2013-12-07T15:02:30Z</time>
      </trkpt>
      <trkpt lat="43.91422" lon="7.26949">
        <ele>654.7</ele>
        <time>2013-12-07T15:02:33Z</time>
      </trkpt>
      <trkpt lat="43.91421" lon="7.26941">
        <ele>653.5</ele>
        <time>2013-12-07T15:02:35Z</time>
      </trkpt>
      <trkpt lat="43.91419" lon="7.26932">
        <ele>652</ele>
        <time>2013-12-07T15:02:37Z</time>
      </trkpt>
      <trkpt lat="43.91418" lon="7.2692">
        <ele>648.1</ele>
        <time>2013-12-07T15:02:42Z</time>
      </trkpt>
      <trkpt lat="43.91418" lon="7.26909">
        <ele>645.5</ele>
        <time>2013-12-07T15:02:46Z</time>
      </trkpt>
      <trkpt lat="43.91418" lon="7.26904">
        <ele>644.7</ele>
        <time>2013-12-07T15:02:47Z</time>
      </trkpt>
      <trkpt lat="43.9142" lon="7.26888">
        <ele>641.5</ele>
        <time>2013-12-07T15:02:51Z</time>
      </trkpt>
      <trkpt lat="43.91417" lon="7.26877">
        <ele>639.5</ele>
        <time>2013-12-07T15:02:55Z</time>
      </trkpt>
      <trkpt lat="43.91424" lon="7.26882">
        <ele>632.5</ele>
        <time>2013-12-07T15:03:19Z</time>
      </trkpt>
      <trkpt lat="43.91428" lon="7.26893">
        <ele>630.7</ele>
        <time>2013-12-07T15:03:23Z</time>
      </trkpt>
      <trkpt lat="43.91429" lon="7.26902">
        <ele>627.7</ele>
        <time>2013-12-07T15:03:26Z</time>
      </trkpt>
      <trkpt lat="43.9143" lon="7.26912">
        <ele>625.6</ele>
        <time>2013-12-07T15:03:29Z</time>
      </trkpt>
      <trkpt lat="43.91434" lon="7.26922">
        <ele>621.7</ele>
        <time>2013-12-07T15:03:34Z</time>
      </trkpt>
      <trkpt lat="43.91442" lon="7.26923">
        <ele>618.7</ele>
        <time>2013-12-07T15:03:37Z</time>
      </trkpt>
      <trkpt lat="43.91449" lon="7.26922">
        <ele>616.8</ele>
        <time>2013-12-07T15:03:39Z</time>
      </trkpt>
      <trkpt lat="43.91456" lon="7.26919">
        <ele>614.8</ele>
        <time>2013-12-07T15:03:41Z</time>
      </trkpt>
      <trkpt lat="43.91462" lon="7.26915">
        <ele>613.2</ele>
        <time>2013-12-07T15:03:43Z</time>
      </trkpt>
      <trkpt lat="43.91468" lon="7.26912">
        <ele>612.3</ele>
        <time>2013-12-07T15:03:45Z</time>
      </trkpt>
      <trkpt lat="43.91475" lon="7.26911">
        <ele>609.5</ele>
        <time>2013-12-07T15:03:47Z</time>
      </trkpt>
      <trkpt lat="43.91478" lon="7.2691">
        <ele>608.9</ele>
        <time>2013-12-07T15:03:48Z</time>
      </trkpt>
      <trkpt lat="43.91489" lon="7.26916">
        <ele>607.5</ele>
        <time>2013-12-07T15:03:52Z</time>
      </trkpt>
      <trkpt lat="43.91492" lon="7.26926">
        <ele>605.2</ele>
        <time>2013-12-07T15:03:55Z</time>
      </trkpt>
      <trkpt lat="43.91493" lon="7.26938">
        <ele>603.4</ele>
        <time>2013-12-07T15:03:58Z</time>
      </trkpt>
      <trkpt lat="43.91495" lon="7.26947">
        <ele>601.1</ele>
        <time>2013-12-07T15:04:01Z</time>
      </trkpt>
      <trkpt lat="43.915" lon="7.26956">
        <ele>599.3</ele>
        <time>2013-12-07T15:04:04Z</time>
      </trkpt>
      <trkpt lat="43.91506" lon="7.2696">
        <ele>597.3</ele>
        <time>2013-12-07T15:04:06Z</time>
      </trkpt>
      <trkpt lat="43.91512" lon="7.26965">
        <ele>596.8</ele>
        <time>2013-12-07T15:04:08Z</time>
      </trkpt>
      <trkpt lat="43.91516" lon="7.26967">
        <ele>596.6</ele>
        <time>2013-12-07T15:04:09Z</time>
      </trkpt>
      <trkpt lat="43.91521" lon="7.26969">
        <ele>595.8</ele>
        <time>2013-12-07T15:04:10Z</time>
      </trkpt>
      <trkpt lat="43.91526" lon="7.26972">
        <ele>595.1</ele>
        <time>2013-12-07T15:04:11Z</time>
      </trkpt>
      <trkpt lat="43.9153" lon="7.26975">
        <ele>594.5</ele>
        <time>2013-12-07T15:04:12Z</time>
      </trkpt>
      <trkpt lat="43.91538" lon="7.26979">
        <ele>593.4</ele>
        <time>2013-12-07T15:04:14Z</time>
      </trkpt>
      <trkpt lat="43.91545" lon="7.26983">
        <ele>591.9</ele>
        <time>2013-12-07T15:04:18Z</time>
      </trkpt>
      <trkpt lat="43.91551" lon="7.26985">
        <ele>591.4</ele>
        <time>2013-12-07T15:04:20Z</time>
      </trkpt>
      <trkpt lat="43.91559" lon="7.26985">
        <ele>590.4</ele>
        <time>2013-12-07T15:04:22Z</time>
      </trkpt>
      <trkpt lat="43.91565" lon="7.26992">
        <ele>589.2</ele>
        <time>2013-12-07T15:04:25Z</time>
      </trkpt>
      <trkpt lat="43.91569" lon="7.26999">
        <ele>588.4</ele>
        <time>2013-12-07T15:04:27Z</time>
      </trkpt>
      <trkpt lat="43.91574" lon="7.27008">
        <ele>586.6</ele>
        <time>2013-12-07T15:04:30Z</time>
      </trkpt>
      <trkpt lat="43.91575" lon="7.27017">
        <ele>583.3</ele>
        <time>2013-12-07T15:04:33Z</time>
      </trkpt>
      <trkpt lat="43.91578" lon="7.27028">
        <ele>580.9</ele>
        <time>2013-12-07T15:04:37Z</time>
      </trkpt>
      <trkpt lat="43.91584" lon="7.27033">
        <ele>578.6</ele>
        <time>2013-12-07T15:04:40Z</time>
      </trkpt>
      <trkpt lat="43.91588" lon="7.27034">
        <ele>578.1</ele>
        <time>2013-12-07T15:04:41Z</time>
      </trkpt>
      <trkpt lat="43.91593" lon="7.27034">
        <ele>577.8</ele>
        <time>2013-12-07T15:04:42Z</time>
      </trkpt>
      <trkpt lat="43.91598" lon="7.27033">
        <ele>576.7</ele>
        <time>2013-12-07T15:04:43Z</time>
      </trkpt>
      <trkpt lat="43.91603" lon="7.27032">
        <ele>575.9</ele>
        <time>2013-12-07T15:04:44Z</time>
      </trkpt>
      <trkpt lat="43.91608" lon="7.27033">
        <ele>575</ele>
        <time>2013-12-07T15:04:45Z</time>
      </trkpt>
      <trkpt lat="43.91612" lon="7.27034">
        <ele>574.4</ele>
        <time>2013-12-07T15:04:46Z</time>
      </trkpt>
      <trkpt lat="43.9162" lon="7.27034">
        <ele>572.7</ele>
        <time>2013-12-07T15:04:48Z</time>
      </trkpt>
      <trkpt lat="43.91623" lon="7.27035">
        <ele>572.2</ele>
        <time>2013-12-07T15:04:49Z</time>
      </trkpt>
      <trkpt lat="43.91633" lon="7.27045">
        <ele>567.2</ele>
        <time>2013-12-07T15:04:55Z</time>
      </trkpt>
      <trkpt lat="43.91642" lon="7.27045">
        <ele>564.9</ele>
        <time>2013-12-07T15:04:58Z</time>
      </trkpt>
      <trkpt lat="43.91649" lon="7.27043">
        <ele>562.7</ele>
        <time>2013-12-07T15:05:00Z</time>
      </trkpt>
      <trkpt lat="43.91656" lon="7.2704">
        <ele>561</ele>
        <time>2013-12-07T15:05:02Z</time>
      </trkpt>
      <trkpt lat="43.91662" lon="7.27033">
        <ele>558.5</ele>
        <time>2013-12-07T15:05:05Z</time>
      </trkpt>
      <trkpt lat="43.91668" lon="7.27026">
        <ele>556.2</ele>
        <time>2013-12-07T15:05:08Z</time>
      </trkpt>
      <trkpt lat="43.91676" lon="7.2702">
        <ele>552.9</ele>
        <time>2013-12-07T15:05:11Z</time>
      </trkpt>
      <trkpt lat="43.91681" lon="7.27015">
        <ele>551.3</ele>
        <time>2013-12-07T15:05:13Z</time>
      </trkpt>
      <trkpt lat="43.91687" lon="7.27007">
        <ele>548.4</ele>
        <time>2013-12-07T15:05:16Z</time>
      </trkpt>
      <trkpt lat="43.91692" lon="7.26998">
        <ele>545.2</ele>
        <time>2013-12-07T15:05:27Z</time>
      </trkpt>
      <trkpt lat="43.91696" lon="7.26987">
        <ele>543.5</ele>
        <time>2013-12-07T15:06:56Z</time>
      </trkpt>
      <trkpt lat="43.91697" lon="7.26987">
        <ele>543.5</ele>
        <time>2013-12-07T15:06:57Z</time>
      </trkpt>
      <trkpt lat="43.91693" lon="7.26975">
        <ele>537.5</ele>
        <time>2013-12-07T15:07:42Z</time>
      </trkpt>
      <trkpt lat="43.91699" lon="7.26966">
        <ele>536</ele>
        <time>2013-12-07T15:07:47Z</time>
      </trkpt>
      <trkpt lat="43.91698" lon="7.26954">
        <ele>528.8</ele>
        <time>2013-12-07T15:08:33Z</time>
      </trkpt>
      <trkpt lat="43.917" lon="7.26952">
        <ele>528.2</ele>
        <time>2013-12-07T15:08:34Z</time>
      </trkpt>
      <trkpt lat="43.91681" lon="7.26952">
        <ele>519.4</ele>
        <time>2013-12-07T15:08:52Z</time>
      </trkpt>
      <trkpt lat="43.91674" lon="7.26953">
        <ele>516.6</ele>
        <time>2013-12-07T15:08:56Z</time>
      </trkpt>
      <trkpt lat="43.91666" lon="7.26948">
        <ele>507.5</ele>
        <time>2013-12-07T15:09:10Z</time>
      </trkpt>
      <trkpt lat="43.91662" lon="7.26938">
        <ele>500.8</ele>
        <time>2013-12-07T15:09:19Z</time>
      </trkpt>
      <trkpt lat="43.91663" lon="7.26928">
        <ele>493.7</ele>
        <time>2013-12-07T15:09:31Z</time>
      </trkpt>
      <trkpt lat="43.91655" lon="7.26922">
        <ele>491.4</ele>
        <time>2013-12-07T15:09:34Z</time>
      </trkpt>
      <trkpt lat="43.91653" lon="7.26922">
        <ele>490.8</ele>
        <time>2013-12-07T15:09:35Z</time>
      </trkpt>
      <trkpt lat="43.91658" lon="7.26906">
        <ele>480.5</ele>
        <time>2013-12-07T15:09:52Z</time>
      </trkpt>
      <trkpt lat="43.91651" lon="7.26899">
        <ele>478.2</ele>
        <time>2013-12-07T15:09:55Z</time>
      </trkpt>
      <trkpt lat="43.91646" lon="7.2689">
        <ele>475</ele>
        <time>2013-12-07T15:09:59Z</time>
      </trkpt>
      <trkpt lat="43.91652" lon="7.26884">
        <ele>470.2</ele>
        <time>2013-12-07T15:10:06Z</time>
      </trkpt>
      <trkpt lat="43.9166" lon="7.26882">
        <ele>468.4</ele>
        <time>2013-12-07T15:10:09Z</time>
      </trkpt>
      <trkpt lat="43.91666" lon="7.2688">
        <ele>466.5</ele>
        <time>2013-12-07T15:10:11Z</time>
      </trkpt>
      <trkpt lat="43.91674" lon="7.26875">
        <ele>465</ele>
        <time>2013-12-07T15:10:13Z</time>
      </trkpt>
      <trkpt lat="43.91679" lon="7.26868">
        <ele>463.3</ele>
        <time>2013-12-07T15:10:15Z</time>
      </trkpt>
      <trkpt lat="43.91685" lon="7.26861">
        <ele>461</ele>
        <time>2013-12-07T15:10:19Z</time>
      </trkpt>
      <trkpt lat="43.9169" lon="7.26854">
        <ele>458.6</ele>
        <time>2013-12-07T15:10:23Z</time>
      </trkpt>
      <trkpt lat="43.91695" lon="7.26848">
        <ele>457.2</ele>
        <time>2013-12-07T15:10:26Z</time>
      </trkpt>
      <trkpt lat="43.917" lon="7.26841">
        <ele>455.3</ele>
        <time>2013-12-07T15:10:29Z</time>
      </trkpt>
      <trkpt lat="43.91706" lon="7.26834">
        <ele>453.7</ele>
        <time>2013-12-07T15:10:32Z</time>
      </trkpt>
      <trkpt lat="43.91713" lon="7.26834">
        <ele>452.7</ele>
        <time>2013-12-07T15:10:35Z</time>
      </trkpt>
      <trkpt lat="43.91715" lon="7.26834">
        <ele>452.3</ele>
        <time>2013-12-07T15:10:36Z</time>
      </trkpt>
      <trkpt lat="43.91729" lon="7.26829">
        <ele>449</ele>
        <time>2013-12-07T15:10:43Z</time>
      </trkpt>
      <trkpt lat="43.91737" lon="7.2683">
        <ele>446.7</ele>
        <time>2013-12-07T15:10:47Z</time>
      </trkpt>
      <trkpt lat="43.91743" lon="7.26835">
        <ele>444.5</ele>
        <time>2013-12-07T15:10:50Z</time>
      </trkpt>
      <trkpt lat="43.91748" lon="7.26845">
        <ele>441.3</ele>
        <time>2013-12-07T15:10:55Z</time>
      </trkpt>
      <trkpt lat="43.91755" lon="7.26849">
        <ele>438.9</ele>
        <time>2013-12-07T15:10:59Z</time>
      </trkpt>
      <trkpt lat="43.91762" lon="7.26853">
        <ele>436.9</ele>
        <time>2013-12-07T15:11:01Z</time>
      </trkpt>
      <trkpt lat="43.9177" lon="7.26857">
        <ele>434.5</ele>
        <time>2013-12-07T15:11:04Z</time>
      </trkpt>
      <trkpt lat="43.91773" lon="7.26865">
        <ele>432.8</ele>
        <time>2013-12-07T15:11:07Z</time>
      </trkpt>
      <trkpt lat="43.91775" lon="7.26876">
        <ele>430.6</ele>
        <time>2013-12-07T15:11:10Z</time>
      </trkpt>
      <trkpt lat="43.91776" lon="7.26886">
        <ele>429</ele>
        <time>2013-12-07T15:11:12Z</time>
      </trkpt>
      <trkpt lat="43.91778" lon="7.26895">
        <ele>426.5</ele>
        <time>2013-12-07T15:11:15Z</time>
      </trkpt>
      <trkpt lat="43.91783" lon="7.26903">
        <ele>424.9</ele>
        <time>2013-12-07T15:11:17Z</time>
      </trkpt>
      <trkpt lat="43.91788" lon="7.2691">
        <ele>422.5</ele>
        <time>2013-12-07T15:11:20Z</time>
      </trkpt>
      <trkpt lat="43.91794" lon="7.26912">
        <ele>420.4</ele>
        <time>2013-12-07T15:11:22Z</time>
      </trkpt>
      <trkpt lat="43.918" lon="7.26917">
        <ele>419.2</ele>
        <time>2013-12-07T15:11:24Z</time>
      </trkpt>
      <trkpt lat="43.91803" lon="7.26924">
        <ele>417.4</ele>
        <time>2013-12-07T15:11:26Z</time>
      </trkpt>
      <trkpt lat="43.91806" lon="7.26935">
        <ele>414.8</ele>
        <time>2013-12-07T15:11:29Z</time>
      </trkpt>
      <trkpt lat="43.91814" lon="7.2694">
        <ele>413.2</ele>
        <time>2013-12-07T15:11:32Z</time>
      </trkpt>
      <trkpt lat="43.91821" lon="7.26946">
        <ele>410.5</ele>
        <time>2013-12-07T15:11:35Z</time>
      </trkpt>
      <trkpt lat="43.91829" lon="7.26942">
        <ele>407.3</ele>
        <time>2013-12-07T15:11:39Z</time>
      </trkpt>
      <trkpt lat="43.91831" lon="7.26939">
        <ele>406.3</ele>
        <time>2013-12-07T15:11:40Z</time>
      </trkpt>
      <trkpt lat="43.91841" lon="7.26948">
        <ele>403.3</ele>
        <time>2013-12-07T15:11:45Z</time>
      </trkpt>
      <trkpt lat="43.91848" lon="7.26948">
        <ele>401.9</ele>
        <time>2013-12-07T15:11:47Z</time>
      </trkpt>
      <trkpt lat="43.91855" lon="7.26944">
        <ele>400.1</ele>
        <time>2013-12-07T15:11:50Z</time>
      </trkpt>
      <trkpt lat="43.91863" lon="7.26939">
        <ele>397</ele>
        <time>2013-12-07T15:11:55Z</time>
      </trkpt>
      <trkpt lat="43.91871" lon="7.26939">
        <ele>393.7</ele>
        <time>2013-12-07T15:12:00Z</time>
      </trkpt>
      <trkpt lat="43.91879" lon="7.26938">
        <ele>392.4</ele>
        <time>2013-12-07T15:12:03Z</time>
      </trkpt>
      <trkpt lat="43.91878" lon="7.26926">
        <ele>387.5</ele>
        <time>2013-12-07T15:12:10Z</time>
      </trkpt>
      <trkpt lat="43.91886" lon="7.26923">
        <ele>385.1</ele>
        <time>2013-12-07T15:12:14Z</time>
      </trkpt>
      <trkpt lat="43.91887" lon="7.26913">
        <ele>379.9</ele>
        <time>2013-12-07T15:12:21Z</time>
      </trkpt>
      <trkpt lat="43.9189" lon="7.26903">
        <ele>375.8</ele>
        <time>2013-12-07T15:12:28Z</time>
      </trkpt>
      <trkpt lat="43.91897" lon="7.26901">
        <ele>373.4</ele>
        <time>2013-12-07T15:12:31Z</time>
      </trkpt>
      <trkpt lat="43.91901" lon="7.26894">
        <ele>372.5</ele>
        <time>2013-12-07T15:12:33Z</time>
      </trkpt>
      <trkpt lat="43.91903" lon="7.26884">
        <ele>371.8</ele>
        <time>2013-12-07T15:12:35Z</time>
      </trkpt>
      <trkpt lat="43.91905" lon="7.26873">
        <ele>370.9</ele>
        <time>2013-12-07T15:12:37Z</time>
      </trkpt>
      <trkpt lat="43.91905" lon="7.26861">
        <ele>370.2</ele>
        <time>2013-12-07T15:12:39Z</time>
      </trkpt>
      <trkpt lat="43.91908" lon="7.2685">
        <ele>369.1</ele>
        <time>2013-12-07T15:12:41Z</time>
      </trkpt>
      <trkpt lat="43.91911" lon="7.26846">
        <ele>368.9</ele>
        <time>2013-12-07T15:12:42Z</time>
      </trkpt>
      <trkpt lat="43.91918" lon="7.26835">
        <ele>368.3</ele>
        <time>2013-12-07T15:12:45Z</time>
      </trkpt>
      <trkpt lat="43.91923" lon="7.26825">
        <ele>368</ele>
        <time>2013-12-07T15:12:48Z</time>
      </trkpt>
      <trkpt lat="43.91927" lon="7.26816">
        <ele>368</ele>
        <time>2013-12-07T15:12:51Z</time>
      </trkpt>
      <trkpt lat="43.91931" lon="7.26806">
        <ele>367.9</ele>
        <time>2013-12-07T15:12:54Z</time>
      </trkpt>
      <trkpt lat="43.91936" lon="7.26796">
        <ele>367.9</ele>
        <time>2013-12-07T15:12:57Z</time>
      </trkpt>
      <trkpt lat="43.9194" lon="7.26788">
        <ele>367.8</ele>
        <time>2013-12-07T15:13:00Z</time>
      </trkpt>
      <trkpt lat="43.91945" lon="7.26777">
        <ele>368.3</ele>
        <time>2013-12-07T15:13:05Z</time>
      </trkpt>
      <trkpt lat="43.91945" lon="7.26767">
        <ele>368.8</ele>
        <time>2013-12-07T15:15:44Z</time>
      </trkpt>
      <trkpt lat="43.91944" lon="7.26765">
        <ele>369</ele>
        <time>2013-12-07T15:15:45Z</time>
      </trkpt>
      <trkpt lat="43.91942" lon="7.26743">
        <ele>369.4</ele>
        <time>2013-12-07T15:15:53Z</time>
      </trkpt>
      <trkpt lat="43.91939" lon="7.26734">
        <ele>370.2</ele>
        <time>2013-12-07T15:15:56Z</time>
      </trkpt>
      <trkpt lat="43.91936" lon="7.26722">
        <ele>369.1</ele>
        <time>2013-12-07T15:16:01Z</time>
      </trkpt>
      <trkpt lat="43.91936" lon="7.2671">
        <ele>368</ele>
        <time>2013-12-07T15:16:08Z</time>
      </trkpt>
      <trkpt lat="43.91936" lon="7.26699">
        <ele>361.8</ele>
        <time>2013-12-07T15:16:21Z</time>
      </trkpt>
      <trkpt lat="43.91931" lon="7.2669">
        <ele>360.6</ele>
        <time>2013-12-07T15:16:25Z</time>
      </trkpt>
      <trkpt lat="43.91928" lon="7.26679">
        <ele>359.8</ele>
        <time>2013-12-07T15:16:29Z</time>
      </trkpt>
      <trkpt lat="43.91925" lon="7.26669">
        <ele>358.9</ele>
        <time>2013-12-07T15:16:32Z</time>
      </trkpt>
      <trkpt lat="43.9192" lon="7.26678">
        <ele>357</ele>
        <time>2013-12-07T15:17:02Z</time>
      </trkpt>
      <trkpt lat="43.9192" lon="7.2668">
        <ele>357.2</ele>
        <time>2013-12-07T15:17:03Z</time>
      </trkpt>
      <trkpt lat="43.91929" lon="7.26698">
        <ele>359.5</ele>
        <time>2013-12-07T15:17:13Z</time>
      </trkpt>
      <trkpt lat="43.91936" lon="7.26702">
        <ele>358.6</ele>
        <time>2013-12-07T15:17:16Z</time>
      </trkpt>
      <trkpt lat="43.91944" lon="7.26706">
        <ele>357.6</ele>
        <time>2013-12-07T15:17:19Z</time>
      </trkpt>
      <trkpt lat="43.91952" lon="7.26707">
        <ele>356.9</ele>
        <time>2013-12-07T15:17:22Z</time>
      </trkpt>
      <trkpt lat="43.91959" lon="7.26704">
        <ele>356.2</ele>
        <time>2013-12-07T15:17:24Z</time>
      </trkpt>
      <trkpt lat="43.91966" lon="7.26702">
        <ele>355.1</ele>
        <time>2013-12-07T15:17:26Z</time>
      </trkpt>
      <trkpt lat="43.91974" lon="7.26702">
        <ele>353.2</ele>
        <time>2013-12-07T15:17:29Z</time>
      </trkpt>
      <trkpt lat="43.91981" lon="7.26695">
        <ele>351.5</ele>
        <time>2013-12-07T15:17:32Z</time>
      </trkpt>
      <trkpt lat="43.91986" lon="7.26687">
        <ele>349.1</ele>
        <time>2013-12-07T15:17:35Z</time>
      </trkpt>
      <trkpt lat="43.91984" lon="7.26678">
        <ele>346.9</ele>
        <time>2013-12-07T15:17:38Z</time>
      </trkpt>
      <trkpt lat="43.91986" lon="7.26667">
        <ele>344.3</ele>
        <time>2013-12-07T15:17:41Z</time>
      </trkpt>
      <trkpt lat="43.9199" lon="7.26659">
        <ele>343.3</ele>
        <time>2013-12-07T15:17:44Z</time>
      </trkpt>
      <trkpt lat="43.91994" lon="7.26649">
        <ele>341.6</ele>
        <time>2013-12-07T15:17:48Z</time>
      </trkpt>
      <trkpt lat="43.92001" lon="7.26647">
        <ele>340.2</ele>
        <time>2013-12-07T15:17:51Z</time>
      </trkpt>
      <trkpt lat="43.92008" lon="7.26645">
        <ele>339.3</ele>
        <time>2013-12-07T15:17:54Z</time>
      </trkpt>
      <trkpt lat="43.92013" lon="7.26641">
        <ele>339.2</ele>
        <time>2013-12-07T15:17:56Z</time>
      </trkpt>
      <trkpt lat="43.92019" lon="7.26634">
        <ele>338.7</ele>
        <time>2013-12-07T15:17:58Z</time>
      </trkpt>
      <trkpt lat="43.92025" lon="7.26626">
        <ele>337.4</ele>
        <time>2013-12-07T15:18:01Z</time>
      </trkpt>
      <trkpt lat="43.9203" lon="7.2662">
        <ele>336.5</ele>
        <time>2013-12-07T15:18:04Z</time>
      </trkpt>
      <trkpt lat="43.92032" lon="7.26618">
        <ele>336.4</ele>
        <time>2013-12-07T15:18:05Z</time>
      </trkpt>
      <trkpt lat="43.92044" lon="7.2661">
        <ele>335.8</ele>
        <time>2013-12-07T15:18:09Z</time>
      </trkpt>
      <trkpt lat="43.9205" lon="7.26601">
        <ele>334.3</ele>
        <time>2013-12-07T15:18:12Z</time>
      </trkpt>
      <trkpt lat="43.92042" lon="7.26594">
        <ele>332.3</ele>
        <time>2013-12-07T15:18:16Z</time>
      </trkpt>
      <trkpt lat="43.92035" lon="7.26598">
        <ele>330.6</ele>
        <time>2013-12-07T15:18:20Z</time>
      </trkpt>
      <trkpt lat="43.92027" lon="7.26602">
        <ele>329.6</ele>
        <time>2013-12-07T15:18:24Z</time>
      </trkpt>
      <trkpt lat="43.9202" lon="7.26606">
        <ele>329.2</ele>
        <time>2013-12-07T15:18:27Z</time>
      </trkpt>
      <trkpt lat="43.92013" lon="7.26609">
        <ele>328.9</ele>
        <time>2013-12-07T15:18:29Z</time>
      </trkpt>
      <trkpt lat="43.92006" lon="7.26607">
        <ele>328.7</ele>
        <time>2013-12-07T15:18:31Z</time>
      </trkpt>
      <trkpt lat="43.92001" lon="7.26602">
        <ele>327.8</ele>
        <time>2013-12-07T15:18:33Z</time>
      </trkpt>
      <trkpt lat="43.91997" lon="7.26594">
        <ele>326.8</ele>
        <time>2013-12-07T15:18:35Z</time>
      </trkpt>
      <trkpt lat="43.91995" lon="7.26585">
        <ele>325.8</ele>
        <time>2013-12-07T15:18:37Z</time>
      </trkpt>
      <trkpt lat="43.91991" lon="7.26575">
        <ele>324.9</ele>
        <time>2013-12-07T15:18:40Z</time>
      </trkpt>
      <trkpt lat="43.91984" lon="7.2657">
        <ele>324.2</ele>
        <time>2013-12-07T15:18:43Z</time>
      </trkpt>
      <trkpt lat="43.91977" lon="7.2657">
        <ele>323.3</ele>
        <time>2013-12-07T15:18:45Z</time>
      </trkpt>
      <trkpt lat="43.9197" lon="7.26574">
        <ele>322.4</ele>
        <time>2013-12-07T15:18:47Z</time>
      </trkpt>
      <trkpt lat="43.91965" lon="7.26582">
        <ele>321.7</ele>
        <time>2013-12-07T15:18:49Z</time>
      </trkpt>
      <trkpt lat="43.91962" lon="7.26593">
        <ele>320.5</ele>
        <time>2013-12-07T15:18:51Z</time>
      </trkpt>
      <trkpt lat="43.9196" lon="7.26604">
        <ele>319.5</ele>
        <time>2013-12-07T15:18:53Z</time>
      </trkpt>
      <trkpt lat="43.91954" lon="7.26611">
        <ele>319</ele>
        <time>2013-12-07T15:18:55Z</time>
      </trkpt>
      <trkpt lat="43.91946" lon="7.26614">
        <ele>318.6</ele>
        <time>2013-12-07T15:18:57Z</time>
      </trkpt>
      <trkpt lat="43.91939" lon="7.26612">
        <ele>317.5</ele>
        <time>2013-12-07T15:18:59Z</time>
      </trkpt>
      <trkpt lat="43.91932" lon="7.26609">
        <ele>316.4</ele>
        <time>2013-12-07T15:19:01Z</time>
      </trkpt>
      <trkpt lat="43.9194" lon="7.26603">
        <ele>315</ele>
        <time>2013-12-07T15:19:09Z</time>
      </trkpt>
      <trkpt lat="43.91943" lon="7.26601">
        <ele>314.9</ele>
        <time>2013-12-07T15:19:10Z</time>
      </trkpt>
      <trkpt lat="43.91948" lon="7.26587">
        <ele>313</ele>
        <time>2013-12-07T15:19:13Z</time>
      </trkpt>
      <trkpt lat="43.91948" lon="7.26576">
        <ele>312.3</ele>
        <time>2013-12-07T15:19:15Z</time>
      </trkpt>
      <trkpt lat="43.9195" lon="7.2657">
        <ele>311.6</ele>
        <time>2013-12-07T15:19:16Z</time>
      </trkpt>
      <trkpt lat="43.91953" lon="7.26564">
        <ele>311</ele>
        <time>2013-12-07T15:19:17Z</time>
      </trkpt>
      <trkpt lat="43.91956" lon="7.26559">
        <ele>310.3</ele>
        <time>2013-12-07T15:19:18Z</time>
      </trkpt>
      <trkpt lat="43.91959" lon="7.26553">
        <ele>309.8</ele>
        <time>2013-12-07T15:19:19Z</time>
      </trkpt>
      <trkpt lat="43.91962" lon="7.26548">
        <ele>309.4</ele>
        <time>2013-12-07T15:19:20Z</time>
      </trkpt>
      <trkpt lat="43.91966" lon="7.26543">
        <ele>309.2</ele>
        <time>2013-12-07T15:19:21Z</time>
      </trkpt>
      <trkpt lat="43.91969" lon="7.26537">
        <ele>309</ele>
        <time>2013-12-07T15:19:22Z</time>
      </trkpt>
      <trkpt lat="43.91972" lon="7.26531">
        <ele>308.7</ele>
        <time>2013-12-07T15:19:23Z</time>
      </trkpt>
      <trkpt lat="43.91977" lon="7.26523">
        <ele>308.2</ele>
        <time>2013-12-07T15:19:25Z</time>
      </trkpt>
      <trkpt lat="43.91983" lon="7.26515">
        <ele>307.6</ele>
        <time>2013-12-07T15:19:28Z</time>
      </trkpt>
      <trkpt lat="43.91989" lon="7.26507">
        <ele>306.6</ele>
        <time>2013-12-07T15:19:31Z</time>
      </trkpt>
      <trkpt lat="43.91995" lon="7.26501">
        <ele>304.9</ele>
        <time>2013-12-07T15:19:34Z</time>
      </trkpt>
      <trkpt lat="43.92003" lon="7.26502">
        <ele>303.1</ele>
        <time>2013-12-07T15:19:37Z</time>
      </trkpt>
      <trkpt lat="43.9201" lon="7.26503">
        <ele>301.7</ele>
        <time>2013-12-07T15:19:40Z</time>
      </trkpt>
      <trkpt lat="43.92018" lon="7.26502">
        <ele>300.1</ele>
        <time>2013-12-07T15:19:44Z</time>
      </trkpt>
      <trkpt lat="43.92026" lon="7.26497">
        <ele>298</ele>
        <time>2013-12-07T15:19:49Z</time>
      </trkpt>
      <trkpt lat="43.92034" lon="7.26491">
        <ele>295.9</ele>
        <time>2013-12-07T15:20:17Z</time>
      </trkpt>
      <trkpt lat="43.92034" lon="7.26491">
        <ele>295.9</ele>
        <time>2013-12-07T15:20:18Z</time>
      </trkpt>
      <trkpt lat="43.92054" lon="7.26487">
        <ele>296</ele>
        <time>2013-12-07T15:20:43Z</time>
      </trkpt>
      <trkpt lat="43.92063" lon="7.2649">
        <ele>296.2</ele>
        <time>2013-12-07T15:20:46Z</time>
      </trkpt>
      <trkpt lat="43.9207" lon="7.26494">
        <ele>295.8</ele>
        <time>2013-12-07T15:20:48Z</time>
      </trkpt>
      <trkpt lat="43.92079" lon="7.26497">
        <ele>295.4</ele>
        <time>2013-12-07T15:20:50Z</time>
      </trkpt>
      <trkpt lat="43.92087" lon="7.26499">
        <ele>295.1</ele>
        <time>2013-12-07T15:20:52Z</time>
      </trkpt>
      <trkpt lat="43.92096" lon="7.265">
        <ele>294.6</ele>
        <time>2013-12-07T15:20:54Z</time>
      </trkpt>
      <trkpt lat="43.92105" lon="7.26499">
        <ele>294.4</ele>
        <time>2013-12-07T15:20:56Z</time>
      </trkpt>
      <trkpt lat="43.9211" lon="7.26499">
        <ele>294.4</ele>
        <time>2013-12-07T15:20:57Z</time>
      </trkpt>
      <trkpt lat="43.92115" lon="7.26498">
        <ele>294.3</ele>
        <time>2013-12-07T15:20:58Z</time>
      </trkpt>
      <trkpt lat="43.9212" lon="7.26498">
        <ele>294.2</ele>
        <time>2013-12-07T15:20:59Z</time>
      </trkpt>
      <trkpt lat="43.92125" lon="7.26498">
        <ele>294.1</ele>
        <time>2013-12-07T15:21:00Z</time>
      </trkpt>
      <trkpt lat="43.9213" lon="7.26497">
        <ele>294.2</ele>
        <time>2013-12-07T15:21:01Z</time>
      </trkpt>
      <trkpt lat="43.92135" lon="7.26496">
        <ele>294.2</ele>
        <time>2013-12-07T15:21:02Z</time>
      </trkpt>
      <trkpt lat="43.9214" lon="7.26495">
        <ele>293.7</ele>
        <time>2013-12-07T15:21:03Z</time>
      </trkpt>
      <trkpt lat="43.92146" lon="7.26494">
        <ele>293.4</ele>
        <time>2013-12-07T15:21:04Z</time>
      </trkpt>
      <trkpt lat="43.92151" lon="7.26493">
        <ele>293.5</ele>
        <time>2013-12-07T15:21:05Z</time>
      </trkpt>
      <trkpt lat="43.92157" lon="7.26492">
        <ele>293.7</ele>
        <time>2013-12-07T15:21:06Z</time>
      </trkpt>
      <trkpt lat="43.92162" lon="7.2649">
        <ele>293.8</ele>
        <time>2013-12-07T15:21:07Z</time>
      </trkpt>
      <trkpt lat="43.92168" lon="7.26489">
        <ele>293</ele>
        <time>2013-12-07T15:21:08Z</time>
      </trkpt>
      <trkpt lat="43.92174" lon="7.26487">
        <ele>292.5</ele>
        <time>2013-12-07T15:21:09Z</time>
      </trkpt>
      <trkpt lat="43.9218" lon="7.26485">
        <ele>292.4</ele>
        <time>2013-12-07T15:21:10Z</time>
      </trkpt>
      <trkpt lat="43.92186" lon="7.26484">
        <ele>292.3</ele>
        <time>2013-12-07T15:21:11Z</time>
      </trkpt>
      <trkpt lat="43.92192" lon="7.26482">
        <ele>292.1</ele>
        <time>2013-12-07T15:21:12Z</time>
      </trkpt>
      <trkpt lat="43.92198" lon="7.26482">
        <ele>292</ele>
        <time>2013-12-07T15:21:13Z</time>
      </trkpt>
      <trkpt lat="43.92204" lon="7.26482">
        <ele>291.9</ele>
        <time>2013-12-07T15:21:14Z</time>
      </trkpt>
      <trkpt lat="43.9221" lon="7.26482">
        <ele>291.3</ele>
        <time>2013-12-07T15:21:15Z</time>
      </trkpt>
      <trkpt lat="43.92216" lon="7.26483">
        <ele>290.8</ele>
        <time>2013-12-07T15:21:16Z</time>
      </trkpt>
      <trkpt lat="43.92222" lon="7.26484">
        <ele>290.4</ele>
        <time>2013-12-07T15:21:17Z</time>
      </trkpt>
      <trkpt lat="43.92228" lon="7.26485">
        <ele>290.2</ele>
        <time>2013-12-07T15:21:18Z</time>
      </trkpt>
      <trkpt lat="43.92234" lon="7.26486">
        <ele>290</ele>
        <time>2013-12-07T15:21:19Z</time>
      </trkpt>
      <trkpt lat="43.92258" lon="7.26491">
        <ele>289.4</ele>
        <time>2013-12-07T15:21:23Z</time>
      </trkpt>
      <trkpt lat="43.92264" lon="7.26492">
        <ele>289.4</ele>
        <time>2013-12-07T15:21:24Z</time>
      </trkpt>
      <trkpt lat="43.9227" lon="7.26494">
        <ele>289.3</ele>
        <time>2013-12-07T15:21:25Z</time>
      </trkpt>
      <trkpt lat="43.92275" lon="7.26495">
        <ele>289.3</ele>
        <time>2013-12-07T15:21:26Z</time>
      </trkpt>
      <trkpt lat="43.92296" lon="7.26497">
        <ele>289</ele>
        <time>2013-12-07T15:21:29Z</time>
      </trkpt>
      <trkpt lat="43.92305" lon="7.26495">
        <ele>289.4</ele>
        <time>2013-12-07T15:21:31Z</time>
      </trkpt>
      <trkpt lat="43.9231" lon="7.26492">
        <ele>289.2</ele>
        <time>2013-12-07T15:21:32Z</time>
      </trkpt>
      <trkpt lat="43.92316" lon="7.26488">
        <ele>289.1</ele>
        <time>2013-12-07T15:21:33Z</time>
      </trkpt>
      <trkpt lat="43.9232" lon="7.26484">
        <ele>288.9</ele>
        <time>2013-12-07T15:21:34Z</time>
      </trkpt>
      <trkpt lat="43.92334" lon="7.26463">
        <ele>288</ele>
        <time>2013-12-07T15:21:37Z</time>
      </trkpt>
      <trkpt lat="43.9234" lon="7.26453">
        <ele>287.6</ele>
        <time>2013-12-07T15:21:39Z</time>
      </trkpt>
      <trkpt lat="43.92352" lon="7.26431">
        <ele>287</ele>
        <time>2013-12-07T15:21:42Z</time>
      </trkpt>
      <trkpt lat="43.92357" lon="7.26422">
        <ele>287.5</ele>
        <time>2013-12-07T15:21:44Z</time>
      </trkpt>
      <trkpt lat="43.92361" lon="7.26417">
        <ele>287.5</ele>
        <time>2013-12-07T15:21:45Z</time>
      </trkpt>
      <trkpt lat="43.92365" lon="7.26412">
        <ele>287.3</ele>
        <time>2013-12-07T15:21:46Z</time>
      </trkpt>
      <trkpt lat="43.9237" lon="7.26408">
        <ele>287.2</ele>
        <time>2013-12-07T15:21:47Z</time>
      </trkpt>
      <trkpt lat="43.92375" lon="7.26405">
        <ele>287.2</ele>
        <time>2013-12-07T15:21:48Z</time>
      </trkpt>
      <trkpt lat="43.9238" lon="7.26404">
        <ele>287.3</ele>
        <time>2013-12-07T15:21:49Z</time>
      </trkpt>
      <trkpt lat="43.92385" lon="7.26404">
        <ele>287</ele>
        <time>2013-12-07T15:21:50Z</time>
      </trkpt>
      <trkpt lat="43.9239" lon="7.26404">
        <ele>286.8</ele>
        <time>2013-12-07T15:21:51Z</time>
      </trkpt>
      <trkpt lat="43.92395" lon="7.26404">
        <ele>286.7</ele>
        <time>2013-12-07T15:21:52Z</time>
      </trkpt>
      <trkpt lat="43.924" lon="7.26405">
        <ele>287</ele>
        <time>2013-12-07T15:21:53Z</time>
      </trkpt>
      <trkpt lat="43.92404" lon="7.26404">
        <ele>287.3</ele>
        <time>2013-12-07T15:21:54Z</time>
      </trkpt>
      <trkpt lat="43.92409" lon="7.26404">
        <ele>287.9</ele>
        <time>2013-12-07T15:21:55Z</time>
      </trkpt>
      <trkpt lat="43.92417" lon="7.26405">
        <ele>288.6</ele>
        <time>2013-12-07T15:21:57Z</time>
      </trkpt>
      <trkpt lat="43.92425" lon="7.26408">
        <ele>288.8</ele>
        <time>2013-12-07T15:21:59Z</time>
      </trkpt>
      <trkpt lat="43.92433" lon="7.26412">
        <ele>289.6</ele>
        <time>2013-12-07T15:22:01Z</time>
      </trkpt>
      <trkpt lat="43.92439" lon="7.26418">
        <ele>289.7</ele>
        <time>2013-12-07T15:22:03Z</time>
      </trkpt>
      <trkpt lat="43.92445" lon="7.26423">
        <ele>289.9</ele>
        <time>2013-12-07T15:22:05Z</time>
      </trkpt>
      <trkpt lat="43.92451" lon="7.26428">
        <ele>290.2</ele>
        <time>2013-12-07T15:22:07Z</time>
      </trkpt>
      <trkpt lat="43.92457" lon="7.26434">
        <ele>290.6</ele>
        <time>2013-12-07T15:22:09Z</time>
      </trkpt>
      <trkpt lat="43.92463" lon="7.26438">
        <ele>291</ele>
        <time>2013-12-07T15:22:11Z</time>
      </trkpt>
      <trkpt lat="43.9247" lon="7.26442">
        <ele>291.1</ele>
        <time>2013-12-07T15:22:13Z</time>
      </trkpt>
      <trkpt lat="43.92477" lon="7.26445">
        <ele>291.8</ele>
        <time>2013-12-07T15:22:15Z</time>
      </trkpt>
      <trkpt lat="43.92483" lon="7.26447">
        <ele>292.3</ele>
        <time>2013-12-07T15:22:17Z</time>
      </trkpt>
      <trkpt lat="43.9249" lon="7.26448">
        <ele>292.7</ele>
        <time>2013-12-07T15:22:19Z</time>
      </trkpt>
      <trkpt lat="43.92494" lon="7.26449">
        <ele>292.8</ele>
        <time>2013-12-07T15:22:20Z</time>
      </trkpt>
      <trkpt lat="43.92504" lon="7.26449">
        <ele>292.6</ele>
        <time>2013-12-07T15:22:23Z</time>
      </trkpt>
      <trkpt lat="43.92511" lon="7.26447">
        <ele>293.4</ele>
        <time>2013-12-07T15:22:25Z</time>
      </trkpt>
      <trkpt lat="43.92517" lon="7.26444">
        <ele>293.4</ele>
        <time>2013-12-07T15:22:27Z</time>
      </trkpt>
      <trkpt lat="43.92524" lon="7.26443">
        <ele>293.6</ele>
        <time>2013-12-07T15:22:29Z</time>
      </trkpt>
      <trkpt lat="43.9253" lon="7.2644">
        <ele>293.9</ele>
        <time>2013-12-07T15:22:31Z</time>
      </trkpt>
      <trkpt lat="43.92536" lon="7.26437">
        <ele>293.8</ele>
        <time>2013-12-07T15:22:33Z</time>
      </trkpt>
      <trkpt lat="43.92542" lon="7.26434">
        <ele>294.2</ele>
        <time>2013-12-07T15:22:35Z</time>
      </trkpt>
      <trkpt lat="43.92548" lon="7.26431">
        <ele>294.9</ele>
        <time>2013-12-07T15:22:37Z</time>
      </trkpt>
      <trkpt lat="43.92554" lon="7.26428">
        <ele>295.4</ele>
        <time>2013-12-07T15:22:39Z</time>
      </trkpt>
      <trkpt lat="43.9256" lon="7.26425">
        <ele>295.9</ele>
        <time>2013-12-07T15:22:41Z</time>
      </trkpt>
      <trkpt lat="43.92567" lon="7.26424">
        <ele>296.3</ele>
        <time>2013-12-07T15:22:43Z</time>
      </trkpt>
      <trkpt lat="43.92574" lon="7.26424">
        <ele>296.6</ele>
        <time>2013-12-07T15:22:45Z</time>
      </trkpt>
      <trkpt lat="43.9258" lon="7.26428">
        <ele>296.7</ele>
        <time>2013-12-07T15:22:47Z</time>
      </trkpt>
      <trkpt lat="43.92585" lon="7.26434">
        <ele>296.7</ele>
        <time>2013-12-07T15:22:49Z</time>
      </trkpt>
      <trkpt lat="43.9259" lon="7.2644">
        <ele>297.5</ele>
        <time>2013-12-07T15:22:51Z</time>
      </trkpt>
      <trkpt lat="43.92595" lon="7.26447">
        <ele>297.9</ele>
        <time>2013-12-07T15:22:53Z</time>
      </trkpt>
      <trkpt lat="43.926" lon="7.26454">
        <ele>298.4</ele>
        <time>2013-12-07T15:22:55Z</time>
      </trkpt>
      <trkpt lat="43.92604" lon="7.26461">
        <ele>298.8</ele>
        <time>2013-12-07T15:22:57Z</time>
      </trkpt>
      <trkpt lat="43.92609" lon="7.26468">
        <ele>299.2</ele>
        <time>2013-12-07T15:22:59Z</time>
      </trkpt>
      <trkpt lat="43.92614" lon="7.26476">
        <ele>299.4</ele>
        <time>2013-12-07T15:23:01Z</time>
      </trkpt>
      <trkpt lat="43.92619" lon="7.26483">
        <ele>299.5</ele>
        <time>2013-12-07T15:23:03Z</time>
      </trkpt>
      <trkpt lat="43.92625" lon="7.26489">
        <ele>300.4</ele>
        <time>2013-12-07T15:23:05Z</time>
      </trkpt>
      <trkpt lat="43.9263" lon="7.26495">
        <ele>300.7</ele>
        <time>2013-12-07T15:23:07Z</time>
      </trkpt>
      <trkpt lat="43.92635" lon="7.265">
        <ele>300.8</ele>
        <time>2013-12-07T15:23:09Z</time>
      </trkpt>
      <trkpt lat="43.92641" lon="7.26505">
        <ele>301.4</ele>
        <time>2013-12-07T15:23:11Z</time>
      </trkpt>
      <trkpt lat="43.92647" lon="7.2651">
        <ele>301.8</ele>
        <time>2013-12-07T15:23:13Z</time>
      </trkpt>
      <trkpt lat="43.92653" lon="7.26514">
        <ele>301.8</ele>
        <time>2013-12-07T15:23:15Z</time>
      </trkpt>
      <trkpt lat="43.92659" lon="7.26519">
        <ele>302.1</ele>
        <time>2013-12-07T15:23:17Z</time>
      </trkpt>
      <trkpt lat="43.92665" lon="7.26523">
        <ele>302.9</ele>
        <time>2013-12-07T15:23:19Z</time>
      </trkpt>
      <trkpt lat="43.92671" lon="7.26528">
        <ele>303.1</ele>
        <time>2013-12-07T15:23:21Z</time>
      </trkpt>
      <trkpt lat="43.92674" lon="7.2653">
        <ele>303</ele>
        <time>2013-12-07T15:23:22Z</time>
      </trkpt>
      <trkpt lat="43.92683" lon="7.26538">
        <ele>303.7</ele>
        <time>2013-12-07T15:23:25Z</time>
      </trkpt>
      <trkpt lat="43.92688" lon="7.26544">
        <ele>304</ele>
        <time>2013-12-07T15:23:27Z</time>
      </trkpt>
      <trkpt lat="43.92694" lon="7.26551">
        <ele>303.9</ele>
        <time>2013-12-07T15:23:29Z</time>
      </trkpt>
      <trkpt lat="43.92699" lon="7.26558">
        <ele>304.4</ele>
        <time>2013-12-07T15:23:31Z</time>
      </trkpt>
      <trkpt lat="43.92704" lon="7.26565">
        <ele>304</ele>
        <time>2013-12-07T15:23:33Z</time>
      </trkpt>
      <trkpt lat="43.9271" lon="7.26572">
        <ele>304</ele>
        <time>2013-12-07T15:23:35Z</time>
      </trkpt>
      <trkpt lat="43.92716" lon="7.26578">
        <ele>304.4</ele>
        <time>2013-12-07T15:23:37Z</time>
      </trkpt>
      <trkpt lat="43.92723" lon="7.26584">
        <ele>304.8</ele>
        <time>2013-12-07T15:23:39Z</time>
      </trkpt>
      <trkpt lat="43.9273" lon="7.26588">
        <ele>304.9</ele>
        <time>2013-12-07T15:23:41Z</time>
      </trkpt>
      <trkpt lat="43.92737" lon="7.26593">
        <ele>305</ele>
        <time>2013-12-07T15:23:43Z</time>
      </trkpt>
      <trkpt lat="43.92745" lon="7.26598">
        <ele>305.2</ele>
        <time>2013-12-07T15:23:45Z</time>
      </trkpt>
      <trkpt lat="43.92752" lon="7.26602">
        <ele>305.3</ele>
        <time>2013-12-07T15:23:47Z</time>
      </trkpt>
      <trkpt lat="43.9276" lon="7.26606">
        <ele>305.6</ele>
        <time>2013-12-07T15:23:49Z</time>
      </trkpt>
      <trkpt lat="43.92768" lon="7.26609">
        <ele>305.5</ele>
        <time>2013-12-07T15:23:51Z</time>
      </trkpt>
      <trkpt lat="43.92776" lon="7.26611">
        <ele>305.2</ele>
        <time>2013-12-07T15:23:53Z</time>
      </trkpt>
      <trkpt lat="43.92784" lon="7.26613">
        <ele>305.4</ele>
        <time>2013-12-07T15:23:55Z</time>
      </trkpt>
      <trkpt lat="43.92793" lon="7.26614">
        <ele>305.5</ele>
        <time>2013-12-07T15:23:57Z</time>
      </trkpt>
      <trkpt lat="43.92798" lon="7.26616">
        <ele>305.6</ele>
        <time>2013-12-07T15:23:58Z</time>
      </trkpt>
      <trkpt lat="43.92813" lon="7.26618">
        <ele>305</ele>
        <time>2013-12-07T15:24:01Z</time>
      </trkpt>
      <trkpt lat="43.9282" lon="7.26618">
        <ele>305.8</ele>
        <time>2013-12-07T15:24:03Z</time>
      </trkpt>
      <trkpt lat="43.9284" lon="7.2662">
        <ele>305</ele>
        <time>2013-12-07T15:24:07Z</time>
      </trkpt>
      <trkpt lat="43.92857" lon="7.2662">
        <ele>305</ele>
        <time>2013-12-07T15:24:11Z</time>
      </trkpt>
      <trkpt lat="43.92875" lon="7.26622">
        <ele>305</ele>
        <time>2013-12-07T15:24:15Z</time>
      </trkpt>
      <trkpt lat="43.92892" lon="7.26627">
        <ele>306</ele>
        <time>2013-12-07T15:24:19Z</time>
      </trkpt>
      <trkpt lat="43.9291" lon="7.26633">
        <ele>306</ele>
        <time>2013-12-07T15:24:23Z</time>
      </trkpt>
      <trkpt lat="43.92917" lon="7.26635">
        <ele>306.7</ele>
        <time>2013-12-07T15:24:25Z</time>
      </trkpt>
      <trkpt lat="43.92921" lon="7.26635">
        <ele>306.5</ele>
        <time>2013-12-07T15:24:26Z</time>
      </trkpt>
      <trkpt lat="43.92926" lon="7.26634">
        <ele>306.4</ele>
        <time>2013-12-07T15:24:27Z</time>
      </trkpt>
      <trkpt lat="43.92931" lon="7.26632">
        <ele>306.4</ele>
        <time>2013-12-07T15:24:28Z</time>
      </trkpt>
      <trkpt lat="43.92936" lon="7.2663">
        <ele>306.3</ele>
        <time>2013-12-07T15:24:29Z</time>
      </trkpt>
      <trkpt lat="43.92941" lon="7.26627">
        <ele>306.3</ele>
        <time>2013-12-07T15:24:30Z</time>
      </trkpt>
      <trkpt lat="43.92958" lon="7.26616">
        <ele>305</ele>
        <time>2013-12-07T15:24:33Z</time>
      </trkpt>
      <trkpt lat="43.92987" lon="7.26596">
        <ele>304</ele>
        <time>2013-12-07T15:24:39Z</time>
      </trkpt>
      <trkpt lat="43.93018" lon="7.26578">
        <ele>302</ele>
        <time>2013-12-07T15:24:45Z</time>
      </trkpt>
      <trkpt lat="43.93039" lon="7.26569">
        <ele>302</ele>
        <time>2013-12-07T15:24:49Z</time>
      </trkpt>
      <trkpt lat="43.93061" lon="7.26567">
        <ele>302</ele>
        <time>2013-12-07T15:24:53Z</time>
      </trkpt>
      <trkpt lat="43.93083" lon="7.2657">
        <ele>301</ele>
        <time>2013-12-07T15:24:57Z</time>
      </trkpt>
      <trkpt lat="43.93104" lon="7.26578">
        <ele>301</ele>
        <time>2013-12-07T15:25:01Z</time>
      </trkpt>
      <trkpt lat="43.93126" lon="7.26586">
        <ele>300</ele>
        <time>2013-12-07T15:25:05Z</time>
      </trkpt>
      <trkpt lat="43.93148" lon="7.2659">
        <ele>300</ele>
        <time>2013-12-07T15:25:09Z</time>
      </trkpt>
      <trkpt lat="43.9317" lon="7.2659">
        <ele>299</ele>
        <time>2013-12-07T15:25:13Z</time>
      </trkpt>
      <trkpt lat="43.93193" lon="7.26587">
        <ele>298</ele>
        <time>2013-12-07T15:25:17Z</time>
      </trkpt>
      <trkpt lat="43.93215" lon="7.26583">
        <ele>298</ele>
        <time>2013-12-07T15:25:21Z</time>
      </trkpt>
      <trkpt lat="43.93238" lon="7.26576">
        <ele>297</ele>
        <time>2013-12-07T15:25:25Z</time>
      </trkpt>
      <trkpt lat="43.93247" lon="7.26572">
        <ele>297.8</ele>
        <time>2013-12-07T15:25:27Z</time>
      </trkpt>
      <trkpt lat="43.93287" lon="7.26557">
        <ele>297</ele>
        <time>2013-12-07T15:25:33Z</time>
      </trkpt>
      <trkpt lat="43.9331" lon="7.2655">
        <ele>297</ele>
        <time>2013-12-07T15:25:37Z</time>
      </trkpt>
      <trkpt lat="43.93318" lon="7.26548">
        <ele>298.2</ele>
        <time>2013-12-07T15:25:39Z</time>
      </trkpt>
      <trkpt lat="43.93323" lon="7.26546">
        <ele>298.6</ele>
        <time>2013-12-07T15:25:40Z</time>
      </trkpt>
      <trkpt lat="43.93328" lon="7.26543">
        <ele>298.8</ele>
        <time>2013-12-07T15:25:41Z</time>
      </trkpt>
      <trkpt lat="43.93332" lon="7.26539">
        <ele>299</ele>
        <time>2013-12-07T15:25:42Z</time>
      </trkpt>
      <trkpt lat="43.93336" lon="7.26534">
        <ele>298.7</ele>
        <time>2013-12-07T15:25:43Z</time>
      </trkpt>
      <trkpt lat="43.9334" lon="7.26529">
        <ele>298.4</ele>
        <time>2013-12-07T15:25:44Z</time>
      </trkpt>
      <trkpt lat="43.93344" lon="7.26524">
        <ele>298.2</ele>
        <time>2013-12-07T15:25:45Z</time>
      </trkpt>
      <trkpt lat="43.93348" lon="7.26519">
        <ele>298.1</ele>
        <time>2013-12-07T15:25:46Z</time>
      </trkpt>
      <trkpt lat="43.93352" lon="7.26515">
        <ele>298</ele>
        <time>2013-12-07T15:25:47Z</time>
      </trkpt>
      <trkpt lat="43.93356" lon="7.2651">
        <ele>298</ele>
        <time>2013-12-07T15:25:48Z</time>
      </trkpt>
      <trkpt lat="43.93363" lon="7.26504">
        <ele>298.2</ele>
        <time>2013-12-07T15:25:50Z</time>
      </trkpt>
      <trkpt lat="43.9337" lon="7.26498">
        <ele>298.5</ele>
        <time>2013-12-07T15:25:52Z</time>
      </trkpt>
      <trkpt lat="43.93377" lon="7.26493">
        <ele>298.8</ele>
        <time>2013-12-07T15:25:54Z</time>
      </trkpt>
      <trkpt lat="43.93384" lon="7.26488">
        <ele>299.1</ele>
        <time>2013-12-07T15:25:56Z</time>
      </trkpt>
      <trkpt lat="43.9339" lon="7.26483">
        <ele>298.7</ele>
        <time>2013-12-07T15:25:58Z</time>
      </trkpt>
      <trkpt lat="43.93396" lon="7.26479">
        <ele>298.4</ele>
        <time>2013-12-07T15:26:00Z</time>
      </trkpt>
      <trkpt lat="43.93404" lon="7.26476">
        <ele>298.7</ele>
        <time>2013-12-07T15:26:03Z</time>
      </trkpt>
      <trkpt lat="43.93414" lon="7.26472">
        <ele>299</ele>
        <time>2013-12-07T15:26:07Z</time>
      </trkpt>
      <trkpt lat="43.93421" lon="7.26469">
        <ele>299.2</ele>
        <time>2013-12-07T15:26:11Z</time>
      </trkpt>
      <trkpt lat="43.9343" lon="7.26465">
        <ele>299</ele>
        <time>2013-12-07T15:26:14Z</time>
      </trkpt>
      <trkpt lat="43.93441" lon="7.26465">
        <ele>299</ele>
        <time>2013-12-07T15:26:18Z</time>
      </trkpt>
      <trkpt lat="43.93452" lon="7.26471">
        <ele>300</ele>
        <time>2013-12-07T15:26:22Z</time>
      </trkpt>
      <trkpt lat="43.93463" lon="7.2648">
        <ele>300</ele>
        <time>2013-12-07T15:26:26Z</time>
      </trkpt>
      <trkpt lat="43.93468" lon="7.26484">
        <ele>301.2</ele>
        <time>2013-12-07T15:26:28Z</time>
      </trkpt>
      <trkpt lat="43.93477" lon="7.26488">
        <ele>301.7</ele>
        <time>2013-12-07T15:26:31Z</time>
      </trkpt>
      <trkpt lat="43.93483" lon="7.26491">
        <ele>302</ele>
        <time>2013-12-07T15:26:33Z</time>
      </trkpt>
      <trkpt lat="43.9349" lon="7.26495">
        <ele>302.3</ele>
        <time>2013-12-07T15:26:35Z</time>
      </trkpt>
      <trkpt lat="43.93496" lon="7.265">
        <ele>302.2</ele>
        <time>2013-12-07T15:26:37Z</time>
      </trkpt>
      <trkpt lat="43.93501" lon="7.26504">
        <ele>301.8</ele>
        <time>2013-12-07T15:26:39Z</time>
      </trkpt>
      <trkpt lat="43.93506" lon="7.2651">
        <ele>302.8</ele>
        <time>2013-12-07T15:26:41Z</time>
      </trkpt>
      <trkpt lat="43.93511" lon="7.26517">
        <ele>302.9</ele>
        <time>2013-12-07T15:26:43Z</time>
      </trkpt>
      <trkpt lat="43.93515" lon="7.26523">
        <ele>303.2</ele>
        <time>2013-12-07T15:26:45Z</time>
      </trkpt>
      <trkpt lat="43.93518" lon="7.26532">
        <ele>303.4</ele>
        <time>2013-12-07T15:26:47Z</time>
      </trkpt>
      <trkpt lat="43.93521" lon="7.2654">
        <ele>303.7</ele>
        <time>2013-12-07T15:26:49Z</time>
      </trkpt>
      <trkpt lat="43.93525" lon="7.26548">
        <ele>304.3</ele>
        <time>2013-12-07T15:26:51Z</time>
      </trkpt>
      <trkpt lat="43.93527" lon="7.26556">
        <ele>304.5</ele>
        <time>2013-12-07T15:26:53Z</time>
      </trkpt>
      <trkpt lat="43.9353" lon="7.26564">
        <ele>304.8</ele>
        <time>2013-12-07T15:26:55Z</time>
      </trkpt>
      <trkpt lat="43.93533" lon="7.26572">
        <ele>304.9</ele>
        <time>2013-12-07T15:26:57Z</time>
      </trkpt>
      <trkpt lat="43.93536" lon="7.2658">
        <ele>305.2</ele>
        <time>2013-12-07T15:26:59Z</time>
      </trkpt>
      <trkpt lat="43.93539" lon="7.26588">
        <ele>305.4</ele>
        <time>2013-12-07T15:27:01Z</time>
      </trkpt>
      <trkpt lat="43.93541" lon="7.26597">
        <ele>305.3</ele>
        <time>2013-12-07T15:27:03Z</time>
      </trkpt>
      <trkpt lat="43.93545" lon="7.26617">
        <ele>306</ele>
        <time>2013-12-07T15:27:07Z</time>
      </trkpt>
      <trkpt lat="43.9355" lon="7.26639">
        <ele>307</ele>
        <time>2013-12-07T15:27:12Z</time>
      </trkpt>
      <trkpt lat="43.93553" lon="7.26656">
        <ele>308</ele>
        <time>2013-12-07T15:27:16Z</time>
      </trkpt>
      <trkpt lat="43.93556" lon="7.26673">
        <ele>309</ele>
        <time>2013-12-07T15:27:20Z</time>
      </trkpt>
      <trkpt lat="43.93559" lon="7.2669">
        <ele>309</ele>
        <time>2013-12-07T15:27:24Z</time>
      </trkpt>
      <trkpt lat="43.93561" lon="7.26707">
        <ele>310</ele>
        <time>2013-12-07T15:27:28Z</time>
      </trkpt>
      <trkpt lat="43.93562" lon="7.26713">
        <ele>310.8</ele>
        <time>2013-12-07T15:27:30Z</time>
      </trkpt>
      <trkpt lat="43.93564" lon="7.26726">
        <ele>311</ele>
        <time>2013-12-07T15:27:33Z</time>
      </trkpt>
      <trkpt lat="43.93563" lon="7.26738">
        <ele>312.4</ele>
        <time>2013-12-07T15:27:36Z</time>
      </trkpt>
      <trkpt lat="43.93564" lon="7.26746">
        <ele>312.2</ele>
        <time>2013-12-07T15:27:38Z</time>
      </trkpt>
      <trkpt lat="43.93567" lon="7.26762">
        <ele>312</ele>
        <time>2013-12-07T15:27:41Z</time>
      </trkpt>
      <trkpt lat="43.93568" lon="7.2678">
        <ele>312</ele>
        <time>2013-12-07T15:27:45Z</time>
      </trkpt>
      <trkpt lat="43.93566" lon="7.26791">
        <ele>312.6</ele>
        <time>2013-12-07T15:27:48Z</time>
      </trkpt>
      <trkpt lat="43.93567" lon="7.26813">
        <ele>313</ele>
        <time>2013-12-07T15:27:52Z</time>
      </trkpt>
      <trkpt lat="43.9357" lon="7.26832">
        <ele>314</ele>
        <time>2013-12-07T15:27:56Z</time>
      </trkpt>
      <trkpt lat="43.93572" lon="7.26839">
        <ele>314.4</ele>
        <time>2013-12-07T15:27:58Z</time>
      </trkpt>
      <trkpt lat="43.93574" lon="7.26849">
        <ele>315</ele>
        <time>2013-12-07T15:28:00Z</time>
      </trkpt>
      <trkpt lat="43.93575" lon="7.26858">
        <ele>315.4</ele>
        <time>2013-12-07T15:28:02Z</time>
      </trkpt>
      <trkpt lat="43.9358" lon="7.26882">
        <ele>316</ele>
        <time>2013-12-07T15:28:06Z</time>
      </trkpt>
      <trkpt lat="43.93583" lon="7.2689">
        <ele>316.3</ele>
        <time>2013-12-07T15:28:08Z</time>
      </trkpt>
      <trkpt lat="43.93584" lon="7.26896">
        <ele>316.2</ele>
        <time>2013-12-07T15:28:09Z</time>
      </trkpt>
      <trkpt lat="43.93586" lon="7.26902">
        <ele>316.3</ele>
        <time>2013-12-07T15:28:10Z</time>
      </trkpt>
      <trkpt lat="43.93596" lon="7.26922">
        <ele>316</ele>
        <time>2013-12-07T15:28:13Z</time>
      </trkpt>
      <trkpt lat="43.93609" lon="7.26947">
        <ele>316</ele>
        <time>2013-12-07T15:28:17Z</time>
      </trkpt>
      <trkpt lat="43.93619" lon="7.26969">
        <ele>317</ele>
        <time>2013-12-07T15:28:21Z</time>
      </trkpt>
      <trkpt lat="43.93625" lon="7.26991">
        <ele>317</ele>
        <time>2013-12-07T15:28:25Z</time>
      </trkpt>
      <trkpt lat="43.93628" lon="7.27013">
        <ele>317</ele>
        <time>2013-12-07T15:28:29Z</time>
      </trkpt>
      <trkpt lat="43.93628" lon="7.2702">
        <ele>318</ele>
        <time>2013-12-07T15:28:31Z</time>
      </trkpt>
      <trkpt lat="43.93628" lon="7.27041">
        <ele>318.6</ele>
        <time>2013-12-07T15:28:35Z</time>
      </trkpt>
      <trkpt lat="43.93627" lon="7.27051">
        <ele>318.2</ele>
        <time>2013-12-07T15:28:37Z</time>
      </trkpt>
      <trkpt lat="43.93626" lon="7.27061">
        <ele>318.7</ele>
        <time>2013-12-07T15:28:39Z</time>
      </trkpt>
      <trkpt lat="43.93625" lon="7.27071">
        <ele>318.7</ele>
        <time>2013-12-07T15:28:41Z</time>
      </trkpt>
      <trkpt lat="43.93624" lon="7.27081">
        <ele>319.1</ele>
        <time>2013-12-07T15:28:43Z</time>
      </trkpt>
      <trkpt lat="43.93624" lon="7.27092">
        <ele>319.7</ele>
        <time>2013-12-07T15:28:45Z</time>
      </trkpt>
      <trkpt lat="43.93623" lon="7.27102">
        <ele>319.7</ele>
        <time>2013-12-07T15:28:47Z</time>
      </trkpt>
      <trkpt lat="43.93622" lon="7.27112">
        <ele>319.6</ele>
        <time>2013-12-07T15:28:49Z</time>
      </trkpt>
      <trkpt lat="43.9362" lon="7.27122">
        <ele>320</ele>
        <time>2013-12-07T15:28:51Z</time>
      </trkpt>
      <trkpt lat="43.93619" lon="7.27132">
        <ele>320.4</ele>
        <time>2013-12-07T15:28:53Z</time>
      </trkpt>
      <trkpt lat="43.93618" lon="7.27142">
        <ele>320.6</ele>
        <time>2013-12-07T15:28:55Z</time>
      </trkpt>
      <trkpt lat="43.93617" lon="7.27152">
        <ele>320.6</ele>
        <time>2013-12-07T15:28:57Z</time>
      </trkpt>
      <trkpt lat="43.93617" lon="7.27161">
        <ele>320.5</ele>
        <time>2013-12-07T15:28:59Z</time>
      </trkpt>
      <trkpt lat="43.93619" lon="7.2717">
        <ele>320.7</ele>
        <time>2013-12-07T15:29:01Z</time>
      </trkpt>
      <trkpt lat="43.93622" lon="7.27179">
        <ele>321</ele>
        <time>2013-12-07T15:29:03Z</time>
      </trkpt>
      <trkpt lat="43.93625" lon="7.27188">
        <ele>321.1</ele>
        <time>2013-12-07T15:29:05Z</time>
      </trkpt>
      <trkpt lat="43.93628" lon="7.27197">
        <ele>321.2</ele>
        <time>2013-12-07T15:29:07Z</time>
      </trkpt>
      <trkpt lat="43.93629" lon="7.27206">
        <ele>321.4</ele>
        <time>2013-12-07T15:29:09Z</time>
      </trkpt>
      <trkpt lat="43.93628" lon="7.27215">
        <ele>321.7</ele>
        <time>2013-12-07T15:29:11Z</time>
      </trkpt>
      <trkpt lat="43.93628" lon="7.27224">
        <ele>321.5</ele>
        <time>2013-12-07T15:29:13Z</time>
      </trkpt>
      <trkpt lat="43.93629" lon="7.27236">
        <ele>321.6</ele>
        <time>2013-12-07T15:29:15Z</time>
      </trkpt>
      <trkpt lat="43.9363" lon="7.27247">
        <ele>321.8</ele>
        <time>2013-12-07T15:29:17Z</time>
      </trkpt>
      <trkpt lat="43.9363" lon="7.27259">
        <ele>322.1</ele>
        <time>2013-12-07T15:29:19Z</time>
      </trkpt>
      <trkpt lat="43.93631" lon="7.2727">
        <ele>322.5</ele>
        <time>2013-12-07T15:29:21Z</time>
      </trkpt>
      <trkpt lat="43.93632" lon="7.27282">
        <ele>322.8</ele>
        <time>2013-12-07T15:29:23Z</time>
      </trkpt>
      <trkpt lat="43.93633" lon="7.27293">
        <ele>322.7</ele>
        <time>2013-12-07T15:29:25Z</time>
      </trkpt>
      <trkpt lat="43.93636" lon="7.27319">
        <ele>322</ele>
        <time>2013-12-07T15:29:29Z</time>
      </trkpt>
      <trkpt lat="43.93639" lon="7.27341">
        <ele>323</ele>
        <time>2013-12-07T15:29:33Z</time>
      </trkpt>
      <trkpt lat="43.9364" lon="7.2735">
        <ele>323.6</ele>
        <time>2013-12-07T15:29:35Z</time>
      </trkpt>
      <trkpt lat="43.93647" lon="7.27386">
        <ele>323</ele>
        <time>2013-12-07T15:29:41Z</time>
      </trkpt>
      <trkpt lat="43.93653" lon="7.27407">
        <ele>323</ele>
        <time>2013-12-07T15:29:45Z</time>
      </trkpt>
      <trkpt lat="43.93655" lon="7.27415">
        <ele>324.4</ele>
        <time>2013-12-07T15:29:47Z</time>
      </trkpt>
      <trkpt lat="43.93659" lon="7.27425">
        <ele>324.5</ele>
        <time>2013-12-07T15:29:49Z</time>
      </trkpt>
      <trkpt lat="43.93668" lon="7.27447">
        <ele>324</ele>
        <time>2013-12-07T15:29:53Z</time>
      </trkpt>
      <trkpt lat="43.93671" lon="7.27454">
        <ele>325</ele>
        <time>2013-12-07T15:29:55Z</time>
      </trkpt>
      <trkpt lat="43.93676" lon="7.27463">
        <ele>325.2</ele>
        <time>2013-12-07T15:29:57Z</time>
      </trkpt>
      <trkpt lat="43.93681" lon="7.27472">
        <ele>325.3</ele>
        <time>2013-12-07T15:29:59Z</time>
      </trkpt>
      <trkpt lat="43.93686" lon="7.27481">
        <ele>325.5</ele>
        <time>2013-12-07T15:30:01Z</time>
      </trkpt>
      <trkpt lat="43.93691" lon="7.27489">
        <ele>325.4</ele>
        <time>2013-12-07T15:30:03Z</time>
      </trkpt>
      <trkpt lat="43.93696" lon="7.27498">
        <ele>325.4</ele>
        <time>2013-12-07T15:30:05Z</time>
      </trkpt>
      <trkpt lat="43.937" lon="7.27507">
        <ele>325.8</ele>
        <time>2013-12-07T15:30:07Z</time>
      </trkpt>
      <trkpt lat="43.93704" lon="7.27516">
        <ele>326.5</ele>
        <time>2013-12-07T15:30:09Z</time>
      </trkpt>
      <trkpt lat="43.93709" lon="7.27525">
        <ele>326.9</ele>
        <time>2013-12-07T15:30:11Z</time>
      </trkpt>
      <trkpt lat="43.93713" lon="7.27533">
        <ele>326.9</ele>
        <time>2013-12-07T15:30:13Z</time>
      </trkpt>
      <trkpt lat="43.93721" lon="7.27549">
        <ele>326</ele>
        <time>2013-12-07T15:30:16Z</time>
      </trkpt>
      <trkpt lat="43.93729" lon="7.27568">
        <ele>326</ele>
        <time>2013-12-07T15:30:20Z</time>
      </trkpt>
      <trkpt lat="43.93732" lon="7.27575">
        <ele>327.1</ele>
        <time>2013-12-07T15:30:22Z</time>
      </trkpt>
      <trkpt lat="43.93735" lon="7.27585">
        <ele>327.2</ele>
        <time>2013-12-07T15:30:24Z</time>
      </trkpt>
      <trkpt lat="43.93738" lon="7.27595">
        <ele>327.5</ele>
        <time>2013-12-07T15:30:26Z</time>
      </trkpt>
      <trkpt lat="43.93741" lon="7.27605">
        <ele>327.9</ele>
        <time>2013-12-07T15:30:28Z</time>
      </trkpt>
      <trkpt lat="43.93744" lon="7.27615">
        <ele>328</ele>
        <time>2013-12-07T15:30:30Z</time>
      </trkpt>
      <trkpt lat="43.93748" lon="7.27624">
        <ele>328</ele>
        <time>2013-12-07T15:30:32Z</time>
      </trkpt>
      <trkpt lat="43.93751" lon="7.27635">
        <ele>328.2</ele>
        <time>2013-12-07T15:30:34Z</time>
      </trkpt>
      <trkpt lat="43.93754" lon="7.27645">
        <ele>328.5</ele>
        <time>2013-12-07T15:30:36Z</time>
      </trkpt>
      <trkpt lat="43.93756" lon="7.2765">
        <ele>328.9</ele>
        <time>2013-12-07T15:30:37Z</time>
      </trkpt>
      <trkpt lat="43.93761" lon="7.27666">
        <ele>329.4</ele>
        <time>2013-12-07T15:30:40Z</time>
      </trkpt>
      <trkpt lat="43.93764" lon="7.27676">
        <ele>329.4</ele>
        <time>2013-12-07T15:30:42Z</time>
      </trkpt>
      <trkpt lat="43.93767" lon="7.27686">
        <ele>329.2</ele>
        <time>2013-12-07T15:30:44Z</time>
      </trkpt>
      <trkpt lat="43.93771" lon="7.27696">
        <ele>328.9</ele>
        <time>2013-12-07T15:30:46Z</time>
      </trkpt>
      <trkpt lat="43.93774" lon="7.27706">
        <ele>329.1</ele>
        <time>2013-12-07T15:30:48Z</time>
      </trkpt>
      <trkpt lat="43.93777" lon="7.27716">
        <ele>329.3</ele>
        <time>2013-12-07T15:30:50Z</time>
      </trkpt>
      <trkpt lat="43.9378" lon="7.27726">
        <ele>329.2</ele>
        <time>2013-12-07T15:30:52Z</time>
      </trkpt>
      <trkpt lat="43.93783" lon="7.27736">
        <ele>329.3</ele>
        <time>2013-12-07T15:30:54Z</time>
      </trkpt>
      <trkpt lat="43.93786" lon="7.27746">
        <ele>329.4</ele>
        <time>2013-12-07T15:30:56Z</time>
      </trkpt>
      <trkpt lat="43.9379" lon="7.27756">
        <ele>329.4</ele>
        <time>2013-12-07T15:30:58Z</time>
      </trkpt>
      <trkpt lat="43.93793" lon="7.27767">
        <ele>329.3</ele>
        <time>2013-12-07T15:31:00Z</time>
      </trkpt>
      <trkpt lat="43.93797" lon="7.27778">
        <ele>329.9</ele>
        <time>2013-12-07T15:31:02Z</time>
      </trkpt>
      <trkpt lat="43.938" lon="7.27788">
        <ele>330.1</ele>
        <time>2013-12-07T15:31:04Z</time>
      </trkpt>
      <trkpt lat="43.93804" lon="7.27799">
        <ele>330.4</ele>
        <time>2013-12-07T15:31:06Z</time>
      </trkpt>
      <trkpt lat="43.93809" lon="7.27809">
        <ele>330.7</ele>
        <time>2013-12-07T15:31:08Z</time>
      </trkpt>
      <trkpt lat="43.93813" lon="7.2782">
        <ele>330.7</ele>
        <time>2013-12-07T15:31:10Z</time>
      </trkpt>
      <trkpt lat="43.93817" lon="7.2783">
        <ele>330.8</ele>
        <time>2013-12-07T15:31:12Z</time>
      </trkpt>
      <trkpt lat="43.9382" lon="7.27841">
        <ele>331.5</ele>
        <time>2013-12-07T15:31:14Z</time>
      </trkpt>
      <trkpt lat="43.93822" lon="7.27852">
        <ele>331.3</ele>
        <time>2013-12-07T15:31:16Z</time>
      </trkpt>
      <trkpt lat="43.93824" lon="7.27864">
        <ele>331.3</ele>
        <time>2013-12-07T15:31:18Z</time>
      </trkpt>
      <trkpt lat="43.93824" lon="7.27875">
        <ele>331.6</ele>
        <time>2013-12-07T15:31:20Z</time>
      </trkpt>
      <trkpt lat="43.93823" lon="7.27887">
        <ele>331.8</ele>
        <time>2013-12-07T15:31:22Z</time>
      </trkpt>
      <trkpt lat="43.93821" lon="7.27898">
        <ele>331.7</ele>
        <time>2013-12-07T15:31:24Z</time>
      </trkpt>
      <trkpt lat="43.9382" lon="7.27909">
        <ele>332</ele>
        <time>2013-12-07T15:31:26Z</time>
      </trkpt>
      <trkpt lat="43.93819" lon="7.2792">
        <ele>331.7</ele>
        <time>2013-12-07T15:31:28Z</time>
      </trkpt>
      <trkpt lat="43.93819" lon="7.27932">
        <ele>332.1</ele>
        <time>2013-12-07T15:31:30Z</time>
      </trkpt>
      <trkpt lat="43.93819" lon="7.27943">
        <ele>332.4</ele>
        <time>2013-12-07T15:31:32Z</time>
      </trkpt>
      <trkpt lat="43.93819" lon="7.27954">
        <ele>332.5</ele>
        <time>2013-12-07T15:31:34Z</time>
      </trkpt>
      <trkpt lat="43.9382" lon="7.27966">
        <ele>332.7</ele>
        <time>2013-12-07T15:31:36Z</time>
      </trkpt>
      <trkpt lat="43.93819" lon="7.27977">
        <ele>332.9</ele>
        <time>2013-12-07T15:31:38Z</time>
      </trkpt>
      <trkpt lat="43.93819" lon="7.27982">
        <ele>332.9</ele>
        <time>2013-12-07T15:31:39Z</time>
      </trkpt>
      <trkpt lat="43.93818" lon="7.28">
        <ele>333.5</ele>
        <time>2013-12-07T15:31:42Z</time>
      </trkpt>
      <trkpt lat="43.93816" lon="7.28012">
        <ele>333.8</ele>
        <time>2013-12-07T15:31:44Z</time>
      </trkpt>
      <trkpt lat="43.93815" lon="7.28023">
        <ele>333.6</ele>
        <time>2013-12-07T15:31:46Z</time>
      </trkpt>
      <trkpt lat="43.93814" lon="7.28035">
        <ele>333.2</ele>
        <time>2013-12-07T15:31:48Z</time>
      </trkpt>
      <trkpt lat="43.93813" lon="7.28047">
        <ele>333</ele>
        <time>2013-12-07T15:31:50Z</time>
      </trkpt>
      <trkpt lat="43.93812" lon="7.28059">
        <ele>333.1</ele>
        <time>2013-12-07T15:31:52Z</time>
      </trkpt>
      <trkpt lat="43.93812" lon="7.28071">
        <ele>333.4</ele>
        <time>2013-12-07T15:31:54Z</time>
      </trkpt>
      <trkpt lat="43.93813" lon="7.28082">
        <ele>333.2</ele>
        <time>2013-12-07T15:31:56Z</time>
      </trkpt>
      <trkpt lat="43.93814" lon="7.28094">
        <ele>333.2</ele>
        <time>2013-12-07T15:31:58Z</time>
      </trkpt>
      <trkpt lat="43.93816" lon="7.28105">
        <ele>333.5</ele>
        <time>2013-12-07T15:32:00Z</time>
      </trkpt>
      <trkpt lat="43.93818" lon="7.28116">
        <ele>334</ele>
        <time>2013-12-07T15:32:02Z</time>
      </trkpt>
      <trkpt lat="43.93821" lon="7.28127">
        <ele>334.4</ele>
        <time>2013-12-07T15:32:04Z</time>
      </trkpt>
      <trkpt lat="43.93825" lon="7.28137">
        <ele>334.2</ele>
        <time>2013-12-07T15:32:06Z</time>
      </trkpt>
      <trkpt lat="43.93829" lon="7.28147">
        <ele>334.2</ele>
        <time>2013-12-07T15:32:08Z</time>
      </trkpt>
      <trkpt lat="43.93834" lon="7.28157">
        <ele>334.2</ele>
        <time>2013-12-07T15:32:10Z</time>
      </trkpt>
      <trkpt lat="43.9384" lon="7.28166">
        <ele>334.2</ele>
        <time>2013-12-07T15:32:12Z</time>
      </trkpt>
      <trkpt lat="43.93843" lon="7.28171">
        <ele>334.2</ele>
        <time>2013-12-07T15:32:13Z</time>
      </trkpt>
      <trkpt lat="43.93849" lon="7.2818">
        <ele>334</ele>
        <time>2013-12-07T15:32:15Z</time>
      </trkpt>
      <trkpt lat="43.93854" lon="7.28189">
        <ele>334.1</ele>
        <time>2013-12-07T15:32:17Z</time>
      </trkpt>
      <trkpt lat="43.9386" lon="7.28199">
        <ele>334.3</ele>
        <time>2013-12-07T15:32:19Z</time>
      </trkpt>
      <trkpt lat="43.93865" lon="7.28208">
        <ele>334.4</ele>
        <time>2013-12-07T15:32:21Z</time>
      </trkpt>
      <trkpt lat="43.93871" lon="7.28217">
        <ele>334</ele>
        <time>2013-12-07T15:32:23Z</time>
      </trkpt>
      <trkpt lat="43.93876" lon="7.28226">
        <ele>333.9</ele>
        <time>2013-12-07T15:32:25Z</time>
      </trkpt>
      <trkpt lat="43.93881" lon="7.28236">
        <ele>333.9</ele>
        <time>2013-12-07T15:32:27Z</time>
      </trkpt>
      <trkpt lat="43.93886" lon="7.28245">
        <ele>333.9</ele>
        <time>2013-12-07T15:32:29Z</time>
      </trkpt>
      <trkpt lat="43.93891" lon="7.28254">
        <ele>334</ele>
        <time>2013-12-07T15:32:31Z</time>
      </trkpt>
      <trkpt lat="43.93896" lon="7.28263">
        <ele>334.4</ele>
        <time>2013-12-07T15:32:33Z</time>
      </trkpt>
      <trkpt lat="43.93902" lon="7.28273">
        <ele>334.9</ele>
        <time>2013-12-07T15:32:35Z</time>
      </trkpt>
      <trkpt lat="43.93907" lon="7.28282">
        <ele>334.7</ele>
        <time>2013-12-07T15:32:37Z</time>
      </trkpt>
      <trkpt lat="43.93912" lon="7.28291">
        <ele>335.3</ele>
        <time>2013-12-07T15:32:39Z</time>
      </trkpt>
      <trkpt lat="43.93915" lon="7.28296">
        <ele>335.3</ele>
        <time>2013-12-07T15:32:40Z</time>
      </trkpt>
      <trkpt lat="43.93922" lon="7.28309">
        <ele>335.2</ele>
        <time>2013-12-07T15:32:43Z</time>
      </trkpt>
      <trkpt lat="43.93927" lon="7.28318">
        <ele>334.9</ele>
        <time>2013-12-07T15:32:45Z</time>
      </trkpt>
      <trkpt lat="43.93932" lon="7.28327">
        <ele>334.7</ele>
        <time>2013-12-07T15:32:47Z</time>
      </trkpt>
      <trkpt lat="43.93938" lon="7.28336">
        <ele>335.1</ele>
        <time>2013-12-07T15:32:49Z</time>
      </trkpt>
      <trkpt lat="43.93944" lon="7.28343">
        <ele>335.2</ele>
        <time>2013-12-07T15:32:51Z</time>
      </trkpt>
      <trkpt lat="43.93952" lon="7.28349">
        <ele>334.8</ele>
        <time>2013-12-07T15:32:53Z</time>
      </trkpt>
      <trkpt lat="43.93959" lon="7.28355">
        <ele>334.8</ele>
        <time>2013-12-07T15:32:55Z</time>
      </trkpt>
      <trkpt lat="43.93966" lon="7.28359">
        <ele>335.2</ele>
        <time>2013-12-07T15:32:57Z</time>
      </trkpt>
      <trkpt lat="43.93974" lon="7.28363">
        <ele>335.8</ele>
        <time>2013-12-07T15:32:59Z</time>
      </trkpt>
      <trkpt lat="43.93982" lon="7.28368">
        <ele>336.2</ele>
        <time>2013-12-07T15:33:01Z</time>
      </trkpt>
      <trkpt lat="43.9399" lon="7.28372">
        <ele>335.5</ele>
        <time>2013-12-07T15:33:03Z</time>
      </trkpt>
      <trkpt lat="43.93999" lon="7.28376">
        <ele>335.1</ele>
        <time>2013-12-07T15:33:05Z</time>
      </trkpt>
      <trkpt lat="43.94007" lon="7.28378">
        <ele>334.9</ele>
        <time>2013-12-07T15:33:07Z</time>
      </trkpt>
      <trkpt lat="43.94016" lon="7.28381">
        <ele>335</ele>
        <time>2013-12-07T15:33:09Z</time>
      </trkpt>
      <trkpt lat="43.94024" lon="7.28382">
        <ele>335</ele>
        <time>2013-12-07T15:33:11Z</time>
      </trkpt>
      <trkpt lat="43.94033" lon="7.28384">
        <ele>334.9</ele>
        <time>2013-12-07T15:33:13Z</time>
      </trkpt>
      <trkpt lat="43.94041" lon="7.28384">
        <ele>334.7</ele>
        <time>2013-12-07T15:33:15Z</time>
      </trkpt>
      <trkpt lat="43.94049" lon="7.28383">
        <ele>335.1</ele>
        <time>2013-12-07T15:33:17Z</time>
      </trkpt>
      <trkpt lat="43.94058" lon="7.28381">
        <ele>335.9</ele>
        <time>2013-12-07T15:33:19Z</time>
      </trkpt>
      <trkpt lat="43.94066" lon="7.28378">
        <ele>336.1</ele>
        <time>2013-12-07T15:33:21Z</time>
      </trkpt>
      <trkpt lat="43.94075" lon="7.28376">
        <ele>335.6</ele>
        <time>2013-12-07T15:33:23Z</time>
      </trkpt>
      <trkpt lat="43.94083" lon="7.28373">
        <ele>335.2</ele>
        <time>2013-12-07T15:33:25Z</time>
      </trkpt>
      <trkpt lat="43.94091" lon="7.2837">
        <ele>335.7</ele>
        <time>2013-12-07T15:33:27Z</time>
      </trkpt>
      <trkpt lat="43.941" lon="7.28368">
        <ele>336.2</ele>
        <time>2013-12-07T15:33:29Z</time>
      </trkpt>
      <trkpt lat="43.94108" lon="7.28366">
        <ele>336.3</ele>
        <time>2013-12-07T15:33:31Z</time>
      </trkpt>
      <trkpt lat="43.94116" lon="7.28363">
        <ele>336.1</ele>
        <time>2013-12-07T15:33:33Z</time>
      </trkpt>
      <trkpt lat="43.94124" lon="7.28361">
        <ele>336.1</ele>
        <time>2013-12-07T15:33:35Z</time>
      </trkpt>
      <trkpt lat="43.94132" lon="7.28358">
        <ele>336.2</ele>
        <time>2013-12-07T15:33:37Z</time>
      </trkpt>
      <trkpt lat="43.9414" lon="7.28356">
        <ele>336</ele>
        <time>2013-12-07T15:33:39Z</time>
      </trkpt>
      <trkpt lat="43.94148" lon="7.28352">
        <ele>336.3</ele>
        <time>2013-12-07T15:33:41Z</time>
      </trkpt>
      <trkpt lat="43.94152" lon="7.28349">
        <ele>336.6</ele>
        <time>2013-12-07T15:33:42Z</time>
      </trkpt>
      <trkpt lat="43.94163" lon="7.2834">
        <ele>336.9</ele>
        <time>2013-12-07T15:33:45Z</time>
      </trkpt>
      <trkpt lat="43.9417" lon="7.28334">
        <ele>336.7</ele>
        <time>2013-12-07T15:33:47Z</time>
      </trkpt>
      <trkpt lat="43.94178" lon="7.28328">
        <ele>336.5</ele>
        <time>2013-12-07T15:33:49Z</time>
      </trkpt>
      <trkpt lat="43.94185" lon="7.28322">
        <ele>336.5</ele>
        <time>2013-12-07T15:33:51Z</time>
      </trkpt>
      <trkpt lat="43.94192" lon="7.28316">
        <ele>336.1</ele>
        <time>2013-12-07T15:33:53Z</time>
      </trkpt>
      <trkpt lat="43.94199" lon="7.28309">
        <ele>336.4</ele>
        <time>2013-12-07T15:33:55Z</time>
      </trkpt>
      <trkpt lat="43.94206" lon="7.28303">
        <ele>336.7</ele>
        <time>2013-12-07T15:33:57Z</time>
      </trkpt>
      <trkpt lat="43.94214" lon="7.28298">
        <ele>336.6</ele>
        <time>2013-12-07T15:33:59Z</time>
      </trkpt>
      <trkpt lat="43.94221" lon="7.28293">
        <ele>336.6</ele>
        <time>2013-12-07T15:34:01Z</time>
      </trkpt>
      <trkpt lat="43.94228" lon="7.28288">
        <ele>336.5</ele>
        <time>2013-12-07T15:34:03Z</time>
      </trkpt>
      <trkpt lat="43.94235" lon="7.28284">
        <ele>336.5</ele>
        <time>2013-12-07T15:34:05Z</time>
      </trkpt>
      <trkpt lat="43.94242" lon="7.28281">
        <ele>336.5</ele>
        <time>2013-12-07T15:34:07Z</time>
      </trkpt>
      <trkpt lat="43.94249" lon="7.28282">
        <ele>336.7</ele>
        <time>2013-12-07T15:34:09Z</time>
      </trkpt>
      <trkpt lat="43.94257" lon="7.28284">
        <ele>337</ele>
        <time>2013-12-07T15:34:12Z</time>
      </trkpt>
      <trkpt lat="43.94265" lon="7.28283">
        <ele>337.1</ele>
        <time>2013-12-07T15:34:22Z</time>
      </trkpt>
      <trkpt lat="43.94274" lon="7.28283">
        <ele>336.1</ele>
        <time>2013-12-07T15:35:07Z</time>
      </trkpt>
      <trkpt lat="43.94274" lon="7.28283">
        <ele>336.1</ele>
        <time>2013-12-07T15:35:08Z</time>
      </trkpt>
      <trkpt lat="43.9428" lon="7.28297">
        <ele>337.7</ele>
        <time>2013-12-07T15:36:11Z</time>
      </trkpt>
    </trkseg>
  </trk>
</gpx>